Wetterdaten: Mittwoch, 06.06.2018
Datum Zeit Temp. A. Pool Temp. Feuchte A. Luftdruck Regen Wind Richtung Richtung Sonnenschein ET UV Solar Taupunkt Windchill Windben Empfang
06.06.2018 00:00 20,2 C 25,6 C 74 % 1008,8 hPa 0,0 l/m 7,8 km/h (2 Bft) O-NO 69 0 min 0,000 mm 0,0 UV-I 0 W/m 15,4 C 19,6 C 11,3 km/h (2 Bft) 91,67 %
06.06.2018 00:01 20,3 C 25,6 C 74 % 1008,8 hPa 0,0 l/m 6,8 km/h (2 Bft) O-NO 59 0 min 0,000 mm 0,0 UV-I 0 W/m 15,5 C 20,1 C 9,7 km/h (2 Bft) 91,67 %
06.06.2018 00:02 20,3 C 25,6 C 74 % 1008,8 hPa 0,0 l/m 6,4 km/h (2 Bft) NO 46 0 min 0,000 mm 0,0 UV-I 0 W/m 15,5 C 20,3 C 8,0 km/h (2 Bft) 100,00 %
06.06.2018 00:03 20,3 C 25,6 C 74 % 1008,8 hPa 0,0 l/m 6,4 km/h (2 Bft) NO 40 0 min 0,000 mm 0,0 UV-I 0 W/m 15,5 C 20,3 C 8,0 km/h (2 Bft) 100,00 %
06.06.2018 00:04 20,3 C 25,6 C 74 % 1008,7 hPa 0,0 l/m 6,4 km/h (2 Bft) O 81 0 min 0,000 mm 0,0 UV-I 0 W/m 15,5 C 20,3 C 9,7 km/h (2 Bft) 100,00 %
06.06.2018 00:05 20,3 C 25,6 C 74 % 1008,7 hPa 0,0 l/m 5,5 km/h (1 Bft) O-NO 71 0 min 0,000 mm 0,0 UV-I 0 W/m 15,5 C 20,3 C 8,0 km/h (2 Bft) 95,65 %
06.06.2018 00:06 20,3 C 25,6 C 74 % 1008,7 hPa 0,0 l/m 6,8 km/h (2 Bft) O 82 0 min 0,000 mm 0,0 UV-I 0 W/m 15,5 C 20,1 C 11,3 km/h (2 Bft) 100,00 %
06.06.2018 00:07 20,3 C 25,6 C 74 % 1008,6 hPa 0,0 l/m 5,1 km/h (1 Bft) O-NO 57 0 min 0,000 mm 0,0 UV-I 0 W/m 15,5 C 20,3 C 6,4 km/h (2 Bft) 100,00 %
06.06.2018 00:08 20,3 C 25,6 C 74 % 1008,6 hPa 0,0 l/m 4,0 km/h (1 Bft) O-NO 62 0 min 0,000 mm 0,0 UV-I 0 W/m 15,5 C 20,3 C 6,4 km/h (2 Bft) 100,00 %
06.06.2018 00:09 20,2 C 25,6 C 74 % 1008,6 hPa 0,0 l/m 4,7 km/h (1 Bft) NO 54 0 min 0,000 mm 0,0 UV-I 0 W/m 15,4 C 20,2 C 6,4 km/h (2 Bft) 100,00 %
06.06.2018 00:10 20,1 C 25,6 C 74 % 1008,6 hPa 0,0 l/m 5,6 km/h (1 Bft) N-NO 31 0 min 0,000 mm 0,0 UV-I 0 W/m 15,3 C 20,1 C 6,4 km/h (2 Bft) 92,31 %
06.06.2018 00:11 20,1 C 25,6 C 75 % 1008,6 hPa 0,0 l/m 4,4 km/h (1 Bft) O-NO 63 0 min 0,000 mm 0,0 UV-I 0 W/m 15,5 C 20,1 C 6,4 km/h (2 Bft) 100,00 %
06.06.2018 00:12 20,0 C 25,6 C 75 % 1008,6 hPa 0,0 l/m 4,4 km/h (1 Bft) O-NO 75 0 min 0,000 mm 0,0 UV-I 0 W/m 15,4 C 20,0 C 6,4 km/h (2 Bft) 100,00 %
06.06.2018 00:13 20,0 C 25,6 C 75 % 1008,6 hPa 0,0 l/m 4,5 km/h (1 Bft) O-NO 72 0 min 0,000 mm 0,0 UV-I 0 W/m 15,4 C 20,0 C 6,4 km/h (2 Bft) 95,65 %
06.06.2018 00:14 19,9 C 25,6 C 75 % 1008,6 hPa 0,0 l/m 4,3 km/h (1 Bft) O-NO 66 0 min 0,000 mm 0,0 UV-I 0 W/m 15,3 C 19,9 C 6,4 km/h (2 Bft) 100,00 %
06.06.2018 00:15 19,9 C 25,6 C 75 % 1008,6 hPa 0,0 l/m 5,1 km/h (1 Bft) O-NO 76 0 min 0,000 mm 0,0 UV-I 0 W/m 15,3 C 19,9 C 6,4 km/h (2 Bft) 91,67 %
06.06.2018 00:16 19,8 C 25,6 C 75 % 1008,6 hPa 0,0 l/m 4,6 km/h (1 Bft) O-NO 73 0 min 0,000 mm 0,0 UV-I 0 W/m 15,2 C 19,8 C 6,4 km/h (2 Bft) 100,00 %
06.06.2018 00:17 19,8 C 25,6 C 76 % 1008,6 hPa 0,0 l/m 5,9 km/h (2 Bft) O-SO 103 0 min 0,000 mm 0,0 UV-I 0 W/m 15,4 C 19,8 C 9,7 km/h (2 Bft) 96,67 %
06.06.2018 00:18 19,8 C 25,6 C 76 % 1008,5 hPa 0,0 l/m 5,2 km/h (1 Bft) O 90 0 min 0,000 mm 0,0 UV-I 0 W/m 15,4 C 19,8 C 9,7 km/h (2 Bft) 95,65 %
06.06.2018 00:19 19,8 C 25,6 C 76 % 1008,5 hPa 0,0 l/m 4,6 km/h (1 Bft) O 93 0 min 0,000 mm 0,0 UV-I 0 W/m 15,4 C 19,8 C 6,4 km/h (2 Bft) 100,00 %
06.06.2018 00:20 19,7 C 25,6 C 76 % 1008,6 hPa 0,0 l/m 4,0 km/h (1 Bft) O 86 0 min 0,000 mm 0,0 UV-I 0 W/m 15,3 C 19,7 C 4,8 km/h (1 Bft) 92,86 %
06.06.2018 00:21 19,7 C 25,6 C 76 % 1008,6 hPa 0,0 l/m 4,2 km/h (1 Bft) O 84 0 min 0,000 mm 0,0 UV-I 0 W/m 15,3 C 19,7 C 4,8 km/h (1 Bft) 100,00 %
06.06.2018 00:22 19,7 C 25,6 C 76 % 1008,6 hPa 0,0 l/m 5,6 km/h (1 Bft) O-NO 75 0 min 0,000 mm 0,0 UV-I 0 W/m 15,3 C 19,7 C 9,7 km/h (2 Bft) 95,65 %
06.06.2018 00:23 19,7 C 25,6 C 76 % 1008,5 hPa 0,0 l/m 5,4 km/h (1 Bft) O 85 0 min 0,000 mm 0,0 UV-I 0 W/m 15,3 C 19,7 C 8,0 km/h (2 Bft) 100,00 %
06.06.2018 00:24 19,7 C 25,6 C 76 % 1008,5 hPa 0,0 l/m 5,4 km/h (1 Bft) O-NO 74 0 min 0,000 mm 0,0 UV-I 0 W/m 15,3 C 19,7 C 9,7 km/h (2 Bft) 95,65 %
06.06.2018 00:25 19,7 C 25,6 C 76 % 1008,6 hPa 0,0 l/m 7,4 km/h (2 Bft) O-SO 109 0 min 0,000 mm 0,0 UV-I 0 W/m 15,3 C 19,3 C 11,3 km/h (2 Bft) 95,83 %
06.06.2018 00:26 19,7 C 25,6 C 76 % 1008,6 hPa 0,0 l/m 6,5 km/h (2 Bft) O 91 0 min 0,000 mm 0,0 UV-I 0 W/m 15,3 C 19,7 C 9,7 km/h (2 Bft) 96,15 %
06.06.2018 00:27 19,8 C 25,6 C 76 % 1008,6 hPa 0,0 l/m 3,9 km/h (1 Bft) O-NO 74 0 min 0,000 mm 0,0 UV-I 0 W/m 15,4 C 19,8 C 6,4 km/h (2 Bft) 100,00 %
06.06.2018 00:28 19,8 C 25,6 C 76 % 1008,6 hPa 0,0 l/m 6,5 km/h (2 Bft) O 86 0 min 0,000 mm 0,0 UV-I 0 W/m 15,4 C 19,8 C 9,7 km/h (2 Bft) 96,30 %
06.06.2018 00:29 19,8 C 25,6 C 76 % 1008,6 hPa 0,0 l/m 8,8 km/h (2 Bft) O 90 0 min 0,000 mm 0,0 UV-I 0 W/m 15,4 C 18,8 C 11,3 km/h (2 Bft) 96,15 %
06.06.2018 00:30 19,8 C 25,6 C 76 % 1008,6 hPa 0,0 l/m 8,4 km/h (2 Bft) O-SO 108 0 min 0,000 mm 0,0 UV-I 0 W/m 15,4 C 19,0 C 11,3 km/h (2 Bft) 100,00 %
06.06.2018 00:31 19,8 C 25,6 C 76 % 1008,6 hPa 0,0 l/m 7,3 km/h (2 Bft) O-SO 107 0 min 0,000 mm 0,0 UV-I 0 W/m 15,4 C 19,4 C 11,3 km/h (2 Bft) 95,83 %
06.06.2018 00:32 19,8 C 25,6 C 76 % 1008,6 hPa 0,0 l/m 7,4 km/h (2 Bft) O-SO 104 0 min 0,000 mm 0,0 UV-I 0 W/m 15,4 C 19,4 C 9,7 km/h (2 Bft) 100,00 %
06.06.2018 00:33 19,8 C 25,6 C 76 % 1008,6 hPa 0,0 l/m 7,2 km/h (2 Bft) O 93 0 min 0,000 mm 0,0 UV-I 0 W/m 15,4 C 19,5 C 11,3 km/h (2 Bft) 96,15 %
06.06.2018 00:34 19,8 C 25,6 C 76 % 1008,5 hPa 0,0 l/m 7,8 km/h (2 Bft) O 95 0 min 0,000 mm 0,0 UV-I 0 W/m 15,4 C 19,2 C 11,3 km/h (2 Bft) 100,00 %
06.06.2018 00:35 19,7 C 25,6 C 76 % 1008,6 hPa 0,0 l/m 9,0 km/h (2 Bft) O-SO 111 0 min 0,000 mm 0,0 UV-I 0 W/m 15,3 C 18,7 C 12,9 km/h (3 Bft) 95,65 %
06.06.2018 00:36 19,7 C 25,6 C 76 % 1008,6 hPa 0,0 l/m 7,4 km/h (2 Bft) O-SO 103 0 min 0,000 mm 0,0 UV-I 0 W/m 15,3 C 19,3 C 11,3 km/h (2 Bft) 95,83 %
06.06.2018 00:37 19,7 C 25,6 C 76 % 1008,6 hPa 0,0 l/m 5,3 km/h (1 Bft) O 90 0 min 0,000 mm 0,0 UV-I 0 W/m 15,3 C 19,7 C 6,4 km/h (2 Bft) 96,15 %
06.06.2018 00:38 19,7 C 25,6 C 76 % 1008,6 hPa 0,0 l/m 5,8 km/h (2 Bft) O-SO 115 0 min 0,000 mm 0,0 UV-I 0 W/m 15,3 C 19,7 C 9,7 km/h (2 Bft) 95,83 %
06.06.2018 00:39 19,7 C 25,6 C 76 % 1008,6 hPa 0,0 l/m 5,7 km/h (1 Bft) O 101 0 min 0,000 mm 0,0 UV-I 0 W/m 15,3 C 19,7 C 9,7 km/h (2 Bft) 100,00 %
06.06.2018 00:40 19,7 C 25,6 C 76 % 1008,6 hPa 0,0 l/m 5,6 km/h (1 Bft) O 91 0 min 0,000 mm 0,0 UV-I 0 W/m 15,3 C 19,7 C 9,7 km/h (2 Bft) 91,67 %
06.06.2018 00:41 19,7 C 25,6 C 76 % 1008,6 hPa 0,0 l/m 6,8 km/h (2 Bft) O-SO 108 0 min 0,000 mm 0,0 UV-I 0 W/m 15,3 C 19,5 C 9,7 km/h (2 Bft) 100,00 %
06.06.2018 00:42 19,7 C 25,6 C 76 % 1008,6 hPa 0,0 l/m 6,5 km/h (2 Bft) O-SO 123 0 min 0,000 mm 0,0 UV-I 0 W/m 15,3 C 19,7 C 9,7 km/h (2 Bft) 96,67 %
06.06.2018 00:43 19,7 C 25,6 C 76 % 1008,6 hPa 0,0 l/m 6,6 km/h (2 Bft) O 90 0 min 0,000 mm 0,0 UV-I 0 W/m 15,3 C 19,6 C 11,3 km/h (2 Bft) 100,00 %
06.06.2018 00:44 19,7 C 25,6 C 76 % 1008,6 hPa 0,0 l/m 6,3 km/h (2 Bft) O-SO 123 0 min 0,000 mm 0,0 UV-I 0 W/m 15,3 C 19,7 C 11,3 km/h (2 Bft) 95,83 %
06.06.2018 00:45 19,7 C 25,6 C 76 % 1008,6 hPa 0,0 l/m 6,7 km/h (2 Bft) O-SO 122 0 min 0,000 mm 0,0 UV-I 0 W/m 15,3 C 19,6 C 9,7 km/h (2 Bft) 91,30 %
06.06.2018 00:46 19,7 C 25,6 C 76 % 1008,6 hPa 0,0 l/m 5,0 km/h (1 Bft) SO 128 0 min 0,000 mm 0,0 UV-I 0 W/m 15,3 C 19,7 C 6,4 km/h (2 Bft) 96,30 %
06.06.2018 00:47 19,7 C 25,6 C 76 % 1008,6 hPa 0,0 l/m 6,1 km/h (2 Bft) SO 145 0 min 0,000 mm 0,0 UV-I 0 W/m 15,3 C 19,7 C 6,4 km/h (2 Bft) 100,00 %
06.06.2018 00:48 19,6 C 25,6 C 76 % 1008,6 hPa 0,0 l/m 6,7 km/h (2 Bft) O-SO 123 0 min 0,000 mm 0,0 UV-I 0 W/m 15,2 C 19,5 C 11,3 km/h (2 Bft) 100,00 %
06.06.2018 00:49 19,5 C 25,6 C 76 % 1008,6 hPa 0,0 l/m 4,9 km/h (1 Bft) SO 130 0 min 0,000 mm 0,0 UV-I 0 W/m 15,2 C 19,5 C 6,4 km/h (2 Bft) 100,00 %
06.06.2018 00:50 19,5 C 25,6 C 76 % 1008,6 hPa 0,0 l/m 5,1 km/h (1 Bft) SO 135 0 min 0,000 mm 0,0 UV-I 0 W/m 15,2 C 19,5 C 8,0 km/h (2 Bft) 91,30 %
06.06.2018 00:51 19,5 C 25,6 C 76 % 1008,6 hPa 0,0 l/m 4,4 km/h (1 Bft) SO 136 0 min 0,000 mm 0,0 UV-I 0 W/m 15,2 C 19,5 C 6,4 km/h (2 Bft) 91,67 %
06.06.2018 00:52 19,5 C 25,6 C 76 % 1008,6 hPa 0,0 l/m 4,2 km/h (1 Bft) SO 138 0 min 0,000 mm 0,0 UV-I 0 W/m 15,2 C 19,5 C 6,4 km/h (2 Bft) 95,65 %
06.06.2018 00:53 19,5 C 25,6 C 77 % 1008,6 hPa 0,0 l/m 2,5 km/h (1 Bft) SO 138 0 min 0,000 mm 0,0 UV-I 0 W/m 15,4 C 19,5 C 4,8 km/h (1 Bft) 100,00 %
06.06.2018 00:54 19,5 C 25,6 C 77 % 1008,6 hPa 0,0 l/m 3,4 km/h (1 Bft) SO 133 0 min 0,000 mm 0,0 UV-I 0 W/m 15,4 C 19,5 C 4,8 km/h (1 Bft) 96,55 %
06.06.2018 00:55 19,4 C 25,6 C 77 % 1008,6 hPa 0,0 l/m 4,6 km/h (1 Bft) SO 133 0 min 0,000 mm 0,0 UV-I 0 W/m 15,3 C 19,4 C 6,4 km/h (2 Bft) 100,00 %
06.06.2018 00:56 19,3 C 25,6 C 77 % 1008,7 hPa 0,0 l/m 4,4 km/h (1 Bft) O-SO 120 0 min 0,000 mm 0,0 UV-I 0 W/m 15,2 C 19,3 C 6,4 km/h (2 Bft) 100,00 %
06.06.2018 00:57 19,2 C 25,6 C 77 % 1008,7 hPa 0,0 l/m 4,6 km/h (1 Bft) O-SO 119 0 min 0,000 mm 0,0 UV-I 0 W/m 15,1 C 19,2 C 4,8 km/h (1 Bft) 100,00 %
06.06.2018 00:58 19,1 C 25,6 C 78 % 1008,7 hPa 0,0 l/m 4,4 km/h (1 Bft) O-SO 120 0 min 0,000 mm 0,0 UV-I 0 W/m 15,2 C 19,1 C 6,4 km/h (2 Bft) 100,00 %
06.06.2018 00:59 18,9 C 25,6 C 78 % 1008,7 hPa 0,0 l/m 4,7 km/h (1 Bft) O 93 0 min 0,000 mm 0,0 UV-I 0 W/m 15,0 C 18,9 C 6,4 km/h (2 Bft) 96,30 %
06.06.2018 01:00 18,9 C 25,6 C 79 % 1008,7 hPa 0,0 l/m 5,0 km/h (1 Bft) O 93 0 min 0,000 mm 0,0 UV-I 0 W/m 15,2 C 18,9 C 6,4 km/h (2 Bft) 100,00 %
06.06.2018 01:01 19,0 C 25,6 C 79 % 1008,7 hPa 0,0 l/m 5,2 km/h (1 Bft) O 95 0 min 0,025 mm 0,0 UV-I 0 W/m 15,3 C 19,0 C 6,4 km/h (2 Bft) 100,00 %
06.06.2018 01:02 19,1 C 25,6 C 79 % 1008,7 hPa 0,0 l/m 4,6 km/h (1 Bft) O-SO 105 0 min 0,000 mm 0,0 UV-I 0 W/m 15,4 C 19,1 C 6,4 km/h (2 Bft) 95,65 %
06.06.2018 01:03 19,2 C 25,6 C 78 % 1008,7 hPa 0,0 l/m 4,2 km/h (1 Bft) O 90 0 min 0,000 mm 0,0 UV-I 0 W/m 15,3 C 19,2 C 6,4 km/h (2 Bft) 100,00 %
06.06.2018 01:04 19,3 C 25,6 C 78 % 1008,7 hPa 0,0 l/m 4,8 km/h (1 Bft) O 101 0 min 0,000 mm 0,0 UV-I 0 W/m 15,4 C 19,3 C 6,4 km/h (2 Bft) 100,00 %
06.06.2018 01:05 19,3 C 25,6 C 78 % 1008,7 hPa 0,0 l/m 5,2 km/h (1 Bft) O-SO 104 0 min 0,000 mm 0,0 UV-I 0 W/m 15,4 C 19,3 C 6,4 km/h (2 Bft) 95,83 %
06.06.2018 01:06 19,3 C 25,6 C 78 % 1008,7 hPa 0,0 l/m 2,5 km/h (1 Bft) O-SO 104 0 min 0,000 mm 0,0 UV-I 0 W/m 15,4 C 19,3 C 4,8 km/h (1 Bft) 97,63 %
06.06.2018 01:07 19,3 C 25,6 C 78 % 1008,7 hPa 0,0 l/m 4,7 km/h (1 Bft) O 101 0 min 0,000 mm 0,0 UV-I 0 W/m 15,4 C 19,3 C 6,4 km/h (2 Bft) 100,00 %
06.06.2018 01:08 19,3 C 25,6 C 78 % 1008,7 hPa 0,0 l/m 4,9 km/h (1 Bft) O-SO 113 0 min 0,000 mm 0,0 UV-I 0 W/m 15,4 C 19,3 C 6,4 km/h (2 Bft) 95,83 %
06.06.2018 01:09 19,3 C 25,6 C 78 % 1008,7 hPa 0,0 l/m 3,5 km/h (1 Bft) O-SO 120 0 min 0,000 mm 0,0 UV-I 0 W/m 15,4 C 19,3 C 4,8 km/h (1 Bft) 100,00 %
06.06.2018 01:10 19,3 C 25,6 C 77 % 1008,8 hPa 0,0 l/m 3,9 km/h (1 Bft) SO 126 0 min 0,000 mm 0,0 UV-I 0 W/m 15,2 C 19,3 C 6,4 km/h (2 Bft) 100,00 %
06.06.2018 01:11 19,3 C 25,6 C 78 % 1008,7 hPa 0,0 l/m 4,2 km/h (1 Bft) SO 140 0 min 0,000 mm 0,0 UV-I 0 W/m 15,4 C 19,3 C 6,4 km/h (2 Bft) 100,00 %
06.06.2018 01:12 19,3 C 25,6 C 78 % 1008,7 hPa 0,0 l/m 5,3 km/h (1 Bft) O 99 0 min 0,000 mm 0,0 UV-I 0 W/m 15,4 C 19,3 C 6,4 km/h (2 Bft) 96,30 %
06.06.2018 01:13 19,3 C 25,6 C 77 % 1008,7 hPa 0,0 l/m 5,2 km/h (1 Bft) O-SO 107 0 min 0,000 mm 0,0 UV-I 0 W/m 15,2 C 19,3 C 6,4 km/h (2 Bft) 100,00 %
06.06.2018 01:14 19,3 C 25,6 C 77 % 1008,8 hPa 0,0 l/m 5,7 km/h (1 Bft) O-SO 122 0 min 0,000 mm 0,0 UV-I 0 W/m 15,2 C 19,3 C 8,0 km/h (2 Bft) 96,67 %
06.06.2018 01:15 19,2 C 25,6 C 78 % 1008,8 hPa 0,0 l/m 7,4 km/h (2 Bft) O 96 0 min 0,000 mm 0,0 UV-I 0 W/m 15,3 C 18,8 C 11,3 km/h (2 Bft) 91,30 %
06.06.2018 01:16 19,2 C 25,6 C 77 % 1008,7 hPa 0,0 l/m 4,9 km/h (1 Bft) O-SO 115 0 min 0,000 mm 0,0 UV-I 0 W/m 15,1 C 19,2 C 6,4 km/h (2 Bft) 100,00 %
06.06.2018 01:17 19,2 C 25,6 C 77 % 1008,8 hPa 0,0 l/m 5,3 km/h (1 Bft) O-SO 105 0 min 0,000 mm 0,0 UV-I 0 W/m 15,1 C 19,2 C 6,4 km/h (2 Bft) 100,00 %
06.06.2018 01:18 19,2 C 25,6 C 78 % 1008,7 hPa 0,0 l/m 7,1 km/h (2 Bft) O 92 0 min 0,000 mm 0,0 UV-I 0 W/m 15,3 C 18,9 C 9,7 km/h (2 Bft) 96,30 %
06.06.2018 01:19 19,3 C 25,6 C 77 % 1008,8 hPa 0,0 l/m 7,2 km/h (2 Bft) O 92 0 min 0,000 mm 0,0 UV-I 0 W/m 15,2 C 19,0 C 9,7 km/h (2 Bft) 95,65 %
06.06.2018 01:20 19,3 C 25,6 C 77 % 1008,7 hPa 0,0 l/m 5,0 km/h (1 Bft) O 90 0 min 0,000 mm 0,0 UV-I 0 W/m 15,2 C 19,3 C 6,4 km/h (2 Bft) 91,67 %
06.06.2018 01:21 19,4 C 25,6 C 77 % 1008,8 hPa 0,0 l/m 5,6 km/h (1 Bft) O 92 0 min 0,000 mm 0,0 UV-I 0 W/m 15,3 C 19,4 C 9,7 km/h (2 Bft) 95,65 %
06.06.2018 01:22 19,4 C 25,6 C 76 % 1008,7 hPa 0,0 l/m 6,4 km/h (2 Bft) O 88 0 min 0,000 mm 0,0 UV-I 0 W/m 15,1 C 19,4 C 9,7 km/h (2 Bft) 100,00 %
06.06.2018 01:23 19,4 C 25,6 C 76 % 1008,7 hPa 0,0 l/m 6,3 km/h (2 Bft) O-NO 67 0 min 0,000 mm 0,0 UV-I 0 W/m 15,1 C 19,4 C 11,3 km/h (2 Bft) 95,65 %
06.06.2018 01:24 19,4 C 25,6 C 76 % 1008,8 hPa 0,0 l/m 5,0 km/h (1 Bft) O 90 0 min 0,000 mm 0,0 UV-I 0 W/m 15,1 C 19,4 C 6,4 km/h (2 Bft) 100,00 %
06.06.2018 01:25 19,4 C 25,6 C 77 % 1008,8 hPa 0,0 l/m 5,4 km/h (1 Bft) O 85 0 min 0,000 mm 0,0 UV-I 0 W/m 15,3 C 19,4 C 6,4 km/h (2 Bft) 96,15 %
06.06.2018 01:26 19,3 C 25,6 C 77 % 1008,8 hPa 0,0 l/m 6,2 km/h (2 Bft) O-SO 109 0 min 0,000 mm 0,0 UV-I 0 W/m 15,2 C 19,3 C 8,0 km/h (2 Bft) 100,00 %
06.06.2018 01:27 19,3 C 25,6 C 77 % 1008,7 hPa 0,0 l/m 5,8 km/h (2 Bft) O-NO 76 0 min 0,000 mm 0,0 UV-I 0 W/m 15,2 C 19,3 C 8,0 km/h (2 Bft) 96,15 %
06.06.2018 01:28 19,3 C 25,6 C 77 % 1008,7 hPa 0,0 l/m 5,6 km/h (1 Bft) O-NO 65 0 min 0,000 mm 0,0 UV-I 0 W/m 15,2 C 19,3 C 8,0 km/h (2 Bft) 100,00 %
06.06.2018 01:29 19,3 C 25,6 C 77 % 1008,7 hPa 0,0 l/m 5,8 km/h (2 Bft) NO 56 0 min 0,000 mm 0,0 UV-I 0 W/m 15,2 C 19,3 C 6,4 km/h (2 Bft) 90,00 %
06.06.2018 01:30 19,2 C 25,6 C 77 % 1008,7 hPa 0,0 l/m 5,1 km/h (1 Bft) O 92 0 min 0,000 mm 0,0 UV-I 0 W/m 15,1 C 19,2 C 6,4 km/h (2 Bft) 96,15 %
06.06.2018 01:31 19,2 C 25,6 C 77 % 1008,7 hPa 0,0 l/m 5,1 km/h (1 Bft) O-NO 64 0 min 0,000 mm 0,0 UV-I 0 W/m 15,1 C 19,2 C 8,0 km/h (2 Bft) 100,00 %
06.06.2018 01:32 19,2 C 25,6 C 77 % 1008,7 hPa 0,0 l/m 4,0 km/h (1 Bft) O-NO 65 0 min 0,000 mm 0,0 UV-I 0 W/m 15,1 C 19,2 C 6,4 km/h (2 Bft) 95,65 %
06.06.2018 01:33 19,1 C 25,6 C 78 % 1008,7 hPa 0,0 l/m 5,5 km/h (1 Bft) O-NO 77 0 min 0,000 mm 0,0 UV-I 0 W/m 15,2 C 19,1 C 6,4 km/h (2 Bft) 100,00 %
06.06.2018 01:34 18,9 C 25,6 C 78 % 1008,7 hPa 0,0 l/m 4,9 km/h (1 Bft) O-NO 71 0 min 0,000 mm 0,0 UV-I 0 W/m 15,0 C 18,9 C 6,4 km/h (2 Bft) 90,91 %
06.06.2018 01:35 18,8 C 25,6 C 79 % 1008,7 hPa 0,0 l/m 4,8 km/h (1 Bft) NO 50 0 min 0,000 mm 0,0 UV-I 0 W/m 15,1 C 18,8 C 6,4 km/h (2 Bft) 96,30 %
06.06.2018 01:36 18,7 C 25,6 C 79 % 1008,7 hPa 0,0 l/m 4,5 km/h (1 Bft) O-NO 65 0 min 0,000 mm 0,0 UV-I 0 W/m 15,0 C 18,7 C 6,4 km/h (2 Bft) 96,15 %
06.06.2018 01:37 18,6 C 25,6 C 79 % 1008,7 hPa 0,0 l/m 5,1 km/h (1 Bft) O-NO 65 0 min 0,000 mm 0,0 UV-I 0 W/m 14,9 C 18,6 C 6,4 km/h (2 Bft) 100,00 %
06.06.2018 01:38 18,4 C 25,6 C 79 % 1008,7 hPa 0,0 l/m 3,8 km/h (1 Bft) O-NO 65 0 min 0,000 mm 0,0 UV-I 0 W/m 14,7 C 18,4 C 4,8 km/h (1 Bft) 95,65 %
06.06.2018 01:39 18,3 C 25,6 C 80 % 1008,7 hPa 0,0 l/m 3,6 km/h (1 Bft) O-NO 64 0 min 0,000 mm 0,0 UV-I 0 W/m 14,8 C 18,3 C 4,8 km/h (1 Bft) 100,00 %
06.06.2018 01:40 18,2 C 25,6 C 81 % 1008,7 hPa 0,0 l/m 4,5 km/h (1 Bft) NO 44 0 min 0,000 mm 0,0 UV-I 0 W/m 14,9 C 18,2 C 6,4 km/h (2 Bft) 96,55 %
06.06.2018 01:41 18,1 C 25,6 C 81 % 1008,7 hPa 0,0 l/m 3,6 km/h (1 Bft) NO 38 0 min 0,000 mm 0,0 UV-I 0 W/m 14,8 C 18,1 C 4,8 km/h (1 Bft) 96,30 %
06.06.2018 01:42 18,0 C 25,6 C 81 % 1008,7 hPa 0,0 l/m 2,6 km/h (1 Bft) NO 42 0 min 0,000 mm 0,0 UV-I 0 W/m 14,7 C 18,0 C 4,8 km/h (1 Bft) 100,00 %
06.06.2018 01:43 18,0 C 25,6 C 81 % 1008,7 hPa 0,0 l/m 5,3 km/h (1 Bft) O-NO 78 0 min 0,000 mm 0,0 UV-I 0 W/m 14,7 C 18,0 C 8,0 km/h (2 Bft) 96,67 %
06.06.2018 01:44 18,0 C 25,6 C 82 % 1008,7 hPa 0,0 l/m 4,6 km/h (1 Bft) NO 56 0 min 0,000 mm 0,0 UV-I 0 W/m 14,9 C 18,0 C 6,4 km/h (2 Bft) 95,65 %
06.06.2018 01:45 18,0 C 25,6 C 82 % 1008,7 hPa 0,0 l/m 3,5 km/h (1 Bft) O-NO 59 0 min 0,000 mm 0,0 UV-I 0 W/m 14,9 C 18,0 C 4,8 km/h (1 Bft) 95,83 %
06.06.2018 01:46 18,0 C 25,6 C 82 % 1008,8 hPa 0,0 l/m 2,7 km/h (1 Bft) O-NO 61 0 min 0,000 mm 0,0 UV-I 0 W/m 14,9 C 18,0 C 4,8 km/h (1 Bft) 100,00 %
06.06.2018 01:47 18,1 C 25,6 C 81 % 1008,8 hPa 0,0 l/m 2,7 km/h (1 Bft) O-NO 61 0 min 0,000 mm 0,0 UV-I 0 W/m 14,8 C 18,1 C 3,2 km/h (1 Bft) 96,15 %
06.06.2018 01:48 18,1 C 25,6 C 81 % 1008,8 hPa 0,0 l/m 3,0 km/h (1 Bft) O-NO 61 0 min 0,000 mm 0,0 UV-I 0 W/m 14,8 C 18,1 C 3,2 km/h (1 Bft) 100,00 %
06.06.2018 01:49 18,1 C 25,6 C 81 % 1008,8 hPa 0,0 l/m 3,9 km/h (1 Bft) O 80 0 min 0,000 mm 0,0 UV-I 0 W/m 14,8 C 18,1 C 4,8 km/h (1 Bft) 92,31 %
06.06.2018 01:50 18,2 C 25,6 C 81 % 1008,8 hPa 0,0 l/m 3,2 km/h (1 Bft) O 80 0 min 0,000 mm 0,0 UV-I 0 W/m 14,9 C 18,2 C 4,8 km/h (1 Bft) 100,00 %
06.06.2018 01:51 18,1 C 25,6 C 81 % 1008,8 hPa 0,0 l/m 3,2 km/h (1 Bft) NO 53 0 min 0,000 mm 0,0 UV-I 0 W/m 14,8 C 18,1 C 4,8 km/h (1 Bft) 91,30 %
06.06.2018 01:52 18,1 C 25,6 C 81 % 1008,8 hPa 0,0 l/m 3,5 km/h (1 Bft) O 83 0 min 0,000 mm 0,0 UV-I 0 W/m 14,8 C 18,1 C 4,8 km/h (1 Bft) 95,83 %
06.06.2018 01:53 18,1 C 25,6 C 81 % 1008,8 hPa 0,0 l/m 3,0 km/h (1 Bft) O 83 0 min 0,000 mm 0,0 UV-I 0 W/m 14,8 C 18,1 C 4,8 km/h (1 Bft) 100,00 %
06.06.2018 01:54 18,0 C 25,6 C 81 % 1008,8 hPa 0,0 l/m 2,9 km/h (1 Bft) O 83 0 min 0,000 mm 0,0 UV-I 0 W/m 14,7 C 18,0 C 3,2 km/h (1 Bft) 96,97 %
06.06.2018 01:55 18,0 C 25,6 C 81 % 1008,8 hPa 0,0 l/m 3,5 km/h (1 Bft) O 81 0 min 0,000 mm 0,0 UV-I 0 W/m 14,7 C 18,0 C 4,8 km/h (1 Bft) 100,00 %
06.06.2018 01:56 18,1 C 25,6 C 81 % 1008,8 hPa 0,0 l/m 4,2 km/h (1 Bft) O 81 0 min 0,000 mm 0,0 UV-I 0 W/m 14,8 C 18,1 C 4,8 km/h (1 Bft) 96,30 %
06.06.2018 01:57 18,1 C 25,6 C 81 % 1008,8 hPa 0,0 l/m 5,0 km/h (1 Bft) O 85 0 min 0,000 mm 0,0 UV-I 0 W/m 14,8 C 18,1 C 6,4 km/h (2 Bft) 100,00 %
06.06.2018 01:58 18,1 C 25,6 C 81 % 1008,9 hPa 0,0 l/m 5,2 km/h (1 Bft) O-NO 78 0 min 0,000 mm 0,0 UV-I 0 W/m 14,8 C 18,1 C 8,0 km/h (2 Bft) 95,83 %
06.06.2018 01:59 18,1 C 25,6 C 81 % 1008,9 hPa 0,0 l/m 4,7 km/h (1 Bft) O 91 0 min 0,000 mm 0,0 UV-I 0 W/m 14,8 C 18,1 C 6,4 km/h (2 Bft) 100,00 %
06.06.2018 02:00 18,1 C 25,6 C 81 % 1008,9 hPa 0,0 l/m 4,1 km/h (1 Bft) O 94 0 min 0,000 mm 0,0 UV-I 0 W/m 14,8 C 18,1 C 4,8 km/h (1 Bft) 94,44 %
06.06.2018 02:01 18,1 C 25,6 C 81 % 1008,9 hPa 0,0 l/m 3,9 km/h (1 Bft) O-SO 102 0 min 0,026 mm 0,0 UV-I 0 W/m 14,8 C 18,1 C 4,8 km/h (1 Bft) 100,00 %
06.06.2018 02:02 18,1 C 25,6 C 81 % 1008,8 hPa 0,0 l/m 3,8 km/h (1 Bft) O 100 0 min 0,000 mm 0,0 UV-I 0 W/m 14,8 C 18,1 C 6,4 km/h (2 Bft) 95,83 %
06.06.2018 02:03 18,1 C 25,6 C 81 % 1008,9 hPa 0,0 l/m 3,1 km/h (1 Bft) O 100 0 min 0,000 mm 0,0 UV-I 0 W/m 14,8 C 18,1 C 4,8 km/h (1 Bft) 96,15 %
06.06.2018 02:04 18,1 C 25,6 C 81 % 1008,9 hPa 0,0 l/m 3,8 km/h (1 Bft) O 99 0 min 0,000 mm 0,0 UV-I 0 W/m 14,8 C 18,1 C 4,8 km/h (1 Bft) 95,83 %
06.06.2018 02:05 18,1 C 25,6 C 81 % 1008,9 hPa 0,0 l/m 2,6 km/h (1 Bft) O 99 0 min 0,000 mm 0,0 UV-I 0 W/m 14,8 C 18,1 C 3,2 km/h (1 Bft) 100,00 %
06.06.2018 02:06 18,1 C 25,6 C 81 % 1008,9 hPa 0,0 l/m 2,3 km/h (1 Bft) O-SO 103 0 min 0,000 mm 0,0 UV-I 0 W/m 14,8 C 18,1 C 4,8 km/h (1 Bft) 96,55 %
06.06.2018 02:07 18,1 C 25,6 C 81 % 1008,9 hPa 0,0 l/m 2,6 km/h (1 Bft) O-SO 103 0 min 0,000 mm 0,0 UV-I 0 W/m 14,8 C 18,1 C 4,8 km/h (1 Bft) 96,30 %
06.06.2018 02:08 18,1 C 25,6 C 81 % 1009,0 hPa 0,0 l/m 3,8 km/h (1 Bft) O-SO 103 0 min 0,000 mm 0,0 UV-I 0 W/m 14,8 C 18,1 C 4,8 km/h (1 Bft) 100,00 %
06.06.2018 02:09 18,1 C 25,6 C 81 % 1009,0 hPa 0,0 l/m 3,8 km/h (1 Bft) O-SO 102 0 min 0,000 mm 0,0 UV-I 0 W/m 14,8 C 18,1 C 4,8 km/h (1 Bft) 95,83 %
06.06.2018 02:10 18,1 C 25,6 C 81 % 1008,9 hPa 0,0 l/m 3,6 km/h (1 Bft) O 101 0 min 0,000 mm 0,0 UV-I 0 W/m 14,8 C 18,1 C 4,8 km/h (1 Bft) 100,00 %
06.06.2018 02:11 18,1 C 25,6 C 81 % 1008,9 hPa 0,0 l/m 4,7 km/h (1 Bft) O 99 0 min 0,000 mm 0,0 UV-I 0 W/m 14,8 C 18,1 C 4,8 km/h (1 Bft) 96,30 %
06.06.2018 02:12 18,1 C 25,6 C 81 % 1009,0 hPa 0,0 l/m 4,0 km/h (1 Bft) O 98 0 min 0,000 mm 0,0 UV-I 0 W/m 14,8 C 18,1 C 6,4 km/h (2 Bft) 100,00 %
06.06.2018 02:13 18,1 C 25,6 C 81 % 1009,0 hPa 0,0 l/m 3,4 km/h (1 Bft) O 98 0 min 0,000 mm 0,0 UV-I 0 W/m 14,8 C 18,1 C 4,8 km/h (1 Bft) 92,59 %
06.06.2018 02:14 18,1 C 25,6 C 81 % 1009,0 hPa 0,0 l/m 4,8 km/h (1 Bft) O 83 0 min 0,000 mm 0,0 UV-I 0 W/m 14,8 C 18,1 C 6,4 km/h (2 Bft) 92,31 %
06.06.2018 02:15 18,1 C 25,6 C 81 % 1009,0 hPa 0,0 l/m 4,1 km/h (1 Bft) O 92 0 min 0,000 mm 0,0 UV-I 0 W/m 14,8 C 18,1 C 6,4 km/h (2 Bft) 96,67 %
06.06.2018 02:16 18,1 C 25,6 C 81 % 1009,0 hPa 0,0 l/m 5,0 km/h (1 Bft) O-SO 111 0 min 0,000 mm 0,0 UV-I 0 W/m 14,8 C 18,1 C 6,4 km/h (2 Bft) 91,30 %
06.06.2018 02:17 18,1 C 25,6 C 81 % 1009,0 hPa 0,0 l/m 5,5 km/h (1 Bft) O-SO 106 0 min 0,000 mm 0,0 UV-I 0 W/m 14,8 C 18,1 C 9,7 km/h (2 Bft) 91,67 %
06.06.2018 02:18 18,0 C 25,6 C 81 % 1009,0 hPa 0,0 l/m 3,7 km/h (1 Bft) O-SO 105 0 min 0,000 mm 0,0 UV-I 0 W/m 14,7 C 18,0 C 4,8 km/h (1 Bft) 100,00 %
06.06.2018 02:19 17,9 C 25,6 C 81 % 1009,0 hPa 0,0 l/m 4,7 km/h (1 Bft) O-NO 76 0 min 0,000 mm 0,0 UV-I 0 W/m 14,6 C 17,9 C 8,0 km/h (2 Bft) 91,67 %
06.06.2018 02:20 17,9 C 25,6 C 82 % 1009,0 hPa 0,0 l/m 4,6 km/h (1 Bft) O 79 0 min 0,000 mm 0,0 UV-I 0 W/m 14,8 C 17,9 C 6,4 km/h (2 Bft) 91,67 %
06.06.2018 02:21 17,9 C 25,6 C 82 % 1009,0 hPa 0,0 l/m 3,9 km/h (1 Bft) O-NO 70 0 min 0,000 mm 0,0 UV-I 0 W/m 14,8 C 17,9 C 6,4 km/h (2 Bft) 95,65 %
06.06.2018 02:22 17,9 C 25,6 C 81 % 1009,0 hPa 0,0 l/m 5,6 km/h (1 Bft) O-NO 69 0 min 0,000 mm 0,0 UV-I 0 W/m 14,6 C 17,9 C 8,0 km/h (2 Bft) 96,15 %
06.06.2018 02:23 18,0 C 25,6 C 81 % 1009,0 hPa 0,0 l/m 5,7 km/h (1 Bft) O-NO 78 0 min 0,000 mm 0,0 UV-I 0 W/m 14,7 C 18,0 C 8,0 km/h (2 Bft) 100,00 %
06.06.2018 02:24 18,0 C 25,6 C 81 % 1009,0 hPa 0,0 l/m 6,0 km/h (2 Bft) O-NO 71 0 min 0,000 mm 0,0 UV-I 0 W/m 14,7 C 18,0 C 11,3 km/h (2 Bft) 95,65 %
06.06.2018 02:25 18,1 C 25,6 C 81 % 1009,0 hPa 0,0 l/m 5,6 km/h (1 Bft) O 80 0 min 0,000 mm 0,0 UV-I 0 W/m 14,8 C 18,1 C 6,4 km/h (2 Bft) 95,83 %
06.06.2018 02:26 18,1 C 25,6 C 81 % 1009,0 hPa 0,0 l/m 5,5 km/h (1 Bft) O 84 0 min 0,000 mm 0,0 UV-I 0 W/m 14,8 C 18,1 C 6,4 km/h (2 Bft) 91,67 %
06.06.2018 02:27 18,1 C 25,6 C 81 % 1009,0 hPa 0,0 l/m 6,0 km/h (2 Bft) O 96 0 min 0,000 mm 0,0 UV-I 0 W/m 14,8 C 18,1 C 8,0 km/h (2 Bft) 100,00 %
06.06.2018 02:28 18,1 C 25,6 C 81 % 1009,0 hPa 0,0 l/m 5,1 km/h (1 Bft) O-NO 71 0 min 0,000 mm 0,0 UV-I 0 W/m 14,8 C 18,1 C 6,4 km/h (2 Bft) 96,30 %
06.06.2018 02:29 18,1 C 25,6 C 81 % 1009,0 hPa 0,0 l/m 5,7 km/h (1 Bft) O-NO 70 0 min 0,000 mm 0,0 UV-I 0 W/m 14,8 C 18,1 C 6,4 km/h (2 Bft) 96,15 %
06.06.2018 02:30 18,1 C 25,6 C 81 % 1009,0 hPa 0,0 l/m 6,7 km/h (2 Bft) O 88 0 min 0,000 mm 0,0 UV-I 0 W/m 14,8 C 18,0 C 8,0 km/h (2 Bft) 93,33 %
06.06.2018 02:31 18,1 C 25,6 C 81 % 1009,0 hPa 0,0 l/m 6,5 km/h (2 Bft) O 79 0 min 0,000 mm 0,0 UV-I 0 W/m 14,8 C 18,1 C 8,0 km/h (2 Bft) 95,65 %
06.06.2018 02:32 18,1 C 25,6 C 81 % 1009,0 hPa 0,0 l/m 6,6 km/h (2 Bft) O 81 0 min 0,000 mm 0,0 UV-I 0 W/m 14,8 C 18,0 C 8,0 km/h (2 Bft) 95,83 %
06.06.2018 02:33 18,1 C 25,6 C 81 % 1009,0 hPa 0,0 l/m 5,6 km/h (1 Bft) O 87 0 min 0,000 mm 0,0 UV-I 0 W/m 14,8 C 18,1 C 6,4 km/h (2 Bft) 95,65 %
06.06.2018 02:34 18,0 C 25,6 C 81 % 1009,0 hPa 0,0 l/m 5,8 km/h (2 Bft) O 81 0 min 0,000 mm 0,0 UV-I 0 W/m 14,7 C 18,0 C 9,7 km/h (2 Bft) 100,00 %
06.06.2018 02:35 18,0 C 25,6 C 81 % 1009,0 hPa 0,0 l/m 5,2 km/h (1 Bft) O-NO 76 0 min 0,000 mm 0,0 UV-I 0 W/m 14,7 C 18,0 C 9,7 km/h (2 Bft) 95,65 %
06.06.2018 02:36 17,9 C 25,6 C 81 % 1009,0 hPa 0,0 l/m 5,2 km/h (1 Bft) O-NO 74 0 min 0,000 mm 0,0 UV-I 0 W/m 14,6 C 17,9 C 6,4 km/h (2 Bft) 100,00 %
06.06.2018 02:37 17,9 C 25,6 C 81 % 1009,0 hPa 0,0 l/m 4,9 km/h (1 Bft) O-NO 62 0 min 0,000 mm 0,0 UV-I 0 W/m 14,6 C 17,9 C 6,4 km/h (2 Bft) 96,15 %
06.06.2018 02:38 17,8 C 25,6 C 82 % 1009,0 hPa 0,0 l/m 5,1 km/h (1 Bft) O-NO 71 0 min 0,000 mm 0,0 UV-I 0 W/m 14,7 C 17,8 C 6,4 km/h (2 Bft) 96,30 %
06.06.2018 02:39 17,8 C 25,6 C 82 % 1009,0 hPa 0,0 l/m 5,5 km/h (1 Bft) O 80 0 min 0,000 mm 0,0 UV-I 0 W/m 14,7 C 17,8 C 9,7 km/h (2 Bft) 100,00 %
06.06.2018 02:40 17,7 C 25,6 C 82 % 1009,0 hPa 0,0 l/m 4,2 km/h (1 Bft) O 92 0 min 0,000 mm 0,0 UV-I 0 W/m 14,6 C 17,7 C 6,4 km/h (2 Bft) 93,33 %
06.06.2018 02:41 17,7 C 25,6 C 82 % 1009,0 hPa 0,0 l/m 4,9 km/h (1 Bft) O-NO 57 0 min 0,000 mm 0,0 UV-I 0 W/m 14,6 C 17,7 C 9,7 km/h (2 Bft) 100,00 %
06.06.2018 02:42 17,6 C 25,6 C 82 % 1009,0 hPa 0,0 l/m 4,0 km/h (1 Bft) O-NO 65 0 min 0,000 mm 0,0 UV-I 0 W/m 14,5 C 17,6 C 4,8 km/h (1 Bft) 96,15 %
06.06.2018 02:43 17,6 C 25,6 C 82 % 1009,0 hPa 0,0 l/m 4,2 km/h (1 Bft) O-NO 69 0 min 0,000 mm 0,0 UV-I 0 W/m 14,5 C 17,6 C 4,8 km/h (1 Bft) 100,00 %
06.06.2018 02:44 17,6 C 25,6 C 82 % 1009,0 hPa 0,0 l/m 4,1 km/h (1 Bft) O-NO 66 0 min 0,000 mm 0,0 UV-I 0 W/m 14,5 C 17,6 C 6,4 km/h (2 Bft) 95,65 %
06.06.2018 02:45 17,4 C 25,6 C 82 % 1009,0 hPa 0,0 l/m 4,9 km/h (1 Bft) O-NO 73 0 min 0,000 mm 0,0 UV-I 0 W/m 14,3 C 17,4 C 6,4 km/h (2 Bft) 100,00 %
06.06.2018 02:46 17,4 C 25,6 C 83 % 1009,0 hPa 0,0 l/m 4,4 km/h (1 Bft) O-NO 57 0 min 0,000 mm 0,0 UV-I 0 W/m 14,5 C 17,4 C 6,4 km/h (2 Bft) 100,00 %
06.06.2018 02:47 17,3 C 25,6 C 83 % 1009,0 hPa 0,0 l/m 4,5 km/h (1 Bft) O-NO 71 0 min 0,000 mm 0,0 UV-I 0 W/m 14,4 C 17,3 C 6,4 km/h (2 Bft) 95,83 %
06.06.2018 02:48 17,3 C 25,6 C 83 % 1009,0 hPa 0,0 l/m 4,4 km/h (1 Bft) O 82 0 min 0,000 mm 0,0 UV-I 0 W/m 14,4 C 17,3 C 8,0 km/h (2 Bft) 95,65 %
06.06.2018 02:49 17,3 C 25,6 C 83 % 1009,0 hPa 0,0 l/m 4,2 km/h (1 Bft) O 86 0 min 0,000 mm 0,0 UV-I 0 W/m 14,4 C 17,3 C 6,4 km/h (2 Bft) 95,83 %
06.06.2018 02:50 17,4 C 25,6 C 83 % 1009,0 hPa 0,0 l/m 4,2 km/h (1 Bft) O 85 0 min 0,000 mm 0,0 UV-I 0 W/m 14,5 C 17,4 C 6,4 km/h (2 Bft) 95,65 %
06.06.2018 02:51 17,4 C 25,6 C 83 % 1009,0 hPa 0,0 l/m 5,3 km/h (1 Bft) O-NO 77 0 min 0,000 mm 0,0 UV-I 0 W/m 14,5 C 17,4 C 6,4 km/h (2 Bft) 100,00 %
06.06.2018 02:52 17,4 C 25,6 C 83 % 1009,0 hPa 0,0 l/m 4,8 km/h (1 Bft) O-NO 70 0 min 0,000 mm 0,0 UV-I 0 W/m 14,5 C 17,4 C 6,4 km/h (2 Bft) 95,65 %
06.06.2018 02:53 17,4 C 25,0 C 83 % 1009,0 hPa 0,0 l/m 4,1 km/h (1 Bft) O-NO 71 0 min 0,000 mm 0,0 UV-I 0 W/m 14,5 C 17,4 C 6,4 km/h (2 Bft) 100,00 %
06.06.2018 02:54 17,4 C 25,0 C 83 % 1009,0 hPa 0,0 l/m 5,9 km/h (2 Bft) O 85 0 min 0,000 mm 0,0 UV-I 0 W/m 14,5 C 17,4 C 8,0 km/h (2 Bft) 96,15 %
06.06.2018 02:55 17,4 C 25,0 C 83 % 1009,0 hPa 0,0 l/m 4,4 km/h (1 Bft) O-NO 63 0 min 0,000 mm 0,0 UV-I 0 W/m 14,5 C 17,4 C 6,4 km/h (2 Bft) 100,00 %
06.06.2018 02:56 17,4 C 25,0 C 83 % 1009,0 hPa 0,0 l/m 4,4 km/h (1 Bft) O-NO 78 0 min 0,000 mm 0,0 UV-I 0 W/m 14,5 C 17,4 C 4,8 km/h (1 Bft) 100,00 %
06.06.2018 02:57 17,3 C 25,0 C 83 % 1009,0 hPa 0,0 l/m 4,5 km/h (1 Bft) O-NO 77 0 min 0,000 mm 0,0 UV-I 0 W/m 14,4 C 17,3 C 6,4 km/h (2 Bft) 96,15 %
06.06.2018 02:58 17,3 C 25,0 C 83 % 1009,0 hPa 0,0 l/m 4,9 km/h (1 Bft) O 84 0 min 0,000 mm 0,0 UV-I 0 W/m 14,4 C 17,3 C 6,4 km/h (2 Bft) 100,00 %
06.06.2018 02:59 17,2 C 25,0 C 84 % 1008,9 hPa 0,0 l/m 6,0 km/h (2 Bft) O 80 0 min 0,000 mm 0,0 UV-I 0 W/m 14,5 C 17,2 C 8,0 km/h (2 Bft) 100,00 %
06.06.2018 03:00 17,2 C 25,0 C 84 % 1009,0 hPa 0,0 l/m 5,9 km/h (2 Bft) O 87 0 min 0,000 mm 0,0 UV-I 0 W/m 14,5 C 17,2 C 8,0 km/h (2 Bft) 100,00 %
06.06.2018 03:01 17,3 C 25,0 C 84 % 1008,9 hPa 0,0 l/m 6,2 km/h (2 Bft) O 80 0 min 0,025 mm 0,0 UV-I 0 W/m 14,6 C 17,3 C 8,0 km/h (2 Bft) 100,00 %
06.06.2018 03:02 17,3 C 25,0 C 84 % 1008,9 hPa 0,0 l/m 6,6 km/h (2 Bft) O-NO 61 0 min 0,000 mm 0,0 UV-I 0 W/m 14,6 C 17,2 C 11,3 km/h (2 Bft) 100,00 %
06.06.2018 03:03 17,3 C 25,0 C 84 % 1008,9 hPa 0,0 l/m 7,1 km/h (2 Bft) O-NO 68 0 min 0,000 mm 0,0 UV-I 0 W/m 14,6 C 17,0 C 11,3 km/h (2 Bft) 95,65 %
06.06.2018 03:04 17,3 C 25,0 C 83 % 1008,9 hPa 0,0 l/m 5,5 km/h (1 Bft) O 79 0 min 0,000 mm 0,0 UV-I 0 W/m 14,4 C 17,3 C 8,0 km/h (2 Bft) 100,00 %
06.06.2018 03:05 17,3 C 25,0 C 83 % 1009,0 hPa 0,0 l/m 5,3 km/h (1 Bft) O-NO 76 0 min 0,000 mm 0,0 UV-I 0 W/m 14,4 C 17,3 C 8,0 km/h (2 Bft) 100,00 %
06.06.2018 03:06 17,3 C 25,0 C 83 % 1008,9 hPa 0,0 l/m 6,0 km/h (2 Bft) O-NO 61 0 min 0,000 mm 0,0 UV-I 0 W/m 14,4 C 17,3 C 8,0 km/h (2 Bft) 100,00 %
06.06.2018 03:07 17,3 C 25,0 C 83 % 1008,9 hPa 0,0 l/m 5,3 km/h (1 Bft) O-NO 57 0 min 0,000 mm 0,0 UV-I 0 W/m 14,4 C 17,3 C 8,0 km/h (2 Bft) 100,00 %
06.06.2018 03:08 17,2 C 25,0 C 84 % 1008,9 hPa 0,0 l/m 4,8 km/h (1 Bft) O 80 0 min 0,000 mm 0,0 UV-I 0 W/m 14,5 C 17,2 C 6,4 km/h (2 Bft) 100,00 %
06.06.2018 03:09 17,1 C 25,0 C 84 % 1008,9 hPa 0,0 l/m 5,4 km/h (1 Bft) O-NO 65 0 min 0,000 mm 0,0 UV-I 0 W/m 14,4 C 17,1 C 6,4 km/h (2 Bft) 100,00 %
06.06.2018 03:10 17,1 C 25,0 C 84 % 1008,9 hPa 0,0 l/m 5,1 km/h (1 Bft) O 86 0 min 0,000 mm 0,0 UV-I 0 W/m 14,4 C 17,1 C 8,0 km/h (2 Bft) 100,00 %
06.06.2018 03:11 17,0 C 25,0 C 84 % 1008,9 hPa 0,0 l/m 5,0 km/h (1 Bft) O-NO 76 0 min 0,000 mm 0,0 UV-I 0 W/m 14,3 C 17,0 C 8,0 km/h (2 Bft) 100,00 %
06.06.2018 03:12 16,9 C 25,0 C 84 % 1008,9 hPa 0,0 l/m 5,5 km/h (1 Bft) O-NO 57 0 min 0,000 mm 0,0 UV-I 0 W/m 14,2 C 16,9 C 8,0 km/h (2 Bft) 100,00 %
06.06.2018 03:13 16,8 C 25,0 C 85 % 1008,9 hPa 0,0 l/m 4,8 km/h (1 Bft) O-NO 58 0 min 0,000 mm 0,0 UV-I 0 W/m 14,3 C 16,8 C 8,0 km/h (2 Bft) 100,00 %
06.06.2018 03:14 16,8 C 25,0 C 85 % 1008,9 hPa 0,0 l/m 6,5 km/h (2 Bft) O-NO 57 0 min 0,000 mm 0,0 UV-I 0 W/m 14,3 C 16,8 C 8,0 km/h (2 Bft) 100,00 %
06.06.2018 03:15 16,8 C 25,0 C 85 % 1008,9 hPa 0,0 l/m 5,0 km/h (1 Bft) NO 46 0 min 0,000 mm 0,0 UV-I 0 W/m 14,3 C 16,8 C 8,0 km/h (2 Bft) 100,00 %
06.06.2018 03:16 16,8 C 25,0 C 85 % 1008,9 hPa 0,0 l/m 3,9 km/h (1 Bft) O-NO 71 0 min 0,000 mm 0,0 UV-I 0 W/m 14,3 C 16,8 C 6,4 km/h (2 Bft) 100,00 %
06.06.2018 03:17 16,8 C 25,0 C 86 % 1008,9 hPa 0,0 l/m 4,8 km/h (1 Bft) NO 44 0 min 0,000 mm 0,0 UV-I 0 W/m 14,4 C 16,8 C 6,4 km/h (2 Bft) 95,65 %
06.06.2018 03:18 16,9 C 25,0 C 85 % 1008,9 hPa 0,0 l/m 3,4 km/h (1 Bft) O-NO 66 0 min 0,000 mm 0,0 UV-I 0 W/m 14,4 C 16,9 C 4,8 km/h (1 Bft) 95,83 %
06.06.2018 03:19 16,9 C 25,0 C 85 % 1008,9 hPa 0,0 l/m 3,0 km/h (1 Bft) O-NO 69 0 min 0,000 mm 0,0 UV-I 0 W/m 14,4 C 16,9 C 4,8 km/h (1 Bft) 100,00 %
06.06.2018 03:20 16,9 C 25,0 C 85 % 1008,9 hPa 0,0 l/m 3,6 km/h (1 Bft) O-NO 67 0 min 0,000 mm 0,0 UV-I 0 W/m 14,4 C 16,9 C 4,8 km/h (1 Bft) 100,00 %
06.06.2018 03:21 16,9 C 25,0 C 85 % 1008,9 hPa 0,0 l/m 5,1 km/h (1 Bft) O-NO 67 0 min 0,000 mm 0,0 UV-I 0 W/m 14,4 C 16,9 C 6,4 km/h (2 Bft) 100,00 %
06.06.2018 03:22 16,9 C 25,0 C 85 % 1008,9 hPa 0,0 l/m 5,0 km/h (1 Bft) O-NO 61 0 min 0,000 mm 0,0 UV-I 0 W/m 14,4 C 16,9 C 6,4 km/h (2 Bft) 100,00 %
06.06.2018 03:23 16,9 C 25,0 C 85 % 1008,9 hPa 0,0 l/m 5,4 km/h (1 Bft) O-NO 58 0 min 0,000 mm 0,0 UV-I 0 W/m 14,4 C 16,9 C 8,0 km/h (2 Bft) 100,00 %
06.06.2018 03:24 16,9 C 25,0 C 85 % 1008,9 hPa 0,0 l/m 5,8 km/h (2 Bft) NO 44 0 min 0,000 mm 0,0 UV-I 0 W/m 14,4 C 16,9 C 8,0 km/h (2 Bft) 100,00 %
06.06.2018 03:25 16,9 C 25,0 C 86 % 1008,9 hPa 0,0 l/m 5,8 km/h (2 Bft) O-NO 66 0 min 0,000 mm 0,0 UV-I 0 W/m 14,5 C 16,9 C 9,7 km/h (2 Bft) 100,00 %
06.06.2018 03:26 16,9 C 25,0 C 86 % 1008,9 hPa 0,0 l/m 4,2 km/h (1 Bft) NO 41 0 min 0,000 mm 0,0 UV-I 0 W/m 14,5 C 16,9 C 6,4 km/h (2 Bft) 100,00 %
06.06.2018 03:27 17,0 C 25,0 C 86 % 1008,8 hPa 0,0 l/m 4,3 km/h (1 Bft) O-NO 61 0 min 0,000 mm 0,0 UV-I 0 W/m 14,6 C 17,0 C 6,4 km/h (2 Bft) 100,00 %
06.06.2018 03:28 17,1 C 25,0 C 85 % 1008,8 hPa 0,0 l/m 4,6 km/h (1 Bft) O 82 0 min 0,000 mm 0,0 UV-I 0 W/m 14,6 C 17,1 C 6,4 km/h (2 Bft) 100,00 %
06.06.2018 03:29 17,1 C 25,0 C 85 % 1008,8 hPa 0,0 l/m 4,4 km/h (1 Bft) O-NO 69 0 min 0,000 mm 0,0 UV-I 0 W/m 14,6 C 17,1 C 6,4 km/h (2 Bft) 100,00 %
06.06.2018 03:30 17,1 C 25,0 C 85 % 1008,8 hPa 0,0 l/m 4,7 km/h (1 Bft) O-NO 64 0 min 0,000 mm 0,0 UV-I 0 W/m 14,6 C 17,1 C 6,4 km/h (2 Bft) 100,00 %
06.06.2018 03:31 17,1 C 25,0 C 85 % 1008,8 hPa 0,0 l/m 5,8 km/h (2 Bft) O 89 0 min 0,000 mm 0,0 UV-I 0 W/m 14,6 C 17,1 C 9,7 km/h (2 Bft) 100,00 %
06.06.2018 03:32 17,1 C 25,0 C 85 % 1008,9 hPa 0,0 l/m 4,4 km/h (1 Bft) O-NO 60 0 min 0,000 mm 0,0 UV-I 0 W/m 14,6 C 17,1 C 6,4 km/h (2 Bft) 91,30 %
06.06.2018 03:33 17,1 C 25,0 C 85 % 1008,9 hPa 0,0 l/m 5,0 km/h (1 Bft) NO 52 0 min 0,000 mm 0,0 UV-I 0 W/m 14,6 C 17,1 C 6,4 km/h (2 Bft) 100,00 %
06.06.2018 03:34 17,1 C 25,0 C 85 % 1008,9 hPa 0,0 l/m 6,0 km/h (2 Bft) O-NO 63 0 min 0,000 mm 0,0 UV-I 0 W/m 14,6 C 17,1 C 8,0 km/h (2 Bft) 95,65 %
06.06.2018 03:35 17,0 C 25,0 C 85 % 1008,9 hPa 0,0 l/m 5,2 km/h (1 Bft) O-NO 59 0 min 0,000 mm 0,0 UV-I 0 W/m 14,5 C 17,0 C 8,0 km/h (2 Bft) 100,00 %
06.06.2018 03:36 17,0 C 25,0 C 85 % 1008,9 hPa 0,0 l/m 7,2 km/h (2 Bft) NO 44 0 min 0,000 mm 0,0 UV-I 0 W/m 14,5 C 16,6 C 9,7 km/h (2 Bft) 95,65 %
06.06.2018 03:37 17,0 C 25,0 C 85 % 1008,9 hPa 0,0 l/m 4,2 km/h (1 Bft) O 82 0 min 0,000 mm 0,0 UV-I 0 W/m 14,5 C 17,0 C 4,8 km/h (1 Bft) 100,00 %
06.06.2018 03:38 17,0 C 25,0 C 85 % 1008,9 hPa 0,0 l/m 3,4 km/h (1 Bft) O 82 0 min 0,000 mm 0,0 UV-I 0 W/m 14,5 C 17,0 C 4,8 km/h (1 Bft) 100,00 %
06.06.2018 03:39 17,0 C 25,0 C 85 % 1008,9 hPa 0,0 l/m 3,9 km/h (1 Bft) O-NO 69 0 min 0,000 mm 0,0 UV-I 0 W/m 14,5 C 17,0 C 6,4 km/h (2 Bft) 100,00 %
06.06.2018 03:40 17,0 C 25,0 C 85 % 1008,9 hPa 0,0 l/m 3,8 km/h (1 Bft) O 80 0 min 0,000 mm 0,0 UV-I 0 W/m 14,5 C 17,0 C 4,8 km/h (1 Bft) 100,00 %
06.06.2018 03:41 17,0 C 25,0 C 85 % 1008,9 hPa 0,0 l/m 4,2 km/h (1 Bft) O 87 0 min 0,000 mm 0,0 UV-I 0 W/m 14,5 C 17,0 C 6,4 km/h (2 Bft) 95,65 %
06.06.2018 03:42 17,0 C 25,0 C 85 % 1008,9 hPa 0,0 l/m 4,6 km/h (1 Bft) O-NO 76 0 min 0,000 mm 0,0 UV-I 0 W/m 14,5 C 17,0 C 6,4 km/h (2 Bft) 91,67 %
06.06.2018 03:43 17,0 C 25,0 C 85 % 1008,9 hPa 0,0 l/m 3,9 km/h (1 Bft) O 81 0 min 0,000 mm 0,0 UV-I 0 W/m 14,5 C 17,0 C 6,4 km/h (2 Bft) 100,00 %
06.06.2018 03:44 17,0 C 25,0 C 85 % 1008,9 hPa 0,0 l/m 6,2 km/h (2 Bft) O-NO 62 0 min 0,000 mm 0,0 UV-I 0 W/m 14,5 C 17,0 C 9,7 km/h (2 Bft) 100,00 %
06.06.2018 03:45 16,9 C 25,0 C 85 % 1008,8 hPa 0,0 l/m 5,2 km/h (1 Bft) NO 53 0 min 0,000 mm 0,0 UV-I 0 W/m 14,4 C 16,9 C 6,4 km/h (2 Bft) 100,00 %
06.06.2018 03:46 16,9 C 25,0 C 85 % 1008,8 hPa 0,0 l/m 4,2 km/h (1 Bft) O-NO 76 0 min 0,000 mm 0,0 UV-I 0 W/m 14,4 C 16,9 C 6,4 km/h (2 Bft) 100,00 %
06.06.2018 03:47 16,9 C 25,0 C 86 % 1008,8 hPa 0,0 l/m 5,5 km/h (1 Bft) NO 55 0 min 0,000 mm 0,0 UV-I 0 W/m 14,5 C 16,9 C 8,0 km/h (2 Bft) 100,00 %
06.06.2018 03:48 16,8 C 25,0 C 86 % 1008,8 hPa 0,0 l/m 4,4 km/h (1 Bft) O 79 0 min 0,000 mm 0,0 UV-I 0 W/m 14,4 C 16,8 C 6,4 km/h (2 Bft) 100,00 %
06.06.2018 03:49 16,8 C 25,0 C 86 % 1008,8 hPa 0,0 l/m 4,1 km/h (1 Bft) O-NO 62 0 min 0,000 mm 0,0 UV-I 0 W/m 14,4 C 16,8 C 8,0 km/h (2 Bft) 100,00 %
06.06.2018 03:50 16,8 C 25,0 C 86 % 1008,8 hPa 0,0 l/m 4,1 km/h (1 Bft) O-NO 69 0 min 0,000 mm 0,0 UV-I 0 W/m 14,4 C 16,8 C 6,4 km/h (2 Bft) 100,00 %
06.06.2018 03:51 16,8 C 25,0 C 86 % 1008,8 hPa 0,0 l/m 4,0 km/h (1 Bft) O-NO 57 0 min 0,000 mm 0,0 UV-I 0 W/m 14,4 C 16,8 C 4,8 km/h (1 Bft) 100,00 %
06.06.2018 03:52 16,8 C 25,0 C 86 % 1008,8 hPa 0,0 l/m 3,3 km/h (1 Bft) O-NO 60 0 min 0,000 mm 0,0 UV-I 0 W/m 14,4 C 16,8 C 4,8 km/h (1 Bft) 100,00 %
06.06.2018 03:53 16,8 C 25,0 C 86 % 1008,8 hPa 0,0 l/m 5,6 km/h (1 Bft) O-NO 66 0 min 0,000 mm 0,0 UV-I 0 W/m 14,4 C 16,8 C 8,0 km/h (2 Bft) 100,00 %
06.06.2018 03:54 16,8 C 25,0 C 86 % 1008,8 hPa 0,0 l/m 5,6 km/h (1 Bft) O-NO 68 0 min 0,000 mm 0,0 UV-I 0 W/m 14,4 C 16,8 C 8,0 km/h (2 Bft) 100,00 %
06.06.2018 03:55 16,8 C 25,0 C 86 % 1008,8 hPa 0,0 l/m 4,6 km/h (1 Bft) O-NO 61 0 min 0,000 mm 0,0 UV-I 0 W/m 14,4 C 16,8 C 6,4 km/h (2 Bft) 100,00 %
06.06.2018 03:56 16,8 C 25,0 C 86 % 1008,8 hPa 0,0 l/m 4,8 km/h (1 Bft) O-NO 73 0 min 0,000 mm 0,0 UV-I 0 W/m 14,4 C 16,8 C 6,4 km/h (2 Bft) 100,00 %
06.06.2018 03:57 16,8 C 25,0 C 86 % 1008,8 hPa 0,0 l/m 4,9 km/h (1 Bft) O-NO 65 0 min 0,000 mm 0,0 UV-I 0 W/m 14,4 C 16,8 C 8,0 km/h (2 Bft) 95,65 %
06.06.2018 03:58 16,8 C 25,0 C 86 % 1008,8 hPa 0,0 l/m 4,6 km/h (1 Bft) NO 44 0 min 0,000 mm 0,0 UV-I 0 W/m 14,4 C 16,8 C 8,0 km/h (2 Bft) 95,83 %
06.06.2018 03:59 16,8 C 25,0 C 86 % 1008,9 hPa 0,0 l/m 5,8 km/h (2 Bft) NO 48 0 min 0,000 mm 0,0 UV-I 0 W/m 14,4 C 16,8 C 8,0 km/h (2 Bft) 100,00 %
06.06.2018 04:00 16,8 C 25,0 C 86 % 1008,9 hPa 0,0 l/m 4,8 km/h (1 Bft) NO 50 0 min 0,026 mm 0,0 UV-I 0 W/m 14,4 C 16,8 C 6,4 km/h (2 Bft) 96,30 %
06.06.2018 04:01 16,8 C 25,0 C 86 % 1008,9 hPa 0,0 l/m 4,9 km/h (1 Bft) NO 53 0 min 0,000 mm 0,0 UV-I 0 W/m 14,4 C 16,8 C 6,4 km/h (2 Bft) 92,31 %
06.06.2018 04:02 16,8 C 25,0 C 87 % 1008,8 hPa 0,0 l/m 4,2 km/h (1 Bft) O-NO 58 0 min 0,000 mm 0,0 UV-I 0 W/m 14,6 C 16,8 C 4,8 km/h (1 Bft) 100,00 %
06.06.2018 04:03 16,8 C 25,0 C 87 % 1008,9 hPa 0,0 l/m 3,7 km/h (1 Bft) O-NO 67 0 min 0,000 mm 0,0 UV-I 0 W/m 14,6 C 16,8 C 6,4 km/h (2 Bft) 100,00 %
06.06.2018 04:04 16,8 C 25,0 C 86 % 1008,9 hPa 0,0 l/m 5,9 km/h (2 Bft) O-NO 66 0 min 0,000 mm 0,0 UV-I 0 W/m 14,4 C 16,8 C 9,7 km/h (2 Bft) 95,83 %
06.06.2018 04:05 16,8 C 25,0 C 86 % 1008,9 hPa 0,0 l/m 3,9 km/h (1 Bft) O 83 0 min 0,000 mm 0,0 UV-I 0 W/m 14,4 C 16,8 C 4,8 km/h (1 Bft) 100,00 %
06.06.2018 04:06 16,8 C 25,0 C 86 % 1008,8 hPa 0,0 l/m 3,6 km/h (1 Bft) O-NO 66 0 min 0,000 mm 0,0 UV-I 0 W/m 14,4 C 16,8 C 4,8 km/h (1 Bft) 100,00 %
06.06.2018 04:07 16,8 C 25,0 C 86 % 1008,8 hPa 0,0 l/m 3,6 km/h (1 Bft) O 86 0 min 0,000 mm 0,0 UV-I 0 W/m 14,4 C 16,8 C 6,4 km/h (2 Bft) 100,00 %
06.06.2018 04:08 16,8 C 25,0 C 86 % 1008,8 hPa 0,0 l/m 3,8 km/h (1 Bft) O 80 0 min 0,000 mm 0,0 UV-I 0 W/m 14,4 C 16,8 C 6,4 km/h (2 Bft) 100,00 %
06.06.2018 04:09 16,8 C 25,0 C 86 % 1008,8 hPa 0,0 l/m 4,2 km/h (1 Bft) O 86 0 min 0,000 mm 0,0 UV-I 0 W/m 14,4 C 16,8 C 6,4 km/h (2 Bft) 100,00 %
06.06.2018 04:10 16,8 C 25,0 C 86 % 1008,8 hPa 0,0 l/m 5,1 km/h (1 Bft) O-NO 70 0 min 0,000 mm 0,0 UV-I 0 W/m 14,4 C 16,8 C 8,0 km/h (2 Bft) 95,65 %
06.06.2018 04:11 16,8 C 25,0 C 86 % 1008,8 hPa 0,0 l/m 6,8 km/h (2 Bft) O 83 0 min 0,000 mm 0,0 UV-I 0 W/m 14,4 C 16,6 C 11,3 km/h (2 Bft) 100,00 %
06.06.2018 04:12 16,8 C 25,0 C 86 % 1008,8 hPa 0,0 l/m 4,3 km/h (1 Bft) O 86 0 min 0,000 mm 0,0 UV-I 0 W/m 14,4 C 16,8 C 6,4 km/h (2 Bft) 100,00 %
06.06.2018 04:13 16,8 C 25,0 C 86 % 1008,8 hPa 0,0 l/m 4,0 km/h (1 Bft) O 79 0 min 0,000 mm 0,0 UV-I 0 W/m 14,4 C 16,8 C 6,4 km/h (2 Bft) 100,00 %
06.06.2018 04:14 16,8 C 25,0 C 86 % 1008,8 hPa 0,0 l/m 4,0 km/h (1 Bft) O 88 0 min 0,000 mm 0,0 UV-I 0 W/m 14,4 C 16,8 C 6,4 km/h (2 Bft) 95,65 %
06.06.2018 04:15 16,8 C 25,0 C 86 % 1008,8 hPa 0,0 l/m 4,2 km/h (1 Bft) O 80 0 min 0,000 mm 0,0 UV-I 0 W/m 14,4 C 16,8 C 4,8 km/h (1 Bft) 95,83 %
06.06.2018 04:16 16,8 C 25,0 C 86 % 1008,8 hPa 0,0 l/m 3,9 km/h (1 Bft) O 85 0 min 0,000 mm 0,0 UV-I 0 W/m 14,4 C 16,8 C 4,8 km/h (1 Bft) 100,00 %
06.06.2018 04:17 16,8 C 25,0 C 87 % 1008,8 hPa 0,0 l/m 4,6 km/h (1 Bft) O 80 0 min 0,000 mm 0,0 UV-I 0 W/m 14,6 C 16,8 C 6,4 km/h (2 Bft) 95,65 %
06.06.2018 04:18 16,8 C 25,0 C 86 % 1008,8 hPa 0,0 l/m 4,9 km/h (1 Bft) O 86 0 min 0,000 mm 0,0 UV-I 0 W/m 14,4 C 16,8 C 6,4 km/h (2 Bft) 100,00 %
06.06.2018 04:19 16,8 C 25,0 C 86 % 1008,8 hPa 0,0 l/m 5,0 km/h (1 Bft) O-NO 71 0 min 0,000 mm 0,0 UV-I 0 W/m 14,4 C 16,8 C 6,4 km/h (2 Bft) 92,31 %
06.06.2018 04:20 16,7 C 25,0 C 86 % 1008,8 hPa 0,0 l/m 3,9 km/h (1 Bft) O-NO 76 0 min 0,000 mm 0,0 UV-I 0 W/m 14,3 C 16,7 C 4,8 km/h (1 Bft) 95,83 %
06.06.2018 04:21 16,7 C 25,0 C 87 % 1008,8 hPa 0,0 l/m 4,8 km/h (1 Bft) O 80 0 min 0,000 mm 0,0 UV-I 0 W/m 14,5 C 16,7 C 6,4 km/h (2 Bft) 95,65 %
06.06.2018 04:22 16,7 C 25,0 C 87 % 1008,8 hPa 0,0 l/m 3,8 km/h (1 Bft) O-NO 65 0 min 0,000 mm 0,0 UV-I 0 W/m 14,5 C 16,7 C 6,4 km/h (2 Bft) 95,83 %
06.06.2018 04:23 16,7 C 25,0 C 87 % 1008,8 hPa 0,0 l/m 4,8 km/h (1 Bft) O 82 0 min 0,000 mm 0,0 UV-I 0 W/m 14,5 C 16,7 C 6,4 km/h (2 Bft) 100,00 %
06.06.2018 04:24 16,7 C 25,0 C 87 % 1008,8 hPa 0,0 l/m 6,1 km/h (2 Bft) O 79 0 min 0,000 mm 0,0 UV-I 0 W/m 14,5 C 16,7 C 8,0 km/h (2 Bft) 95,83 %
06.06.2018 04:25 16,7 C 25,0 C 87 % 1008,8 hPa 0,0 l/m 5,6 km/h (1 Bft) O-NO 78 0 min 0,000 mm 0,0 UV-I 0 W/m 14,5 C 16,7 C 8,0 km/h (2 Bft) 100,00 %
06.06.2018 04:26 16,7 C 25,0 C 87 % 1008,8 hPa 0,0 l/m 4,9 km/h (1 Bft) O 79 0 min 0,000 mm 0,0 UV-I 0 W/m 14,5 C 16,7 C 6,4 km/h (2 Bft) 95,83 %
06.06.2018 04:27 16,7 C 25,0 C 87 % 1008,8 hPa 0,0 l/m 6,0 km/h (2 Bft) O 81 0 min 0,000 mm 0,0 UV-I 0 W/m 14,5 C 16,7 C 8,0 km/h (2 Bft) 100,00 %
06.06.2018 04:28 16,7 C 25,0 C 87 % 1008,8 hPa 0,0 l/m 4,8 km/h (1 Bft) O-NO 70 0 min 0,000 mm 0,0 UV-I 0 W/m 14,5 C 16,7 C 6,4 km/h (2 Bft) 95,83 %
06.06.2018 04:29 16,7 C 25,0 C 87 % 1008,8 hPa 0,0 l/m 5,6 km/h (1 Bft) O-NO 76 0 min 0,000 mm 0,0 UV-I 0 W/m 14,5 C 16,7 C 9,7 km/h (2 Bft) 100,00 %
06.06.2018 04:30 16,7 C 25,0 C 87 % 1008,8 hPa 0,0 l/m 4,0 km/h (1 Bft) O 83 0 min 0,000 mm 0,0 UV-I 0 W/m 14,5 C 16,7 C 4,8 km/h (1 Bft) 95,83 %
06.06.2018 04:31 16,7 C 25,0 C 87 % 1008,8 hPa 0,0 l/m 6,1 km/h (2 Bft) O-NO 78 0 min 0,000 mm 0,0 UV-I 0 W/m 14,5 C 16,7 C 11,3 km/h (2 Bft) 95,65 %
06.06.2018 04:32 16,7 C 25,0 C 87 % 1008,8 hPa 0,0 l/m 6,5 km/h (2 Bft) O 80 0 min 0,000 mm 0,0 UV-I 0 W/m 14,5 C 16,7 C 8,0 km/h (2 Bft) 100,00 %
06.06.2018 04:33 16,7 C 25,0 C 87 % 1008,8 hPa 0,0 l/m 6,2 km/h (2 Bft) O 80 0 min 0,000 mm 0,0 UV-I 0 W/m 14,5 C 16,7 C 8,0 km/h (2 Bft) 91,30 %
06.06.2018 04:34 16,7 C 25,0 C 87 % 1008,8 hPa 0,0 l/m 6,0 km/h (2 Bft) O-NO 75 0 min 0,000 mm 0,0 UV-I 0 W/m 14,5 C 16,7 C 9,7 km/h (2 Bft) 100,00 %
06.06.2018 04:35 16,6 C 25,0 C 87 % 1008,8 hPa 0,0 l/m 5,8 km/h (2 Bft) O-NO 57 0 min 0,000 mm 0,0 UV-I 0 W/m 14,4 C 16,6 C 8,0 km/h (2 Bft) 91,30 %
06.06.2018 04:36 16,6 C 25,0 C 87 % 1008,9 hPa 0,0 l/m 5,5 km/h (1 Bft) O 85 0 min 0,000 mm 0,0 UV-I 0 W/m 14,4 C 16,6 C 6,4 km/h (2 Bft) 100,00 %
06.06.2018 04:37 16,6 C 25,0 C 87 % 1008,9 hPa 0,0 l/m 6,2 km/h (2 Bft) O 80 0 min 0,000 mm 0,0 UV-I 0 W/m 14,4 C 16,6 C 9,7 km/h (2 Bft) 95,65 %
06.06.2018 04:38 16,6 C 25,0 C 87 % 1008,9 hPa 0,0 l/m 4,4 km/h (1 Bft) O-NO 69 0 min 0,000 mm 0,0 UV-I 0 W/m 14,4 C 16,6 C 6,4 km/h (2 Bft) 95,83 %
06.06.2018 04:39 16,6 C 25,0 C 88 % 1008,9 hPa 0,0 l/m 5,8 km/h (2 Bft) NO 38 0 min 0,000 mm 0,0 UV-I 0 W/m 14,6 C 16,6 C 8,0 km/h (2 Bft) 100,00 %
06.06.2018 04:40 16,5 C 25,0 C 88 % 1008,9 hPa 0,0 l/m 6,3 km/h (2 Bft) O-NO 67 0 min 0,000 mm 0,0 UV-I 0 W/m 14,5 C 16,5 C 8,0 km/h (2 Bft) 95,65 %
06.06.2018 04:41 16,4 C 25,0 C 88 % 1008,9 hPa 0,0 l/m 6,4 km/h (2 Bft) O-NO 59 0 min 0,000 mm 0,0 UV-I 0 W/m 14,4 C 16,4 C 8,0 km/h (2 Bft) 100,00 %
06.06.2018 04:42 16,4 C 25,0 C 88 % 1008,9 hPa 0,0 l/m 6,8 km/h (2 Bft) NO 46 0 min 0,000 mm 0,0 UV-I 0 W/m 14,4 C 16,2 C 11,3 km/h (2 Bft) 91,30 %
06.06.2018 04:43 16,4 C 25,0 C 88 % 1008,9 hPa 0,0 l/m 7,2 km/h (2 Bft) O-NO 67 0 min 0,000 mm 0,0 UV-I 0 W/m 14,4 C 16,0 C 11,3 km/h (2 Bft) 100,00 %
06.06.2018 04:44 16,4 C 25,0 C 89 % 1008,9 hPa 0,0 l/m 5,6 km/h (1 Bft) O 94 0 min 0,000 mm 0,0 UV-I 0 W/m 14,6 C 16,4 C 8,0 km/h (2 Bft) 78,26 %
06.06.2018 04:45 16,4 C 25,0 C 88 % 1008,9 hPa 0,0 l/m 5,0 km/h (1 Bft) O-NO 78 0 min 0,000 mm 0,0 UV-I 0 W/m 14,4 C 16,4 C 8,0 km/h (2 Bft) 100,00 %
06.06.2018 04:46 16,5 C 25,0 C 89 % 1008,9 hPa 0,0 l/m 5,6 km/h (1 Bft) O-NO 67 0 min 0,000 mm 0,0 UV-I 2 W/m 14,7 C 16,5 C 8,0 km/h (2 Bft) 95,65 %
06.06.2018 04:47 16,5 C 25,0 C 88 % 1008,9 hPa 0,0 l/m 5,4 km/h (1 Bft) O-NO 74 0 min 0,000 mm 0,0 UV-I 5 W/m 14,5 C 16,5 C 8,0 km/h (2 Bft) 100,00 %
06.06.2018 04:48 16,6 C 25,0 C 88 % 1008,8 hPa 0,0 l/m 4,8 km/h (1 Bft) O-NO 57 0 min 0,000 mm 0,0 UV-I 5 W/m 14,6 C 16,6 C 8,0 km/h (2 Bft) 100,00 %
06.06.2018 04:49 16,6 C 25,0 C 88 % 1008,9 hPa 0,0 l/m 3,9 km/h (1 Bft) NO 47 0 min 0,000 mm 0,0 UV-I 5 W/m 14,6 C 16,6 C 4,8 km/h (1 Bft) 100,00 %
06.06.2018 04:50 16,6 C 25,0 C 88 % 1008,9 hPa 0,0 l/m 4,0 km/h (1 Bft) NO 55 0 min 0,000 mm 0,0 UV-I 5 W/m 14,6 C 16,6 C 6,4 km/h (2 Bft) 100,00 %
06.06.2018 04:51 16,6 C 25,0 C 88 % 1008,9 hPa 0,0 l/m 5,6 km/h (1 Bft) O-NO 67 0 min 0,000 mm 0,0 UV-I 5 W/m 14,6 C 16,6 C 8,0 km/h (2 Bft) 100,00 %
06.06.2018 04:52 16,6 C 25,0 C 88 % 1008,9 hPa 0,0 l/m 4,5 km/h (1 Bft) O-NO 65 0 min 0,000 mm 0,0 UV-I 5 W/m 14,6 C 16,6 C 6,4 km/h (2 Bft) 96,15 %
06.06.2018 04:53 16,6 C 25,0 C 88 % 1008,9 hPa 0,0 l/m 4,7 km/h (1 Bft) O-NO 65 0 min 0,000 mm 0,0 UV-I 5 W/m 14,6 C 16,6 C 6,4 km/h (2 Bft) 91,67 %
06.06.2018 04:54 16,5 C 25,0 C 88 % 1008,9 hPa 0,0 l/m 4,0 km/h (1 Bft) O 80 0 min 0,000 mm 0,0 UV-I 5 W/m 14,5 C 16,5 C 4,8 km/h (1 Bft) 100,00 %
06.06.2018 04:55 16,5 C 25,0 C 89 % 1008,9 hPa 0,0 l/m 5,4 km/h (1 Bft) NO 51 0 min 0,000 mm 0,0 UV-I 5 W/m 14,7 C 16,5 C 6,4 km/h (2 Bft) 100,00 %
06.06.2018 04:56 16,5 C 25,0 C 88 % 1008,9 hPa 0,0 l/m 5,9 km/h (2 Bft) O-NO 66 0 min 0,000 mm 0,0 UV-I 5 W/m 14,5 C 16,5 C 8,0 km/h (2 Bft) 100,00 %
06.06.2018 04:57 16,5 C 25,0 C 89 % 1008,9 hPa 0,0 l/m 6,0 km/h (2 Bft) O 88 0 min 0,000 mm 0,0 UV-I 6 W/m 14,7 C 16,5 C 6,4 km/h (2 Bft) 91,67 %
06.06.2018 04:58 16,5 C 25,0 C 88 % 1008,9 hPa 0,0 l/m 5,0 km/h (1 Bft) O-SO 104 0 min 0,000 mm 0,0 UV-I 7 W/m 14,5 C 16,5 C 8,0 km/h (2 Bft) 100,00 %
06.06.2018 04:59 16,4 C 25,0 C 89 % 1008,9 hPa 0,0 l/m 5,1 km/h (1 Bft) O-NO 68 0 min 0,000 mm 0,0 UV-I 7 W/m 14,6 C 16,4 C 6,4 km/h (2 Bft) 95,65 %
06.06.2018 05:00 16,4 C 25,0 C 89 % 1008,9 hPa 0,0 l/m 5,7 km/h (1 Bft) O-NO 57 0 min 0,025 mm 0,0 UV-I 7 W/m 14,6 C 16,4 C 8,0 km/h (2 Bft) 100,00 %
06.06.2018 05:01 16,5 C 25,0 C 89 % 1008,9 hPa 0,0 l/m 3,6 km/h (1 Bft) O 96 0 min 0,000 mm 0,0 UV-I 7 W/m 14,7 C 16,5 C 4,8 km/h (1 Bft) 95,65 %
06.06.2018 05:02 16,5 C 25,0 C 89 % 1008,8 hPa 0,0 l/m 5,5 km/h (1 Bft) O 94 0 min 0,000 mm 0,0 UV-I 7 W/m 14,7 C 16,5 C 6,4 km/h (2 Bft) 100,00 %
06.06.2018 05:03 16,5 C 25,0 C 89 % 1008,9 hPa 0,0 l/m 5,2 km/h (1 Bft) O 82 0 min 0,000 mm 0,0 UV-I 7 W/m 14,7 C 16,5 C 6,4 km/h (2 Bft) 95,65 %
06.06.2018 05:04 16,5 C 25,0 C 89 % 1008,9 hPa 0,0 l/m 6,0 km/h (2 Bft) O 80 0 min 0,000 mm 0,0 UV-I 7 W/m 14,7 C 16,5 C 8,0 km/h (2 Bft) 95,83 %
06.06.2018 05:05 16,5 C 25,0 C 89 % 1008,9 hPa 0,0 l/m 5,5 km/h (1 Bft) O-NO 69 0 min 0,000 mm 0,0 UV-I 8 W/m 14,7 C 16,5 C 8,0 km/h (2 Bft) 100,00 %
06.06.2018 05:06 16,5 C 25,0 C 89 % 1008,9 hPa 0,0 l/m 4,3 km/h (1 Bft) O-NO 68 0 min 0,000 mm 0,0 UV-I 9 W/m 14,7 C 16,5 C 8,0 km/h (2 Bft) 95,83 %
06.06.2018 05:07 16,4 C 25,0 C 89 % 1008,9 hPa 0,0 l/m 4,9 km/h (1 Bft) O 89 0 min 0,000 mm 0,0 UV-I 9 W/m 14,6 C 16,4 C 6,4 km/h (2 Bft) 100,00 %
06.06.2018 05:08 16,4 C 25,0 C 89 % 1008,9 hPa 0,0 l/m 5,1 km/h (1 Bft) O 89 0 min 0,000 mm 0,0 UV-I 9 W/m 14,6 C 16,4 C 6,4 km/h (2 Bft) 95,83 %
06.06.2018 05:09 16,4 C 25,0 C 89 % 1008,9 hPa 0,0 l/m 3,6 km/h (1 Bft) NO 44 0 min 0,000 mm 0,0 UV-I 9 W/m 14,6 C 16,4 C 4,8 km/h (1 Bft) 100,00 %
06.06.2018 05:10 16,4 C 25,0 C 89 % 1008,9 hPa 0,0 l/m 4,2 km/h (1 Bft) O 91 0 min 0,000 mm 0,0 UV-I 10 W/m 14,6 C 16,4 C 6,4 km/h (2 Bft) 96,30 %
06.06.2018 05:11 16,4 C 25,0 C 89 % 1008,9 hPa 0,0 l/m 2,9 km/h (1 Bft) O 81 0 min 0,000 mm 0,0 UV-I 11 W/m 14,6 C 16,4 C 4,8 km/h (1 Bft) 96,15 %
06.06.2018 05:12 16,4 C 25,0 C 89 % 1008,9 hPa 0,0 l/m 4,0 km/h (1 Bft) NO 50 0 min 0,000 mm 0,0 UV-I 11 W/m 14,6 C 16,4 C 6,4 km/h (2 Bft) 95,83 %
06.06.2018 05:13 16,4 C 25,0 C 89 % 1009,0 hPa 0,0 l/m 4,4 km/h (1 Bft) O 88 0 min 0,000 mm 0,0 UV-I 11 W/m 14,6 C 16,4 C 6,4 km/h (2 Bft) 86,96 %
06.06.2018 05:14 16,4 C 25,0 C 89 % 1009,0 hPa 0,0 l/m 5,4 km/h (1 Bft) O-NO 72 0 min 0,000 mm 0,0 UV-I 11 W/m 14,6 C 16,4 C 8,0 km/h (2 Bft) 100,00 %
06.06.2018 05:15 16,4 C 25,0 C 89 % 1009,0 hPa 0,0 l/m 5,0 km/h (1 Bft) O-NO 71 0 min 0,000 mm 0,0 UV-I 12 W/m 14,6 C 16,4 C 6,4 km/h (2 Bft) 91,30 %
06.06.2018 05:16 16,4 C 25,0 C 89 % 1009,0 hPa 0,0 l/m 4,6 km/h (1 Bft) O-NO 73 0 min 0,000 mm 0,0 UV-I 12 W/m 14,6 C 16,4 C 6,4 km/h (2 Bft) 100,00 %
06.06.2018 05:17 16,4 C 25,0 C 89 % 1009,0 hPa 0,0 l/m 4,3 km/h (1 Bft) O-NO 76 0 min 0,000 mm 0,0 UV-I 12 W/m 14,6 C 16,4 C 6,4 km/h (2 Bft) 95,65 %
06.06.2018 05:18 16,3 C 25,0 C 89 % 1009,0 hPa 0,0 l/m 5,2 km/h (1 Bft) O 89 1 min 0,000 mm 0,0 UV-I 14 W/m 14,5 C 16,3 C 8,0 km/h (2 Bft) 100,00 %
06.06.2018 05:19 16,3 C 25,0 C 89 % 1009,0 hPa 0,0 l/m 4,1 km/h (1 Bft) NO 48 1 min 0,000 mm 0,0 UV-I 14 W/m 14,5 C 16,3 C 8,0 km/h (2 Bft) 95,83 %
06.06.2018 05:20 16,3 C 25,0 C 89 % 1009,1 hPa 0,0 l/m 4,8 km/h (1 Bft) O-NO 65 1 min 0,000 mm 0,0 UV-I 15 W/m 14,5 C 16,3 C 8,0 km/h (2 Bft) 100,00 %
06.06.2018 05:21 16,3 C 25,0 C 89 % 1009,0 hPa 0,0 l/m 4,0 km/h (1 Bft) O-NO 69 1 min 0,000 mm 0,0 UV-I 16 W/m 14,5 C 16,3 C 6,4 km/h (2 Bft) 95,83 %
06.06.2018 05:22 16,3 C 25,0 C 89 % 1009,0 hPa 0,0 l/m 2,6 km/h (1 Bft) O-NO 70 1 min 0,000 mm 0,0 UV-I 16 W/m 14,5 C 16,3 C 6,4 km/h (2 Bft) 95,65 %
06.06.2018 05:23 16,3 C 25,0 C 89 % 1009,1 hPa 0,0 l/m 3,8 km/h (1 Bft) O-NO 78 1 min 0,000 mm 0,0 UV-I 18 W/m 14,5 C 16,3 C 6,4 km/h (2 Bft) 100,00 %
06.06.2018 05:24 16,3 C 25,0 C 89 % 1009,1 hPa 0,0 l/m 3,1 km/h (1 Bft) O-NO 78 1 min 0,000 mm 0,0 UV-I 18 W/m 14,5 C 16,3 C 4,8 km/h (1 Bft) 95,65 %
06.06.2018 05:25 16,4 C 25,0 C 89 % 1009,1 hPa 0,0 l/m 3,9 km/h (1 Bft) O-NO 66 1 min 0,000 mm 0,0 UV-I 19 W/m 14,6 C 16,4 C 4,8 km/h (1 Bft) 100,00 %
06.06.2018 05:26 16,4 C 25,0 C 89 % 1009,1 hPa 0,0 l/m 2,2 km/h (1 Bft) O-NO 65 0 min 0,000 mm 0,0 UV-I 19 W/m 14,6 C 16,4 C 6,4 km/h (2 Bft) 95,65 %
06.06.2018 05:27 16,4 C 25,0 C 89 % 1009,1 hPa 0,0 l/m 4,2 km/h (1 Bft) O-NO 78 0 min 0,000 mm 0,0 UV-I 20 W/m 14,6 C 16,4 C 8,0 km/h (2 Bft) 100,00 %
06.06.2018 05:28 16,4 C 25,0 C 89 % 1009,1 hPa 0,0 l/m 5,3 km/h (1 Bft) O 87 0 min 0,000 mm 0,0 UV-I 21 W/m 14,6 C 16,4 C 6,4 km/h (2 Bft) 95,65 %
06.06.2018 05:29 16,4 C 25,0 C 89 % 1009,1 hPa 0,0 l/m 3,8 km/h (1 Bft) O 86 0 min 0,000 mm 0,0 UV-I 23 W/m 14,6 C 16,4 C 4,8 km/h (1 Bft) 100,00 %
06.06.2018 05:30 16,3 C 25,0 C 89 % 1009,1 hPa 0,0 l/m 4,1 km/h (1 Bft) O-NO 63 0 min 0,000 mm 0,0 UV-I 23 W/m 14,5 C 16,3 C 6,4 km/h (2 Bft) 95,65 %
06.06.2018 05:31 16,3 C 25,0 C 89 % 1009,1 hPa 0,0 l/m 4,5 km/h (1 Bft) NO 55 0 min 0,000 mm 0,0 UV-I 25 W/m 14,5 C 16,3 C 6,4 km/h (2 Bft) 100,00 %
06.06.2018 05:32 16,3 C 25,0 C 89 % 1009,1 hPa 0,0 l/m 2,9 km/h (1 Bft) NO 55 0 min 0,000 mm 0,0 UV-I 25 W/m 14,5 C 16,3 C 4,8 km/h (1 Bft) 95,83 %
06.06.2018 05:33 16,3 C 25,0 C 89 % 1009,2 hPa 0,0 l/m 4,0 km/h (1 Bft) NO 56 0 min 0,000 mm 0,0 UV-I 26 W/m 14,5 C 16,3 C 4,8 km/h (1 Bft) 100,00 %
06.06.2018 05:34 16,3 C 25,0 C 89 % 1009,2 hPa 0,0 l/m 4,2 km/h (1 Bft) O-NO 67 0 min 0,000 mm 0,0 UV-I 27 W/m 14,5 C 16,3 C 6,4 km/h (2 Bft) 95,83 %
06.06.2018 05:35 16,2 C 25,0 C 89 % 1009,1 hPa 0,0 l/m 4,5 km/h (1 Bft) O-NO 61 0 min 0,000 mm 0,0 UV-I 30 W/m 14,4 C 16,2 C 6,4 km/h (2 Bft) 100,00 %
06.06.2018 05:36 16,2 C 25,0 C 89 % 1009,1 hPa 0,0 l/m 4,5 km/h (1 Bft) O-NO 61 0 min 0,000 mm 0,0 UV-I 30 W/m 14,4 C 16,2 C 6,4 km/h (2 Bft) 95,83 %
06.06.2018 05:37 16,2 C 25,0 C 90 % 1009,2 hPa 0,0 l/m 4,1 km/h (1 Bft) O-NO 61 0 min 0,000 mm 0,0 UV-I 32 W/m 14,6 C 16,2 C 4,8 km/h (1 Bft) 91,30 %
06.06.2018 05:38 16,2 C 25,0 C 90 % 1009,1 hPa 0,0 l/m 3,2 km/h (1 Bft) O-NO 63 0 min 0,000 mm 0,0 UV-I 34 W/m 14,6 C 16,2 C 4,8 km/h (1 Bft) 100,00 %
06.06.2018 05:39 16,2 C 25,0 C 90 % 1009,1 hPa 0,0 l/m 2,6 km/h (1 Bft) O 82 0 min 0,000 mm 0,0 UV-I 35 W/m 14,6 C 16,2 C 4,8 km/h (1 Bft) 95,65 %
06.06.2018 05:40 16,3 C 25,0 C 90 % 1009,1 hPa 0,0 l/m 5,6 km/h (1 Bft) O 83 0 min 0,000 mm 0,0 UV-I 36 W/m 14,7 C 16,3 C 9,7 km/h (2 Bft) 100,00 %
06.06.2018 05:41 16,3 C 25,0 C 90 % 1009,1 hPa 0,0 l/m 3,8 km/h (1 Bft) O-NO 74 0 min 0,000 mm 0,0 UV-I 39 W/m 14,7 C 16,3 C 6,4 km/h (2 Bft) 95,65 %
06.06.2018 05:42 16,3 C 25,0 C 90 % 1009,1 hPa 0,0 l/m 4,5 km/h (1 Bft) O-NO 71 0 min 0,000 mm 0,0 UV-I 39 W/m 14,7 C 16,3 C 6,4 km/h (2 Bft) 95,83 %
06.06.2018 05:43 16,3 C 25,0 C 90 % 1009,1 hPa 0,0 l/m 3,9 km/h (1 Bft) O-NO 75 0 min 0,000 mm 0,0 UV-I 41 W/m 14,7 C 16,3 C 6,4 km/h (2 Bft) 95,65 %
06.06.2018 05:44 16,4 C 25,0 C 90 % 1009,1 hPa 0,0 l/m 3,9 km/h (1 Bft) O-NO 74 0 min 0,000 mm 0,0 UV-I 43 W/m 14,8 C 16,4 C 4,8 km/h (1 Bft) 100,00 %
06.06.2018 05:45 16,4 C 25,0 C 89 % 1009,2 hPa 0,0 l/m 5,0 km/h (1 Bft) NO 52 0 min 0,000 mm 0,0 UV-I 44 W/m 14,6 C 16,4 C 6,4 km/h (2 Bft) 95,65 %
06.06.2018 05:46 16,4 C 25,0 C 89 % 1009,2 hPa 0,0 l/m 5,6 km/h (1 Bft) O 80 0 min 0,000 mm 0,0 UV-I 45 W/m 14,6 C 16,4 C 8,0 km/h (2 Bft) 95,83 %
06.06.2018 05:47 16,4 C 25,0 C 89 % 1009,2 hPa 0,0 l/m 4,9 km/h (1 Bft) O 88 0 min 0,000 mm 0,0 UV-I 47 W/m 14,6 C 16,4 C 8,0 km/h (2 Bft) 100,00 %
06.06.2018 05:48 16,4 C 25,0 C 89 % 1009,2 hPa 0,0 l/m 5,3 km/h (1 Bft) O-NO 69 0 min 0,000 mm 0,0 UV-I 47 W/m 14,6 C 16,4 C 6,4 km/h (2 Bft) 95,83 %
06.06.2018 05:49 16,5 C 25,0 C 89 % 1009,2 hPa 0,0 l/m 3,8 km/h (1 Bft) O 84 0 min 0,000 mm 0,0 UV-I 50 W/m 14,7 C 16,5 C 6,4 km/h (2 Bft) 100,00 %
06.06.2018 05:50 16,5 C 25,0 C 89 % 1009,2 hPa 0,0 l/m 4,6 km/h (1 Bft) O-NO 61 0 min 0,000 mm 0,0 UV-I 52 W/m 14,7 C 16,5 C 11,3 km/h (2 Bft) 100,00 %
06.06.2018 05:51 16,5 C 25,0 C 89 % 1009,2 hPa 0,0 l/m 3,4 km/h (1 Bft) O-NO 68 1 min 0,000 mm 0,0 UV-I 54 W/m 14,7 C 16,5 C 4,8 km/h (1 Bft) 100,00 %
06.06.2018 05:52 16,6 C 25,0 C 89 % 1009,2 hPa 0,0 l/m 4,3 km/h (1 Bft) O-NO 69 0 min 0,000 mm 0,0 UV-I 54 W/m 14,8 C 16,6 C 6,4 km/h (2 Bft) 91,67 %
06.06.2018 05:53 16,6 C 25,0 C 89 % 1009,3 hPa 0,0 l/m 4,2 km/h (1 Bft) NO 55 0 min 0,000 mm 0,0 UV-I 56 W/m 14,8 C 16,6 C 6,4 km/h (2 Bft) 100,00 %
06.06.2018 05:54 16,6 C 25,0 C 89 % 1009,3 hPa 0,0 l/m 4,8 km/h (1 Bft) O-NO 65 1 min 0,000 mm 0,0 UV-I 58 W/m 14,8 C 16,6 C 8,0 km/h (2 Bft) 95,83 %
06.06.2018 05:55 16,6 C 25,0 C 89 % 1009,3 hPa 0,0 l/m 4,6 km/h (1 Bft) O-NO 74 1 min 0,000 mm 0,0 UV-I 61 W/m 14,8 C 16,6 C 6,4 km/h (2 Bft) 100,00 %
06.06.2018 05:56 16,6 C 25,0 C 89 % 1009,3 hPa 0,0 l/m 4,5 km/h (1 Bft) O-NO 66 1 min 0,000 mm 0,0 UV-I 62 W/m 14,8 C 16,6 C 6,4 km/h (2 Bft) 92,31 %
06.06.2018 05:57 16,6 C 25,0 C 89 % 1009,4 hPa 0,0 l/m 6,0 km/h (2 Bft) NO 51 1 min 0,000 mm 0,0 UV-I 64 W/m 14,8 C 16,6 C 11,3 km/h (2 Bft) 100,00 %
06.06.2018 05:58 16,6 C 25,0 C 89 % 1009,4 hPa 0,0 l/m 6,2 km/h (2 Bft) NO 53 1 min 0,000 mm 0,0 UV-I 66 W/m 14,8 C 16,6 C 11,3 km/h (2 Bft) 91,30 %
06.06.2018 05:59 16,6 C 25,0 C 89 % 1009,4 hPa 0,0 l/m 5,5 km/h (1 Bft) O-NO 76 1 min 0,000 mm 0,0 UV-I 67 W/m 14,8 C 16,6 C 8,0 km/h (2 Bft) 100,00 %
06.06.2018 06:00 16,7 C 25,0 C 89 % 1009,3 hPa 0,0 l/m 6,1 km/h (2 Bft) NO 53 1 min 0,025 mm 0,0 UV-I 69 W/m 14,9 C 16,7 C 11,3 km/h (2 Bft) 100,00 %
06.06.2018 06:01 16,7 C 25,0 C 89 % 1009,3 hPa 0,0 l/m 8,2 km/h (2 Bft) O-NO 64 1 min 0,000 mm 0,0 UV-I 71 W/m 14,9 C 15,8 C 11,3 km/h (2 Bft) 100,00 %
06.06.2018 06:02 16,7 C 25,0 C 89 % 1009,3 hPa 0,0 l/m 7,0 km/h (2 Bft) NO 45 1 min 0,000 mm 0,0 UV-I 73 W/m 14,9 C 16,4 C 11,3 km/h (2 Bft) 100,00 %
06.06.2018 06:03 16,7 C 25,0 C 89 % 1009,4 hPa 0,0 l/m 6,4 km/h (2 Bft) NO 46 1 min 0,000 mm 0,0 UV-I 75 W/m 14,9 C 16,7 C 8,0 km/h (2 Bft) 100,00 %
06.06.2018 06:04 16,7 C 25,0 C 89 % 1009,4 hPa 0,0 l/m 8,4 km/h (2 Bft) O-NO 66 1 min 0,000 mm 0,0 UV-I 76 W/m 14,9 C 15,7 C 11,3 km/h (2 Bft) 95,65 %
06.06.2018 06:05 16,7 C 25,0 C 89 % 1009,4 hPa 0,0 l/m 6,0 km/h (2 Bft) NO 41 1 min 0,000 mm 0,0 UV-I 77 W/m 14,9 C 16,7 C 8,0 km/h (2 Bft) 95,83 %
06.06.2018 06:06 16,7 C 25,0 C 89 % 1009,4 hPa 0,0 l/m 6,1 km/h (2 Bft) O-NO 60 1 min 0,000 mm 0,0 UV-I 79 W/m 14,9 C 16,7 C 9,7 km/h (2 Bft) 91,30 %
06.06.2018 06:07 16,8 C 25,0 C 89 % 1009,4 hPa 0,0 l/m 6,0 km/h (2 Bft) O-NO 62 1 min 0,000 mm 0,0 UV-I 82 W/m 15,0 C 16,8 C 8,0 km/h (2 Bft) 100,00 %
06.06.2018 06:08 16,8 C 25,0 C 89 % 1009,4 hPa 0,0 l/m 7,2 km/h (2 Bft) O-NO 76 1 min 0,000 mm 0,0 UV-I 83 W/m 15,0 C 16,4 C 8,0 km/h (2 Bft) 100,00 %
06.06.2018 06:09 16,8 C 25,0 C 89 % 1009,4 hPa 0,0 l/m 7,4 km/h (2 Bft) O-NO 71 1 min 0,000 mm 0,0 UV-I 84 W/m 15,0 C 16,3 C 9,7 km/h (2 Bft) 100,00 %
06.06.2018 06:10 16,8 C 25,0 C 89 % 1009,4 hPa 0,0 l/m 5,8 km/h (2 Bft) O-NO 74 1 min 0,000 mm 0,0 UV-I 88 W/m 15,0 C 16,8 C 8,0 km/h (2 Bft) 100,00 %
06.06.2018 06:11 16,8 C 25,0 C 89 % 1009,4 hPa 0,0 l/m 5,5 km/h (1 Bft) O-NO 71 1 min 0,000 mm 0,0 UV-I 90 W/m 15,0 C 16,8 C 9,7 km/h (2 Bft) 100,00 %
06.06.2018 06:12 16,8 C 25,0 C 89 % 1009,4 hPa 0,0 l/m 6,4 km/h (2 Bft) NO 53 1 min 0,000 mm 0,0 UV-I 92 W/m 15,0 C 16,8 C 11,3 km/h (2 Bft) 95,83 %
06.06.2018 06:13 16,9 C 25,0 C 89 % 1009,4 hPa 0,0 l/m 6,4 km/h (2 Bft) O 80 1 min 0,000 mm 0,0 UV-I 94 W/m 15,1 C 16,9 C 8,0 km/h (2 Bft) 95,65 %
06.06.2018 06:14 16,9 C 25,0 C 89 % 1009,4 hPa 0,0 l/m 5,8 km/h (2 Bft) NO 56 1 min 0,000 mm 0,0 UV-I 96 W/m 15,1 C 16,9 C 9,7 km/h (2 Bft) 100,00 %
06.06.2018 06:15 17,0 C 25,0 C 89 % 1009,5 hPa 0,0 l/m 5,8 km/h (2 Bft) O-NO 65 1 min 0,000 mm 0,0 UV-I 97 W/m 15,2 C 17,0 C 8,0 km/h (2 Bft) 95,65 %
06.06.2018 06:16 17,0 C 25,0 C 88 % 1009,5 hPa 0,0 l/m 5,4 km/h (1 Bft) O 81 1 min 0,000 mm 0,0 UV-I 98 W/m 15,0 C 17,0 C 8,0 km/h (2 Bft) 95,83 %
06.06.2018 06:17 17,1 C 25,0 C 88 % 1009,5 hPa 0,0 l/m 5,8 km/h (2 Bft) O-NO 61 1 min 0,000 mm 0,0 UV-I 102 W/m 15,1 C 17,1 C 8,0 km/h (2 Bft) 95,65 %
06.06.2018 06:18 17,1 C 25,0 C 88 % 1009,5 hPa 0,0 l/m 6,4 km/h (2 Bft) O-NO 61 1 min 0,000 mm 0,0 UV-I 104 W/m 15,1 C 17,1 C 8,0 km/h (2 Bft) 100,00 %
06.06.2018 06:19 17,1 C 25,0 C 88 % 1009,5 hPa 0,0 l/m 6,8 km/h (2 Bft) NO 47 1 min 0,000 mm 0,0 UV-I 106 W/m 15,1 C 16,9 C 9,7 km/h (2 Bft) 95,65 %
06.06.2018 06:20 17,1 C 25,0 C 88 % 1009,5 hPa 0,0 l/m 5,7 km/h (1 Bft) O 80 1 min 0,000 mm 0,0 UV-I 108 W/m 15,1 C 17,1 C 8,0 km/h (2 Bft) 100,00 %
06.06.2018 06:21 17,2 C 25,0 C 88 % 1009,5 hPa 0,0 l/m 7,4 km/h (2 Bft) O-NO 60 1 min 0,000 mm 0,0 UV-I 110 W/m 15,2 C 16,7 C 11,3 km/h (2 Bft) 95,65 %
06.06.2018 06:22 17,2 C 25,0 C 88 % 1009,5 hPa 0,0 l/m 8,2 km/h (2 Bft) O-NO 71 1 min 0,000 mm 0,0 UV-I 113 W/m 15,2 C 16,3 C 11,3 km/h (2 Bft) 95,83 %
06.06.2018 06:23 17,2 C 25,0 C 88 % 1009,5 hPa 0,0 l/m 8,4 km/h (2 Bft) O-NO 58 1 min 0,000 mm 0,0 UV-I 113 W/m 15,2 C 16,2 C 14,5 km/h (3 Bft) 100,00 %
06.06.2018 06:24 17,2 C 25,0 C 88 % 1009,5 hPa 0,0 l/m 8,6 km/h (2 Bft) O 80 1 min 0,000 mm 0,0 UV-I 115 W/m 15,2 C 16,1 C 11,3 km/h (2 Bft) 95,83 %
06.06.2018 06:25 17,2 C 25,0 C 88 % 1009,5 hPa 0,0 l/m 5,4 km/h (1 Bft) O-NO 59 1 min 0,000 mm 0,0 UV-I 116 W/m 15,2 C 17,2 C 8,0 km/h (2 Bft) 95,65 %
06.06.2018 06:26 17,3 C 25,0 C 88 % 1009,5 hPa 0,0 l/m 7,0 km/h (2 Bft) O-NO 74 1 min 0,000 mm 0,0 UV-I 116 W/m 15,3 C 17,0 C 11,3 km/h (2 Bft) 95,83 %
06.06.2018 06:27 17,3 C 25,0 C 87 % 1009,5 hPa 0,0 l/m 8,5 km/h (2 Bft) NO 51 1 min 0,000 mm 0,0 UV-I 120 W/m 15,1 C 16,3 C 11,3 km/h (2 Bft) 95,65 %
06.06.2018 06:28 17,3 C 25,0 C 87 % 1009,5 hPa 0,0 l/m 6,2 km/h (2 Bft) O-NO 61 1 min 0,000 mm 0,0 UV-I 121 W/m 15,1 C 17,3 C 8,0 km/h (2 Bft) 95,83 %
06.06.2018 06:29 17,3 C 25,0 C 87 % 1009,5 hPa 0,0 l/m 5,7 km/h (1 Bft) O-NO 58 1 min 0,000 mm 0,0 UV-I 118 W/m 15,1 C 17,3 C 8,0 km/h (2 Bft) 100,00 %
06.06.2018 06:30 17,4 C 25,0 C 87 % 1009,5 hPa 0,0 l/m 8,6 km/h (2 Bft) NO 37 1 min 0,000 mm 0,0 UV-I 116 W/m 15,2 C 16,4 C 11,3 km/h (2 Bft) 96,15 %
06.06.2018 06:31 17,4 C 25,0 C 87 % 1009,5 hPa 0,0 l/m 9,8 km/h (2 Bft) NO 51 1 min 0,000 mm 0,0 UV-I 126 W/m 15,2 C 15,8 C 14,5 km/h (3 Bft) 100,00 %
06.06.2018 06:32 17,4 C 25,0 C 87 % 1009,5 hPa 0,0 l/m 9,5 km/h (2 Bft) NO 44 1 min 0,000 mm 0,0 UV-I 130 W/m 15,2 C 16,0 C 12,9 km/h (3 Bft) 95,65 %
06.06.2018 06:33 17,4 C 25,0 C 87 % 1009,6 hPa 0,0 l/m 12,9 km/h (3 Bft) O-NO 65 1 min 0,000 mm 0,0 UV-I 131 W/m 15,2 C 14,7 C 17,7 km/h (3 Bft) 95,83 %
06.06.2018 06:34 17,4 C 25,0 C 87 % 1009,5 hPa 0,0 l/m 9,8 km/h (2 Bft) NO 46 1 min 0,000 mm 0,0 UV-I 138 W/m 15,2 C 15,8 C 14,5 km/h (3 Bft) 100,00 %
06.06.2018 06:35 17,4 C 25,0 C 87 % 1009,5 hPa 0,0 l/m 8,3 km/h (2 Bft) O-NO 62 1 min 0,000 mm 0,0 UV-I 139 W/m 15,2 C 16,5 C 11,3 km/h (2 Bft) 95,83 %
06.06.2018 06:36 17,5 C 25,0 C 87 % 1009,6 hPa 0,0 l/m 7,7 km/h (2 Bft) O-NO 76 1 min 0,000 mm 0,0 UV-I 138 W/m 15,3 C 16,9 C 11,3 km/h (2 Bft) 100,00 %
06.06.2018 06:37 17,6 C 25,0 C 87 % 1009,6 hPa 0,0 l/m 9,2 km/h (2 Bft) NO 55 1 min 0,000 mm 0,0 UV-I 140 W/m 15,4 C 16,3 C 12,9 km/h (3 Bft) 95,83 %
06.06.2018 06:38 17,6 C 25,0 C 87 % 1009,7 hPa 0,0 l/m 6,4 km/h (2 Bft) O-NO 71 1 min 0,000 mm 0,0 UV-I 144 W/m 15,4 C 17,6 C 9,7 km/h (2 Bft) 95,65 %
06.06.2018 06:39 17,6 C 25,0 C 86 % 1009,6 hPa 0,0 l/m 8,9 km/h (2 Bft) O-NO 62 1 min 0,000 mm 0,0 UV-I 146 W/m 15,2 C 16,4 C 12,9 km/h (3 Bft) 95,83 %
06.06.2018 06:40 17,7 C 25,0 C 86 % 1009,6 hPa 0,0 l/m 12,4 km/h (3 Bft) NO 49 1 min 0,000 mm 0,0 UV-I 148 W/m 15,3 C 15,2 C 16,1 km/h (3 Bft) 96,55 %
06.06.2018 06:41 17,7 C 25,0 C 86 % 1009,6 hPa 0,0 l/m 8,6 km/h (2 Bft) O-NO 70 1 min 0,000 mm 0,0 UV-I 151 W/m 15,3 C 16,7 C 14,5 km/h (3 Bft) 100,00 %
06.06.2018 06:42 17,7 C 25,0 C 86 % 1009,6 hPa 0,0 l/m 7,2 km/h (2 Bft) O-NO 69 1 min 0,000 mm 0,0 UV-I 154 W/m 15,3 C 17,3 C 11,3 km/h (2 Bft) 95,65 %
06.06.2018 06:43 17,7 C 25,0 C 86 % 1009,6 hPa 0,0 l/m 5,9 km/h (2 Bft) NO 50 1 min 0,000 mm 0,0 UV-I 155 W/m 15,3 C 17,7 C 11,3 km/h (2 Bft) 100,00 %
06.06.2018 06:44 17,8 C 25,0 C 86 % 1009,6 hPa 0,0 l/m 6,7 km/h (2 Bft) O-NO 63 1 min 0,000 mm 0,0 UV-I 154 W/m 15,4 C 17,7 C 12,9 km/h (3 Bft) 96,15 %
06.06.2018 06:45 17,8 C 25,0 C 86 % 1009,6 hPa 0,0 l/m 8,3 km/h (2 Bft) O-NO 61 1 min 0,000 mm 0,0 UV-I 155 W/m 15,4 C 16,9 C 12,9 km/h (3 Bft) 100,00 %
06.06.2018 06:46 17,8 C 25,0 C 85 % 1009,6 hPa 0,0 l/m 9,8 km/h (2 Bft) O-NO 65 1 min 0,000 mm 0,0 UV-I 156 W/m 15,2 C 16,3 C 12,9 km/h (3 Bft) 95,65 %
06.06.2018 06:47 17,8 C 25,0 C 85 % 1009,6 hPa 0,0 l/m 12,6 km/h (3 Bft) O 86 1 min 0,000 mm 0,0 UV-I 163 W/m 15,2 C 15,3 C 16,1 km/h (3 Bft) 100,00 %
06.06.2018 06:48 17,9 C 25,0 C 85 % 1009,6 hPa 0,0 l/m 11,8 km/h (2 Bft) O-NO 57 1 min 0,000 mm 0,0 UV-I 167 W/m 15,3 C 15,7 C 17,7 km/h (3 Bft) 100,00 %
06.06.2018 06:49 17,9 C 25,0 C 85 % 1009,7 hPa 0,0 l/m 6,7 km/h (2 Bft) O 88 1 min 0,000 mm 0,0 UV-I 172 W/m 15,3 C 17,8 C 9,7 km/h (2 Bft) 95,83 %
06.06.2018 06:50 17,9 C 25,0 C 85 % 1009,7 hPa 0,0 l/m 8,2 km/h (2 Bft) O-NO 66 1 min 0,000 mm 0,0 UV-I 175 W/m 15,3 C 17,1 C 12,9 km/h (3 Bft) 100,00 %
06.06.2018 06:51 18,0 C 25,0 C 85 % 1009,7 hPa 0,0 l/m 10,0 km/h (2 Bft) O-NO 74 1 min 0,000 mm 0,0 UV-I 176 W/m 15,4 C 16,4 C 17,7 km/h (3 Bft) 100,00 %
06.06.2018 06:52 18,1 C 25,0 C 85 % 1009,7 hPa 0,0 l/m 9,9 km/h (2 Bft) O 86 1 min 0,000 mm 0,0 UV-I 176 W/m 15,5 C 16,6 C 17,7 km/h (3 Bft) 100,00 %
06.06.2018 06:53 18,1 C 25,0 C 84 % 1009,7 hPa 0,0 l/m 12,0 km/h (2 Bft) NO 51 1 min 0,000 mm 0,0 UV-I 178 W/m 15,4 C 15,8 C 19,3 km/h (3 Bft) 100,00 %
06.06.2018 06:54 18,1 C 25,0 C 85 % 1009,7 hPa 0,0 l/m 11,9 km/h (2 Bft) NO 53 1 min 0,000 mm 0,0 UV-I 181 W/m 15,5 C 15,9 C 16,1 km/h (3 Bft) 96,30 %
06.06.2018 06:55 18,2 C 25,0 C 84 % 1009,7 hPa 0,0 l/m 8,6 km/h (2 Bft) O-NO 66 1 min 0,000 mm 0,0 UV-I 186 W/m 15,4 C 17,2 C 12,9 km/h (3 Bft) 100,00 %
06.06.2018 06:56 18,2 C 24,4 C 84 % 1009,7 hPa 0,0 l/m 13,5 km/h (3 Bft) O-NO 73 1 min 0,000 mm 0,0 UV-I 191 W/m 15,4 C 15,5 C 17,7 km/h (3 Bft) 100,00 %
06.06.2018 06:57 18,2 C 25,0 C 84 % 1009,7 hPa 0,0 l/m 11,2 km/h (2 Bft) NO 51 1 min 0,000 mm 0,0 UV-I 194 W/m 15,4 C 16,2 C 17,7 km/h (3 Bft) 100,00 %
06.06.2018 06:58 18,2 C 24,4 C 84 % 1009,7 hPa 0,0 l/m 8,9 km/h (2 Bft) O-NO 69 1 min 0,000 mm 0,0 UV-I 199 W/m 15,4 C 17,1 C 16,1 km/h (3 Bft) 95,83 %
06.06.2018 06:59 18,3 C 25,0 C 83 % 1009,7 hPa 0,0 l/m 7,7 km/h (2 Bft) O-NO 62 1 min 0,000 mm 0,0 UV-I 200 W/m 15,4 C 17,7 C 11,3 km/h (2 Bft) 100,00 %
06.06.2018 07:00 18,3 C 25,0 C 84 % 1009,7 hPa 0,0 l/m 11,3 km/h (2 Bft) O 80 1 min 0,077 mm 0,0 UV-I 200 W/m 15,5 C 16,3 C 17,7 km/h (3 Bft) 100,00 %
06.06.2018 07:01 18,3 C 24,4 C 83 % 1009,7 hPa 0,0 l/m 9,8 km/h (2 Bft) O-NO 62 1 min 0,000 mm 0,0 UV-I 200 W/m 15,4 C 16,8 C 14,5 km/h (3 Bft) 92,86 %
06.06.2018 07:02 18,3 C 24,4 C 83 % 1009,7 hPa 0,0 l/m 10,9 km/h (2 Bft) O-NO 76 1 min 0,000 mm 0,0 UV-I 199 W/m 15,4 C 16,4 C 17,7 km/h (3 Bft) 100,00 %
06.06.2018 07:03 18,4 C 24,4 C 83 % 1009,7 hPa 0,0 l/m 12,5 km/h (3 Bft) O-NO 78 1 min 0,000 mm 0,0 UV-I 202 W/m 15,5 C 16,0 C 19,3 km/h (3 Bft) 100,00 %
06.06.2018 07:04 18,4 C 24,4 C 83 % 1009,7 hPa 0,0 l/m 8,7 km/h (2 Bft) NO 55 1 min 0,000 mm 0,0 UV-I 207 W/m 15,5 C 17,4 C 12,9 km/h (3 Bft) 100,00 %
06.06.2018 07:05 18,4 C 24,4 C 83 % 1009,7 hPa 0,0 l/m 12,6 km/h (3 Bft) O 95 1 min 0,000 mm 0,0 UV-I 212 W/m 15,5 C 16,0 C 17,7 km/h (3 Bft) 100,00 %
06.06.2018 07:06 18,5 C 24,4 C 83 % 1009,7 hPa 0,0 l/m 10,4 km/h (2 Bft) O-NO 68 1 min 0,000 mm 0,0 UV-I 211 W/m 15,6 C 16,8 C 16,1 km/h (3 Bft) 92,31 %
06.06.2018 07:07 18,5 C 24,4 C 83 % 1009,7 hPa 0,0 l/m 11,9 km/h (2 Bft) NO 55 1 min 0,000 mm 0,0 UV-I 213 W/m 15,6 C 16,3 C 19,3 km/h (3 Bft) 100,00 %
06.06.2018 07:08 18,5 C 24,4 C 83 % 1009,7 hPa 0,0 l/m 10,2 km/h (2 Bft) O 80 1 min 0,000 mm 0,0 UV-I 215 W/m 15,6 C 16,9 C 14,5 km/h (3 Bft) 95,65 %
06.06.2018 07:09 18,6 C 24,4 C 83 % 1009,7 hPa 0,0 l/m 10,6 km/h (2 Bft) O 82 1 min 0,000 mm 0,0 UV-I 226 W/m 15,7 C 16,9 C 16,1 km/h (3 Bft) 95,83 %
06.06.2018 07:10 18,6 C 24,4 C 83 % 1009,7 hPa 0,0 l/m 12,5 km/h (3 Bft) O-NO 62 1 min 0,000 mm 0,0 UV-I 229 W/m 15,7 C 16,3 C 16,1 km/h (3 Bft) 100,00 %
06.06.2018 07:11 18,6 C 24,4 C 82 % 1009,6 hPa 0,0 l/m 10,8 km/h (2 Bft) O-SO 107 1 min 0,000 mm 0,0 UV-I 228 W/m 15,5 C 16,8 C 14,5 km/h (3 Bft) 100,00 %
06.06.2018 07:12 18,7 C 25,0 C 82 % 1009,7 hPa 0,0 l/m 12,1 km/h (2 Bft) NO 53 1 min 0,000 mm 0,1 UV-I 233 W/m 15,6 C 16,5 C 17,7 km/h (3 Bft) 91,30 %
06.06.2018 07:13 18,7 C 25,0 C 82 % 1009,7 hPa 0,0 l/m 11,3 km/h (2 Bft) O 98 1 min 0,000 mm 0,5 UV-I 237 W/m 15,6 C 16,8 C 17,7 km/h (3 Bft) 100,00 %
06.06.2018 07:14 18,7 C 25,0 C 82 % 1009,7 hPa 0,0 l/m 11,5 km/h (2 Bft) O-NO 75 1 min 0,000 mm 0,5 UV-I 238 W/m 15,6 C 16,7 C 17,7 km/h (3 Bft) 95,65 %
06.06.2018 07:15 18,7 C 25,0 C 82 % 1009,7 hPa 0,0 l/m 15,0 km/h (3 Bft) O 87 1 min 0,000 mm 0,5 UV-I 241 W/m 15,6 C 15,7 C 19,3 km/h (3 Bft) 100,00 %
06.06.2018 07:16 18,8 C 25,0 C 82 % 1009,7 hPa 0,0 l/m 18,5 km/h (3 Bft) O 96 1 min 0,000 mm 0,5 UV-I 244 W/m 15,7 C 15,0 C 22,5 km/h (4 Bft) 100,00 %
06.06.2018 07:17 18,8 C 24,4 C 81 % 1009,7 hPa 0,0 l/m 15,4 km/h (3 Bft) O 84 1 min 0,000 mm 0,5 UV-I 244 W/m 15,5 C 15,7 C 22,5 km/h (4 Bft) 100,00 %
06.06.2018 07:18 18,8 C 24,4 C 81 % 1009,7 hPa 0,0 l/m 11,7 km/h (2 Bft) O-NO 74 1 min 0,000 mm 0,5 UV-I 246 W/m 15,5 C 16,7 C 16,1 km/h (3 Bft) 100,00 %
06.06.2018 07:19 18,9 C 24,4 C 81 % 1009,8 hPa 0,0 l/m 11,7 km/h (2 Bft) O-NO 78 1 min 0,000 mm 0,5 UV-I 248 W/m 15,6 C 16,9 C 16,1 km/h (3 Bft) 100,00 %
06.06.2018 07:20 18,9 C 24,4 C 81 % 1009,7 hPa 0,0 l/m 15,4 km/h (3 Bft) NO 55 1 min 0,000 mm 0,5 UV-I 254 W/m 15,6 C 15,8 C 20,9 km/h (4 Bft) 100,00 %
06.06.2018 07:21 18,9 C 24,4 C 81 % 1009,7 hPa 0,0 l/m 11,3 km/h (2 Bft) NO 50 1 min 0,000 mm 0,5 UV-I 257 W/m 15,6 C 17,0 C 16,1 km/h (3 Bft) 100,00 %
06.06.2018 07:22 19,0 C 24,4 C 81 % 1009,8 hPa 0,0 l/m 16,3 km/h (3 Bft) O-NO 67 1 min 0,000 mm 0,5 UV-I 259 W/m 15,7 C 15,7 C 22,5 km/h (4 Bft) 100,00 %
06.06.2018 07:23 19,0 C 24,4 C 80 % 1009,8 hPa 0,0 l/m 12,6 km/h (3 Bft) O-NO 71 1 min 0,000 mm 0,5 UV-I 263 W/m 15,5 C 16,7 C 19,3 km/h (3 Bft) 100,00 %
06.06.2018 07:24 19,0 C 24,4 C 81 % 1009,8 hPa 0,0 l/m 12,9 km/h (3 Bft) O-NO 68 1 min 0,000 mm 0,5 UV-I 266 W/m 15,7 C 16,6 C 19,3 km/h (3 Bft) 100,00 %
06.06.2018 07:25 19,1 C 24,4 C 80 % 1009,8 hPa 0,0 l/m 16,2 km/h (3 Bft) O 85 1 min 0,000 mm 0,6 UV-I 268 W/m 15,6 C 15,9 C 24,1 km/h (4 Bft) 100,00 %
06.06.2018 07:26 19,1 C 25,0 C 80 % 1009,8 hPa 0,0 l/m 15,0 km/h (3 Bft) O-NO 71 1 min 0,000 mm 0,6 UV-I 273 W/m 15,6 C 16,2 C 19,3 km/h (3 Bft) 100,00 %
06.06.2018 07:27 19,1 C 24,4 C 80 % 1009,8 hPa 0,0 l/m 14,5 km/h (3 Bft) O 80 1 min 0,000 mm 0,6 UV-I 278 W/m 15,6 C 16,3 C 19,3 km/h (3 Bft) 100,00 %
06.06.2018 07:28 19,1 C 24,4 C 80 % 1009,8 hPa 0,0 l/m 12,7 km/h (3 Bft) NO 56 1 min 0,000 mm 0,6 UV-I 279 W/m 15,6 C 16,8 C 20,9 km/h (4 Bft) 100,00 %
06.06.2018 07:29 19,2 C 24,4 C 80 % 1009,8 hPa 0,0 l/m 13,8 km/h (3 Bft) O 79 1 min 0,000 mm 0,6 UV-I 282 W/m 15,7 C 16,6 C 20,9 km/h (4 Bft) 100,00 %
06.06.2018 07:30 19,2 C 24,4 C 79 % 1009,7 hPa 0,0 l/m 18,4 km/h (3 Bft) O-NO 76 1 min 0,000 mm 0,6 UV-I 286 W/m 15,5 C 15,5 C 24,1 km/h (4 Bft) 100,00 %
06.06.2018 07:31 19,2 C 24,4 C 79 % 1009,7 hPa 0,0 l/m 16,9 km/h (3 Bft) O-NO 61 1 min 0,000 mm 0,6 UV-I 290 W/m 15,5 C 15,8 C 22,5 km/h (4 Bft) 100,00 %
06.06.2018 07:32 19,2 C 24,4 C 79 % 1009,8 hPa 0,0 l/m 17,7 km/h (3 Bft) O 96 1 min 0,000 mm 0,6 UV-I 292 W/m 15,5 C 15,6 C 20,9 km/h (4 Bft) 100,00 %
06.06.2018 07:33 19,3 C 24,4 C 79 % 1009,8 hPa 0,0 l/m 12,1 km/h (2 Bft) O-NO 61 1 min 0,000 mm 0,6 UV-I 295 W/m 15,6 C 17,2 C 16,1 km/h (3 Bft) 100,00 %
06.06.2018 07:34 19,3 C 24,4 C 79 % 1009,8 hPa 0,0 l/m 13,3 km/h (3 Bft) O 98 1 min 0,000 mm 0,6 UV-I 296 W/m 15,6 C 16,8 C 17,7 km/h (3 Bft) 100,00 %
06.06.2018 07:35 19,3 C 24,4 C 79 % 1009,8 hPa 0,0 l/m 15,4 km/h (3 Bft) O 101 1 min 0,000 mm 0,7 UV-I 300 W/m 15,6 C 16,3 C 20,9 km/h (4 Bft) 95,65 %
06.06.2018 07:36 19,4 C 24,4 C 79 % 1009,8 hPa 0,0 l/m 15,2 km/h (3 Bft) O-NO 63 1 min 0,000 mm 0,7 UV-I 303 W/m 15,7 C 16,5 C 19,3 km/h (3 Bft) 100,00 %
06.06.2018 07:37 19,4 C 24,4 C 79 % 1009,8 hPa 0,0 l/m 16,2 km/h (3 Bft) O-NO 74 1 min 0,000 mm 0,7 UV-I 303 W/m 15,7 C 16,2 C 22,5 km/h (4 Bft) 100,00 %
06.06.2018 07:38 19,4 C 24,4 C 78 % 1009,8 hPa 0,0 l/m 20,5 km/h (4 Bft) O 86 1 min 0,000 mm 0,7 UV-I 307 W/m 15,5 C 15,3 C 27,4 km/h (4 Bft) 100,00 %
06.06.2018 07:39 19,4 C 24,4 C 78 % 1009,8 hPa 0,0 l/m 20,9 km/h (4 Bft) O-NO 77 1 min 0,000 mm 0,7 UV-I 308 W/m 15,5 C 15,3 C 27,4 km/h (4 Bft) 97,37 %
06.06.2018 07:40 19,4 C 24,4 C 78 % 1009,8 hPa 0,0 l/m 18,0 km/h (3 Bft) O-NO 74 1 min 0,000 mm 0,7 UV-I 310 W/m 15,5 C 15,8 C 29,0 km/h (5 Bft) 100,00 %
06.06.2018 07:41 19,4 C 24,4 C 78 % 1009,8 hPa 0,0 l/m 22,3 km/h (4 Bft) O-SO 111 1 min 0,000 mm 0,7 UV-I 314 W/m 15,5 C 15,0 C 29,0 km/h (5 Bft) 100,00 %
06.06.2018 07:42 19,4 C 24,4 C 78 % 1009,7 hPa 0,0 l/m 21,3 km/h (4 Bft) O 86 1 min 0,000 mm 0,7 UV-I 316 W/m 15,5 C 15,2 C 25,7 km/h (4 Bft) 100,00 %
06.06.2018 07:43 19,4 C 24,4 C 78 % 1009,8 hPa 0,0 l/m 16,4 km/h (3 Bft) O 80 1 min 0,000 mm 0,7 UV-I 320 W/m 15,5 C 16,2 C 20,9 km/h (4 Bft) 100,00 %
06.06.2018 07:44 19,5 C 24,4 C 78 % 1009,9 hPa 0,0 l/m 14,9 km/h (3 Bft) O 85 1 min 0,000 mm 0,8 UV-I 323 W/m 15,6 C 16,7 C 19,3 km/h (3 Bft) 100,00 %
06.06.2018 07:45 19,5 C 24,4 C 77 % 1009,8 hPa 0,0 l/m 17,4 km/h (3 Bft) O 82 1 min 0,000 mm 0,8 UV-I 325 W/m 15,4 C 16,1 C 25,7 km/h (4 Bft) 100,00 %
06.06.2018 07:46 19,5 C 24,4 C 77 % 1009,8 hPa 0,0 l/m 20,1 km/h (4 Bft) O-NO 74 1 min 0,000 mm 0,8 UV-I 326 W/m 15,4 C 15,5 C 25,7 km/h (4 Bft) 95,83 %
06.06.2018 07:47 19,6 C 24,4 C 77 % 1009,8 hPa 0,0 l/m 19,8 km/h (3 Bft) O 98 1 min 0,000 mm 0,8 UV-I 331 W/m 15,5 C 15,7 C 27,4 km/h (4 Bft) 100,00 %
06.06.2018 07:48 19,6 C 24,4 C 77 % 1009,8 hPa 0,0 l/m 15,4 km/h (3 Bft) O 90 1 min 0,000 mm 0,8 UV-I 335 W/m 15,5 C 16,7 C 22,5 km/h (4 Bft) 100,00 %
06.06.2018 07:49 19,6 C 24,4 C 77 % 1009,8 hPa 0,0 l/m 18,7 km/h (3 Bft) O-NO 76 1 min 0,000 mm 0,8 UV-I 338 W/m 15,5 C 15,9 C 24,1 km/h (4 Bft) 100,00 %
06.06.2018 07:50 19,6 C 24,4 C 77 % 1009,8 hPa 0,0 l/m 17,8 km/h (3 Bft) O-NO 67 1 min 0,000 mm 0,8 UV-I 339 W/m 15,5 C 16,1 C 22,5 km/h (4 Bft) 100,00 %
06.06.2018 07:51 19,6 C 24,4 C 77 % 1009,7 hPa 0,0 l/m 17,8 km/h (3 Bft) O-NO 59 1 min 0,000 mm 0,8 UV-I 344 W/m 15,5 C 16,1 C 25,7 km/h (4 Bft) 100,00 %
06.06.2018 07:52 19,7 C 24,4 C 77 % 1009,8 hPa 0,0 l/m 16,1 km/h (3 Bft) NO 54 1 min 0,000 mm 0,8 UV-I 347 W/m 15,5 C 16,6 C 20,9 km/h (4 Bft) 95,65 %
06.06.2018 07:53 19,7 C 24,4 C 78 % 1009,7 hPa 0,0 l/m 18,7 km/h (3 Bft) O 88 1 min 0,000 mm 0,9 UV-I 351 W/m 15,8 C 16,1 C 24,1 km/h (4 Bft) 100,00 %
06.06.2018 07:54 19,8 C 24,4 C 77 % 1009,8 hPa 0,0 l/m 14,0 km/h (3 Bft) O 84 1 min 0,000 mm 0,9 UV-I 355 W/m 15,6 C 17,3 C 17,7 km/h (3 Bft) 100,00 %
06.06.2018 07:55 19,8 C 24,4 C 77 % 1009,8 hPa 0,0 l/m 18,2 km/h (3 Bft) O 89 1 min 0,000 mm 0,9 UV-I 358 W/m 15,6 C 16,3 C 22,5 km/h (4 Bft) 100,00 %
06.06.2018 07:56 19,8 C 24,4 C 76 % 1009,7 hPa 0,0 l/m 14,3 km/h (3 Bft) N-NO 28 1 min 0,000 mm 0,9 UV-I 362 W/m 15,4 C 17,2 C 20,9 km/h (4 Bft) 100,00 %
06.06.2018 07:57 19,8 C 24,4 C 77 % 1009,7 hPa 0,0 l/m 15,7 km/h (3 Bft) O-NO 74 1 min 0,000 mm 0,9 UV-I 363 W/m 15,6 C 16,8 C 22,5 km/h (4 Bft) 100,00 %
06.06.2018 07:58 19,9 C 24,4 C 77 % 1009,8 hPa 0,0 l/m 14,7 km/h (3 Bft) O-NO 60 1 min 0,000 mm 0,9 UV-I 367 W/m 15,7 C 17,2 C 20,9 km/h (4 Bft) 100,00 %
06.06.2018 07:59 19,9 C 25,0 C 76 % 1009,8 hPa 0,0 l/m 18,6 km/h (3 Bft) O 81 1 min 0,000 mm 0,9 UV-I 370 W/m 15,5 C 16,3 C 24,1 km/h (4 Bft) 100,00 %
06.06.2018 08:00 19,9 C 25,0 C 76 % 1009,7 hPa 0,0 l/m 16,7 km/h (3 Bft) O 86 1 min 0,203 mm 1,0 UV-I 371 W/m 15,5 C 16,7 C 20,9 km/h (4 Bft) 100,00 %
06.06.2018 08:01 19,9 C 25,0 C 76 % 1009,8 hPa 0,0 l/m 14,8 km/h (3 Bft) O-NO 78 1 min 0,000 mm 1,0 UV-I 375 W/m 15,5 C 17,2 C 17,7 km/h (3 Bft) 100,00 %
06.06.2018 08:02 19,9 C 24,4 C 76 % 1009,8 hPa 0,0 l/m 18,6 km/h (3 Bft) NO 46 1 min 0,000 mm 1,0 UV-I 378 W/m 15,5 C 16,3 C 24,1 km/h (4 Bft) 100,00 %
06.06.2018 08:03 19,9 C 24,4 C 75 % 1009,8 hPa 0,0 l/m 17,4 km/h (3 Bft) O 92 1 min 0,000 mm 1,0 UV-I 380 W/m 15,3 C 16,6 C 27,4 km/h (4 Bft) 100,00 %
06.06.2018 08:04 19,9 C 25,0 C 75 % 1009,7 hPa 0,0 l/m 29,6 km/h (5 Bft) O 89 1 min 0,000 mm 1,0 UV-I 382 W/m 15,3 C 14,6 C 40,2 km/h (6 Bft) 100,00 %
06.06.2018 08:05 20,0 C 24,4 C 75 % 1009,7 hPa 0,0 l/m 19,8 km/h (3 Bft) O-SO 104 1 min 0,000 mm 1,0 UV-I 385 W/m 15,4 C 16,2 C 30,6 km/h (5 Bft) 95,65 %
06.06.2018 08:06 20,0 C 24,4 C 75 % 1009,8 hPa 0,0 l/m 21,7 km/h (4 Bft) O 96 1 min 0,000 mm 1,0 UV-I 388 W/m 15,4 C 15,9 C 27,4 km/h (4 Bft) 100,00 %
06.06.2018 08:07 20,0 C 24,4 C 75 % 1009,8 hPa 0,0 l/m 22,3 km/h (4 Bft) O 89 1 min 0,000 mm 1,1 UV-I 390 W/m 15,4 C 15,8 C 27,4 km/h (4 Bft) 100,00 %
06.06.2018 08:08 20,0 C 24,4 C 75 % 1009,8 hPa 0,0 l/m 20,3 km/h (4 Bft) O 92 1 min 0,000 mm 1,1 UV-I 394 W/m 15,4 C 16,2 C 24,1 km/h (4 Bft) 95,83 %
06.06.2018 08:09 20,1 C 24,4 C 75 % 1009,8 hPa 0,0 l/m 16,8 km/h (3 Bft) NO 49 1 min 0,000 mm 1,1 UV-I 397 W/m 15,5 C 17,0 C 20,9 km/h (4 Bft) 100,00 %
06.06.2018 08:10 20,1 C 24,4 C 75 % 1009,8 hPa 0,0 l/m 16,0 km/h (3 Bft) O 99 1 min 0,000 mm 1,1 UV-I 400 W/m 15,5 C 17,1 C 22,5 km/h (4 Bft) 95,83 %
06.06.2018 08:11 20,2 C 24,4 C 75 % 1009,8 hPa 0,0 l/m 18,5 km/h (3 Bft) O-SO 103 1 min 0,000 mm 1,1 UV-I 403 W/m 15,6 C 16,7 C 24,1 km/h (4 Bft) 100,00 %
06.06.2018 08:12 20,2 C 24,4 C 74 % 1009,8 hPa 0,0 l/m 18,0 km/h (3 Bft) O-NO 74 1 min 0,000 mm 1,1 UV-I 407 W/m 15,4 C 16,8 C 25,7 km/h (4 Bft) 95,83 %
06.06.2018 08:13 20,2 C 24,4 C 74 % 1009,8 hPa 0,0 l/m 21,6 km/h (4 Bft) O-NO 59 1 min 0,000 mm 1,1 UV-I 410 W/m 15,4 C 16,2 C 29,0 km/h (5 Bft) 100,00 %
06.06.2018 08:14 20,2 C 24,4 C 74 % 1009,8 hPa 0,0 l/m 18,2 km/h (3 Bft) O-NO 69 1 min 0,000 mm 1,1 UV-I 408 W/m 15,4 C 16,8 C 24,1 km/h (4 Bft) 95,83 %
06.06.2018 08:15 20,2 C 24,4 C 74 % 1009,8 hPa 0,0 l/m 23,0 km/h (4 Bft) O 84 1 min 0,000 mm 1,2 UV-I 411 W/m 15,4 C 16,0 C 29,0 km/h (5 Bft) 95,65 %
06.06.2018 08:16 20,3 C 24,4 C 74 % 1009,8 hPa 0,0 l/m 23,1 km/h (4 Bft) O-NO 69 1 min 0,000 mm 1,2 UV-I 414 W/m 15,5 C 16,1 C 30,6 km/h (5 Bft) 100,00 %
06.06.2018 08:17 20,3 C 24,4 C 74 % 1009,8 hPa 0,0 l/m 14,5 km/h (3 Bft) O 80 1 min 0,000 mm 1,2 UV-I 418 W/m 15,5 C 17,7 C 25,7 km/h (4 Bft) 95,65 %
06.06.2018 08:18 20,3 C 24,4 C 74 % 1009,8 hPa 0,0 l/m 19,5 km/h (3 Bft) O-SO 105 1 min 0,000 mm 1,2 UV-I 420 W/m 15,5 C 16,7 C 27,4 km/h (4 Bft) 100,00 %
06.06.2018 08:19 20,4 C 24,4 C 74 % 1009,8 hPa 0,0 l/m 21,3 km/h (4 Bft) O-NO 59 1 min 0,000 mm 1,2 UV-I 424 W/m 15,6 C 16,5 C 25,7 km/h (4 Bft) 96,15 %
06.06.2018 08:20 20,4 C 24,4 C 74 % 1009,9 hPa 0,0 l/m 21,1 km/h (4 Bft) O 80 1 min 0,000 mm 1,2 UV-I 425 W/m 15,6 C 16,5 C 27,4 km/h (4 Bft) 96,30 %
06.06.2018 08:21 20,4 C 24,4 C 73 % 1009,8 hPa 0,0 l/m 18,8 km/h (3 Bft) O 88 1 min 0,000 mm 1,2 UV-I 428 W/m 15,4 C 16,9 C 25,7 km/h (4 Bft) 95,65 %
06.06.2018 08:22 20,4 C 24,4 C 73 % 1009,8 hPa 0,0 l/m 22,9 km/h (4 Bft) O-NO 71 1 min 0,000 mm 1,3 UV-I 432 W/m 15,4 C 16,2 C 27,4 km/h (4 Bft) 95,83 %
06.06.2018 08:23 20,4 C 24,4 C 73 % 1009,8 hPa 0,0 l/m 18,2 km/h (3 Bft) O-NO 66 1 min 0,000 mm 1,3 UV-I 436 W/m 15,4 C 17,1 C 25,7 km/h (4 Bft) 95,83 %
06.06.2018 08:24 20,4 C 24,4 C 74 % 1009,9 hPa 0,0 l/m 19,2 km/h (3 Bft) O-NO 66 1 min 0,000 mm 1,3 UV-I 440 W/m 15,6 C 16,9 C 24,1 km/h (4 Bft) 96,15 %
06.06.2018 08:25 20,4 C 24,4 C 73 % 1009,9 hPa 0,0 l/m 19,5 km/h (3 Bft) O-NO 66 1 min 0,000 mm 1,3 UV-I 443 W/m 15,4 C 16,8 C 24,1 km/h (4 Bft) 100,00 %
06.06.2018 08:26 20,5 C 24,4 C 73 % 1009,8 hPa 0,0 l/m 20,0 km/h (4 Bft) O 80 1 min 0,000 mm 1,3 UV-I 446 W/m 15,5 C 16,9 C 25,7 km/h (4 Bft) 91,30 %
06.06.2018 08:27 20,5 C 24,4 C 73 % 1009,8 hPa 0,0 l/m 16,5 km/h (3 Bft) O 97 1 min 0,000 mm 1,3 UV-I 449 W/m 15,5 C 17,5 C 24,1 km/h (4 Bft) 100,00 %
06.06.2018 08:28 20,6 C 24,4 C 74 % 1009,8 hPa 0,0 l/m 14,6 km/h (3 Bft) O 85 1 min 0,000 mm 1,3 UV-I 453 W/m 15,8 C 18,1 C 19,3 km/h (3 Bft) 95,65 %
06.06.2018 08:29 20,7 C 24,4 C 74 % 1009,8 hPa 0,0 l/m 14,6 km/h (3 Bft) O 86 1 min 0,000 mm 1,4 UV-I 455 W/m 15,9 C 18,2 C 24,1 km/h (4 Bft) 100,00 %
06.06.2018 08:30 20,7 C 24,4 C 73 % 1009,9 hPa 0,0 l/m 19,6 km/h (3 Bft) O 99 1 min 0,000 mm 1,4 UV-I 455 W/m 15,7 C 17,2 C 27,4 km/h (4 Bft) 91,30 %
06.06.2018 08:31 20,8 C 24,4 C 72 % 1009,8 hPa 0,0 l/m 20,2 km/h (4 Bft) O-SO 113 1 min 0,000 mm 1,4 UV-I 460 W/m 15,6 C 17,2 C 27,4 km/h (4 Bft) 95,83 %
06.06.2018 08:32 20,8 C 24,4 C 72 % 1009,8 hPa 0,0 l/m 15,2 km/h (3 Bft) O 84 1 min 0,000 mm 1,4 UV-I 464 W/m 15,6 C 18,2 C 19,3 km/h (3 Bft) 95,65 %
06.06.2018 08:33 20,8 C 24,4 C 73 % 1009,9 hPa 0,0 l/m 13,2 km/h (3 Bft) O 100 1 min 0,000 mm 1,4 UV-I 466 W/m 15,8 C 18,6 C 17,7 km/h (3 Bft) 95,83 %
06.06.2018 08:34 20,9 C 24,4 C 73 % 1009,9 hPa 0,0 l/m 12,7 km/h (3 Bft) O 94 1 min 0,000 mm 1,4 UV-I 469 W/m 15,9 C 18,9 C 22,5 km/h (4 Bft) 91,30 %
06.06.2018 08:35 20,9 C 24,4 C 72 % 1009,9 hPa 0,0 l/m 22,2 km/h (4 Bft) O 86 1 min 0,000 mm 1,5 UV-I 470 W/m 15,7 C 17,0 C 35,4 km/h (5 Bft) 91,67 %
06.06.2018 08:36 20,9 C 24,4 C 72 % 1009,9 hPa 0,0 l/m 20,5 km/h (4 Bft) O-NO 67 1 min 0,000 mm 1,5 UV-I 474 W/m 15,7 C 17,3 C 25,7 km/h (4 Bft) 100,00 %
06.06.2018 08:37 20,9 C 24,4 C 72 % 1009,8 hPa 0,0 l/m 18,9 km/h (3 Bft) O-NO 72 1 min 0,000 mm 1,5 UV-I 478 W/m 15,7 C 17,6 C 25,7 km/h (4 Bft) 92,59 %
06.06.2018 08:38 20,9 C 24,4 C 72 % 1009,9 hPa 0,0 l/m 18,0 km/h (3 Bft) O-NO 64 1 min 0,000 mm 1,5 UV-I 479 W/m 15,7 C 17,7 C 25,7 km/h (4 Bft) 95,65 %
06.06.2018 08:39 20,9 C 24,4 C 72 % 1009,9 hPa 0,0 l/m 21,9 km/h (4 Bft) O 101 1 min 0,000 mm 1,5 UV-I 483 W/m 15,7 C 17,1 C 27,4 km/h (4 Bft) 95,83 %
06.06.2018 08:40 20,9 C 24,4 C 72 % 1009,9 hPa 0,0 l/m 16,7 km/h (3 Bft) O 91 1 min 0,000 mm 1,5 UV-I 486 W/m 15,7 C 18,0 C 24,1 km/h (4 Bft) 95,83 %
06.06.2018 08:41 20,9 C 24,4 C 72 % 1009,9 hPa 0,0 l/m 21,0 km/h (4 Bft) O 80 1 min 0,000 mm 1,6 UV-I 489 W/m 15,7 C 17,2 C 25,7 km/h (4 Bft) 95,65 %
06.06.2018 08:42 20,9 C 24,4 C 72 % 1009,9 hPa 0,0 l/m 18,4 km/h (3 Bft) O-NO 72 1 min 0,000 mm 1,6 UV-I 492 W/m 15,7 C 17,7 C 24,1 km/h (4 Bft) 95,83 %
06.06.2018 08:43 21,0 C 24,4 C 72 % 1009,9 hPa 0,0 l/m 18,1 km/h (3 Bft) O-NO 77 1 min 0,000 mm 1,6 UV-I 494 W/m 15,8 C 17,8 C 22,5 km/h (4 Bft) 100,00 %
06.06.2018 08:44 21,0 C 24,4 C 71 % 1009,9 hPa 0,0 l/m 21,6 km/h (4 Bft) O 90 1 min 0,000 mm 1,6 UV-I 497 W/m 15,5 C 17,2 C 27,4 km/h (4 Bft) 95,83 %
06.06.2018 08:45 21,0 C 24,4 C 71 % 1009,9 hPa 0,0 l/m 20,8 km/h (4 Bft) O-SO 107 1 min 0,000 mm 1,6 UV-I 499 W/m 15,5 C 17,4 C 29,0 km/h (5 Bft) 100,00 %
06.06.2018 08:46 21,0 C 24,4 C 71 % 1009,9 hPa 0,0 l/m 20,8 km/h (4 Bft) O 86 1 min 0,000 mm 1,6 UV-I 499 W/m 15,5 C 17,4 C 25,7 km/h (4 Bft) 91,67 %
06.06.2018 08:47 21,0 C 24,4 C 71 % 1009,9 hPa 0,0 l/m 21,9 km/h (4 Bft) O 85 1 min 0,000 mm 1,7 UV-I 502 W/m 15,5 C 17,2 C 33,8 km/h (5 Bft) 91,30 %
06.06.2018 08:48 21,0 C 24,4 C 71 % 1009,9 hPa 0,0 l/m 20,6 km/h (4 Bft) O 80 1 min 0,000 mm 1,7 UV-I 504 W/m 15,5 C 17,4 C 25,7 km/h (4 Bft) 100,00 %
06.06.2018 08:49 21,1 C 24,4 C 71 % 1009,9 hPa 0,0 l/m 19,9 km/h (4 Bft) O-NO 75 1 min 0,000 mm 1,7 UV-I 508 W/m 15,6 C 17,6 C 27,4 km/h (4 Bft) 95,65 %
06.06.2018 08:50 21,1 C 24,4 C 71 % 1009,9 hPa 0,0 l/m 23,9 km/h (4 Bft) O 82 1 min 0,000 mm 1,7 UV-I 512 W/m 15,6 C 17,0 C 32,2 km/h (5 Bft) 100,00 %
06.06.2018 08:51 21,1 C 24,4 C 71 % 1009,9 hPa 0,0 l/m 22,8 km/h (4 Bft) O 82 1 min 0,000 mm 1,7 UV-I 514 W/m 15,6 C 17,2 C 29,0 km/h (5 Bft) 91,30 %
06.06.2018 08:52 21,1 C 24,4 C 71 % 1010,0 hPa 0,0 l/m 23,1 km/h (4 Bft) O-NO 75 1 min 0,000 mm 1,8 UV-I 516 W/m 15,6 C 17,1 C 29,0 km/h (5 Bft) 100,00 %
06.06.2018 08:53 21,1 C 24,4 C 70 % 1009,9 hPa 0,0 l/m 23,9 km/h (4 Bft) O-NO 69 1 min 0,000 mm 1,8 UV-I 518 W/m 15,4 C 17,0 C 29,0 km/h (5 Bft) 86,96 %
06.06.2018 08:54 21,1 C 24,4 C 71 % 1010,0 hPa 0,0 l/m 22,2 km/h (4 Bft) O-NO 65 1 min 0,000 mm 1,8 UV-I 521 W/m 15,6 C 17,3 C 25,7 km/h (4 Bft) 100,00 %
06.06.2018 08:55 21,1 C 24,4 C 71 % 1010,0 hPa 0,0 l/m 19,8 km/h (3 Bft) NO 45 1 min 0,000 mm 1,8 UV-I 522 W/m 15,6 C 17,7 C 24,1 km/h (4 Bft) 93,33 %
06.06.2018 08:56 21,1 C 24,4 C 71 % 1009,9 hPa 0,0 l/m 20,2 km/h (4 Bft) NO 55 1 min 0,000 mm 1,8 UV-I 526 W/m 15,6 C 17,6 C 27,4 km/h (4 Bft) 100,00 %
06.06.2018 08:57 21,1 C 24,4 C 71 % 1010,0 hPa 0,0 l/m 23,9 km/h (4 Bft) O-NO 78 1 min 0,000 mm 1,8 UV-I 527 W/m 15,6 C 17,0 C 29,0 km/h (5 Bft) 95,65 %
06.06.2018 08:58 21,2 C 24,4 C 71 % 1010,0 hPa 0,0 l/m 21,7 km/h (4 Bft) O 93 1 min 0,000 mm 1,8 UV-I 529 W/m 15,7 C 17,5 C 29,0 km/h (5 Bft) 100,00 %
06.06.2018 08:59 21,2 C 24,4 C 70 % 1010,0 hPa 0,0 l/m 18,0 km/h (3 Bft) O-NO 78 1 min 0,000 mm 1,9 UV-I 531 W/m 15,5 C 18,1 C 24,1 km/h (4 Bft) 95,83 %
06.06.2018 09:00 21,2 C 24,4 C 70 % 1010,0 hPa 0,0 l/m 20,6 km/h (4 Bft) O-NO 59 1 min 0,000 mm 1,9 UV-I 535 W/m 15,5 C 17,7 C 25,7 km/h (4 Bft) 96,15 %
06.06.2018 09:01 21,2 C 24,4 C 70 % 1010,0 hPa 0,0 l/m 22,2 km/h (4 Bft) O 94 1 min 0,330 mm 1,9 UV-I 540 W/m 15,5 C 17,4 C 27,4 km/h (4 Bft) 96,15 %
06.06.2018 09:02 21,3 C 24,4 C 71 % 1010,0 hPa 0,0 l/m 20,8 km/h (4 Bft) O 86 1 min 0,000 mm 1,9 UV-I 544 W/m 15,8 C 17,8 C 30,6 km/h (5 Bft) 91,67 %
06.06.2018 09:03 21,3 C 24,4 C 70 % 1010,0 hPa 0,0 l/m 20,2 km/h (4 Bft) O 88 1 min 0,000 mm 2,0 UV-I 547 W/m 15,6 C 17,9 C 29,0 km/h (5 Bft) 100,00 %
06.06.2018 09:04 21,4 C 24,4 C 71 % 1010,0 hPa 0,0 l/m 21,2 km/h (4 Bft) O-NO 70 1 min 0,000 mm 2,0 UV-I 547 W/m 15,9 C 17,8 C 29,0 km/h (5 Bft) 91,30 %
06.06.2018 09:05 21,4 C 24,4 C 70 % 1010,1 hPa 0,0 l/m 22,3 km/h (4 Bft) O-NO 62 1 min 0,000 mm 2,0 UV-I 552 W/m 15,7 C 17,7 C 27,4 km/h (4 Bft) 100,00 %
06.06.2018 09:06 21,4 C 24,4 C 70 % 1010,1 hPa 0,0 l/m 22,4 km/h (4 Bft) O 87 1 min 0,000 mm 2,0 UV-I 556 W/m 15,7 C 17,6 C 29,0 km/h (5 Bft) 95,65 %
06.06.2018 09:07 21,4 C 24,4 C 70 % 1010,1 hPa 0,0 l/m 22,5 km/h (4 Bft) O-NO 71 1 min 0,000 mm 2,0 UV-I 556 W/m 15,7 C 17,6 C 29,0 km/h (5 Bft) 95,83 %
06.06.2018 09:08 21,4 C 24,4 C 70 % 1010,1 hPa 0,0 l/m 19,0 km/h (3 Bft) O 85 1 min 0,000 mm 2,1 UV-I 560 W/m 15,7 C 18,2 C 25,7 km/h (4 Bft) 100,00 %
06.06.2018 09:09 21,4 C 24,4 C 70 % 1010,1 hPa 0,0 l/m 22,5 km/h (4 Bft) O-NO 69 1 min 0,000 mm 2,1 UV-I 562 W/m 15,7 C 17,6 C 30,6 km/h (5 Bft) 100,00 %
06.06.2018 09:10 21,5 C 24,4 C 70 % 1010,0 hPa 0,0 l/m 22,6 km/h (4 Bft) O-NO 65 1 min 0,000 mm 2,1 UV-I 564 W/m 15,8 C 17,7 C 27,4 km/h (4 Bft) 95,65 %
06.06.2018 09:11 21,6 C 24,4 C 69 % 1010,1 hPa 0,0 l/m 23,3 km/h (4 Bft) O 95 1 min 0,000 mm 2,1 UV-I 567 W/m 15,7 C 17,8 C 32,2 km/h (5 Bft) 100,00 %
06.06.2018 09:12 21,6 C 24,4 C 69 % 1010,1 hPa 0,0 l/m 22,1 km/h (4 Bft) O 81 1 min 0,000 mm 2,1 UV-I 571 W/m 15,7 C 18,0 C 32,2 km/h (5 Bft) 95,65 %
06.06.2018 09:13 21,6 C 24,4 C 69 % 1010,1 hPa 0,0 l/m 23,9 km/h (4 Bft) NO 53 1 min 0,000 mm 2,1 UV-I 572 W/m 15,7 C 17,7 C 32,2 km/h (5 Bft) 95,83 %
06.06.2018 09:14 21,6 C 24,4 C 70 % 1010,1 hPa 0,0 l/m 15,4 km/h (3 Bft) O 92 1 min 0,000 mm 2,2 UV-I 575 W/m 15,9 C 19,1 C 24,1 km/h (4 Bft) 100,00 %
06.06.2018 09:15 21,6 C 24,4 C 70 % 1010,1 hPa 0,0 l/m 20,4 km/h (4 Bft) O-NO 65 1 min 0,000 mm 2,2 UV-I 575 W/m 15,9 C 18,2 C 27,4 km/h (4 Bft) 91,67 %
06.06.2018 09:16 21,6 C 24,4 C 69 % 1010,1 hPa 0,0 l/m 22,3 km/h (4 Bft) O 83 1 min 0,000 mm 2,2 UV-I 577 W/m 15,7 C 17,9 C 25,7 km/h (4 Bft) 96,15 %
06.06.2018 09:17 21,6 C 24,4 C 69 % 1010,1 hPa 0,0 l/m 22,3 km/h (4 Bft) O 92 1 min 0,000 mm 2,2 UV-I 581 W/m 15,7 C 17,9 C 30,6 km/h (5 Bft) 95,83 %
06.06.2018 09:18 21,6 C 24,4 C 69 % 1010,1 hPa 0,0 l/m 20,9 km/h (4 Bft) O-NO 74 1 min 0,000 mm 2,2 UV-I 585 W/m 15,7 C 18,1 C 27,4 km/h (4 Bft) 100,00 %
06.06.2018 09:19 21,7 C 24,4 C 69 % 1010,1 hPa 0,0 l/m 17,5 km/h (3 Bft) O 88 1 min 0,000 mm 2,2 UV-I 585 W/m 15,8 C 18,8 C 24,1 km/h (4 Bft) 95,65 %
06.06.2018 09:20 21,7 C 24,4 C 69 % 1010,1 hPa 0,0 l/m 21,0 km/h (4 Bft) O 90 1 min 0,000 mm 2,3 UV-I 587 W/m 15,8 C 18,2 C 27,4 km/h (4 Bft) 100,00 %
06.06.2018 09:21 21,7 C 24,4 C 69 % 1010,0 hPa 0,0 l/m 21,8 km/h (4 Bft) O-NO 77 1 min 0,000 mm 2,3 UV-I 591 W/m 15,8 C 18,1 C 29,0 km/h (5 Bft) 91,30 %
06.06.2018 09:22 21,7 C 24,4 C 69 % 1010,1 hPa 0,0 l/m 20,5 km/h (4 Bft) O 96 1 min 0,000 mm 2,3 UV-I 593 W/m 15,8 C 18,3 C 25,7 km/h (4 Bft) 95,83 %
06.06.2018 09:23 21,7 C 24,4 C 69 % 1010,1 hPa 0,0 l/m 22,0 km/h (4 Bft) O-NO 78 1 min 0,000 mm 2,3 UV-I 594 W/m 15,8 C 18,1 C 30,6 km/h (5 Bft) 100,00 %
06.06.2018 09:24 21,7 C 24,4 C 69 % 1010,1 hPa 0,0 l/m 22,7 km/h (4 Bft) O 96 1 min 0,000 mm 2,3 UV-I 598 W/m 15,8 C 18,0 C 27,4 km/h (4 Bft) 96,30 %
06.06.2018 09:25 21,8 C 24,4 C 69 % 1010,1 hPa 0,0 l/m 21,4 km/h (4 Bft) O 96 1 min 0,000 mm 2,3 UV-I 599 W/m 15,9 C 18,3 C 27,4 km/h (4 Bft) 100,00 %
06.06.2018 09:26 21,8 C 24,4 C 69 % 1010,1 hPa 0,0 l/m 19,6 km/h (3 Bft) O 92 1 min 0,000 mm 2,4 UV-I 604 W/m 15,9 C 18,6 C 27,4 km/h (4 Bft) 95,83 %
06.06.2018 09:27 21,8 C 24,4 C 69 % 1010,1 hPa 0,0 l/m 16,0 km/h (3 Bft) O-SO 111 1 min 0,000 mm 2,4 UV-I 605 W/m 15,9 C 19,2 C 22,5 km/h (4 Bft) 100,00 %
06.06.2018 09:28 21,9 C 24,4 C 69 % 1010,1 hPa 0,0 l/m 17,4 km/h (3 Bft) O 90 1 min 0,000 mm 2,4 UV-I 606 W/m 15,9 C 19,1 C 22,5 km/h (4 Bft) 95,83 %
06.06.2018 09:29 21,9 C 24,4 C 68 % 1010,1 hPa 0,0 l/m 18,8 km/h (3 Bft) O 87 1 min 0,000 mm 2,4 UV-I 609 W/m 15,7 C 18,9 C 24,1 km/h (4 Bft) 100,00 %
06.06.2018 09:30 22,0 C 24,4 C 68 % 1010,2 hPa 0,0 l/m 24,0 km/h (4 Bft) O-NO 61 1 min 0,000 mm 2,5 UV-I 612 W/m 15,8 C 18,2 C 32,2 km/h (5 Bft) 95,83 %
06.06.2018 09:31 22,1 C 24,4 C 68 % 1010,1 hPa 0,0 l/m 18,4 km/h (3 Bft) O-NO 76 1 min 0,000 mm 2,5 UV-I 612 W/m 15,9 C 19,2 C 24,1 km/h (4 Bft) 91,30 %
06.06.2018 09:32 22,1 C 24,4 C 68 % 1010,1 hPa 0,0 l/m 17,0 km/h (3 Bft) O-NO 61 1 min 0,000 mm 2,5 UV-I 615 W/m 15,9 C 19,4 C 24,1 km/h (4 Bft) 100,00 %
06.06.2018 09:33 22,2 C 24,4 C 68 % 1010,1 hPa 0,0 l/m 19,1 km/h (3 Bft) O 83 1 min 0,000 mm 2,5 UV-I 619 W/m 16,0 C 19,2 C 27,4 km/h (4 Bft) 95,65 %
06.06.2018 09:34 22,2 C 24,4 C 67 % 1010,1 hPa 0,0 l/m 17,1 km/h (3 Bft) O 82 1 min 0,000 mm 2,5 UV-I 620 W/m 15,8 C 19,5 C 20,9 km/h (4 Bft) 95,83 %
06.06.2018 09:35 22,2 C 24,4 C 68 % 1010,0 hPa 0,0 l/m 18,6 km/h (3 Bft) O-NO 77 1 min 0,000 mm 2,6 UV-I 621 W/m 16,0 C 19,3 C 22,5 km/h (4 Bft) 100,00 %
06.06.2018 09:36 22,2 C 24,4 C 67 % 1010,1 hPa 0,0 l/m 20,3 km/h (4 Bft) O-NO 60 1 min 0,000 mm 2,6 UV-I 630 W/m 15,8 C 19,0 C 25,7 km/h (4 Bft) 95,65 %
06.06.2018 09:37 22,2 C 24,4 C 68 % 1010,1 hPa 0,0 l/m 20,8 km/h (4 Bft) O 99 1 min 0,000 mm 2,6 UV-I 630 W/m 16,0 C 18,9 C 29,0 km/h (5 Bft) 100,00 %
06.06.2018 09:38 22,2 C 24,4 C 68 % 1010,1 hPa 0,0 l/m 21,4 km/h (4 Bft) O 98 1 min 0,000 mm 2,6 UV-I 633 W/m 16,0 C 18,8 C 29,0 km/h (5 Bft) 100,00 %
06.06.2018 09:39 22,2 C 24,4 C 68 % 1010,1 hPa 0,0 l/m 17,7 km/h (3 Bft) O 88 1 min 0,000 mm 2,6 UV-I 635 W/m 16,0 C 19,4 C 25,7 km/h (4 Bft) 100,00 %
06.06.2018 09:40 22,2 C 24,4 C 68 % 1010,1 hPa 0,0 l/m 18,2 km/h (3 Bft) O 80 1 min 0,000 mm 2,7 UV-I 635 W/m 16,0 C 19,3 C 24,1 km/h (4 Bft) 100,00 %
06.06.2018 09:41 22,3 C 25,0 C 69 % 1010,1 hPa 0,0 l/m 17,0 km/h (3 Bft) NO 46 1 min 0,000 mm 2,7 UV-I 639 W/m 16,3 C 19,7 C 25,7 km/h (4 Bft) 95,83 %
06.06.2018 09:42 22,3 C 25,0 C 69 % 1010,1 hPa 0,0 l/m 19,2 km/h (3 Bft) NO 51 1 min 0,000 mm 2,7 UV-I 638 W/m 16,3 C 19,3 C 27,4 km/h (4 Bft) 95,65 %
06.06.2018 09:43 22,4 C 25,0 C 68 % 1010,1 hPa 0,0 l/m 17,3 km/h (3 Bft) O-NO 61 1 min 0,000 mm 2,7 UV-I 641 W/m 16,2 C 19,7 C 27,4 km/h (4 Bft) 100,00 %
06.06.2018 09:44 22,5 C 25,0 C 68 % 1010,1 hPa 0,0 l/m 19,6 km/h (3 Bft) O-NO 59 1 min 0,000 mm 2,7 UV-I 643 W/m 16,3 C 19,5 C 27,4 km/h (4 Bft) 100,00 %
06.06.2018 09:45 22,5 C 25,0 C 67 % 1010,1 hPa 0,0 l/m 17,6 km/h (3 Bft) NO 50 1 min 0,000 mm 2,7 UV-I 644 W/m 16,1 C 19,8 C 22,5 km/h (4 Bft) 100,00 %
06.06.2018 09:46 22,6 C 25,0 C 69 % 1010,1 hPa 0,0 l/m 18,7 km/h (3 Bft) NO 49 1 min 0,000 mm 2,8 UV-I 648 W/m 16,6 C 19,8 C 24,1 km/h (4 Bft) 95,65 %
06.06.2018 09:47 22,7 C 25,0 C 68 % 1010,1 hPa 0,0 l/m 20,9 km/h (4 Bft) O 80 1 min 0,000 mm 2,8 UV-I 650 W/m 16,5 C 19,6 C 29,0 km/h (5 Bft) 100,00 %
06.06.2018 09:48 22,8 C 25,0 C 67 % 1010,1 hPa 0,0 l/m 16,6 km/h (3 Bft) O-NO 63 1 min 0,000 mm 2,8 UV-I 650 W/m 16,3 C 20,4 C 22,5 km/h (4 Bft) 100,00 %
06.06.2018 09:49 22,8 C 25,0 C 67 % 1010,1 hPa 0,0 l/m 19,3 km/h (3 Bft) O-NO 71 1 min 0,000 mm 2,8 UV-I 655 W/m 16,3 C 19,9 C 25,7 km/h (4 Bft) 100,00 %
06.06.2018 09:50 22,9 C 25,0 C 67 % 1010,1 hPa 0,0 l/m 16,8 km/h (3 Bft) O-NO 78 1 min 0,000 mm 2,9 UV-I 658 W/m 16,4 C 20,4 C 24,1 km/h (4 Bft) 100,00 %
06.06.2018 09:51 22,9 C 25,0 C 67 % 1010,1 hPa 0,0 l/m 22,2 km/h (4 Bft) O-NO 57 1 min 0,000 mm 2,9 UV-I 657 W/m 16,4 C 19,7 C 30,6 km/h (5 Bft) 100,00 %
06.06.2018 09:52 22,9 C 25,0 C 66 % 1010,1 hPa 0,0 l/m 17,8 km/h (3 Bft) O-NO 76 1 min 0,000 mm 2,9 UV-I 657 W/m 16,2 C 20,3 C 20,9 km/h (4 Bft) 100,00 %
06.06.2018 09:53 22,9 C 25,0 C 65 % 1010,1 hPa 0,0 l/m 21,2 km/h (4 Bft) O 99 1 min 0,000 mm 2,9 UV-I 659 W/m 16,0 C 19,8 C 29,0 km/h (5 Bft) 96,43 %
06.06.2018 09:54 22,8 C 25,0 C 65 % 1010,1 hPa 0,0 l/m 20,7 km/h (4 Bft) O-NO 71 1 min 0,000 mm 2,9 UV-I 661 W/m 15,9 C 19,7 C 27,4 km/h (4 Bft) 100,00 %
06.06.2018 09:55 22,7 C 24,4 C 65 % 1010,2 hPa 0,0 l/m 18,8 km/h (3 Bft) O-NO 61 1 min 0,000 mm 2,9 UV-I 663 W/m 15,8 C 19,9 C 24,1 km/h (4 Bft) 100,00 %
06.06.2018 09:56 22,7 C 25,0 C 66 % 1010,2 hPa 0,0 l/m 20,5 km/h (4 Bft) O-SO 107 1 min 0,000 mm 3,0 UV-I 666 W/m 16,0 C 19,6 C 27,4 km/h (4 Bft) 100,00 %
06.06.2018 09:57 22,7 C 25,0 C 67 % 1010,2 hPa 0,0 l/m 22,9 km/h (4 Bft) O-NO 65 1 min 0,000 mm 3,0 UV-I 671 W/m 16,2 C 19,3 C 27,4 km/h (4 Bft) 100,00 %
06.06.2018 09:58 22,8 C 24,4 C 66 % 1010,1 hPa 0,0 l/m 19,6 km/h (3 Bft) O 90 1 min 0,000 mm 3,0 UV-I 678 W/m 16,1 C 19,9 C 24,1 km/h (4 Bft) 95,65 %
06.06.2018 09:59 22,8 C 24,4 C 66 % 1010,1 hPa 0,0 l/m 17,6 km/h (3 Bft) O-NO 78 1 min 0,000 mm 3,1 UV-I 680 W/m 16,1 C 20,2 C 24,1 km/h (4 Bft) 95,83 %
06.06.2018 10:00 22,8 C 25,0 C 66 % 1010,2 hPa 0,0 l/m 19,6 km/h (3 Bft) O 86 1 min 0,457 mm 3,1 UV-I 684 W/m 16,1 C 19,9 C 25,7 km/h (4 Bft) 100,00 %
06.06.2018 10:01 22,8 C 25,0 C 66 % 1010,2 hPa 0,0 l/m 16,2 km/h (3 Bft) O-NO 71 1 min 0,000 mm 3,1 UV-I 686 W/m 16,1 C 20,4 C 24,1 km/h (4 Bft) 100,00 %
06.06.2018 10:02 22,8 C 25,0 C 66 % 1010,2 hPa 0,0 l/m 19,2 km/h (3 Bft) NO 42 1 min 0,000 mm 3,1 UV-I 686 W/m 16,1 C 19,9 C 24,1 km/h (4 Bft) 100,00 %
06.06.2018 10:03 22,8 C 25,0 C 67 % 1010,2 hPa 0,0 l/m 16,7 km/h (3 Bft) O-NO 69 1 min 0,000 mm 3,1 UV-I 686 W/m 16,3 C 20,3 C 20,9 km/h (4 Bft) 96,30 %
06.06.2018 10:04 22,9 C 25,0 C 66 % 1010,1 hPa 0,0 l/m 18,2 km/h (3 Bft) O 101 1 min 0,000 mm 3,1 UV-I 688 W/m 16,2 C 20,2 C 24,1 km/h (4 Bft) 100,00 %
06.06.2018 10:05 22,9 C 25,0 C 66 % 1010,1 hPa 0,0 l/m 20,2 km/h (4 Bft) O-NO 72 1 min 0,000 mm 3,1 UV-I 689 W/m 16,2 C 19,9 C 29,0 km/h (5 Bft) 91,30 %
06.06.2018 10:06 23,0 C 25,0 C 66 % 1010,1 hPa 0,0 l/m 24,5 km/h (4 Bft) O-NO 60 1 min 0,000 mm 3,2 UV-I 696 W/m 16,3 C 19,5 C 37,0 km/h (5 Bft) 100,00 %
06.06.2018 10:07 23,0 C 25,0 C 64 % 1010,2 hPa 0,0 l/m 19,5 km/h (3 Bft) O-NO 59 1 min 0,000 mm 3,2 UV-I 696 W/m 15,8 C 20,2 C 25,7 km/h (4 Bft) 96,15 %
06.06.2018 10:08 23,0 C 25,0 C 65 % 1010,2 hPa 0,0 l/m 15,4 km/h (3 Bft) O 82 1 min 0,000 mm 3,2 UV-I 695 W/m 16,1 C 20,8 C 20,9 km/h (4 Bft) 95,83 %
06.06.2018 10:09 22,9 C 25,0 C 65 % 1010,1 hPa 0,0 l/m 18,9 km/h (3 Bft) O 88 1 min 0,000 mm 3,2 UV-I 693 W/m 16,0 C 20,1 C 25,7 km/h (4 Bft) 100,00 %
06.06.2018 10:10 22,9 C 25,0 C 65 % 1010,1 hPa 0,0 l/m 17,8 km/h (3 Bft) O-NO 74 1 min 0,000 mm 3,3 UV-I 695 W/m 16,0 C 20,3 C 25,7 km/h (4 Bft) 95,83 %
06.06.2018 10:11 23,0 C 25,0 C 65 % 1010,1 hPa 0,0 l/m 17,2 km/h (3 Bft) O-NO 73 1 min 0,000 mm 3,3 UV-I 700 W/m 16,1 C 20,5 C 24,1 km/h (4 Bft) 100,00 %
06.06.2018 10:12 23,1 C 25,0 C 65 % 1010,1 hPa 0,0 l/m 17,2 km/h (3 Bft) O-SO 109 1 min 0,000 mm 3,3 UV-I 702 W/m 16,2 C 20,6 C 19,3 km/h (3 Bft) 95,83 %
06.06.2018 10:13 23,1 C 25,0 C 65 % 1010,1 hPa 0,0 l/m 23,5 km/h (4 Bft) O 87 1 min 0,000 mm 3,3 UV-I 707 W/m 16,2 C 19,8 C 32,2 km/h (5 Bft) 100,00 %
06.06.2018 10:14 23,2 C 25,0 C 64 % 1010,1 hPa 0,0 l/m 24,1 km/h (4 Bft) O 92 1 min 0,000 mm 3,4 UV-I 708 W/m 16,0 C 19,8 C 35,4 km/h (5 Bft) 95,83 %
06.06.2018 10:15 23,2 C 25,0 C 65 % 1010,1 hPa 0,0 l/m 19,3 km/h (3 Bft) O-SO 111 1 min 0,000 mm 3,4 UV-I 709 W/m 16,2 C 20,4 C 27,4 km/h (4 Bft) 95,83 %
06.06.2018 10:16 23,3 C 25,0 C 65 % 1010,1 hPa 0,0 l/m 19,4 km/h (3 Bft) O-NO 76 1 min 0,000 mm 3,4 UV-I 713 W/m 16,3 C 20,6 C 24,1 km/h (4 Bft) 95,65 %
06.06.2018 10:17 23,3 C 25,0 C 64 % 1010,1 hPa 0,0 l/m 17,4 km/h (3 Bft) O-NO 66 1 min 0,000 mm 3,4 UV-I 714 W/m 16,1 C 20,8 C 22,5 km/h (4 Bft) 95,65 %
06.06.2018 10:18 23,3 C 25,0 C 64 % 1010,1 hPa 0,0 l/m 15,4 km/h (3 Bft) O-NO 71 1 min 0,000 mm 3,4 UV-I 714 W/m 16,1 C 21,2 C 22,5 km/h (4 Bft) 100,00 %
06.06.2018 10:19 23,3 C 25,0 C 64 % 1010,1 hPa 0,0 l/m 18,4 km/h (3 Bft) O 86 1 min 0,000 mm 3,5 UV-I 718 W/m 16,1 C 20,7 C 22,5 km/h (4 Bft) 95,83 %
06.06.2018 10:20 23,4 C 25,0 C 64 % 1010,1 hPa 0,0 l/m 16,9 km/h (3 Bft) O 90 1 min 0,000 mm 3,5 UV-I 722 W/m 16,2 C 21,1 C 22,5 km/h (4 Bft) 90,91 %
06.06.2018 10:21 23,5 C 25,0 C 65 % 1010,1 hPa 0,0 l/m 20,8 km/h (4 Bft) O-SO 110 1 min 0,000 mm 3,5 UV-I 724 W/m 16,5 C 20,6 C 27,4 km/h (4 Bft) 96,30 %
06.06.2018 10:22 23,6 C 25,0 C 63 % 1010,1 hPa 0,0 l/m 21,5 km/h (4 Bft) O 96 1 min 0,000 mm 3,5 UV-I 724 W/m 16,1 C 20,7 C 27,4 km/h (4 Bft) 95,65 %
06.06.2018 10:23 23,6 C 25,0 C 63 % 1010,0 hPa 0,0 l/m 17,2 km/h (3 Bft) O-NO 78 1 min 0,000 mm 3,6 UV-I 725 W/m 16,1 C 21,3 C 22,5 km/h (4 Bft) 96,30 %
06.06.2018 10:24 23,6 C 25,0 C 63 % 1010,0 hPa 0,0 l/m 15,4 km/h (3 Bft) O 96 1 min 0,000 mm 3,6 UV-I 728 W/m 16,1 C 21,5 C 19,3 km/h (3 Bft) 95,65 %
06.06.2018 10:25 23,7 C 25,0 C 64 % 1010,0 hPa 0,0 l/m 13,9 km/h (3 Bft) O-NO 71 1 min 0,000 mm 3,6 UV-I 726 W/m 16,5 C 21,9 C 17,7 km/h (3 Bft) 95,83 %
06.06.2018 10:26 23,7 C 25,0 C 64 % 1010,0 hPa 0,0 l/m 15,6 km/h (3 Bft) NO 55 1 min 0,000 mm 3,6 UV-I 726 W/m 16,5 C 21,6 C 20,9 km/h (4 Bft) 92,31 %
06.06.2018 10:27 23,8 C 25,0 C 65 % 1010,0 hPa 0,0 l/m 19,1 km/h (3 Bft) O 88 1 min 0,000 mm 3,6 UV-I 723 W/m 16,8 C 21,2 C 27,4 km/h (4 Bft) 100,00 %
06.06.2018 10:28 23,9 C 25,0 C 63 % 1010,0 hPa 0,0 l/m 17,3 km/h (3 Bft) O-NO 65 1 min 0,000 mm 3,6 UV-I 732 W/m 16,4 C 21,6 C 24,1 km/h (4 Bft) 91,30 %
06.06.2018 10:29 23,9 C 25,0 C 62 % 1010,0 hPa 0,0 l/m 16,7 km/h (3 Bft) NO 42 1 min 0,000 mm 3,7 UV-I 733 W/m 16,2 C 21,7 C 27,4 km/h (4 Bft) 100,00 %
06.06.2018 10:30 24,0 C 25,0 C 63 % 1010,0 hPa 0,0 l/m 20,8 km/h (4 Bft) NO 55 1 min 0,000 mm 3,7 UV-I 733 W/m 16,5 C 21,3 C 25,7 km/h (4 Bft) 91,30 %
06.06.2018 10:31 24,0 C 25,0 C 64 % 1010,0 hPa 0,0 l/m 22,3 km/h (4 Bft) O 82 1 min 0,000 mm 3,7 UV-I 736 W/m 16,8 C 21,1 C 29,0 km/h (5 Bft) 100,00 %
06.06.2018 10:32 24,1 C 25,0 C 61 % 1010,0 hPa 0,0 l/m 22,3 km/h (4 Bft) O-NO 69 1 min 0,000 mm 3,7 UV-I 732 W/m 16,1 C 21,2 C 30,6 km/h (5 Bft) 91,30 %
06.06.2018 10:33 24,0 C 25,0 C 61 % 1010,0 hPa 0,0 l/m 22,6 km/h (4 Bft) O 80 1 min 0,000 mm 3,8 UV-I 738 W/m 16,0 C 21,1 C 27,4 km/h (4 Bft) 95,83 %
06.06.2018 10:34 23,9 C 25,0 C 61 % 1010,0 hPa 0,0 l/m 22,5 km/h (4 Bft) O-NO 61 1 min 0,000 mm 3,8 UV-I 746 W/m 15,9 C 20,9 C 29,0 km/h (5 Bft) 95,65 %
06.06.2018 10:35 23,9 C 25,0 C 63 % 1010,0 hPa 0,0 l/m 22,2 km/h (4 Bft) O-NO 71 1 min 0,000 mm 3,8 UV-I 747 W/m 16,4 C 21,0 C 29,0 km/h (5 Bft) 100,00 %
06.06.2018 10:36 24,0 C 25,0 C 63 % 1010,0 hPa 0,0 l/m 23,6 km/h (4 Bft) SO 141 1 min 0,000 mm 3,8 UV-I 747 W/m 16,5 C 21,0 C 30,6 km/h (5 Bft) 100,00 %
06.06.2018 10:37 24,0 C 25,0 C 61 % 1010,0 hPa 0,0 l/m 27,0 km/h (4 Bft) O 89 1 min 0,000 mm 3,9 UV-I 752 W/m 16,0 C 20,6 C 33,8 km/h (5 Bft) 100,00 %
06.06.2018 10:38 24,0 C 25,0 C 61 % 1010,0 hPa 0,0 l/m 21,8 km/h (4 Bft) O 87 1 min 0,000 mm 3,9 UV-I 752 W/m 16,0 C 21,2 C 30,6 km/h (5 Bft) 100,00 %
06.06.2018 10:39 23,9 C 25,0 C 61 % 1010,0 hPa 0,0 l/m 20,6 km/h (4 Bft) O 87 1 min 0,000 mm 3,9 UV-I 755 W/m 15,9 C 21,2 C 30,6 km/h (5 Bft) 100,00 %
06.06.2018 10:40 23,9 C 25,0 C 61 % 1010,0 hPa 0,0 l/m 21,4 km/h (4 Bft) O-NO 76 1 min 0,000 mm 3,9 UV-I 758 W/m 15,9 C 21,1 C 30,6 km/h (5 Bft) 100,00 %
06.06.2018 10:41 23,9 C 25,0 C 61 % 1010,0 hPa 0,0 l/m 26,1 km/h (4 Bft) O-NO 69 1 min 0,000 mm 3,9 UV-I 758 W/m 15,9 C 20,6 C 33,8 km/h (5 Bft) 92,86 %
06.06.2018 10:42 23,9 C 25,0 C 61 % 1010,0 hPa 0,0 l/m 24,8 km/h (4 Bft) O-NO 64 1 min 0,000 mm 3,9 UV-I 758 W/m 15,9 C 20,7 C 32,2 km/h (5 Bft) 95,83 %
06.06.2018 10:43 23,9 C 25,0 C 60 % 1010,0 hPa 0,0 l/m 19,0 km/h (3 Bft) O-NO 78 1 min 0,000 mm 4,0 UV-I 758 W/m 15,7 C 21,4 C 25,7 km/h (4 Bft) 91,30 %
06.06.2018 10:44 23,9 C 25,0 C 62 % 1009,9 hPa 0,0 l/m 20,7 km/h (4 Bft) O 86 1 min 0,000 mm 4,0 UV-I 760 W/m 16,2 C 21,2 C 25,7 km/h (4 Bft) 100,00 %
06.06.2018 10:45 24,0 C 25,0 C 61 % 1009,9 hPa 0,0 l/m 22,5 km/h (4 Bft) O 96 1 min 0,000 mm 4,0 UV-I 765 W/m 16,0 C 21,1 C 32,2 km/h (5 Bft) 100,00 %
06.06.2018 10:46 24,1 C 25,0 C 61 % 1009,9 hPa 0,0 l/m 24,7 km/h (4 Bft) O 101 1 min 0,000 mm 4,0 UV-I 766 W/m 16,1 C 21,0 C 32,2 km/h (5 Bft) 100,00 %
06.06.2018 10:47 24,1 C 25,0 C 60 % 1009,9 hPa 0,0 l/m 20,1 km/h (4 Bft) O-NO 70 1 min 0,000 mm 4,0 UV-I 767 W/m 15,8 C 21,5 C 27,4 km/h (4 Bft) 100,00 %
06.06.2018 10:48 24,1 C 25,0 C 60 % 1009,9 hPa 0,0 l/m 20,9 km/h (4 Bft) O-SO 113 1 min 0,000 mm 4,1 UV-I 771 W/m 15,8 C 21,4 C 27,4 km/h (4 Bft) 95,83 %
06.06.2018 10:49 24,2 C 25,0 C 61 % 1009,9 hPa 0,0 l/m 18,3 km/h (3 Bft) O-SO 106 1 min 0,000 mm 4,1 UV-I 772 W/m 16,2 C 21,9 C 22,5 km/h (4 Bft) 100,00 %
06.06.2018 10:50 24,2 C 25,0 C 61 % 1009,9 hPa 0,0 l/m 20,3 km/h (4 Bft) O 101 1 min 0,000 mm 4,1 UV-I 773 W/m 16,2 C 21,6 C 24,1 km/h (4 Bft) 100,00 %
06.06.2018 10:51 24,2 C 25,0 C 60 % 1009,9 hPa 0,0 l/m 23,9 km/h (4 Bft) O 81 1 min 0,000 mm 4,1 UV-I 775 W/m 15,9 C 21,2 C 27,4 km/h (4 Bft) 100,00 %
06.06.2018 10:52 24,2 C 25,0 C 61 % 1009,9 hPa 0,0 l/m 23,5 km/h (4 Bft) O 94 1 min 0,000 mm 4,2 UV-I 780 W/m 16,2 C 21,2 C 33,8 km/h (5 Bft) 100,00 %
06.06.2018 10:53 24,3 C 25,0 C 60 % 1009,9 hPa 0,0 l/m 23,1 km/h (4 Bft) O-SO 109 1 min 0,000 mm 4,2 UV-I 780 W/m 16,0 C 21,4 C 29,0 km/h (5 Bft) 100,00 %
06.06.2018 10:54 24,3 C 25,0 C 60 % 1010,0 hPa 0,0 l/m 18,6 km/h (3 Bft) O-SO 106 1 min 0,000 mm 4,2 UV-I 782 W/m 16,0 C 21,9 C 25,7 km/h (4 Bft) 100,00 %
06.06.2018 10:55 24,4 C 25,0 C 60 % 1009,9 hPa 0,0 l/m 16,2 km/h (3 Bft) O-NO 71 1 min 0,000 mm 4,2 UV-I 780 W/m 16,1 C 22,4 C 24,1 km/h (4 Bft) 95,83 %
06.06.2018 10:56 24,5 C 25,0 C 62 % 1009,9 hPa 0,0 l/m 19,4 km/h (3 Bft) O 89 1 min 0,000 mm 4,2 UV-I 782 W/m 16,7 C 22,1 C 24,1 km/h (4 Bft) 95,65 %
06.06.2018 10:57 24,7 C 25,0 C 59 % 1009,9 hPa 0,0 l/m 22,7 km/h (4 Bft) O-SO 113 1 min 0,000 mm 4,3 UV-I 787 W/m 16,1 C 22,0 C 35,4 km/h (5 Bft) 100,00 %
06.06.2018 10:58 24,7 C 25,0 C 59 % 1009,9 hPa 0,0 l/m 20,9 km/h (4 Bft) O-NO 69 1 min 0,000 mm 4,3 UV-I 791 W/m 16,1 C 22,2 C 27,4 km/h (4 Bft) 100,00 %
06.06.2018 10:59 24,7 C 25,0 C 59 % 1009,9 hPa 0,0 l/m 22,9 km/h (4 Bft) O-SO 106 1 min 0,000 mm 4,3 UV-I 792 W/m 16,1 C 22,0 C 29,0 km/h (5 Bft) 100,00 %
06.06.2018 11:00 24,7 C 25,0 C 58 % 1009,9 hPa 0,0 l/m 24,9 km/h (4 Bft) O 90 1 min 0,559 mm 4,3 UV-I 795 W/m 15,9 C 21,8 C 30,6 km/h (5 Bft) 100,00 %
06.06.2018 11:01 24,7 C 25,0 C 58 % 1009,9 hPa 0,0 l/m 25,5 km/h (4 Bft) O-SO 107 1 min 0,000 mm 4,4 UV-I 795 W/m 15,9 C 21,7 C 35,4 km/h (5 Bft) 100,00 %
06.06.2018 11:02 24,7 C 25,0 C 59 % 1009,9 hPa 0,0 l/m 21,9 km/h (4 Bft) O 89 1 min 0,000 mm 4,4 UV-I 796 W/m 16,1 C 22,1 C 27,4 km/h (4 Bft) 100,00 %
06.06.2018 11:03 24,7 C 25,0 C 58 % 1009,9 hPa 0,0 l/m 19,2 km/h (3 Bft) O-NO 69 1 min 0,000 mm 4,4 UV-I 796 W/m 15,9 C 22,4 C 24,1 km/h (4 Bft) 100,00 %
06.06.2018 11:04 24,7 C 25,0 C 58 % 1009,9 hPa 0,0 l/m 21,9 km/h (4 Bft) O 97 1 min 0,000 mm 4,4 UV-I 796 W/m 15,9 C 22,1 C 32,2 km/h (5 Bft) 100,00 %
06.06.2018 11:05 24,7 C 25,0 C 59 % 1009,9 hPa 0,0 l/m 23,9 km/h (4 Bft) O-SO 119 1 min 0,000 mm 4,4 UV-I 799 W/m 16,1 C 21,9 C 32,2 km/h (5 Bft) 100,00 %
06.06.2018 11:06 24,7 C 25,0 C 59 % 1009,9 hPa 0,0 l/m 23,2 km/h (4 Bft) O-NO 64 1 min 0,000 mm 4,4 UV-I 799 W/m 16,1 C 21,9 C 29,0 km/h (5 Bft) 100,00 %
06.06.2018 11:07 24,7 C 25,0 C 59 % 1009,8 hPa 0,0 l/m 20,7 km/h (4 Bft) O-SO 108 1 min 0,000 mm 4,4 UV-I 800 W/m 16,1 C 22,2 C 25,7 km/h (4 Bft) 100,00 %
06.06.2018 11:08 24,7 C 25,0 C 59 % 1009,8 hPa 0,0 l/m 19,6 km/h (3 Bft) O 88 1 min 0,000 mm 4,5 UV-I 801 W/m 16,1 C 22,3 C 27,4 km/h (4 Bft) 100,00 %
06.06.2018 11:09 24,8 C 25,0 C 60 % 1009,8 hPa 0,0 l/m 19,3 km/h (3 Bft) O-NO 66 1 min 0,000 mm 4,5 UV-I 802 W/m 16,5 C 22,5 C 25,7 km/h (4 Bft) 100,00 %
06.06.2018 11:10 24,8 C 25,0 C 59 % 1009,8 hPa 0,0 l/m 18,2 km/h (3 Bft) O-NO 75 1 min 0,000 mm 4,5 UV-I 801 W/m 16,2 C 22,6 C 25,7 km/h (4 Bft) 100,00 %
06.06.2018 11:11 24,9 C 25,0 C 59 % 1009,9 hPa 0,0 l/m 21,5 km/h (4 Bft) O 88 1 min 0,000 mm 4,5 UV-I 799 W/m 16,3 C 22,4 C 29,0 km/h (5 Bft) 100,00 %
06.06.2018 11:13 25,0 C 25,0 C 59 % 1009,8 hPa 0,0 l/m 18,3 km/h (3 Bft) O 86 2 min 0,000 mm 4,5 UV-I 804 W/m 16,4 C 22,9 C 29,0 km/h (5 Bft) 98,00 %
06.06.2018 11:14 25,2 C 25,0 C 58 % 1009,8 hPa 0,0 l/m 20,6 km/h (4 Bft) NO 52 1 min 0,000 mm 4,6 UV-I 809 W/m 16,3 C 22,9 C 30,6 km/h (5 Bft) 100,00 %
06.06.2018 11:15 25,2 C 25,0 C 58 % 1009,8 hPa 0,0 l/m 22,3 km/h (4 Bft) O-SO 104 1 min 0,000 mm 4,6 UV-I 812 W/m 16,3 C 22,7 C 29,0 km/h (5 Bft) 95,65 %
06.06.2018 11:16 25,2 C 25,0 C 57 % 1009,9 hPa 0,0 l/m 21,5 km/h (4 Bft) O 96 1 min 0,000 mm 4,6 UV-I 812 W/m 16,1 C 22,8 C 32,2 km/h (5 Bft) 100,00 %
06.06.2018 11:17 25,3 C 25,0 C 58 % 1009,8 hPa 0,0 l/m 21,0 km/h (4 Bft) O-SO 105 1 min 0,000 mm 4,6 UV-I 812 W/m 16,4 C 22,9 C 29,0 km/h (5 Bft) 100,00 %
06.06.2018 11:18 25,2 C 25,0 C 57 % 1009,8 hPa 0,0 l/m 20,1 km/h (4 Bft) O 99 1 min 0,000 mm 4,7 UV-I 816 W/m 16,1 C 22,9 C 27,4 km/h (4 Bft) 95,83 %
06.06.2018 11:19 25,2 C 25,0 C 57 % 1009,8 hPa 0,0 l/m 22,1 km/h (4 Bft) O 86 1 min 0,000 mm 4,7 UV-I 816 W/m 16,1 C 22,7 C 29,0 km/h (5 Bft) 100,00 %
06.06.2018 11:20 25,2 C 25,0 C 58 % 1009,7 hPa 0,0 l/m 22,7 km/h (4 Bft) O 88 1 min 0,000 mm 4,7 UV-I 816 W/m 16,3 C 22,6 C 35,4 km/h (5 Bft) 100,00 %
06.06.2018 11:21 25,2 C 25,0 C 57 % 1009,7 hPa 0,0 l/m 21,9 km/h (4 Bft) O-SO 112 1 min 0,000 mm 4,7 UV-I 814 W/m 16,1 C 22,7 C 32,2 km/h (5 Bft) 95,65 %
06.06.2018 11:22 25,2 C 25,0 C 58 % 1009,7 hPa 0,0 l/m 22,7 km/h (4 Bft) O 85 1 min 0,000 mm 4,7 UV-I 817 W/m 16,3 C 22,6 C 30,6 km/h (5 Bft) 100,00 %
06.06.2018 11:23 25,2 C 25,0 C 56 % 1009,7 hPa 0,0 l/m 26,2 km/h (4 Bft) O-SO 107 1 min 0,000 mm 4,7 UV-I 821 W/m 15,8 C 22,3 C 35,4 km/h (5 Bft) 100,00 %
06.06.2018 11:24 25,2 C 25,0 C 56 % 1009,7 hPa 0,0 l/m 26,2 km/h (4 Bft) O-NO 78 1 min 0,000 mm 4,7 UV-I 821 W/m 15,8 C 22,3 C 38,6 km/h (5 Bft) 95,83 %
06.06.2018 11:25 25,2 C 25,0 C 57 % 1009,8 hPa 0,0 l/m 23,4 km/h (4 Bft) O 96 1 min 0,000 mm 4,8 UV-I 823 W/m 16,1 C 22,6 C 30,6 km/h (5 Bft) 96,15 %
06.06.2018 11:26 25,2 C 25,0 C 57 % 1009,8 hPa 0,0 l/m 24,1 km/h (4 Bft) O 90 1 min 0,000 mm 4,8 UV-I 823 W/m 16,1 C 22,5 C 30,6 km/h (5 Bft) 100,00 %
06.06.2018 11:27 25,2 C 25,0 C 57 % 1009,7 hPa 0,0 l/m 25,0 km/h (4 Bft) O 85 1 min 0,000 mm 4,8 UV-I 828 W/m 16,1 C 22,4 C 30,6 km/h (5 Bft) 100,00 %
06.06.2018 11:28 25,2 C 25,0 C 57 % 1009,8 hPa 0,0 l/m 20,4 km/h (4 Bft) O-NO 76 1 min 0,000 mm 4,8 UV-I 828 W/m 16,1 C 22,9 C 29,0 km/h (5 Bft) 100,00 %
06.06.2018 11:29 25,3 C 25,0 C 57 % 1009,8 hPa 0,0 l/m 18,6 km/h (3 Bft) O 92 1 min 0,000 mm 4,8 UV-I 828 W/m 16,2 C 23,2 C 24,1 km/h (4 Bft) 100,00 %
06.06.2018 11:30 25,4 C 25,0 C 57 % 1009,8 hPa 0,0 l/m 22,3 km/h (4 Bft) NO 56 1 min 0,000 mm 4,8 UV-I 820 W/m 16,2 C 22,9 C 27,4 km/h (4 Bft) 100,00 %
06.06.2018 11:31 25,4 C 25,0 C 56 % 1009,8 hPa 0,0 l/m 23,5 km/h (4 Bft) O 88 1 min 0,000 mm 4,8 UV-I 821 W/m 16,0 C 22,8 C 29,0 km/h (5 Bft) 100,00 %
06.06.2018 11:32 25,4 C 25,0 C 56 % 1009,8 hPa 0,0 l/m 17,6 km/h (3 Bft) O 80 1 min 0,000 mm 4,9 UV-I 824 W/m 16,0 C 23,5 C 24,1 km/h (4 Bft) 100,00 %
06.06.2018 11:33 25,5 C 25,0 C 57 % 1009,7 hPa 0,0 l/m 23,3 km/h (4 Bft) N-NO 33 1 min 0,000 mm 4,9 UV-I 826 W/m 16,3 C 23,0 C 35,4 km/h (5 Bft) 100,00 %
06.06.2018 11:34 25,6 C 25,0 C 57 % 1009,7 hPa 0,0 l/m 22,9 km/h (4 Bft) O-NO 68 1 min 0,000 mm 4,9 UV-I 830 W/m 16,4 C 23,2 C 30,6 km/h (5 Bft) 100,00 %
06.06.2018 11:35 25,7 C 25,0 C 57 % 1009,7 hPa 0,0 l/m 23,0 km/h (4 Bft) NO 46 1 min 0,000 mm 4,9 UV-I 837 W/m 16,5 C 23,3 C 32,2 km/h (5 Bft) 100,00 %
06.06.2018 11:36 25,7 C 25,0 C 56 % 1009,7 hPa 0,0 l/m 17,4 km/h (3 Bft) N-NO 18 1 min 0,000 mm 5,0 UV-I 838 W/m 16,2 C 23,9 C 25,7 km/h (4 Bft) 95,65 %
06.06.2018 11:37 25,8 C 25,0 C 55 % 1009,7 hPa 0,0 l/m 20,2 km/h (4 Bft) NO 36 1 min 0,000 mm 5,0 UV-I 837 W/m 16,1 C 23,7 C 27,4 km/h (4 Bft) 100,00 %
06.06.2018 11:38 25,8 C 25,0 C 55 % 1009,7 hPa 0,0 l/m 20,3 km/h (4 Bft) O 92 1 min 0,000 mm 5,0 UV-I 837 W/m 16,1 C 23,7 C 25,7 km/h (4 Bft) 95,65 %
06.06.2018 11:39 25,8 C 25,0 C 55 % 1009,7 hPa 0,0 l/m 20,0 km/h (4 Bft) O 84 1 min 0,000 mm 4,9 UV-I 832 W/m 16,1 C 23,7 C 24,1 km/h (4 Bft) 100,00 %
06.06.2018 11:40 25,7 C 25,0 C 55 % 1009,7 hPa 0,0 l/m 16,1 km/h (3 Bft) O-NO 78 1 min 0,000 mm 5,0 UV-I 840 W/m 16,0 C 24,0 C 19,3 km/h (3 Bft) 100,00 %
06.06.2018 11:41 25,7 C 25,0 C 56 % 1009,7 hPa 0,0 l/m 13,0 km/h (3 Bft) O-SO 105 1 min 0,000 mm 5,0 UV-I 841 W/m 16,2 C 24,4 C 16,1 km/h (3 Bft) 100,00 %
06.06.2018 11:42 25,8 C 25,0 C 57 % 1009,7 hPa 0,0 l/m 21,8 km/h (4 Bft) O-NO 67 1 min 0,000 mm 5,0 UV-I 840 W/m 16,6 C 23,5 C 32,2 km/h (5 Bft) 100,00 %
06.06.2018 11:43 25,9 C 25,0 C 56 % 1009,7 hPa 0,0 l/m 21,7 km/h (4 Bft) O-NO 76 1 min 0,000 mm 5,1 UV-I 842 W/m 16,4 C 23,7 C 30,6 km/h (5 Bft) 100,00 %
06.06.2018 11:44 26,0 C 25,0 C 56 % 1009,7 hPa 0,0 l/m 22,5 km/h (4 Bft) O-NO 71 1 min 0,000 mm 5,1 UV-I 842 W/m 16,5 C 23,7 C 32,2 km/h (5 Bft) 95,65 %
06.06.2018 11:45 26,1 C 25,0 C 54 % 1009,7 hPa 0,0 l/m 22,7 km/h (4 Bft) O-NO 74 1 min 0,000 mm 5,1 UV-I 846 W/m 16,0 C 23,8 C 29,0 km/h (5 Bft) 100,00 %
06.06.2018 11:46 26,0 C 25,0 C 54 % 1009,7 hPa 0,0 l/m 21,2 km/h (4 Bft) O-NO 76 1 min 0,000 mm 5,1 UV-I 845 W/m 16,0 C 23,8 C 30,6 km/h (5 Bft) 100,00 %
06.06.2018 11:47 25,9 C 25,0 C 54 % 1009,6 hPa 0,0 l/m 20,8 km/h (4 Bft) O-NO 63 1 min 0,000 mm 5,1 UV-I 847 W/m 15,9 C 23,7 C 25,7 km/h (4 Bft) 100,00 %
06.06.2018 11:48 25,9 C 25,0 C 54 % 1009,7 hPa 0,0 l/m 22,6 km/h (4 Bft) O-NO 58 1 min 0,000 mm 5,1 UV-I 846 W/m 15,9 C 23,6 C 32,2 km/h (5 Bft) 100,00 %
06.06.2018 11:49 25,8 C 25,0 C 55 % 1009,6 hPa 0,0 l/m 22,5 km/h (4 Bft) NO 42 1 min 0,000 mm 5,1 UV-I 848 W/m 16,1 C 23,5 C 27,4 km/h (4 Bft) 95,65 %
06.06.2018 11:50 25,9 C 25,0 C 57 % 1009,6 hPa 0,0 l/m 17,0 km/h (3 Bft) NO 46 1 min 0,000 mm 5,2 UV-I 855 W/m 16,7 C 24,2 C 25,7 km/h (4 Bft) 100,00 %
06.06.2018 11:51 26,1 C 25,0 C 58 % 1009,6 hPa 0,0 l/m 20,8 km/h (4 Bft) NO 52 1 min 0,000 mm 5,2 UV-I 853 W/m 17,2 C 24,0 C 33,8 km/h (5 Bft) 95,65 %
06.06.2018 11:52 26,2 C 25,0 C 55 % 1009,7 hPa 0,0 l/m 23,8 km/h (4 Bft) O 101 1 min 0,000 mm 5,2 UV-I 854 W/m 16,4 C 23,9 C 30,6 km/h (5 Bft) 100,00 %
06.06.2018 11:53 26,3 C 25,0 C 55 % 1009,6 hPa 0,0 l/m 22,9 km/h (4 Bft) O 87 1 min 0,000 mm 5,2 UV-I 856 W/m 16,5 C 24,1 C 30,6 km/h (5 Bft) 100,00 %
06.06.2018 11:54 26,2 C 25,0 C 54 % 1009,6 hPa 0,0 l/m 17,4 km/h (3 Bft) NO 56 1 min 0,000 mm 5,3 UV-I 861 W/m 16,1 C 24,5 C 25,7 km/h (4 Bft) 100,00 %
06.06.2018 11:55 26,1 C 25,0 C 54 % 1009,6 hPa 0,0 l/m 19,6 km/h (3 Bft) O-NO 76 1 min 0,000 mm 5,2 UV-I 856 W/m 16,0 C 24,1 C 25,7 km/h (4 Bft) 100,00 %
06.06.2018 11:56 26,1 C 25,0 C 55 % 1009,6 hPa 0,0 l/m 17,4 km/h (3 Bft) O-NO 62 1 min 0,000 mm 5,3 UV-I 862 W/m 16,3 C 24,4 C 22,5 km/h (4 Bft) 100,00 %
06.06.2018 11:57 26,2 C 25,0 C 55 % 1009,7 hPa 0,0 l/m 16,7 km/h (3 Bft) O-NO 70 1 min 0,000 mm 5,3 UV-I 854 W/m 16,4 C 24,6 C 24,1 km/h (4 Bft) 100,00 %
06.06.2018 11:58 26,2 C 25,0 C 54 % 1009,7 hPa 0,0 l/m 12,4 km/h (3 Bft) O 85 1 min 0,000 mm 5,3 UV-I 856 W/m 16,1 C 25,1 C 16,1 km/h (3 Bft) 95,83 %
06.06.2018 11:59 26,3 C 25,0 C 54 % 1009,6 hPa 0,0 l/m 22,8 km/h (4 Bft) O-NO 68 1 min 0,000 mm 5,3 UV-I 856 W/m 16,2 C 24,1 C 35,4 km/h (5 Bft) 95,65 %
06.06.2018 12:00 26,3 C 25,0 C 53 % 1009,6 hPa 0,0 l/m 20,6 km/h (4 Bft) O-NO 77 1 min 0,000 mm 5,3 UV-I 854 W/m 15,9 C 24,3 C 30,6 km/h (5 Bft) 95,83 %
06.06.2018 12:01 26,3 C 25,0 C 53 % 1009,7 hPa 0,0 l/m 22,3 km/h (4 Bft) NO 54 1 min 0,660 mm 5,2 UV-I 853 W/m 15,9 C 24,1 C 27,4 km/h (4 Bft) 96,15 %
06.06.2018 12:02 26,3 C 25,0 C 53 % 1009,6 hPa 0,0 l/m 21,0 km/h (4 Bft) NO 55 1 min 0,000 mm 5,3 UV-I 857 W/m 15,9 C 24,3 C 29,0 km/h (5 Bft) 100,00 %
06.06.2018 12:03 26,2 C 25,0 C 55 % 1009,7 hPa 0,0 l/m 23,0 km/h (4 Bft) O 85 1 min 0,000 mm 5,3 UV-I 844 W/m 16,4 C 23,9 C 30,6 km/h (5 Bft) 96,15 %
06.06.2018 12:04 26,2 C 25,0 C 53 % 1009,7 hPa 0,0 l/m 19,2 km/h (3 Bft) O-NO 76 1 min 0,000 mm 5,3 UV-I 845 W/m 15,8 C 24,3 C 27,4 km/h (4 Bft) 100,00 %
06.06.2018 12:05 26,2 C 25,0 C 53 % 1009,6 hPa 0,0 l/m 22,5 km/h (4 Bft) O-NO 71 1 min 0,000 mm 5,3 UV-I 860 W/m 15,8 C 24,0 C 27,4 km/h (4 Bft) 95,65 %
06.06.2018 12:06 26,3 C 25,0 C 55 % 1009,6 hPa 0,0 l/m 20,1 km/h (4 Bft) O-NO 78 1 min 0,000 mm 5,4 UV-I 860 W/m 16,5 C 24,3 C 29,0 km/h (5 Bft) 100,00 %
06.06.2018 12:07 26,4 C 25,0 C 54 % 1009,7 hPa 0,0 l/m 21,2 km/h (4 Bft) O-NO 71 1 min 0,000 mm 5,3 UV-I 861 W/m 16,3 C 24,4 C 27,4 km/h (4 Bft) 95,65 %
06.06.2018 12:08 26,4 C 25,0 C 54 % 1009,7 hPa 0,0 l/m 21,4 km/h (4 Bft) O-NO 60 1 min 0,000 mm 5,3 UV-I 860 W/m 16,3 C 24,3 C 27,4 km/h (4 Bft) 100,00 %
06.06.2018 12:09 26,4 C 25,0 C 52 % 1009,7 hPa 0,0 l/m 17,1 km/h (3 Bft) O-NO 74 1 min 0,000 mm 5,3 UV-I 858 W/m 15,7 C 24,8 C 24,1 km/h (4 Bft) 95,83 %
06.06.2018 12:10 26,4 C 25,0 C 52 % 1009,7 hPa 0,0 l/m 24,2 km/h (4 Bft) O 82 1 min 0,000 mm 5,4 UV-I 861 W/m 15,7 C 24,1 C 29,0 km/h (5 Bft) 96,55 %
06.06.2018 12:11 26,3 C 25,0 C 52 % 1009,7 hPa 0,0 l/m 20,3 km/h (4 Bft) O-SO 102 1 min 0,000 mm 5,4 UV-I 869 W/m 15,6 C 24,3 C 25,7 km/h (4 Bft) 100,00 %
06.06.2018 12:12 26,3 C 25,0 C 52 % 1009,7 hPa 0,0 l/m 22,3 km/h (4 Bft) O 89 1 min 0,000 mm 5,4 UV-I 873 W/m 15,6 C 24,1 C 27,4 km/h (4 Bft) 95,65 %
06.06.2018 12:13 26,3 C 25,0 C 52 % 1009,6 hPa 0,0 l/m 23,2 km/h (4 Bft) O-NO 64 1 min 0,000 mm 5,5 UV-I 874 W/m 15,6 C 24,1 C 29,0 km/h (5 Bft) 100,00 %
06.06.2018 12:14 26,3 C 25,0 C 53 % 1009,7 hPa 0,0 l/m 18,3 km/h (3 Bft) N-NO 24 1 min 0,000 mm 5,5 UV-I 874 W/m 15,9 C 24,5 C 24,1 km/h (4 Bft) 86,96 %
06.06.2018 12:15 26,3 C 25,0 C 54 % 1009,7 hPa 0,0 l/m 22,0 km/h (4 Bft) NO 41 1 min 0,000 mm 5,5 UV-I 867 W/m 16,2 C 24,2 C 30,6 km/h (5 Bft) 100,00 %
06.06.2018 12:16 26,5 C 25,0 C 53 % 1009,7 hPa 0,0 l/m 22,2 km/h (4 Bft) O 79 1 min 0,000 mm 5,4 UV-I 865 W/m 16,1 C 24,4 C 33,8 km/h (5 Bft) 95,65 %
06.06.2018 12:17 26,6 C 25,0 C 53 % 1009,7 hPa 0,0 l/m 25,0 km/h (4 Bft) NO 46 1 min 0,000 mm 5,5 UV-I 872 W/m 16,2 C 24,3 C 30,6 km/h (5 Bft) 95,83 %
06.06.2018 12:18 26,6 C 25,0 C 54 % 1009,6 hPa 0,0 l/m 21,3 km/h (4 Bft) O-NO 63 1 min 0,000 mm 5,5 UV-I 869 W/m 16,5 C 24,6 C 25,7 km/h (4 Bft) 100,00 %
06.06.2018 12:19 26,7 C 25,0 C 52 % 1009,7 hPa 0,0 l/m 20,0 km/h (4 Bft) O-NO 57 1 min 0,000 mm 5,5 UV-I 869 W/m 16,0 C 24,9 C 27,4 km/h (4 Bft) 95,83 %
06.06.2018 12:20 26,7 C 25,0 C 52 % 1009,6 hPa 0,0 l/m 18,2 km/h (3 Bft) NO 42 1 min 0,000 mm 5,4 UV-I 867 W/m 16,0 C 25,0 C 24,1 km/h (4 Bft) 91,30 %
06.06.2018 12:21 26,7 C 25,0 C 53 % 1009,5 hPa 0,0 l/m 16,7 km/h (3 Bft) O-NO 71 1 min 0,000 mm 5,5 UV-I 865 W/m 16,3 C 25,2 C 22,5 km/h (4 Bft) 95,83 %
06.06.2018 12:22 26,7 C 25,0 C 52 % 1009,5 hPa 0,0 l/m 17,8 km/h (3 Bft) O-NO 70 1 min 0,000 mm 5,5 UV-I 871 W/m 16,0 C 25,1 C 30,6 km/h (5 Bft) 100,00 %
06.06.2018 12:23 26,7 C 25,0 C 52 % 1009,5 hPa 0,0 l/m 22,3 km/h (4 Bft) O-NO 61 1 min 0,000 mm 5,5 UV-I 871 W/m 16,0 C 24,7 C 30,6 km/h (5 Bft) 95,83 %
06.06.2018 12:24 26,7 C 25,0 C 51 % 1009,5 hPa 0,0 l/m 23,8 km/h (4 Bft) O-NO 74 1 min 0,000 mm 5,5 UV-I 873 W/m 15,7 C 24,6 C 33,8 km/h (5 Bft) 100,00 %
06.06.2018 12:25 26,7 C 25,0 C 52 % 1009,5 hPa 0,0 l/m 25,7 km/h (4 Bft) NO 55 1 min 0,000 mm 5,5 UV-I 872 W/m 16,0 C 24,4 C 35,4 km/h (5 Bft) 95,83 %
06.06.2018 12:26 26,7 C 25,0 C 53 % 1009,5 hPa 0,0 l/m 26,6 km/h (4 Bft) NO 56 1 min 0,000 mm 5,5 UV-I 872 W/m 16,3 C 24,4 C 33,8 km/h (5 Bft) 95,65 %
06.06.2018 12:27 26,8 C 25,0 C 51 % 1009,5 hPa 0,0 l/m 23,5 km/h (4 Bft) O-NO 73 1 min 0,000 mm 5,5 UV-I 868 W/m 15,8 C 24,7 C 29,0 km/h (5 Bft) 95,83 %
06.06.2018 12:28 26,8 C 25,0 C 51 % 1009,5 hPa 0,0 l/m 20,0 km/h (4 Bft) NO 54 1 min 0,000 mm 5,5 UV-I 873 W/m 15,8 C 25,0 C 30,6 km/h (5 Bft) 100,00 %
06.06.2018 12:29 26,8 C 25,0 C 51 % 1009,5 hPa 0,0 l/m 20,9 km/h (4 Bft) O-NO 71 1 min 0,000 mm 5,6 UV-I 876 W/m 15,8 C 24,9 C 29,0 km/h (5 Bft) 92,31 %
06.06.2018 12:30 26,8 C 25,0 C 52 % 1009,5 hPa 0,0 l/m 22,5 km/h (4 Bft) O-NO 68 1 min 0,000 mm 5,6 UV-I 878 W/m 16,1 C 24,8 C 30,6 km/h (5 Bft) 91,67 %
06.06.2018 12:31 26,9 C 25,0 C 51 % 1009,5 hPa 0,0 l/m 17,6 km/h (3 Bft) O-NO 65 1 min 0,000 mm 5,6 UV-I 869 W/m 15,9 C 25,3 C 29,0 km/h (5 Bft) 95,65 %
06.06.2018 12:32 26,8 C 25,0 C 51 % 1009,5 hPa 0,0 l/m 11,9 km/h (2 Bft) O 98 1 min 0,000 mm 5,6 UV-I 877 W/m 15,8 C 25,9 C 24,1 km/h (4 Bft) 100,00 %
06.06.2018 12:33 26,9 C 25,0 C 52 % 1009,5 hPa 0,0 l/m 21,0 km/h (4 Bft) O 84 1 min 0,000 mm 5,6 UV-I 879 W/m 16,2 C 25,0 C 29,0 km/h (5 Bft) 95,65 %
06.06.2018 12:34 26,8 C 25,0 C 50 % 1009,5 hPa 0,0 l/m 23,3 km/h (4 Bft) O 89 1 min 0,000 mm 5,6 UV-I 879 W/m 15,5 C 24,7 C 32,2 km/h (5 Bft) 95,83 %
06.06.2018 12:35 26,8 C 25,0 C 51 % 1009,5 hPa 0,0 l/m 21,5 km/h (4 Bft) O 88 1 min 0,000 mm 5,6 UV-I 878 W/m 15,8 C 24,9 C 27,4 km/h (4 Bft) 100,00 %
06.06.2018 12:36 26,8 C 25,0 C 51 % 1009,5 hPa 0,0 l/m 25,3 km/h (4 Bft) O 95 1 min 0,000 mm 5,6 UV-I 877 W/m 15,8 C 24,6 C 33,8 km/h (5 Bft) 96,30 %
06.06.2018 12:37 26,8 C 25,0 C 50 % 1009,5 hPa 0,0 l/m 22,2 km/h (4 Bft) NO 43 1 min 0,000 mm 5,6 UV-I 875 W/m 15,5 C 24,8 C 30,6 km/h (5 Bft) 100,00 %
06.06.2018 12:38 26,8 C 25,0 C 52 % 1009,4 hPa 0,0 l/m 22,2 km/h (4 Bft) O-NO 78 1 min 0,000 mm 5,6 UV-I 881 W/m 16,1 C 24,8 C 27,4 km/h (4 Bft) 95,83 %
06.06.2018 12:39 26,8 C 25,0 C 51 % 1009,5 hPa 0,0 l/m 22,4 km/h (4 Bft) O 83 1 min 0,000 mm 5,6 UV-I 878 W/m 15,8 C 24,8 C 29,0 km/h (5 Bft) 95,65 %
06.06.2018 12:40 26,8 C 25,0 C 50 % 1009,5 hPa 0,0 l/m 20,5 km/h (4 Bft) O 80 1 min 0,000 mm 5,6 UV-I 875 W/m 15,5 C 24,9 C 30,6 km/h (5 Bft) 91,67 %
06.06.2018 12:41 26,8 C 25,0 C 51 % 1009,4 hPa 0,0 l/m 20,0 km/h (4 Bft) O-SO 123 1 min 0,000 mm 5,7 UV-I 880 W/m 15,8 C 25,0 C 29,0 km/h (5 Bft) 95,65 %
06.06.2018 12:42 26,9 C 25,0 C 51 % 1009,5 hPa 0,0 l/m 18,0 km/h (3 Bft) O-SO 121 1 min 0,000 mm 5,7 UV-I 886 W/m 15,9 C 25,3 C 22,5 km/h (4 Bft) 95,83 %
06.06.2018 12:43 26,9 C 25,0 C 51 % 1009,5 hPa 0,0 l/m 19,3 km/h (3 Bft) O 90 1 min 0,000 mm 5,7 UV-I 883 W/m 15,9 C 25,2 C 29,0 km/h (5 Bft) 96,15 %
06.06.2018 12:44 27,0 C 25,0 C 51 % 1009,5 hPa 0,0 l/m 24,4 km/h (4 Bft) O 84 1 min 0,000 mm 5,7 UV-I 880 W/m 16,0 C 24,9 C 35,4 km/h (5 Bft) 100,00 %
06.06.2018 12:45 27,0 C 25,0 C 50 % 1009,4 hPa 0,0 l/m 19,1 km/h (3 Bft) O-NO 66 1 min 0,000 mm 5,7 UV-I 883 W/m 15,7 C 25,3 C 30,6 km/h (5 Bft) 95,65 %
06.06.2018 12:46 27,1 C 25,0 C 51 % 1009,4 hPa 0,0 l/m 15,5 km/h (3 Bft) O 94 1 min 0,000 mm 5,7 UV-I 882 W/m 16,1 C 25,8 C 20,9 km/h (4 Bft) 95,83 %
06.06.2018 12:47 27,1 C 25,0 C 49 % 1009,4 hPa 0,0 l/m 15,2 km/h (3 Bft) NO 42 1 min 0,000 mm 5,7 UV-I 881 W/m 15,4 C 25,8 C 29,0 km/h (5 Bft) 91,30 %
06.06.2018 12:48 27,2 C 25,0 C 50 % 1009,4 hPa 0,0 l/m 24,7 km/h (4 Bft) O 92 1 min 0,000 mm 5,7 UV-I 877 W/m 15,9 C 25,2 C 35,4 km/h (5 Bft) 91,67 %
06.06.2018 12:49 27,2 C 25,0 C 49 % 1009,5 hPa 0,0 l/m 16,7 km/h (3 Bft) O-NO 59 1 min 0,000 mm 5,7 UV-I 887 W/m 15,5 C 25,8 C 25,7 km/h (4 Bft) 92,59 %
06.06.2018 12:50 27,2 C 25,0 C 50 % 1009,4 hPa 0,0 l/m 18,2 km/h (3 Bft) O 82 1 min 0,000 mm 5,7 UV-I 887 W/m 15,9 C 25,7 C 29,0 km/h (5 Bft) 100,00 %
06.06.2018 12:51 27,2 C 25,0 C 49 % 1009,5 hPa 0,0 l/m 24,6 km/h (4 Bft) O 79 1 min 0,000 mm 5,7 UV-I 880 W/m 15,5 C 25,2 C 32,2 km/h (5 Bft) 96,30 %
06.06.2018 12:52 27,2 C 25,0 C 49 % 1009,5 hPa 0,0 l/m 24,6 km/h (4 Bft) O 89 1 min 0,000 mm 5,6 UV-I 876 W/m 15,5 C 25,2 C 32,2 km/h (5 Bft) 100,00 %
06.06.2018 12:53 27,1 C 25,0 C 49 % 1009,5 hPa 0,0 l/m 22,4 km/h (4 Bft) O 101 1 min 0,000 mm 5,7 UV-I 884 W/m 15,4 C 25,2 C 29,0 km/h (5 Bft) 95,83 %
06.06.2018 12:54 26,9 C 25,0 C 50 % 1009,5 hPa 0,0 l/m 17,5 km/h (3 Bft) O 92 1 min 0,000 mm 5,7 UV-I 887 W/m 15,6 C 25,3 C 22,5 km/h (4 Bft) 95,65 %
06.06.2018 12:55 26,9 C 25,0 C 50 % 1009,4 hPa 0,0 l/m 22,1 km/h (4 Bft) NO 52 1 min 0,000 mm 5,7 UV-I 888 W/m 15,6 C 24,9 C 32,2 km/h (5 Bft) 100,00 %
06.06.2018 12:56 27,0 C 25,0 C 51 % 1009,4 hPa 0,0 l/m 21,5 km/h (4 Bft) O 84 1 min 0,000 mm 5,7 UV-I 886 W/m 16,0 C 25,1 C 27,4 km/h (4 Bft) 96,15 %
06.06.2018 12:57 27,1 C 25,0 C 49 % 1009,4 hPa 0,0 l/m 21,9 km/h (4 Bft) O-NO 68 1 min 0,000 mm 5,7 UV-I 890 W/m 15,4 C 25,2 C 29,0 km/h (5 Bft) 95,83 %
06.06.2018 12:58 27,2 C 25,0 C 51 % 1009,4 hPa 0,0 l/m 26,8 km/h (4 Bft) O-NO 62 1 min 0,000 mm 5,8 UV-I 893 W/m 16,2 C 25,0 C 32,2 km/h (5 Bft) 90,91 %
06.06.2018 12:59 27,3 C 25,0 C 52 % 1009,4 hPa 0,0 l/m 17,6 km/h (3 Bft) NO 47 1 min 0,000 mm 5,8 UV-I 893 W/m 16,6 C 25,8 C 22,5 km/h (4 Bft) 96,30 %
06.06.2018 13:00 27,4 C 25,0 C 50 % 1009,4 hPa 0,0 l/m 22,3 km/h (4 Bft) O-NO 70 1 min 0,000 mm 5,7 UV-I 886 W/m 16,0 C 25,6 C 29,0 km/h (5 Bft) 95,65 %
06.06.2018 13:01 27,6 C 25,0 C 49 % 1009,3 hPa 0,0 l/m 19,4 km/h (3 Bft) O 86 1 min 0,712 mm 5,7 UV-I 881 W/m 15,9 C 26,1 C 27,4 km/h (4 Bft) 100,00 %
06.06.2018 13:02 27,6 C 25,0 C 49 % 1009,4 hPa 0,0 l/m 24,3 km/h (4 Bft) O 83 1 min 0,000 mm 5,7 UV-I 879 W/m 15,9 C 25,7 C 30,6 km/h (5 Bft) 95,83 %
06.06.2018 13:03 27,6 C 25,0 C 48 % 1009,4 hPa 0,0 l/m 22,7 km/h (4 Bft) O-NO 76 1 min 0,000 mm 5,7 UV-I 883 W/m 15,6 C 25,8 C 35,4 km/h (5 Bft) 100,00 %
06.06.2018 13:04 27,4 C 25,0 C 48 % 1009,4 hPa 0,0 l/m 23,0 km/h (4 Bft) O-SO 102 1 min 0,000 mm 5,6 UV-I 876 W/m 15,4 C 25,5 C 32,2 km/h (5 Bft) 95,83 %
06.06.2018 13:05 27,3 C 25,0 C 48 % 1009,5 hPa 0,0 l/m 23,0 km/h (4 Bft) O 94 1 min 0,000 mm 5,7 UV-I 879 W/m 15,3 C 25,4 C 30,6 km/h (5 Bft) 100,00 %
06.06.2018 13:06 27,3 C 25,0 C 48 % 1009,4 hPa 0,0 l/m 17,4 km/h (3 Bft) O-NO 64 1 min 0,000 mm 5,7 UV-I 876 W/m 15,3 C 25,9 C 24,1 km/h (4 Bft) 95,83 %
06.06.2018 13:08 27,3 C 25,6 C 48 % 1009,3 hPa 0,0 l/m 17,6 km/h (3 Bft) NO 55 2 min 0,000 mm 5,7 UV-I 879 W/m 15,3 C 25,8 C 29,0 km/h (5 Bft) 96,00 %
06.06.2018 13:09 27,4 C 25,6 C 50 % 1009,3 hPa 0,0 l/m 16,3 km/h (3 Bft) NO 51 1 min 0,000 mm 5,7 UV-I 881 W/m 16,0 C 26,1 C 25,7 km/h (4 Bft) 95,65 %
06.06.2018 13:10 27,5 C 25,6 C 47 % 1009,4 hPa 0,0 l/m 23,7 km/h (4 Bft) O-NO 57 1 min 0,000 mm 5,7 UV-I 879 W/m 15,2 C 25,6 C 29,0 km/h (5 Bft) 100,00 %
06.06.2018 13:11 27,4 C 25,6 C 47 % 1009,4 hPa 0,0 l/m 22,3 km/h (4 Bft) O 96 1 min 0,000 mm 5,7 UV-I 875 W/m 15,1 C 25,6 C 29,0 km/h (5 Bft) 92,31 %
06.06.2018 13:12 27,4 C 25,6 C 47 % 1009,4 hPa 0,0 l/m 18,6 km/h (3 Bft) O-NO 76 1 min 0,000 mm 5,6 UV-I 871 W/m 15,1 C 25,9 C 25,7 km/h (4 Bft) 100,00 %
06.06.2018 13:13 27,4 C 25,6 C 49 % 1009,4 hPa 0,0 l/m 23,0 km/h (4 Bft) O-NO 61 1 min 0,000 mm 5,7 UV-I 878 W/m 15,7 C 25,5 C 27,4 km/h (4 Bft) 92,86 %
06.06.2018 13:14 27,5 C 25,6 C 49 % 1009,4 hPa 0,0 l/m 16,0 km/h (3 Bft) NO 48 1 min 0,000 mm 5,7 UV-I 880 W/m 15,8 C 26,2 C 22,5 km/h (4 Bft) 95,83 %
06.06.2018 13:15 27,7 C 25,6 C 51 % 1009,3 hPa 0,0 l/m 22,8 km/h (4 Bft) O 90 1 min 0,000 mm 5,7 UV-I 879 W/m 16,6 C 26,0 C 29,0 km/h (5 Bft) 91,30 %
06.06.2018 13:16 27,7 C 25,6 C 49 % 1009,3 hPa 0,0 l/m 16,2 km/h (3 Bft) O-NO 72 1 min 0,000 mm 5,7 UV-I 881 W/m 16,0 C 26,5 C 22,5 km/h (4 Bft) 95,83 %
06.06.2018 13:17 27,7 C 25,6 C 48 % 1009,3 hPa 0,0 l/m 18,8 km/h (3 Bft) O 80 1 min 0,000 mm 5,7 UV-I 885 W/m 15,7 C 26,2 C 25,7 km/h (4 Bft) 91,30 %
06.06.2018 13:18 27,7 C 25,6 C 50 % 1009,3 hPa 0,0 l/m 20,4 km/h (4 Bft) O-NO 71 1 min 0,000 mm 5,7 UV-I 884 W/m 16,3 C 26,1 C 25,7 km/h (4 Bft) 100,00 %
06.06.2018 13:19 27,7 C 25,6 C 49 % 1009,3 hPa 0,0 l/m 17,4 km/h (3 Bft) O-NO 69 1 min 0,000 mm 5,6 UV-I 880 W/m 16,0 C 26,4 C 30,6 km/h (5 Bft) 95,65 %
06.06.2018 13:20 27,7 C 25,6 C 48 % 1009,3 hPa 0,0 l/m 21,7 km/h (4 Bft) O-NO 76 1 min 0,000 mm 5,7 UV-I 886 W/m 15,7 C 26,0 C 30,6 km/h (5 Bft) 95,83 %
06.06.2018 13:21 27,7 C 25,6 C 48 % 1009,3 hPa 0,0 l/m 21,1 km/h (4 Bft) O 81 1 min 0,000 mm 5,7 UV-I 887 W/m 15,7 C 26,1 C 29,0 km/h (5 Bft) 100,00 %
06.06.2018 13:23 27,6 C 25,6 C 49 % 1009,2 hPa 0,0 l/m 23,2 km/h (4 Bft) O-NO 74 2 min 0,000 mm 5,7 UV-I 888 W/m 15,9 C 25,8 C 37,0 km/h (5 Bft) 98,28 %
06.06.2018 13:24 27,6 C 25,6 C 48 % 1009,2 hPa 0,0 l/m 24,5 km/h (4 Bft) O-NO 62 1 min 0,000 mm 5,7 UV-I 891 W/m 15,6 C 25,7 C 33,8 km/h (5 Bft) 100,00 %
06.06.2018 13:25 27,5 C 25,6 C 49 % 1009,2 hPa 0,0 l/m 22,3 km/h (4 Bft) O-NO 65 1 min 0,000 mm 5,7 UV-I 889 W/m 15,8 C 25,7 C 32,2 km/h (5 Bft) 100,00 %
06.06.2018 13:26 27,5 C 25,6 C 48 % 1009,2 hPa 0,0 l/m 16,0 km/h (3 Bft) NO 56 1 min 0,000 mm 5,7 UV-I 889 W/m 15,5 C 26,2 C 20,9 km/h (4 Bft) 95,65 %
06.06.2018 13:27 27,6 C 25,6 C 48 % 1009,2 hPa 0,0 l/m 19,7 km/h (3 Bft) NO 44 1 min 0,000 mm 5,7 UV-I 886 W/m 15,6 C 26,0 C 25,7 km/h (4 Bft) 100,00 %
06.06.2018 13:28 27,6 C 25,6 C 49 % 1009,2 hPa 0,0 l/m 17,1 km/h (3 Bft) O-NO 57 1 min 0,000 mm 5,7 UV-I 890 W/m 15,9 C 26,3 C 22,5 km/h (4 Bft) 95,65 %
06.06.2018 13:29 27,7 C 25,6 C 49 % 1009,1 hPa 0,0 l/m 22,7 km/h (4 Bft) NO 54 1 min 0,000 mm 5,8 UV-I 891 W/m 16,0 C 26,0 C 37,0 km/h (5 Bft) 95,83 %
06.06.2018 13:30 27,7 C 25,6 C 47 % 1009,1 hPa 0,0 l/m 21,9 km/h (4 Bft) O-NO 72 1 min 0,000 mm 5,6 UV-I 884 W/m 15,3 C 26,0 C 25,7 km/h (4 Bft) 100,00 %
06.06.2018 13:31 27,7 C 25,6 C 48 % 1009,1 hPa 0,0 l/m 22,3 km/h (4 Bft) NO 49 1 min 0,000 mm 5,6 UV-I 876 W/m 15,7 C 26,0 C 29,0 km/h (5 Bft) 95,83 %
06.06.2018 13:32 27,8 C 25,6 C 50 % 1009,1 hPa 0,0 l/m 24,1 km/h (4 Bft) NO 56 1 min 0,000 mm 5,7 UV-I 888 W/m 16,4 C 26,0 C 32,2 km/h (5 Bft) 100,00 %
06.06.2018 13:33 27,8 C 25,6 C 48 % 1009,2 hPa 0,0 l/m 23,5 km/h (4 Bft) O 95 1 min 0,000 mm 5,7 UV-I 890 W/m 15,8 C 26,0 C 32,2 km/h (5 Bft) 100,00 %
06.06.2018 13:34 27,8 C 25,6 C 46 % 1009,1 hPa 0,0 l/m 25,9 km/h (4 Bft) NO 51 1 min 0,000 mm 5,7 UV-I 887 W/m 15,1 C 25,9 C 33,8 km/h (5 Bft) 100,00 %
06.06.2018 13:35 27,8 C 25,6 C 47 % 1009,1 hPa 0,0 l/m 22,5 km/h (4 Bft) O-SO 114 1 min 0,000 mm 5,6 UV-I 879 W/m 15,4 C 26,1 C 25,7 km/h (4 Bft) 100,00 %
06.06.2018 13:36 27,8 C 25,6 C 47 % 1009,1 hPa 0,0 l/m 19,6 km/h (3 Bft) O 98 1 min 0,000 mm 5,6 UV-I 881 W/m 15,4 C 26,3 C 29,0 km/h (5 Bft) 96,55 %
06.06.2018 13:37 27,7 C 25,6 C 47 % 1009,1 hPa 0,0 l/m 25,5 km/h (4 Bft) O-NO 64 1 min 0,000 mm 5,6 UV-I 878 W/m 15,3 C 25,8 C 37,0 km/h (5 Bft) 100,00 %
06.06.2018 13:38 27,7 C 25,6 C 48 % 1009,1 hPa 0,0 l/m 26,4 km/h (4 Bft) NO 49 1 min 0,000 mm 5,6 UV-I 881 W/m 15,7 C 25,7 C 32,2 km/h (5 Bft) 95,65 %
06.06.2018 13:39 27,6 C 25,6 C 48 % 1009,1 hPa 0,0 l/m 22,2 km/h (4 Bft) O 90 1 min 0,000 mm 5,6 UV-I 870 W/m 15,6 C 25,9 C 30,6 km/h (5 Bft) 100,00 %
06.06.2018 13:40 27,6 C 25,6 C 47 % 1009,1 hPa 0,0 l/m 23,5 km/h (4 Bft) O-NO 72 1 min 0,000 mm 5,5 UV-I 858 W/m 15,3 C 25,8 C 29,0 km/h (5 Bft) 100,00 %
06.06.2018 13:41 27,6 C 25,6 C 47 % 1009,1 hPa 0,0 l/m 15,3 km/h (3 Bft) NO 37 1 min 0,000 mm 5,6 UV-I 867 W/m 15,3 C 26,4 C 20,9 km/h (4 Bft) 100,00 %
06.06.2018 13:42 27,6 C 25,6 C 50 % 1009,1 hPa 0,0 l/m 20,4 km/h (4 Bft) O 99 1 min 0,000 mm 5,6 UV-I 875 W/m 16,2 C 26,0 C 27,4 km/h (4 Bft) 100,00 %
06.06.2018 13:43 27,6 C 25,6 C 48 % 1009,1 hPa 0,0 l/m 22,6 km/h (4 Bft) O-NO 78 1 min 0,000 mm 5,6 UV-I 875 W/m 15,6 C 25,8 C 27,4 km/h (4 Bft) 95,65 %
06.06.2018 13:44 27,7 C 25,6 C 48 % 1009,1 hPa 0,0 l/m 15,4 km/h (3 Bft) O 81 1 min 0,000 mm 5,6 UV-I 877 W/m 15,7 C 26,5 C 22,5 km/h (4 Bft) 100,00 %
06.06.2018 13:45 27,7 C 25,6 C 49 % 1009,1 hPa 0,0 l/m 15,7 km/h (3 Bft) O-NO 73 1 min 0,000 mm 5,5 UV-I 879 W/m 16,0 C 26,5 C 20,9 km/h (4 Bft) 95,65 %
06.06.2018 13:46 27,7 C 25,6 C 49 % 1009,1 hPa 0,0 l/m 14,9 km/h (3 Bft) O 82 1 min 0,000 mm 5,6 UV-I 881 W/m 16,0 C 26,6 C 20,9 km/h (4 Bft) 92,59 %
06.06.2018 13:47 27,8 C 25,6 C 49 % 1009,1 hPa 0,0 l/m 16,3 km/h (3 Bft) O 90 1 min 0,000 mm 5,6 UV-I 881 W/m 16,1 C 26,6 C 20,9 km/h (4 Bft) 92,31 %
06.06.2018 13:48 27,9 C 25,6 C 48 % 1009,1 hPa 0,0 l/m 13,2 km/h (3 Bft) O-NO 76 1 min 0,000 mm 5,6 UV-I 877 W/m 15,9 C 27,0 C 17,7 km/h (3 Bft) 100,00 %
06.06.2018 13:49 28,0 C 25,6 C 48 % 1009,0 hPa 0,0 l/m 20,5 km/h (4 Bft) NO 54 1 min 0,000 mm 5,5 UV-I 877 W/m 15,9 C 26,5 C 29,0 km/h (5 Bft) 96,15 %
06.06.2018 13:50 28,1 C 25,6 C 47 % 1009,0 hPa 0,0 l/m 21,6 km/h (4 Bft) O 101 1 min 0,000 mm 5,5 UV-I 877 W/m 15,7 C 26,6 C 32,2 km/h (5 Bft) 100,00 %
06.06.2018 13:51 28,0 C 25,6 C 48 % 1009,0 hPa 0,0 l/m 18,2 km/h (3 Bft) O-SO 103 1 min 0,000 mm 5,5 UV-I 878 W/m 15,9 C 26,7 C 22,5 km/h (4 Bft) 95,65 %
06.06.2018 13:53 27,9 C 25,6 C 46 % 1009,0 hPa 0,0 l/m 23,9 km/h (4 Bft) O 95 2 min 0,000 mm 5,5 UV-I 877 W/m 15,2 C 26,2 C 32,2 km/h (5 Bft) 100,00 %
06.06.2018 13:54 27,9 C 25,6 C 47 % 1009,0 hPa 0,0 l/m 21,3 km/h (4 Bft) O-NO 77 1 min 0,000 mm 5,5 UV-I 878 W/m 15,5 C 26,3 C 25,7 km/h (4 Bft) 100,00 %
06.06.2018 13:55 27,9 C 25,6 C 47 % 1009,0 hPa 0,0 l/m 22,1 km/h (4 Bft) O 93 1 min 0,000 mm 5,5 UV-I 873 W/m 15,5 C 26,3 C 30,6 km/h (5 Bft) 96,15 %
06.06.2018 13:56 27,9 C 25,6 C 47 % 1009,1 hPa 0,0 l/m 21,7 km/h (4 Bft) O 94 1 min 0,000 mm 5,5 UV-I 878 W/m 15,5 C 26,3 C 32,2 km/h (5 Bft) 100,00 %
06.06.2018 13:57 27,9 C 25,6 C 48 % 1009,0 hPa 0,0 l/m 14,3 km/h (3 Bft) O-SO 112 1 min 0,000 mm 5,5 UV-I 882 W/m 15,9 C 26,9 C 20,9 km/h (4 Bft) 95,12 %
06.06.2018 13:58 28,0 C 25,6 C 50 % 1008,9 hPa 0,0 l/m 16,2 km/h (3 Bft) O 94 1 min 0,000 mm 5,5 UV-I 880 W/m 16,6 C 26,8 C 20,9 km/h (4 Bft) 91,67 %
06.06.2018 13:59 28,1 C 25,6 C 48 % 1009,0 hPa 0,0 l/m 25,1 km/h (4 Bft) O 80 1 min 0,000 mm 5,4 UV-I 871 W/m 16,0 C 26,4 C 38,6 km/h (5 Bft) 96,30 %
06.06.2018 14:00 28,2 C 25,6 C 48 % 1008,9 hPa 0,0 l/m 22,4 km/h (4 Bft) O-NO 71 1 min 0,736 mm 5,4 UV-I 871 W/m 16,1 C 26,6 C 29,0 km/h (5 Bft) 95,65 %
06.06.2018 14:01 28,2 C 25,6 C 48 % 1009,0 hPa 0,0 l/m 24,5 km/h (4 Bft) O 81 1 min 0,000 mm 5,4 UV-I 876 W/m 16,1 C 26,5 C 32,2 km/h (5 Bft) 100,00 %
06.06.2018 14:02 28,2 C 25,6 C 47 % 1008,9 hPa 0,0 l/m 27,6 km/h (4 Bft) O-SO 114 1 min 0,000 mm 5,4 UV-I 881 W/m 15,8 C 26,4 C 40,2 km/h (6 Bft) 95,65 %
06.06.2018 14:03 28,1 C 25,6 C 47 % 1009,0 hPa 0,0 l/m 27,2 km/h (4 Bft) O 88 1 min 0,000 mm 5,4 UV-I 877 W/m 15,7 C 26,2 C 37,0 km/h (5 Bft) 100,00 %
06.06.2018 14:04 28,1 C 25,6 C 46 % 1009,0 hPa 0,0 l/m 24,7 km/h (4 Bft) O 96 1 min 0,000 mm 5,4 UV-I 875 W/m 15,4 C 26,4 C 30,6 km/h (5 Bft) 95,65 %
06.06.2018 14:05 28,1 C 25,6 C 48 % 1008,9 hPa 0,0 l/m 18,3 km/h (3 Bft) O-SO 122 1 min 0,000 mm 5,3 UV-I 872 W/m 16,0 C 26,8 C 24,1 km/h (4 Bft) 95,83 %
06.06.2018 14:06 28,1 C 25,6 C 47 % 1008,9 hPa 0,0 l/m 22,1 km/h (4 Bft) O-SO 110 1 min 0,000 mm 5,4 UV-I 875 W/m 15,7 C 26,5 C 29,0 km/h (5 Bft) 100,00 %
06.06.2018 14:07 28,1 C 25,6 C 46 % 1008,9 hPa 0,0 l/m 18,7 km/h (3 Bft) O 97 1 min 0,000 mm 5,4 UV-I 881 W/m 15,4 C 26,8 C 27,4 km/h (4 Bft) 91,67 %
06.06.2018 14:08 28,0 C 25,6 C 46 % 1008,9 hPa 0,0 l/m 22,5 km/h (4 Bft) O-SO 109 1 min 0,000 mm 5,4 UV-I 882 W/m 15,3 C 26,4 C 32,2 km/h (5 Bft) 100,00 %
06.06.2018 14:09 28,0 C 25,6 C 48 % 1008,9 hPa 0,0 l/m 25,1 km/h (4 Bft) O-SO 111 1 min 0,000 mm 5,4 UV-I 878 W/m 15,9 C 26,2 C 40,2 km/h (6 Bft) 91,67 %
06.06.2018 14:10 28,1 C 25,6 C 48 % 1008,9 hPa 0,0 l/m 28,8 km/h (4 Bft) O 99 1 min 0,000 mm 5,3 UV-I 870 W/m 16,0 C 26,2 C 41,8 km/h (6 Bft) 100,00 %
06.06.2018 14:11 28,0 C 25,6 C 47 % 1008,9 hPa 0,0 l/m 30,1 km/h (5 Bft) O 94 1 min 0,000 mm 5,3 UV-I 872 W/m 15,6 C 26,0 C 38,6 km/h (5 Bft) 96,30 %
06.06.2018 14:12 27,9 C 25,6 C 48 % 1008,9 hPa 0,0 l/m 23,2 km/h (4 Bft) O 85 1 min 0,000 mm 5,3 UV-I 872 W/m 15,9 C 26,2 C 30,6 km/h (5 Bft) 91,30 %
06.06.2018 14:13 27,9 C 25,6 C 48 % 1008,8 hPa 0,0 l/m 25,6 km/h (4 Bft) O 86 1 min 0,000 mm 5,3 UV-I 871 W/m 15,9 C 26,1 C 32,2 km/h (5 Bft) 100,00 %
06.06.2018 14:14 27,9 C 25,6 C 48 % 1008,8 hPa 0,0 l/m 21,6 km/h (4 Bft) O 95 1 min 0,000 mm 5,2 UV-I 870 W/m 15,9 C 26,3 C 29,0 km/h (5 Bft) 95,65 %
06.06.2018 14:15 27,9 C 25,6 C 49 % 1008,8 hPa 0,0 l/m 21,5 km/h (4 Bft) O 84 1 min 0,000 mm 5,2 UV-I 873 W/m 16,2 C 26,3 C 30,6 km/h (5 Bft) 100,00 %
06.06.2018 14:16 27,9 C 25,6 C 48 % 1008,8 hPa 0,0 l/m 23,8 km/h (4 Bft) O-NO 67 1 min 0,000 mm 5,3 UV-I 874 W/m 15,9 C 26,2 C 32,2 km/h (5 Bft) 95,65 %
06.06.2018 14:17 28,0 C 25,6 C 48 % 1008,9 hPa 0,0 l/m 21,3 km/h (4 Bft) O 94 1 min 0,000 mm 5,2 UV-I 866 W/m 15,9 C 26,5 C 32,2 km/h (5 Bft) 100,00 %
06.06.2018 14:18 28,0 C 25,6 C 48 % 1009,0 hPa 0,0 l/m 20,7 km/h (4 Bft) O-NO 67 1 min 0,000 mm 5,1 UV-I 858 W/m 15,9 C 26,5 C 30,6 km/h (5 Bft) 95,65 %
06.06.2018 14:19 28,0 C 25,6 C 47 % 1008,9 hPa 0,0 l/m 25,4 km/h (4 Bft) O-NO 67 1 min 0,000 mm 5,0 UV-I 831 W/m 15,6 C 26,2 C 32,2 km/h (5 Bft) 91,67 %
06.06.2018 14:20 27,9 C 25,6 C 47 % 1008,9 hPa 0,0 l/m 22,3 km/h (4 Bft) NO 37 1 min 0,000 mm 5,0 UV-I 832 W/m 15,5 C 26,3 C 32,2 km/h (5 Bft) 91,67 %
06.06.2018 14:21 27,9 C 25,6 C 47 % 1008,9 hPa 0,0 l/m 26,4 km/h (4 Bft) N-NO 25 1 min 0,000 mm 5,1 UV-I 845 W/m 15,5 C 26,0 C 32,2 km/h (5 Bft) 95,65 %
06.06.2018 14:23 27,9 C 25,6 C 49 % 1009,0 hPa 0,0 l/m 22,8 km/h (4 Bft) O-SO 108 2 min 0,000 mm 5,0 UV-I 841 W/m 16,2 C 26,2 C 37,0 km/h (5 Bft) 95,74 %
06.06.2018 14:24 28,0 C 25,6 C 48 % 1009,0 hPa 0,0 l/m 24,2 km/h (4 Bft) O 92 1 min 0,000 mm 5,0 UV-I 842 W/m 15,9 C 26,3 C 32,2 km/h (5 Bft) 95,83 %
06.06.2018 14:25 28,0 C 25,6 C 48 % 1008,9 hPa 0,0 l/m 27,9 km/h (4 Bft) O 96 1 min 0,000 mm 5,1 UV-I 852 W/m 15,9 C 26,1 C 35,4 km/h (5 Bft) 91,30 %
06.06.2018 14:26 27,9 C 25,6 C 47 % 1009,0 hPa 0,0 l/m 21,5 km/h (4 Bft) O 84 1 min 0,000 mm 5,1 UV-I 866 W/m 15,5 C 26,3 C 33,8 km/h (5 Bft) 95,83 %
06.06.2018 14:28 27,8 C 25,6 C 47 % 1009,0 hPa 0,0 l/m 27,0 km/h (4 Bft) O-NO 70 2 min 0,000 mm 5,1 UV-I 868 W/m 15,4 C 25,8 C 43,5 km/h (6 Bft) 97,87 %
06.06.2018 14:29 27,8 C 25,6 C 48 % 1009,0 hPa 0,0 l/m 22,1 km/h (4 Bft) O 86 1 min 0,000 mm 5,0 UV-I 850 W/m 15,8 C 26,1 C 32,2 km/h (5 Bft) 100,00 %
06.06.2018 14:30 27,8 C 25,6 C 48 % 1009,0 hPa 0,0 l/m 24,5 km/h (4 Bft) O 87 1 min 0,000 mm 4,9 UV-I 832 W/m 15,8 C 26,0 C 35,4 km/h (5 Bft) 100,00 %
06.06.2018 14:31 27,8 C 25,6 C 47 % 1009,0 hPa 0,0 l/m 23,9 km/h (4 Bft) O 96 1 min 0,000 mm 4,9 UV-I 826 W/m 15,4 C 26,0 C 33,8 km/h (5 Bft) 100,00 %
06.06.2018 14:32 27,8 C 25,6 C 47 % 1009,0 hPa 0,0 l/m 23,4 km/h (4 Bft) O-NO 75 1 min 0,000 mm 4,9 UV-I 831 W/m 15,4 C 26,1 C 32,2 km/h (5 Bft) 100,00 %
06.06.2018 14:33 27,8 C 25,6 C 47 % 1009,0 hPa 0,0 l/m 23,7 km/h (4 Bft) O 96 1 min 0,000 mm 4,9 UV-I 820 W/m 15,4 C 26,0 C 29,0 km/h (5 Bft) 100,00 %
06.06.2018 14:34 27,8 C 25,6 C 48 % 1009,0 hPa 0,0 l/m 22,0 km/h (4 Bft) O-SO 116 1 min 0,000 mm 4,7 UV-I 766 W/m 15,8 C 26,1 C 29,0 km/h (5 Bft) 93,33 %
06.06.2018 14:35 27,8 C 25,6 C 49 % 1009,0 hPa 0,0 l/m 21,5 km/h (4 Bft) O 93 1 min 0,000 mm 4,9 UV-I 837 W/m 16,1 C 26,2 C 32,2 km/h (5 Bft) 95,65 %
06.06.2018 14:36 27,8 C 25,6 C 49 % 1009,0 hPa 0,0 l/m 24,1 km/h (4 Bft) S-SO 148 1 min 0,000 mm 4,9 UV-I 841 W/m 16,1 C 26,0 C 33,8 km/h (5 Bft) 95,83 %
06.06.2018 14:37 27,8 C 25,6 C 49 % 1009,0 hPa 0,0 l/m 20,2 km/h (4 Bft) NO 49 1 min 0,000 mm 4,9 UV-I 851 W/m 16,1 C 26,3 C 25,7 km/h (4 Bft) 95,83 %
06.06.2018 14:38 27,9 C 25,6 C 49 % 1009,0 hPa 0,0 l/m 21,7 km/h (4 Bft) O-NO 64 1 min 0,000 mm 4,9 UV-I 846 W/m 16,2 C 26,3 C 29,0 km/h (5 Bft) 100,00 %
06.06.2018 14:39 27,9 C 25,6 C 49 % 1009,0 hPa 0,0 l/m 24,2 km/h (4 Bft) O 80 1 min 0,000 mm 4,9 UV-I 846 W/m 16,2 C 26,1 C 35,4 km/h (5 Bft) 100,00 %
06.06.2018 14:40 27,9 C 25,6 C 48 % 1009,0 hPa 0,0 l/m 25,3 km/h (4 Bft) O-NO 64 1 min 0,000 mm 4,9 UV-I 862 W/m 15,9 C 26,1 C 37,0 km/h (5 Bft) 100,00 %
06.06.2018 14:41 27,9 C 25,6 C 48 % 1009,0 hPa 0,0 l/m 21,6 km/h (4 Bft) NO 52 1 min 0,000 mm 4,8 UV-I 852 W/m 15,9 C 26,3 C 32,2 km/h (5 Bft) 100,00 %
06.06.2018 14:43 27,7 C 25,6 C 50 % 1008,9 hPa 0,0 l/m 20,9 km/h (4 Bft) O-SO 115 2 min 0,000 mm 4,1 UV-I 824 W/m 16,3 C 26,1 C 32,2 km/h (5 Bft) 100,00 %
06.06.2018 14:44 27,7 C 25,6 C 51 % 1008,9 hPa 0,0 l/m 19,2 km/h (3 Bft) O 97 1 min 0,000 mm 4,7 UV-I 824 W/m 16,6 C 26,2 C 30,6 km/h (5 Bft) 95,65 %
06.06.2018 14:45 27,7 C 25,6 C 51 % 1009,1 hPa 0,0 l/m 20,0 km/h (4 Bft) O-NO 69 1 min 0,000 mm 4,8 UV-I 856 W/m 16,6 C 26,2 C 27,4 km/h (4 Bft) 100,00 %
06.06.2018 14:46 27,8 C 25,6 C 50 % 1009,1 hPa 0,0 l/m 27,3 km/h (4 Bft) O-SO 102 1 min 0,000 mm 4,8 UV-I 874 W/m 16,4 C 25,8 C 37,0 km/h (5 Bft) 100,00 %
06.06.2018 14:47 27,8 C 25,6 C 51 % 1009,1 hPa 0,0 l/m 29,6 km/h (5 Bft) O 98 1 min 0,000 mm 4,8 UV-I 884 W/m 16,7 C 25,7 C 40,2 km/h (6 Bft) 100,00 %
06.06.2018 14:48 27,7 C 25,6 C 51 % 1009,1 hPa 0,0 l/m 28,0 km/h (4 Bft) O-NO 78 1 min 0,000 mm 4,8 UV-I 878 W/m 16,6 C 25,6 C 41,8 km/h (6 Bft) 100,00 %
06.06.2018 14:49 27,6 C 25,6 C 51 % 1009,1 hPa 0,0 l/m 27,3 km/h (4 Bft) O 97 1 min 0,000 mm 4,7 UV-I 868 W/m 16,5 C 25,5 C 38,6 km/h (5 Bft) 100,00 %
06.06.2018 14:50 27,7 C 25,6 C 52 % 1009,1 hPa 0,0 l/m 19,4 km/h (3 Bft) O 94 1 min 0,000 mm 4,7 UV-I 872 W/m 16,9 C 26,2 C 30,6 km/h (5 Bft) 100,00 %
06.06.2018 14:51 27,7 C 25,6 C 51 % 1009,2 hPa 0,0 l/m 27,1 km/h (4 Bft) O 79 1 min 0,000 mm 4,7 UV-I 877 W/m 16,6 C 25,7 C 38,6 km/h (5 Bft) 100,00 %
06.06.2018 14:53 27,4 C 25,6 C 51 % 1009,2 hPa 0,0 l/m 24,2 km/h (4 Bft) O 85 2 min 0,000 mm 4,5 UV-I 872 W/m 16,3 C 25,5 C 38,6 km/h (5 Bft) 100,00 %
06.06.2018 14:54 27,4 C 25,6 C 51 % 1009,2 hPa 0,0 l/m 26,5 km/h (4 Bft) O 101 1 min 0,000 mm 4,3 UV-I 804 W/m 16,3 C 25,3 C 43,5 km/h (6 Bft) 100,00 %
06.06.2018 14:55 27,3 C 25,6 C 52 % 1009,1 hPa 0,0 l/m 26,1 km/h (4 Bft) O-NO 63 1 min 0,000 mm 4,3 UV-I 701 W/m 16,6 C 25,2 C 35,4 km/h (5 Bft) 100,00 %
06.06.2018 14:56 27,2 C 25,6 C 52 % 1009,1 hPa 0,0 l/m 29,2 km/h (5 Bft) O 88 1 min 0,000 mm 4,2 UV-I 723 W/m 16,5 C 24,9 C 40,2 km/h (6 Bft) 100,00 %
06.06.2018 14:57 27,1 C 25,6 C 52 % 1009,2 hPa 0,0 l/m 25,5 km/h (4 Bft) O-SO 113 1 min 0,000 mm 4,2 UV-I 731 W/m 16,4 C 25,0 C 40,2 km/h (6 Bft) 100,00 %
06.06.2018 14:58 27,1 C 25,6 C 53 % 1009,3 hPa 0,0 l/m 28,4 km/h (4 Bft) O 96 1 min 0,000 mm 4,0 UV-I 554 W/m 16,7 C 24,8 C 38,6 km/h (5 Bft) 100,00 %
06.06.2018 14:59 26,9 C 25,6 C 53 % 1009,2 hPa 0,0 l/m 26,8 km/h (4 Bft) O 92 1 min 0,000 mm 3,7 UV-I 523 W/m 16,5 C 24,6 C 37,0 km/h (5 Bft) 100,00 %
06.06.2018 15:00 26,9 C 25,6 C 54 % 1009,2 hPa 0,0 l/m 22,1 km/h (4 Bft) O 92 1 min 0,000 mm 3,8 UV-I 512 W/m 16,8 C 24,9 C 30,6 km/h (5 Bft) 100,00 %
06.06.2018 15:01 26,9 C 25,6 C 54 % 1009,2 hPa 0,0 l/m 22,9 km/h (4 Bft) NO 47 1 min 0,737 mm 4,0 UV-I 512 W/m 16,8 C 24,9 C 30,6 km/h (5 Bft) 95,65 %
06.06.2018 15:02 26,8 C 25,6 C 53 % 1009,1 hPa 0,0 l/m 25,9 km/h (4 Bft) O 86 1 min 0,000 mm 4,1 UV-I 512 W/m 16,4 C 24,5 C 32,2 km/h (5 Bft) 100,00 %
06.06.2018 15:03 26,8 C 25,6 C 53 % 1009,1 hPa 0,0 l/m 29,5 km/h (5 Bft) O-NO 76 1 min 0,000 mm 4,6 UV-I 512 W/m 16,4 C 24,3 C 35,4 km/h (5 Bft) 100,00 %
06.06.2018 15:04 26,8 C 25,6 C 53 % 1009,1 hPa 0,0 l/m 27,6 km/h (4 Bft) O 100 1 min 0,000 mm 4,6 UV-I 850 W/m 16,4 C 24,4 C 41,8 km/h (6 Bft) 100,00 %
06.06.2018 15:05 26,8 C 25,6 C 53 % 1009,1 hPa 0,0 l/m 23,3 km/h (4 Bft) O 80 1 min 0,000 mm 4,6 UV-I 858 W/m 16,4 C 24,7 C 30,6 km/h (5 Bft) 95,65 %
06.06.2018 15:06 26,9 C 25,6 C 54 % 1009,1 hPa 0,0 l/m 28,2 km/h (4 Bft) O-NO 65 1 min 0,000 mm 4,6 UV-I 851 W/m 16,8 C 24,5 C 37,0 km/h (5 Bft) 100,00 %
06.06.2018 15:07 26,9 C 25,6 C 52 % 1009,1 hPa 0,0 l/m 24,9 km/h (4 Bft) O-NO 74 1 min 0,000 mm 4,6 UV-I 844 W/m 16,2 C 24,7 C 32,2 km/h (5 Bft) 95,65 %
06.06.2018 15:08 26,9 C 25,6 C 52 % 1009,1 hPa 0,0 l/m 29,5 km/h (5 Bft) O 83 1 min 0,000 mm 4,5 UV-I 830 W/m 16,2 C 24,5 C 37,0 km/h (5 Bft) 100,00 %
06.06.2018 15:09 26,9 C 25,6 C 53 % 1009,1 hPa 0,0 l/m 26,2 km/h (4 Bft) O-SO 116 1 min 0,000 mm 4,4 UV-I 829 W/m 16,5 C 24,7 C 37,0 km/h (5 Bft) 96,15 %
06.06.2018 15:10 26,8 C 25,6 C 54 % 1009,1 hPa 0,0 l/m 25,5 km/h (4 Bft) O-NO 78 1 min 0,000 mm 4,4 UV-I 816 W/m 16,7 C 24,6 C 32,2 km/h (5 Bft) 100,00 %
06.06.2018 15:11 26,8 C 25,6 C 54 % 1009,0 hPa 0,0 l/m 23,3 km/h (4 Bft) SO 126 1 min 0,000 mm 4,4 UV-I 808 W/m 16,7 C 24,7 C 35,4 km/h (5 Bft) 100,00 %
06.06.2018 15:12 26,8 C 25,6 C 54 % 1009,0 hPa 0,0 l/m 22,7 km/h (4 Bft) O 88 1 min 0,000 mm 4,3 UV-I 811 W/m 16,7 C 24,8 C 33,8 km/h (5 Bft) 95,83 %
06.06.2018 15:13 26,8 C 25,6 C 54 % 1009,0 hPa 0,0 l/m 23,0 km/h (4 Bft) O-NO 69 1 min 0,000 mm 4,3 UV-I 807 W/m 16,7 C 24,7 C 30,6 km/h (5 Bft) 100,00 %
06.06.2018 15:14 26,8 C 25,6 C 54 % 1008,9 hPa 0,0 l/m 25,1 km/h (4 Bft) O 96 1 min 0,000 mm 4,3 UV-I 805 W/m 16,7 C 24,6 C 33,8 km/h (5 Bft) 100,00 %
06.06.2018 15:15 26,8 C 25,6 C 54 % 1008,9 hPa 0,0 l/m 24,9 km/h (4 Bft) SO 141 1 min 0,000 mm 4,3 UV-I 814 W/m 16,7 C 24,6 C 40,2 km/h (6 Bft) 100,00 %
06.06.2018 15:16 26,8 C 25,6 C 54 % 1008,9 hPa 0,0 l/m 24,1 km/h (4 Bft) O 96 1 min 0,000 mm 4,3 UV-I 814 W/m 16,7 C 24,7 C 30,6 km/h (5 Bft) 100,00 %
06.06.2018 15:17 26,8 C 25,6 C 53 % 1008,9 hPa 0,0 l/m 24,0 km/h (4 Bft) O-SO 112 1 min 0,000 mm 4,3 UV-I 816 W/m 16,4 C 24,7 C 32,2 km/h (5 Bft) 100,00 %
06.06.2018 15:18 26,8 C 25,6 C 53 % 1008,9 hPa 0,0 l/m 23,9 km/h (4 Bft) O 94 1 min 0,000 mm 4,2 UV-I 813 W/m 16,4 C 24,7 C 29,0 km/h (5 Bft) 100,00 %
06.06.2018 15:19 26,8 C 25,6 C 55 % 1009,0 hPa 0,0 l/m 24,2 km/h (4 Bft) O-NO 72 1 min 0,000 mm 4,2 UV-I 808 W/m 17,0 C 24,7 C 30,6 km/h (5 Bft) 100,00 %
06.06.2018 15:20 26,8 C 25,6 C 53 % 1008,9 hPa 0,0 l/m 25,5 km/h (4 Bft) O-NO 78 1 min 0,000 mm 4,2 UV-I 804 W/m 16,4 C 24,6 C 32,2 km/h (5 Bft) 100,00 %
06.06.2018 15:21 26,9 C 25,6 C 54 % 1008,9 hPa 0,0 l/m 20,2 km/h (4 Bft) O 91 1 min 0,000 mm 4,1 UV-I 781 W/m 16,8 C 25,1 C 25,7 km/h (4 Bft) 100,00 %
06.06.2018 15:22 26,9 C 25,6 C 54 % 1008,9 hPa 0,0 l/m 19,6 km/h (3 Bft) O 84 1 min 0,000 mm 4,1 UV-I 752 W/m 16,8 C 25,2 C 27,4 km/h (4 Bft) 100,00 %
06.06.2018 15:23 27,0 C 25,6 C 55 % 1008,9 hPa 0,0 l/m 18,8 km/h (3 Bft) SO 126 1 min 0,000 mm 4,0 UV-I 746 W/m 17,2 C 25,4 C 25,7 km/h (4 Bft) 100,00 %
06.06.2018 15:24 27,2 C 25,6 C 55 % 1008,9 hPa 0,0 l/m 13,0 km/h (3 Bft) O-SO 107 1 min 0,000 mm 3,9 UV-I 720 W/m 17,4 C 26,2 C 19,3 km/h (3 Bft) 100,00 %
06.06.2018 15:25 27,3 C 25,6 C 54 % 1008,9 hPa 0,0 l/m 25,2 km/h (4 Bft) O 90 1 min 0,000 mm 4,0 UV-I 728 W/m 17,2 C 25,3 C 37,0 km/h (5 Bft) 100,00 %
06.06.2018 15:26 27,2 C 25,6 C 54 % 1008,9 hPa 0,0 l/m 23,5 km/h (4 Bft) O-SO 102 1 min 0,000 mm 4,0 UV-I 743 W/m 17,1 C 25,2 C 32,2 km/h (5 Bft) 100,00 %
06.06.2018 15:27 27,1 C 26,1 C 54 % 1008,9 hPa 0,0 l/m 25,6 km/h (4 Bft) O-NO 76 1 min 0,000 mm 3,9 UV-I 737 W/m 17,0 C 25,0 C 35,4 km/h (5 Bft) 100,00 %
06.06.2018 15:28 27,0 C 26,1 C 54 % 1008,8 hPa 0,0 l/m 19,8 km/h (3 Bft) O-NO 57 1 min 0,000 mm 4,0 UV-I 759 W/m 16,9 C 25,3 C 25,7 km/h (4 Bft) 100,00 %
06.06.2018 15:29 26,9 C 26,1 C 54 % 1008,9 hPa 0,0 l/m 24,1 km/h (4 Bft) O-SO 108 1 min 0,000 mm 4,0 UV-I 771 W/m 16,8 C 24,8 C 37,0 km/h (5 Bft) 95,83 %
06.06.2018 15:30 26,9 C 26,1 C 53 % 1008,8 hPa 0,0 l/m 22,1 km/h (4 Bft) O-SO 118 1 min 0,000 mm 4,0 UV-I 782 W/m 16,5 C 24,9 C 30,6 km/h (5 Bft) 100,00 %
06.06.2018 15:31 26,9 C 26,1 C 53 % 1008,8 hPa 0,0 l/m 23,9 km/h (4 Bft) O 99 1 min 0,000 mm 4,0 UV-I 776 W/m 16,5 C 24,8 C 32,2 km/h (5 Bft) 100,00 %
06.06.2018 15:32 26,9 C 26,1 C 53 % 1008,9 hPa 0,0 l/m 24,5 km/h (4 Bft) O 87 1 min 0,000 mm 3,8 UV-I 758 W/m 16,5 C 24,8 C 33,8 km/h (5 Bft) 100,00 %
06.06.2018 15:33 26,9 C 26,1 C 53 % 1008,9 hPa 0,0 l/m 26,8 km/h (4 Bft) O 101 1 min 0,000 mm 3,7 UV-I 713 W/m 16,5 C 24,6 C 32,2 km/h (5 Bft) 100,00 %
06.06.2018 15:34 26,8 C 26,1 C 54 % 1008,8 hPa 0,0 l/m 26,6 km/h (4 Bft) O 94 1 min 0,000 mm 3,6 UV-I 675 W/m 16,7 C 24,5 C 40,2 km/h (6 Bft) 96,15 %
06.06.2018 15:35 26,7 C 26,1 C 54 % 1008,8 hPa 0,0 l/m 21,7 km/h (4 Bft) SO 140 1 min 0,000 mm 3,6 UV-I 684 W/m 16,6 C 24,7 C 30,6 km/h (5 Bft) 95,83 %
06.06.2018 15:36 26,7 C 26,1 C 55 % 1008,8 hPa 0,0 l/m 18,9 km/h (3 Bft) O 88 1 min 0,000 mm 3,6 UV-I 676 W/m 16,9 C 25,0 C 27,4 km/h (4 Bft) 100,00 %
06.06.2018 15:37 26,7 C 26,1 C 54 % 1008,8 hPa 0,0 l/m 24,8 km/h (4 Bft) O 96 1 min 0,000 mm 3,6 UV-I 680 W/m 16,6 C 24,5 C 32,2 km/h (5 Bft) 100,00 %
06.06.2018 15:38 26,6 C 26,1 C 54 % 1008,8 hPa 0,0 l/m 25,0 km/h (4 Bft) NO 47 1 min 0,000 mm 3,6 UV-I 689 W/m 16,5 C 24,3 C 33,8 km/h (5 Bft) 100,00 %
06.06.2018 15:39 26,6 C 26,1 C 54 % 1008,8 hPa 0,0 l/m 28,0 km/h (4 Bft) O-NO 60 1 min 0,000 mm 3,6 UV-I 683 W/m 16,5 C 24,1 C 33,8 km/h (5 Bft) 100,00 %
06.06.2018 15:40 26,5 C 26,1 C 54 % 1008,8 hPa 0,0 l/m 23,5 km/h (4 Bft) O-NO 57 1 min 0,000 mm 3,5 UV-I 691 W/m 16,4 C 24,3 C 35,4 km/h (5 Bft) 100,00 %
06.06.2018 15:41 26,5 C 26,1 C 55 % 1008,8 hPa 0,0 l/m 25,5 km/h (4 Bft) O-SO 112 1 min 0,000 mm 3,5 UV-I 670 W/m 16,7 C 24,2 C 32,2 km/h (5 Bft) 96,15 %
06.06.2018 15:42 26,4 C 26,1 C 55 % 1008,8 hPa 0,0 l/m 23,6 km/h (4 Bft) O-NO 76 1 min 0,000 mm 3,4 UV-I 630 W/m 16,6 C 24,2 C 29,0 km/h (5 Bft) 100,00 %
06.06.2018 15:43 26,4 C 26,1 C 55 % 1008,8 hPa 0,0 l/m 24,6 km/h (4 Bft) O-NO 76 1 min 0,000 mm 3,4 UV-I 649 W/m 16,6 C 24,1 C 32,2 km/h (5 Bft) 100,00 %
06.06.2018 15:44 26,4 C 26,1 C 56 % 1008,8 hPa 0,0 l/m 24,3 km/h (4 Bft) O 97 1 min 0,000 mm 3,4 UV-I 657 W/m 16,9 C 24,1 C 33,8 km/h (5 Bft) 100,00 %
06.06.2018 15:45 26,3 C 26,1 C 56 % 1008,9 hPa 0,0 l/m 19,0 km/h (3 Bft) O 91 1 min 0,000 mm 3,4 UV-I 635 W/m 16,8 C 24,4 C 29,0 km/h (5 Bft) 100,00 %
06.06.2018 15:46 26,4 C 26,1 C 57 % 1008,8 hPa 0,0 l/m 22,5 km/h (4 Bft) O 86 1 min 0,000 mm 3,4 UV-I 661 W/m 17,2 C 24,3 C 33,8 km/h (5 Bft) 100,00 %
06.06.2018 15:47 26,4 C 26,1 C 56 % 1008,9 hPa 0,0 l/m 21,4 km/h (4 Bft) O 86 1 min 0,000 mm 3,4 UV-I 658 W/m 16,9 C 24,3 C 29,0 km/h (5 Bft) 100,00 %
06.06.2018 15:48 26,4 C 26,1 C 56 % 1008,9 hPa 0,0 l/m 22,0 km/h (4 Bft) O-NO 70 1 min 0,000 mm 3,4 UV-I 651 W/m 16,9 C 24,3 C 30,6 km/h (5 Bft) 100,00 %
06.06.2018 15:49 26,4 C 26,1 C 56 % 1008,9 hPa 0,0 l/m 23,4 km/h (4 Bft) SO 124 1 min 0,000 mm 3,3 UV-I 635 W/m 16,9 C 24,2 C 32,2 km/h (5 Bft) 92,31 %
06.06.2018 15:50 26,4 C 26,1 C 57 % 1008,9 hPa 0,0 l/m 22,3 km/h (4 Bft) O 86 1 min 0,000 mm 3,3 UV-I 671 W/m 17,2 C 24,3 C 29,0 km/h (5 Bft) 96,30 %
06.06.2018 15:51 26,4 C 26,1 C 56 % 1008,9 hPa 0,0 l/m 21,6 km/h (4 Bft) O-NO 65 1 min 0,000 mm 3,3 UV-I 665 W/m 16,9 C 24,3 C 27,4 km/h (4 Bft) 95,65 %
06.06.2018 15:52 26,4 C 26,1 C 57 % 1008,9 hPa 0,0 l/m 18,9 km/h (3 Bft) O 81 1 min 0,000 mm 3,3 UV-I 670 W/m 17,2 C 24,6 C 33,8 km/h (5 Bft) 100,00 %
06.06.2018 15:53 26,5 C 26,1 C 55 % 1008,9 hPa 0,0 l/m 25,2 km/h (4 Bft) O-NO 66 1 min 0,000 mm 3,3 UV-I 666 W/m 16,7 C 24,2 C 32,2 km/h (5 Bft) 91,30 %
06.06.2018 15:54 26,4 C 26,1 C 55 % 1008,9 hPa 0,0 l/m 24,4 km/h (4 Bft) O 94 1 min 0,000 mm 3,3 UV-I 679 W/m 16,6 C 24,1 C 35,4 km/h (5 Bft) 91,67 %
06.06.2018 15:55 26,3 C 26,1 C 56 % 1008,9 hPa 0,0 l/m 26,0 km/h (4 Bft) O 98 1 min 0,000 mm 3,2 UV-I 682 W/m 16,8 C 23,8 C 37,0 km/h (5 Bft) 100,00 %
06.06.2018 15:56 26,3 C 26,1 C 57 % 1009,1 hPa 0,0 l/m 16,9 km/h (3 Bft) O-SO 103 1 min 0,000 mm 3,3 UV-I 691 W/m 17,1 C 24,7 C 24,1 km/h (4 Bft) 95,83 %
06.06.2018 15:57 26,3 C 26,1 C 57 % 1009,0 hPa 0,0 l/m 23,0 km/h (4 Bft) O 98 1 min 0,000 mm 3,2 UV-I 673 W/m 17,1 C 24,1 C 35,4 km/h (5 Bft) 100,00 %
06.06.2018 15:58 26,3 C 26,1 C 57 % 1009,0 hPa 0,0 l/m 20,5 km/h (4 Bft) O-SO 103 1 min 0,000 mm 3,2 UV-I 674 W/m 17,1 C 24,3 C 30,6 km/h (5 Bft) 95,65 %
06.06.2018 15:59 26,3 C 26,1 C 56 % 1009,1 hPa 0,0 l/m 25,3 km/h (4 Bft) O 92 1 min 0,000 mm 3,1 UV-I 659 W/m 16,8 C 23,9 C 32,2 km/h (5 Bft) 95,83 %
06.06.2018 16:00 26,2 C 26,1 C 57 % 1009,1 hPa 0,0 l/m 25,7 km/h (4 Bft) O 94 1 min 0,000 mm 3,1 UV-I 653 W/m 17,0 C 23,7 C 32,2 km/h (5 Bft) 92,86 %
06.06.2018 16:01 26,2 C 26,1 C 57 % 1009,1 hPa 0,0 l/m 20,4 km/h (4 Bft) O-SO 104 1 min 0,635 mm 3,0 UV-I 603 W/m 17,0 C 24,2 C 30,6 km/h (5 Bft) 100,00 %
06.06.2018 16:02 26,2 C 26,1 C 58 % 1009,1 hPa 0,0 l/m 19,5 km/h (3 Bft) O-SO 107 1 min 0,000 mm 2,8 UV-I 538 W/m 17,3 C 24,3 C 25,7 km/h (4 Bft) 95,65 %
06.06.2018 16:03 26,1 C 26,1 C 57 % 1009,1 hPa 0,0 l/m 25,6 km/h (4 Bft) O-SO 109 1 min 0,000 mm 2,6 UV-I 451 W/m 16,9 C 23,6 C 33,8 km/h (5 Bft) 100,00 %
06.06.2018 16:04 26,0 C 26,1 C 57 % 1009,1 hPa 0,0 l/m 24,2 km/h (4 Bft) O-SO 115 1 min 0,000 mm 2,5 UV-I 418 W/m 16,8 C 23,6 C 32,2 km/h (5 Bft) 95,65 %
06.06.2018 16:05 25,9 C 26,1 C 58 % 1009,0 hPa 0,0 l/m 18,9 km/h (3 Bft) O 90 1 min 0,000 mm 2,5 UV-I 414 W/m 17,0 C 23,9 C 29,0 km/h (5 Bft) 95,83 %
06.06.2018 16:06 25,8 C 26,1 C 59 % 1009,1 hPa 0,0 l/m 21,4 km/h (4 Bft) O 101 1 min 0,000 mm 2,4 UV-I 420 W/m 17,2 C 23,6 C 27,4 km/h (4 Bft) 100,00 %
06.06.2018 16:07 25,8 C 26,1 C 58 % 1009,1 hPa 0,0 l/m 18,0 km/h (3 Bft) O 88 1 min 0,000 mm 2,4 UV-I 415 W/m 16,9 C 23,9 C 27,4 km/h (4 Bft) 95,83 %
06.06.2018 16:08 25,8 C 26,1 C 58 % 1009,1 hPa 0,0 l/m 16,4 km/h (3 Bft) O 87 1 min 0,000 mm 2,3 UV-I 408 W/m 16,9 C 24,1 C 19,3 km/h (3 Bft) 95,65 %
06.06.2018 16:09 25,8 C 26,1 C 58 % 1009,1 hPa 0,0 l/m 16,9 km/h (3 Bft) O-NO 78 0 min 0,000 mm 2,3 UV-I 368 W/m 16,9 C 24,0 C 27,4 km/h (4 Bft) 95,83 %
06.06.2018 16:10 25,8 C 26,1 C 57 % 1009,1 hPa 0,0 l/m 21,6 km/h (4 Bft) O 98 0 min 0,000 mm 2,2 UV-I 375 W/m 16,6 C 23,5 C 32,2 km/h (5 Bft) 100,00 %
06.06.2018 16:11 25,7 C 26,1 C 56 % 1009,1 hPa 0,0 l/m 13,5 km/h (3 Bft) SO 129 1 min 0,000 mm 2,3 UV-I 385 W/m 16,2 C 24,4 C 22,5 km/h (4 Bft) 95,83 %
06.06.2018 16:12 25,7 C 26,1 C 57 % 1009,1 hPa 0,0 l/m 14,5 km/h (3 Bft) O 98 1 min 0,000 mm 2,3 UV-I 421 W/m 16,5 C 24,2 C 22,5 km/h (4 Bft) 95,65 %
06.06.2018 16:13 25,7 C 26,1 C 56 % 1009,0 hPa 0,0 l/m 15,3 km/h (3 Bft) SO 132 1 min 0,000 mm 2,5 UV-I 494 W/m 16,2 C 24,1 C 24,1 km/h (4 Bft) 100,00 %
06.06.2018 16:14 25,7 C 26,1 C 56 % 1009,1 hPa 0,0 l/m 16,5 km/h (3 Bft) O-SO 109 1 min 0,000 mm 2,6 UV-I 559 W/m 16,2 C 24,0 C 22,5 km/h (4 Bft) 91,30 %
06.06.2018 16:15 25,7 C 26,1 C 57 % 1009,1 hPa 0,0 l/m 16,8 km/h (3 Bft) O 100 1 min 0,000 mm 2,7 UV-I 645 W/m 16,5 C 23,9 C 24,1 km/h (4 Bft) 100,00 %
06.06.2018 16:16 25,7 C 26,1 C 57 % 1009,1 hPa 0,0 l/m 13,8 km/h (3 Bft) NO 56 1 min 0,000 mm 2,7 UV-I 653 W/m 16,5 C 24,3 C 22,5 km/h (4 Bft) 91,67 %
06.06.2018 16:17 25,9 C 26,1 C 57 % 1009,1 hPa 0,0 l/m 16,1 km/h (3 Bft) O 99 1 min 0,000 mm 2,8 UV-I 690 W/m 16,7 C 24,3 C 25,7 km/h (4 Bft) 91,30 %
06.06.2018 16:18 26,1 C 26,1 C 57 % 1009,1 hPa 0,0 l/m 21,2 km/h (4 Bft) O 90 1 min 0,000 mm 2,8 UV-I 689 W/m 16,9 C 24,0 C 27,4 km/h (4 Bft) 91,67 %
06.06.2018 16:19 26,1 C 26,1 C 58 % 1009,1 hPa 0,0 l/m 21,2 km/h (4 Bft) SO 126 1 min 0,000 mm 2,8 UV-I 687 W/m 17,2 C 24,0 C 27,4 km/h (4 Bft) 100,00 %
06.06.2018 16:20 26,1 C 26,1 C 58 % 1009,1 hPa 0,0 l/m 18,7 km/h (3 Bft) O 95 1 min 0,000 mm 2,7 UV-I 654 W/m 17,2 C 24,2 C 24,1 km/h (4 Bft) 93,55 %
06.06.2018 16:21 26,1 C 26,1 C 57 % 1009,2 hPa 0,0 l/m 20,2 km/h (4 Bft) O-NO 63 1 min 0,000 mm 2,5 UV-I 562 W/m 16,9 C 24,1 C 29,0 km/h (5 Bft) 91,30 %
06.06.2018 16:23 25,9 C 26,1 C 57 % 1009,2 hPa 0,0 l/m 21,9 km/h (4 Bft) O 90 2 min 0,000 mm 2,2 UV-I 439 W/m 16,7 C 23,6 C 30,6 km/h (5 Bft) 96,00 %
06.06.2018 16:24 25,8 C 26,1 C 58 % 1009,2 hPa 0,0 l/m 17,5 km/h (3 Bft) O-NO 70 0 min 0,000 mm 2,0 UV-I 299 W/m 16,9 C 24,0 C 24,1 km/h (4 Bft) 100,00 %
06.06.2018 16:25 25,7 C 26,1 C 58 % 1009,2 hPa 0,0 l/m 15,7 km/h (3 Bft) O-SO 121 0 min 0,000 mm 1,9 UV-I 287 W/m 16,8 C 24,1 C 22,5 km/h (4 Bft) 95,65 %
06.06.2018 16:26 25,6 C 26,1 C 58 % 1009,2 hPa 0,0 l/m 17,5 km/h (3 Bft) SO 140 0 min 0,000 mm 1,8 UV-I 279 W/m 16,7 C 23,7 C 27,4 km/h (4 Bft) 91,67 %
06.06.2018 16:28 25,4 C 26,1 C 58 % 1009,2 hPa 0,0 l/m 16,5 km/h (3 Bft) O-SO 103 0 min 0,000 mm 1,8 UV-I 286 W/m 16,5 C 23,6 C 27,4 km/h (4 Bft) 94,00 %
06.06.2018 16:29 25,3 C 26,1 C 58 % 1009,2 hPa 0,0 l/m 20,4 km/h (4 Bft) O-SO 111 0 min 0,000 mm 1,8 UV-I 262 W/m 16,4 C 23,0 C 25,7 km/h (4 Bft) 100,00 %
06.06.2018 16:30 25,2 C 26,1 C 59 % 1009,2 hPa 0,0 l/m 16,0 km/h (3 Bft) SO 130 0 min 0,000 mm 1,6 UV-I 224 W/m 16,6 C 23,4 C 20,9 km/h (4 Bft) 96,30 %
06.06.2018 16:31 25,2 C 26,1 C 59 % 1009,1 hPa 0,0 l/m 14,3 km/h (3 Bft) O 92 0 min 0,000 mm 1,6 UV-I 205 W/m 16,6 C 23,7 C 19,3 km/h (3 Bft) 100,00 %
06.06.2018 16:32 25,1 C 26,1 C 60 % 1009,2 hPa 0,0 l/m 11,1 km/h (2 Bft) O-SO 117 0 min 0,000 mm 1,6 UV-I 201 W/m 16,8 C 24,1 C 14,5 km/h (3 Bft) 91,67 %
06.06.2018 16:33 25,1 C 26,1 C 60 % 1009,1 hPa 0,0 l/m 15,6 km/h (3 Bft) O-SO 103 0 min 0,000 mm 1,6 UV-I 205 W/m 16,8 C 23,3 C 24,1 km/h (4 Bft) 100,00 %
06.06.2018 16:34 25,0 C 26,1 C 59 % 1009,1 hPa 0,0 l/m 18,0 km/h (3 Bft) O 98 0 min 0,000 mm 1,6 UV-I 208 W/m 16,4 C 22,9 C 25,7 km/h (4 Bft) 95,65 %
06.06.2018 16:35 24,9 C 26,1 C 60 % 1009,2 hPa 0,0 l/m 17,3 km/h (3 Bft) O 93 0 min 0,000 mm 1,6 UV-I 205 W/m 16,6 C 22,9 C 25,7 km/h (4 Bft) 95,83 %
06.06.2018 16:36 24,9 C 26,1 C 59 % 1009,2 hPa 0,0 l/m 23,1 km/h (4 Bft) O-NO 78 0 min 0,000 mm 1,6 UV-I 208 W/m 16,3 C 22,2 C 30,6 km/h (5 Bft) 96,15 %
06.06.2018 16:37 24,8 C 26,1 C 59 % 1009,2 hPa 0,0 l/m 17,6 km/h (3 Bft) O 80 0 min 0,000 mm 1,7 UV-I 222 W/m 16,2 C 22,7 C 24,1 km/h (4 Bft) 95,83 %
06.06.2018 16:38 24,8 C 26,1 C 60 % 1009,2 hPa 0,0 l/m 19,0 km/h (3 Bft) O 94 0 min 0,000 mm 1,8 UV-I 274 W/m 16,5 C 22,5 C 25,7 km/h (4 Bft) 100,00 %
06.06.2018 16:39 24,7 C 26,1 C 60 % 1009,2 hPa 0,0 l/m 16,8 km/h (3 Bft) SO 134 0 min 0,000 mm 1,8 UV-I 294 W/m 16,4 C 22,7 C 24,1 km/h (4 Bft) 100,00 %
06.06.2018 16:40 24,8 C 26,1 C 61 % 1009,3 hPa 0,0 l/m 17,0 km/h (3 Bft) O-SO 113 0 min 0,000 mm 1,9 UV-I 287 W/m 16,8 C 22,8 C 25,7 km/h (4 Bft) 95,65 %
06.06.2018 16:41 24,8 C 26,1 C 59 % 1009,3 hPa 0,0 l/m 15,5 km/h (3 Bft) O-NO 76 0 min 0,000 mm 1,8 UV-I 279 W/m 16,2 C 23,0 C 20,9 km/h (4 Bft) 95,83 %
06.06.2018 16:43 24,8 C 26,1 C 60 % 1009,3 hPa 0,0 l/m 14,0 km/h (3 Bft) O 94 0 min 0,000 mm 1,9 UV-I 295 W/m 16,5 C 23,2 C 22,5 km/h (4 Bft) 94,92 %
06.06.2018 16:44 24,8 C 26,1 C 59 % 1009,3 hPa 0,0 l/m 19,1 km/h (3 Bft) O-SO 109 0 min 0,000 mm 1,9 UV-I 296 W/m 16,2 C 22,5 C 24,1 km/h (4 Bft) 90,91 %
06.06.2018 16:45 24,8 C 26,1 C 59 % 1009,3 hPa 0,0 l/m 15,4 km/h (3 Bft) O 94 0 min 0,000 mm 1,9 UV-I 295 W/m 16,2 C 23,0 C 22,5 km/h (4 Bft) 95,83 %
06.06.2018 16:46 24,8 C 26,1 C 59 % 1009,3 hPa 0,0 l/m 18,8 km/h (3 Bft) O 88 0 min 0,000 mm 2,1 UV-I 306 W/m 16,2 C 22,5 C 22,5 km/h (4 Bft) 95,65 %
06.06.2018 16:47 24,9 C 26,1 C 60 % 1009,3 hPa 0,0 l/m 17,6 km/h (3 Bft) O 96 1 min 0,000 mm 2,4 UV-I 539 W/m 16,6 C 22,8 C 22,5 km/h (4 Bft) 91,67 %
06.06.2018 16:48 25,1 C 26,1 C 60 % 1009,3 hPa 0,0 l/m 18,4 km/h (3 Bft) O-SO 114 1 min 0,000 mm 2,4 UV-I 700 W/m 16,8 C 23,0 C 24,1 km/h (4 Bft) 100,00 %
06.06.2018 16:49 25,2 C 26,1 C 59 % 1009,3 hPa 0,0 l/m 19,9 km/h (4 Bft) O-SO 104 1 min 0,000 mm 2,4 UV-I 632 W/m 16,6 C 22,9 C 27,4 km/h (4 Bft) 95,83 %
06.06.2018 16:50 25,3 C 26,1 C 58 % 1009,4 hPa 0,0 l/m 16,2 km/h (3 Bft) O-SO 116 1 min 0,000 mm 2,3 UV-I 605 W/m 16,4 C 23,5 C 20,9 km/h (4 Bft) 100,00 %
06.06.2018 16:51 25,3 C 26,1 C 58 % 1009,3 hPa 0,0 l/m 20,5 km/h (4 Bft) O-SO 122 1 min 0,000 mm 2,4 UV-I 668 W/m 16,4 C 23,0 C 29,0 km/h (5 Bft) 96,30 %
06.06.2018 16:52 25,4 C 26,1 C 58 % 1009,3 hPa 0,0 l/m 14,6 km/h (3 Bft) O 98 1 min 0,000 mm 2,4 UV-I 649 W/m 16,5 C 23,8 C 17,7 km/h (3 Bft) 95,65 %
06.06.2018 16:53 25,6 C 26,1 C 57 % 1009,3 hPa 0,0 l/m 19,4 km/h (3 Bft) O-SO 108 1 min 0,000 mm 2,3 UV-I 639 W/m 16,4 C 23,5 C 29,0 km/h (5 Bft) 100,00 %
06.06.2018 16:54 25,6 C 26,1 C 57 % 1009,3 hPa 0,0 l/m 16,8 km/h (3 Bft) O-SO 106 1 min 0,000 mm 2,3 UV-I 646 W/m 16,4 C 23,8 C 25,7 km/h (4 Bft) 95,65 %
06.06.2018 16:55 25,6 C 26,1 C 57 % 1009,3 hPa 0,0 l/m 18,5 km/h (3 Bft) O 88 1 min 0,000 mm 2,3 UV-I 642 W/m 16,4 C 23,6 C 25,7 km/h (4 Bft) 100,00 %
06.06.2018 16:56 25,6 C 26,1 C 57 % 1009,3 hPa 0,0 l/m 18,9 km/h (3 Bft) O-SO 109 1 min 0,000 mm 2,2 UV-I 633 W/m 16,4 C 23,6 C 24,1 km/h (4 Bft) 95,83 %
06.06.2018 16:57 25,6 C 26,1 C 57 % 1009,3 hPa 0,0 l/m 21,8 km/h (4 Bft) O-SO 103 1 min 0,000 mm 2,2 UV-I 610 W/m 16,4 C 23,3 C 27,4 km/h (4 Bft) 100,00 %
06.06.2018 16:58 25,6 C 26,1 C 56 % 1009,3 hPa 0,0 l/m 19,3 km/h (3 Bft) O 97 1 min 0,000 mm 1,9 UV-I 545 W/m 16,2 C 23,5 C 27,4 km/h (4 Bft) 95,83 %
06.06.2018 16:59 25,5 C 26,1 C 57 % 1009,2 hPa 0,0 l/m 21,3 km/h (4 Bft) SO 146 1 min 0,000 mm 1,8 UV-I 396 W/m 16,3 C 23,2 C 29,0 km/h (5 Bft) 86,96 %
06.06.2018 17:00 25,4 C 26,1 C 57 % 1009,3 hPa 0,0 l/m 20,4 km/h (4 Bft) SO 128 0 min 0,406 mm 2,0 UV-I 306 W/m 16,2 C 23,1 C 25,7 km/h (4 Bft) 100,00 %
06.06.2018 17:01 25,5 C 26,1 C 58 % 1009,3 hPa 0,0 l/m 19,4 km/h (3 Bft) O 97 1 min 0,000 mm 2,2 UV-I 332 W/m 16,6 C 23,4 C 25,7 km/h (4 Bft) 100,00 %
06.06.2018 17:03 25,5 C 26,1 C 58 % 1009,3 hPa 0,0 l/m 19,3 km/h (3 Bft) O 88 2 min 0,000 mm 2,1 UV-I 614 W/m 16,6 C 23,4 C 25,7 km/h (4 Bft) 94,00 %
06.06.2018 17:04 25,6 C 26,1 C 58 % 1009,3 hPa 0,0 l/m 17,4 km/h (3 Bft) O-SO 106 1 min 0,000 mm 2,1 UV-I 595 W/m 16,7 C 23,7 C 22,5 km/h (4 Bft) 100,00 %
06.06.2018 17:05 25,6 C 26,1 C 57 % 1009,2 hPa 0,0 l/m 22,0 km/h (4 Bft) O-NO 67 1 min 0,000 mm 2,1 UV-I 600 W/m 16,4 C 23,2 C 27,4 km/h (4 Bft) 92,31 %
06.06.2018 17:06 25,6 C 26,1 C 57 % 1009,2 hPa 0,0 l/m 18,8 km/h (3 Bft) O 80 1 min 0,000 mm 2,1 UV-I 602 W/m 16,4 C 23,6 C 24,1 km/h (4 Bft) 100,00 %
06.06.2018 17:07 25,6 C 26,1 C 58 % 1009,2 hPa 0,0 l/m 15,9 km/h (3 Bft) O-SO 117 1 min 0,000 mm 2,0 UV-I 598 W/m 16,7 C 23,9 C 20,9 km/h (4 Bft) 95,65 %
06.06.2018 17:08 25,8 C 26,1 C 58 % 1009,2 hPa 0,0 l/m 12,3 km/h (3 Bft) O-SO 112 1 min 0,000 mm 2,0 UV-I 592 W/m 16,9 C 24,7 C 20,9 km/h (4 Bft) 100,00 %
06.06.2018 17:09 25,9 C 26,1 C 57 % 1009,2 hPa 0,0 l/m 13,7 km/h (3 Bft) SO 125 1 min 0,000 mm 2,0 UV-I 591 W/m 16,7 C 24,6 C 16,1 km/h (3 Bft) 91,30 %
06.06.2018 17:10 25,9 C 26,1 C 55 % 1009,2 hPa 0,0 l/m 20,3 km/h (4 Bft) O-SO 117 1 min 0,000 mm 2,0 UV-I 585 W/m 16,2 C 23,8 C 32,2 km/h (5 Bft) 100,00 %
06.06.2018 17:11 25,9 C 26,1 C 57 % 1009,2 hPa 0,0 l/m 15,8 km/h (3 Bft) O 92 1 min 0,000 mm 1,9 UV-I 573 W/m 16,7 C 24,3 C 20,9 km/h (4 Bft) 91,30 %
06.06.2018 17:12 26,1 C 26,1 C 56 % 1009,2 hPa 0,0 l/m 14,0 km/h (3 Bft) O 99 1 min 0,000 mm 1,9 UV-I 567 W/m 16,6 C 24,8 C 17,7 km/h (3 Bft) 100,00 %
06.06.2018 17:13 26,1 C 26,1 C 56 % 1009,2 hPa 0,0 l/m 18,9 km/h (3 Bft) SO 138 1 min 0,000 mm 1,9 UV-I 568 W/m 16,6 C 24,2 C 24,1 km/h (4 Bft) 96,30 %
06.06.2018 17:14 26,1 C 26,1 C 55 % 1009,2 hPa 0,0 l/m 13,7 km/h (3 Bft) S-SO 153 1 min 0,000 mm 1,9 UV-I 566 W/m 16,3 C 24,8 C 19,3 km/h (3 Bft) 100,00 %
06.06.2018 17:15 26,1 C 26,1 C 55 % 1009,2 hPa 0,0 l/m 12,1 km/h (2 Bft) O 86 1 min 0,000 mm 1,9 UV-I 558 W/m 16,3 C 25,0 C 19,3 km/h (3 Bft) 95,83 %
06.06.2018 17:16 26,2 C 26,1 C 54 % 1009,2 hPa 0,0 l/m 16,2 km/h (3 Bft) O 100 1 min 0,000 mm 1,8 UV-I 550 W/m 16,1 C 24,6 C 24,1 km/h (4 Bft) 95,65 %
06.06.2018 17:17 26,1 C 26,1 C 54 % 1009,3 hPa 0,0 l/m 13,6 km/h (3 Bft) O 101 1 min 0,000 mm 1,8 UV-I 545 W/m 16,0 C 24,8 C 19,3 km/h (3 Bft) 100,00 %
06.06.2018 17:18 26,2 C 26,1 C 55 % 1009,3 hPa 0,0 l/m 11,6 km/h (2 Bft) SO 134 1 min 0,000 mm 1,7 UV-I 541 W/m 16,4 C 25,2 C 16,1 km/h (3 Bft) 95,65 %
06.06.2018 17:19 26,2 C 26,1 C 55 % 1009,3 hPa 0,0 l/m 15,2 km/h (3 Bft) O-SO 115 1 min 0,000 mm 1,7 UV-I 503 W/m 16,4 C 24,7 C 24,1 km/h (4 Bft) 100,00 %
06.06.2018 17:20 26,1 C 26,1 C 54 % 1009,3 hPa 0,0 l/m 12,0 km/h (2 Bft) SO 129 1 min 0,000 mm 1,5 UV-I 452 W/m 16,0 C 25,1 C 20,9 km/h (4 Bft) 91,30 %
06.06.2018 17:21 25,9 C 26,1 C 55 % 1009,3 hPa 0,0 l/m 13,7 km/h (3 Bft) SO 128 1 min 0,000 mm 1,3 UV-I 338 W/m 16,2 C 24,6 C 19,3 km/h (3 Bft) 100,00 %
06.06.2018 17:22 25,8 C 26,1 C 55 % 1009,3 hPa 0,0 l/m 11,3 km/h (2 Bft) O-SO 120 0 min 0,000 mm 1,3 UV-I 212 W/m 16,1 C 24,8 C 16,1 km/h (3 Bft) 95,65 %
06.06.2018 17:23 25,8 C 26,1 C 55 % 1009,3 hPa 0,0 l/m 12,9 km/h (3 Bft) O-SO 123 0 min 0,000 mm 1,2 UV-I 218 W/m 16,1 C 24,6 C 22,5 km/h (4 Bft) 100,00 %
06.06.2018 17:24 25,7 C 26,1 C 55 % 1009,3 hPa 0,0 l/m 16,6 km/h (3 Bft) SO 135 0 min 0,000 mm 1,2 UV-I 202 W/m 16,0 C 24,0 C 25,7 km/h (4 Bft) 95,65 %
06.06.2018 17:25 25,4 C 26,1 C 55 % 1009,3 hPa 0,0 l/m 14,1 km/h (3 Bft) O-SO 115 0 min 0,000 mm 1,1 UV-I 190 W/m 15,7 C 23,9 C 20,9 km/h (4 Bft) 100,00 %
06.06.2018 17:26 25,4 C 26,1 C 56 % 1009,3 hPa 0,0 l/m 16,9 km/h (3 Bft) SO 134 0 min 0,000 mm 1,1 UV-I 231 W/m 16,0 C 23,5 C 24,1 km/h (4 Bft) 100,00 %
06.06.2018 17:27 25,3 C 26,1 C 55 % 1009,3 hPa 0,0 l/m 18,9 km/h (3 Bft) O 93 0 min 0,000 mm 1,1 UV-I 240 W/m 15,6 C 23,2 C 24,1 km/h (4 Bft) 100,00 %
06.06.2018 17:28 25,1 C 26,1 C 57 % 1009,3 hPa 0,0 l/m 13,3 km/h (3 Bft) O-SO 107 0 min 0,000 mm 1,1 UV-I 229 W/m 16,0 C 23,7 C 19,3 km/h (3 Bft) 100,00 %
06.06.2018 17:29 25,0 C 26,1 C 57 % 1009,3 hPa 0,0 l/m 13,6 km/h (3 Bft) O 97 0 min 0,000 mm 1,0 UV-I 217 W/m 15,9 C 23,5 C 19,3 km/h (3 Bft) 95,83 %
06.06.2018 17:30 24,9 C 26,1 C 57 % 1009,3 hPa 0,0 l/m 6,9 km/h (2 Bft) SO 124 0 min 0,000 mm 1,0 UV-I 177 W/m 15,8 C 24,8 C 11,3 km/h (2 Bft) 100,00 %
06.06.2018 17:31 24,9 C 26,1 C 57 % 1009,3 hPa 0,0 l/m 11,6 km/h (2 Bft) O-SO 108 0 min 0,000 mm 1,0 UV-I 170 W/m 15,8 C 23,7 C 19,3 km/h (3 Bft) 100,00 %
06.06.2018 17:32 24,9 C 26,1 C 57 % 1009,3 hPa 0,0 l/m 11,1 km/h (2 Bft) O-SO 107 0 min 0,000 mm 0,9 UV-I 168 W/m 15,8 C 23,8 C 14,5 km/h (3 Bft) 100,00 %
06.06.2018 17:33 24,8 C 26,1 C 58 % 1009,3 hPa 0,0 l/m 14,2 km/h (3 Bft) O-SO 109 0 min 0,000 mm 0,9 UV-I 167 W/m 16,0 C 23,2 C 19,3 km/h (3 Bft) 95,65 %
06.06.2018 17:34 24,8 C 26,1 C 58 % 1009,3 hPa 0,0 l/m 16,6 km/h (3 Bft) O 99 0 min 0,000 mm 0,9 UV-I 158 W/m 16,0 C 22,8 C 20,9 km/h (4 Bft) 100,00 %
06.06.2018 17:35 24,7 C 26,1 C 58 % 1009,2 hPa 0,0 l/m 14,6 km/h (3 Bft) O 89 0 min 0,000 mm 0,8 UV-I 154 W/m 15,9 C 23,0 C 22,5 km/h (4 Bft) 91,30 %
06.06.2018 17:36 24,7 C 26,1 C 58 % 1009,2 hPa 0,0 l/m 16,2 km/h (3 Bft) O-SO 111 0 min 0,000 mm 0,8 UV-I 147 W/m 15,9 C 22,8 C 20,9 km/h (4 Bft) 100,00 %
06.06.2018 17:37 24,6 C 26,1 C 58 % 1009,2 hPa 0,0 l/m 12,0 km/h (2 Bft) O-SO 107 0 min 0,000 mm 0,8 UV-I 145 W/m 15,8 C 23,3 C 17,7 km/h (3 Bft) 100,00 %
06.06.2018 17:38 24,6 C 26,1 C 59 % 1009,2 hPa 0,0 l/m 11,1 km/h (2 Bft) O 84 0 min 0,000 mm 0,8 UV-I 142 W/m 16,0 C 23,5 C 16,1 km/h (3 Bft) 100,00 %
06.06.2018 17:39 24,6 C 26,1 C 58 % 1009,2 hPa 0,0 l/m 10,7 km/h (2 Bft) O 94 0 min 0,000 mm 0,8 UV-I 144 W/m 15,8 C 23,6 C 16,1 km/h (3 Bft) 100,00 %
06.06.2018 17:40 24,5 C 26,1 C 59 % 1009,2 hPa 0,0 l/m 12,5 km/h (3 Bft) O-NO 77 0 min 0,000 mm 0,8 UV-I 147 W/m 15,9 C 23,1 C 16,1 km/h (3 Bft) 100,00 %
06.06.2018 17:41 24,5 C 26,1 C 59 % 1009,2 hPa 0,0 l/m 15,9 km/h (3 Bft) O 100 0 min 0,000 mm 0,8 UV-I 149 W/m 15,9 C 22,6 C 19,3 km/h (3 Bft) 100,00 %
06.06.2018 17:42 24,4 C 26,1 C 59 % 1009,2 hPa 0,0 l/m 14,4 km/h (3 Bft) O 87 0 min 0,000 mm 0,8 UV-I 149 W/m 15,9 C 22,7 C 19,3 km/h (3 Bft) 100,00 %
06.06.2018 17:43 24,4 C 26,1 C 59 % 1009,2 hPa 0,0 l/m 11,1 km/h (2 Bft) O 86 0 min 0,000 mm 0,7 UV-I 149 W/m 15,9 C 23,3 C 16,1 km/h (3 Bft) 100,00 %
06.06.2018 17:44 24,4 C 26,1 C 60 % 1009,3 hPa 0,0 l/m 12,3 km/h (3 Bft) NO 42 0 min 0,000 mm 0,7 UV-I 147 W/m 16,1 C 23,0 C 14,5 km/h (3 Bft) 95,83 %
06.06.2018 17:45 24,4 C 26,1 C 60 % 1009,2 hPa 0,0 l/m 14,1 km/h (3 Bft) O 98 0 min 0,000 mm 0,7 UV-I 146 W/m 16,1 C 22,7 C 16,1 km/h (3 Bft) 95,65 %
06.06.2018 17:46 24,3 C 26,1 C 60 % 1009,3 hPa 0,0 l/m 12,5 km/h (3 Bft) O 93 0 min 0,000 mm 0,7 UV-I 146 W/m 16,0 C 22,9 C 16,1 km/h (3 Bft) 100,00 %
06.06.2018 17:47 24,3 C 26,1 C 60 % 1009,3 hPa 0,0 l/m 12,5 km/h (3 Bft) O-SO 122 0 min 0,000 mm 0,7 UV-I 146 W/m 16,0 C 22,9 C 16,1 km/h (3 Bft) 91,30 %
06.06.2018 17:48 24,3 C 26,1 C 60 % 1009,3 hPa 0,0 l/m 9,0 km/h (2 Bft) SO 128 0 min 0,000 mm 0,7 UV-I 146 W/m 16,0 C 23,6 C 14,5 km/h (3 Bft) 100,00 %
06.06.2018 17:49 24,3 C 26,1 C 60 % 1009,4 hPa 0,0 l/m 6,7 km/h (2 Bft) O 86 0 min 0,000 mm 0,7 UV-I 144 W/m 16,0 C 24,2 C 11,3 km/h (2 Bft) 100,00 %
06.06.2018 17:50 24,3 C 26,1 C 60 % 1009,4 hPa 0,0 l/m 12,0 km/h (2 Bft) O-SO 102 0 min 0,000 mm 0,7 UV-I 141 W/m 16,0 C 23,0 C 19,3 km/h (3 Bft) 100,00 %
06.06.2018 17:51 24,3 C 26,1 C 60 % 1009,4 hPa 0,0 l/m 13,3 km/h (3 Bft) O 92 0 min 0,000 mm 0,6 UV-I 139 W/m 16,0 C 22,7 C 19,3 km/h (3 Bft) 95,83 %
06.06.2018 17:53 24,3 C 26,1 C 60 % 1009,5 hPa 0,0 l/m 13,2 km/h (3 Bft) O-SO 112 0 min 0,000 mm 0,6 UV-I 137 W/m 16,0 C 22,8 C 20,9 km/h (4 Bft) 97,87 %
06.06.2018 17:54 24,3 C 26,1 C 60 % 1009,5 hPa 0,0 l/m 14,4 km/h (3 Bft) O-SO 112 0 min 0,000 mm 0,6 UV-I 135 W/m 16,0 C 22,6 C 19,3 km/h (3 Bft) 95,65 %
06.06.2018 17:55 24,2 C 26,1 C 60 % 1009,5 hPa 0,0 l/m 11,2 km/h (2 Bft) SO 145 0 min 0,000 mm 0,6 UV-I 136 W/m 15,9 C 23,0 C 14,5 km/h (3 Bft) 100,00 %
06.06.2018 17:56 24,3 C 26,1 C 60 % 1009,5 hPa 0,0 l/m 8,2 km/h (2 Bft) SO 134 0 min 0,000 mm 0,6 UV-I 137 W/m 16,0 C 23,8 C 11,3 km/h (2 Bft) 96,77 %
06.06.2018 17:58 24,4 C 26,1 C 59 % 1009,5 hPa 0,0 l/m 8,2 km/h (2 Bft) O-SO 108 0 min 0,000 mm 0,6 UV-I 139 W/m 15,9 C 23,9 C 16,1 km/h (3 Bft) 95,74 %
06.06.2018 17:59 24,4 C 26,1 C 58 % 1009,5 hPa 0,0 l/m 10,8 km/h (2 Bft) SO 133 0 min 0,000 mm 0,6 UV-I 144 W/m 15,6 C 23,3 C 16,1 km/h (3 Bft) 100,00 %
06.06.2018 18:00 24,4 C 26,1 C 58 % 1009,5 hPa 0,0 l/m 8,9 km/h (2 Bft) O-SO 117 0 min 0,000 mm 0,6 UV-I 151 W/m 15,6 C 23,7 C 11,3 km/h (2 Bft) 95,65 %
06.06.2018 18:01 24,4 C 26,1 C 58 % 1009,5 hPa 0,0 l/m 9,5 km/h (2 Bft) SO 143 0 min 0,280 mm 0,6 UV-I 148 W/m 15,6 C 23,6 C 14,5 km/h (3 Bft) 95,83 %
06.06.2018 18:02 24,4 C 26,1 C 58 % 1009,5 hPa 0,0 l/m 11,9 km/h (2 Bft) SO 140 0 min 0,000 mm 0,6 UV-I 148 W/m 15,6 C 23,1 C 16,1 km/h (3 Bft) 95,65 %
06.06.2018 18:03 24,4 C 26,1 C 59 % 1009,5 hPa 0,0 l/m 10,4 km/h (2 Bft) S-SO 149 0 min 0,000 mm 0,6 UV-I 154 W/m 15,9 C 23,4 C 16,1 km/h (3 Bft) 95,83 %
06.06.2018 18:04 24,3 C 26,1 C 59 % 1009,5 hPa 0,0 l/m 10,9 km/h (2 Bft) O-SO 117 0 min 0,000 mm 0,6 UV-I 156 W/m 15,8 C 23,2 C 16,1 km/h (3 Bft) 100,00 %
06.06.2018 18:05 24,3 C 26,1 C 60 % 1009,5 hPa 0,0 l/m 9,6 km/h (2 Bft) O-SO 107 0 min 0,000 mm 0,6 UV-I 159 W/m 16,0 C 23,5 C 12,9 km/h (3 Bft) 95,83 %
06.06.2018 18:06 24,3 C 26,1 C 60 % 1009,6 hPa 0,0 l/m 9,3 km/h (2 Bft) SO 140 0 min 0,000 mm 0,6 UV-I 160 W/m 16,0 C 23,5 C 14,5 km/h (3 Bft) 100,00 %
06.06.2018 18:08 24,3 C 26,1 C 60 % 1009,6 hPa 0,0 l/m 8,7 km/h (2 Bft) O 82 0 min 0,000 mm 0,6 UV-I 159 W/m 16,0 C 23,7 C 14,5 km/h (3 Bft) 96,55 %
06.06.2018 18:09 24,2 C 26,1 C 60 % 1009,6 hPa 0,0 l/m 11,3 km/h (2 Bft) O-NO 71 0 min 0,000 mm 0,6 UV-I 157 W/m 15,9 C 23,0 C 14,5 km/h (3 Bft) 91,67 %
06.06.2018 18:10 24,2 C 26,1 C 61 % 1009,7 hPa 0,0 l/m 11,2 km/h (2 Bft) O-NO 78 0 min 0,000 mm 0,6 UV-I 156 W/m 16,2 C 23,0 C 16,1 km/h (3 Bft) 100,00 %
06.06.2018 18:11 24,1 C 26,1 C 60 % 1009,7 hPa 0,0 l/m 11,1 km/h (2 Bft) O 91 0 min 0,000 mm 0,5 UV-I 155 W/m 15,8 C 22,9 C 17,7 km/h (3 Bft) 95,65 %
06.06.2018 18:13 24,0 C 26,1 C 61 % 1009,8 hPa 0,0 l/m 12,4 km/h (3 Bft) O 94 0 min 0,000 mm 0,5 UV-I 152 W/m 16,0 C 22,6 C 17,7 km/h (3 Bft) 98,31 %
06.06.2018 18:14 23,9 C 26,1 C 61 % 1009,8 hPa 0,0 l/m 15,0 km/h (3 Bft) O 93 0 min 0,000 mm 0,5 UV-I 148 W/m 15,9 C 22,0 C 20,9 km/h (4 Bft) 100,00 %
06.06.2018 18:15 23,9 C 26,1 C 61 % 1009,8 hPa 0,0 l/m 13,6 km/h (3 Bft) O-SO 103 0 min 0,000 mm 0,5 UV-I 147 W/m 15,9 C 22,2 C 17,7 km/h (3 Bft) 95,65 %
06.06.2018 18:16 23,9 C 26,1 C 61 % 1009,8 hPa 0,0 l/m 8,9 km/h (2 Bft) O-SO 103 0 min 0,000 mm 0,5 UV-I 146 W/m 15,9 C 23,2 C 14,5 km/h (3 Bft) 100,00 %
06.06.2018 18:18 23,9 C 26,1 C 61 % 1010,0 hPa 0,0 l/m 8,7 km/h (2 Bft) O-SO 105 0 min 0,000 mm 0,5 UV-I 144 W/m 15,9 C 23,3 C 16,1 km/h (3 Bft) 100,00 %
06.06.2018 18:19 23,9 C 26,1 C 61 % 1010,0 hPa 0,0 l/m 13,2 km/h (3 Bft) O-SO 113 0 min 0,000 mm 0,5 UV-I 143 W/m 15,9 C 22,3 C 16,1 km/h (3 Bft) 100,00 %
06.06.2018 18:20 23,8 C 26,1 C 61 % 1010,0 hPa 0,0 l/m 11,8 km/h (2 Bft) O 84 0 min 0,000 mm 0,5 UV-I 140 W/m 15,8 C 22,4 C 14,5 km/h (3 Bft) 87,50 %
06.06.2018 18:21 23,8 C 26,1 C 61 % 1010,0 hPa 0,0 l/m 15,3 km/h (3 Bft) SO 134 0 min 0,000 mm 0,5 UV-I 138 W/m 15,8 C 21,8 C 19,3 km/h (3 Bft) 100,00 %
06.06.2018 18:22 23,8 C 25,6 C 61 % 1010,0 hPa 0,0 l/m 13,1 km/h (3 Bft) O 99 0 min 0,000 mm 0,5 UV-I 135 W/m 15,8 C 22,2 C 19,3 km/h (3 Bft) 100,00 %
06.06.2018 18:23 23,8 C 25,6 C 62 % 1010,0 hPa 0,0 l/m 17,2 km/h (3 Bft) O 91 0 min 0,000 mm 0,5 UV-I 132 W/m 16,1 C 21,5 C 20,9 km/h (4 Bft) 100,00 %
06.06.2018 18:24 23,8 C 25,6 C 61 % 1010,0 hPa 0,0 l/m 13,6 km/h (3 Bft) O-SO 116 0 min 0,000 mm 0,5 UV-I 129 W/m 15,8 C 22,1 C 19,3 km/h (3 Bft) 100,00 %
06.06.2018 18:25 23,8 C 25,6 C 61 % 1010,1 hPa 0,0 l/m 13,2 km/h (3 Bft) O-SO 103 0 min 0,000 mm 0,4 UV-I 125 W/m 15,8 C 22,2 C 17,7 km/h (3 Bft) 100,00 %
06.06.2018 18:26 23,8 C 25,6 C 61 % 1010,1 hPa 0,0 l/m 15,3 km/h (3 Bft) O 90 0 min 0,000 mm 0,0 UV-I 121 W/m 15,8 C 21,8 C 19,3 km/h (3 Bft) 100,00 %
06.06.2018 18:27 23,8 C 25,6 C 61 % 1010,1 hPa 0,0 l/m 13,8 km/h (3 Bft) O-NO 63 0 min 0,000 mm 0,0 UV-I 119 W/m 15,8 C 22,1 C 16,1 km/h (3 Bft) 100,00 %
06.06.2018 18:28 23,8 C 25,6 C 62 % 1010,1 hPa 0,0 l/m 11,7 km/h (2 Bft) O-SO 103 0 min 0,000 mm 0,0 UV-I 115 W/m 16,1 C 22,5 C 14,5 km/h (3 Bft) 100,00 %
06.06.2018 18:29 23,8 C 25,6 C 62 % 1010,2 hPa 0,0 l/m 10,7 km/h (2 Bft) O 81 0 min 0,000 mm 0,0 UV-I 113 W/m 16,1 C 22,7 C 14,5 km/h (3 Bft) 95,83 %
06.06.2018 18:30 23,8 C 25,6 C 62 % 1010,2 hPa 0,0 l/m 10,0 km/h (2 Bft) O 84 0 min 0,000 mm 0,0 UV-I 111 W/m 16,1 C 22,8 C 14,5 km/h (3 Bft) 100,00 %
06.06.2018 18:31 23,8 C 25,6 C 62 % 1010,2 hPa 0,0 l/m 10,1 km/h (2 Bft) O 91 0 min 0,000 mm 0,0 UV-I 110 W/m 16,1 C 22,8 C 14,5 km/h (3 Bft) 100,00 %
06.06.2018 18:32 23,8 C 25,6 C 62 % 1010,3 hPa 0,0 l/m 7,7 km/h (2 Bft) S-SO 164 0 min 0,000 mm 0,0 UV-I 109 W/m 16,1 C 23,4 C 12,9 km/h (3 Bft) 100,00 %
06.06.2018 18:33 23,8 C 25,6 C 63 % 1010,3 hPa 0,0 l/m 7,1 km/h (2 Bft) O-NO 61 0 min 0,000 mm 0,0 UV-I 109 W/m 16,3 C 23,6 C 9,7 km/h (2 Bft) 100,00 %
06.06.2018 18:34 23,8 C 25,6 C 62 % 1010,3 hPa 0,0 l/m 8,0 km/h (2 Bft) SO 137 0 min 0,000 mm 0,0 UV-I 109 W/m 16,1 C 23,3 C 14,5 km/h (3 Bft) 100,00 %
06.06.2018 18:35 23,7 C 25,6 C 63 % 1010,3 hPa 0,0 l/m 10,7 km/h (2 Bft) SO 130 0 min 0,000 mm 0,0 UV-I 109 W/m 16,2 C 22,6 C 12,9 km/h (3 Bft) 95,83 %
06.06.2018 18:36 23,7 C 25,6 C 63 % 1010,4 hPa 0,0 l/m 10,2 km/h (2 Bft) SO 130 0 min 0,000 mm 0,0 UV-I 108 W/m 16,2 C 22,7 C 14,5 km/h (3 Bft) 100,00 %
06.06.2018 18:38 23,6 C 25,6 C 63 % 1010,4 hPa 0,0 l/m 8,1 km/h (2 Bft) SO 137 0 min 0,000 mm 0,0 UV-I 106 W/m 16,1 C 23,1 C 12,9 km/h (3 Bft) 100,00 %
06.06.2018 18:39 23,5 C 25,6 C 64 % 1010,4 hPa 0,0 l/m 10,9 km/h (2 Bft) SO 131 0 min 0,000 mm 0,0 UV-I 104 W/m 16,3 C 22,3 C 16,1 km/h (3 Bft) 100,00 %
06.06.2018 18:40 23,4 C 25,6 C 64 % 1010,4 hPa 0,0 l/m 11,6 km/h (2 Bft) SO 145 0 min 0,000 mm 0,0 UV-I 104 W/m 16,2 C 22,0 C 14,5 km/h (3 Bft) 100,00 %
06.06.2018 18:41 23,4 C 25,6 C 64 % 1010,4 hPa 0,0 l/m 6,2 km/h (2 Bft) S-SO 165 0 min 0,000 mm 0,0 UV-I 102 W/m 16,2 C 23,4 C 9,7 km/h (2 Bft) 100,00 %
06.06.2018 18:42 23,3 C 25,6 C 64 % 1010,4 hPa 0,0 l/m 8,7 km/h (2 Bft) SO 138 0 min 0,000 mm 0,0 UV-I 101 W/m 16,1 C 22,6 C 12,9 km/h (3 Bft) 100,00 %
06.06.2018 18:43 23,3 C 25,6 C 64 % 1010,5 hPa 0,0 l/m 11,0 km/h (2 Bft) SO 126 0 min 0,000 mm 0,0 UV-I 100 W/m 16,1 C 22,0 C 14,5 km/h (3 Bft) 100,00 %
06.06.2018 18:44 23,2 C 25,6 C 65 % 1010,5 hPa 0,0 l/m 7,2 km/h (2 Bft) S 170 0 min 0,000 mm 0,0 UV-I 100 W/m 16,2 C 23,0 C 11,3 km/h (2 Bft) 100,00 %
06.06.2018 18:45 23,2 C 25,6 C 65 % 1010,5 hPa 0,0 l/m 11,6 km/h (2 Bft) SO 132 0 min 0,000 mm 0,0 UV-I 100 W/m 16,2 C 21,8 C 14,5 km/h (3 Bft) 100,00 %
06.06.2018 18:46 23,1 C 25,6 C 64 % 1010,5 hPa 0,0 l/m 8,8 km/h (2 Bft) SO 140 0 min 0,000 mm 0,0 UV-I 100 W/m 15,9 C 22,4 C 11,3 km/h (2 Bft) 100,00 %
06.06.2018 18:48 23,0 C 25,6 C 65 % 1010,5 hPa 0,0 l/m 7,8 km/h (2 Bft) SO 146 0 min 0,000 mm 0,0 UV-I 101 W/m 16,1 C 22,6 C 12,9 km/h (3 Bft) 100,00 %
06.06.2018 18:49 23,0 C 25,6 C 65 % 1010,5 hPa 0,0 l/m 8,2 km/h (2 Bft) SO 140 0 min 0,000 mm 0,0 UV-I 102 W/m 16,1 C 22,4 C 12,9 km/h (3 Bft) 95,65 %
06.06.2018 18:50 22,9 C 25,6 C 65 % 1010,5 hPa 0,0 l/m 9,8 km/h (2 Bft) S-SO 156 0 min 0,000 mm 0,0 UV-I 102 W/m 16,0 C 21,9 C 14,5 km/h (3 Bft) 96,30 %
06.06.2018 18:51 22,9 C 25,6 C 65 % 1010,5 hPa 0,0 l/m 8,2 km/h (2 Bft) O-SO 117 0 min 0,000 mm 0,0 UV-I 102 W/m 16,0 C 22,3 C 12,9 km/h (3 Bft) 100,00 %
06.06.2018 18:52 22,9 C 25,6 C 66 % 1010,5 hPa 0,0 l/m 9,8 km/h (2 Bft) S 171 0 min 0,000 mm 0,0 UV-I 100 W/m 16,2 C 21,9 C 12,9 km/h (3 Bft) 100,00 %
06.06.2018 18:53 22,9 C 25,6 C 66 % 1010,6 hPa 0,0 l/m 6,2 km/h (2 Bft) SO 145 0 min 0,000 mm 0,0 UV-I 100 W/m 16,2 C 22,9 C 9,7 km/h (2 Bft) 100,00 %
06.06.2018 18:54 22,9 C 25,6 C 66 % 1010,6 hPa 0,0 l/m 7,5 km/h (2 Bft) SO 134 0 min 0,000 mm 0,0 UV-I 98 W/m 16,2 C 22,5 C 12,9 km/h (3 Bft) 100,00 %
06.06.2018 18:55 22,8 C 25,6 C 66 % 1010,6 hPa 0,0 l/m 9,5 km/h (2 Bft) S-SO 150 0 min 0,000 mm 0,0 UV-I 98 W/m 16,1 C 21,9 C 14,5 km/h (3 Bft) 100,00 %
06.06.2018 18:56 22,8 C 25,6 C 66 % 1010,5 hPa 0,0 l/m 4,4 km/h (1 Bft) S-SO 150 0 min 0,000 mm 0,0 UV-I 97 W/m 16,1 C 22,8 C 6,4 km/h (2 Bft) 100,00 %
06.06.2018 18:58 22,9 C 25,6 C 66 % 1010,6 hPa 0,0 l/m 8,7 km/h (2 Bft) SO 140 0 min 0,000 mm 0,0 UV-I 96 W/m 16,2 C 22,2 C 14,5 km/h (3 Bft) 97,87 %
06.06.2018 18:59 22,8 C 25,6 C 66 % 1010,6 hPa 0,0 l/m 10,2 km/h (2 Bft) SO 145 0 min 0,000 mm 0,0 UV-I 95 W/m 16,1 C 21,7 C 14,5 km/h (3 Bft) 100,00 %
06.06.2018 19:00 22,8 C 25,6 C 66 % 1010,6 hPa 0,0 l/m 9,0 km/h (2 Bft) S-SO 161 0 min 0,000 mm 0,0 UV-I 93 W/m 16,1 C 22,0 C 12,9 km/h (3 Bft) 100,00 %
06.06.2018 19:01 22,7 C 25,6 C 66 % 1010,6 hPa 0,0 l/m 6,0 km/h (2 Bft) SO 140 0 min 0,127 mm 0,0 UV-I 92 W/m 16,0 C 22,7 C 9,7 km/h (2 Bft) 100,00 %
06.06.2018 19:03 22,6 C 25,6 C 66 % 1010,6 hPa 0,0 l/m 9,1 km/h (2 Bft) SO 136 0 min 0,000 mm 0,0 UV-I 91 W/m 15,9 C 21,8 C 14,5 km/h (3 Bft) 98,28 %
06.06.2018 19:04 22,6 C 25,6 C 66 % 1010,6 hPa 0,0 l/m 7,8 km/h (2 Bft) O-SO 121 0 min 0,000 mm 0,0 UV-I 90 W/m 15,9 C 22,1 C 12,9 km/h (3 Bft) 100,00 %
06.06.2018 19:05 22,6 C 25,6 C 66 % 1010,6 hPa 0,0 l/m 9,5 km/h (2 Bft) SO 125 0 min 0,000 mm 0,0 UV-I 90 W/m 15,9 C 21,6 C 12,9 km/h (3 Bft) 100,00 %
06.06.2018 19:06 22,6 C 25,6 C 66 % 1010,6 hPa 0,0 l/m 8,5 km/h (2 Bft) SO 131 0 min 0,000 mm 0,0 UV-I 88 W/m 15,9 C 21,9 C 11,3 km/h (2 Bft) 100,00 %
06.06.2018 19:07 22,5 C 25,6 C 66 % 1010,5 hPa 0,0 l/m 8,8 km/h (2 Bft) SO 137 0 min 0,000 mm 0,0 UV-I 88 W/m 15,8 C 21,7 C 12,9 km/h (3 Bft) 95,83 %
06.06.2018 19:08 22,5 C 25,6 C 66 % 1010,5 hPa 0,0 l/m 8,7 km/h (2 Bft) S-SO 167 0 min 0,000 mm 0,0 UV-I 87 W/m 15,8 C 21,8 C 11,3 km/h (2 Bft) 100,00 %
06.06.2018 19:09 22,5 C 25,6 C 66 % 1010,5 hPa 0,0 l/m 10,4 km/h (2 Bft) O-SO 123 0 min 0,000 mm 0,0 UV-I 86 W/m 15,8 C 21,3 C 12,9 km/h (3 Bft) 100,00 %
06.06.2018 19:10 22,5 C 25,6 C 67 % 1010,5 hPa 0,0 l/m 5,8 km/h (2 Bft) S-SO 162 0 min 0,000 mm 0,0 UV-I 84 W/m 16,1 C 22,5 C 8,0 km/h (2 Bft) 100,00 %
06.06.2018 19:11 22,5 C 25,6 C 67 % 1010,5 hPa 0,0 l/m 7,2 km/h (2 Bft) SO 125 0 min 0,000 mm 0,0 UV-I 84 W/m 16,1 C 22,2 C 11,3 km/h (2 Bft) 100,00 %
06.06.2018 19:13 22,5 C 25,6 C 67 % 1010,4 hPa 0,0 l/m 7,8 km/h (2 Bft) SO 143 0 min 0,000 mm 0,0 UV-I 82 W/m 16,1 C 22,0 C 12,9 km/h (3 Bft) 97,87 %
06.06.2018 19:14 22,5 C 25,6 C 67 % 1010,4 hPa 0,0 l/m 6,6 km/h (2 Bft) S-SO 150 0 min 0,000 mm 0,0 UV-I 81 W/m 16,1 C 22,4 C 8,0 km/h (2 Bft) 91,30 %
06.06.2018 19:15 22,4 C 25,6 C 67 % 1010,4 hPa 0,0 l/m 5,6 km/h (1 Bft) S-SO 147 0 min 0,000 mm 0,0 UV-I 79 W/m 16,0 C 22,4 C 8,0 km/h (2 Bft) 100,00 %
06.06.2018 19:16 22,4 C 25,6 C 67 % 1010,4 hPa 0,0 l/m 5,6 km/h (1 Bft) S-SO 148 0 min 0,000 mm 0,0 UV-I 77 W/m 16,0 C 22,4 C 6,4 km/h (2 Bft) 100,00 %
06.06.2018 19:18 22,4 C 25,6 C 67 % 1010,5 hPa 0,0 l/m 7,1 km/h (2 Bft) S-SO 160 0 min 0,000 mm 0,0 UV-I 75 W/m 16,0 C 22,2 C 11,3 km/h (2 Bft) 98,11 %
06.06.2018 19:19 22,4 C 25,6 C 68 % 1010,5 hPa 0,0 l/m 8,0 km/h (2 Bft) O-SO 113 0 min 0,000 mm 0,0 UV-I 72 W/m 16,2 C 21,9 C 11,3 km/h (2 Bft) 100,00 %
06.06.2018 19:20 22,3 C 25,6 C 68 % 1010,5 hPa 0,0 l/m 6,2 km/h (2 Bft) S-SO 155 0 min 0,000 mm 0,0 UV-I 72 W/m 16,1 C 22,3 C 9,7 km/h (2 Bft) 100,00 %
06.06.2018 19:21 22,3 C 25,6 C 68 % 1010,5 hPa 0,0 l/m 5,7 km/h (1 Bft) S-SO 157 0 min 0,000 mm 0,0 UV-I 70 W/m 16,1 C 22,3 C 8,0 km/h (2 Bft) 100,00 %
06.06.2018 19:22 22,3 C 25,6 C 68 % 1010,5 hPa 0,0 l/m 7,6 km/h (2 Bft) SO 138 0 min 0,000 mm 0,0 UV-I 70 W/m 16,1 C 21,9 C 14,5 km/h (3 Bft) 100,00 %
06.06.2018 19:23 22,3 C 25,6 C 68 % 1010,4 hPa 0,0 l/m 8,2 km/h (2 Bft) S-SO 158 0 min 0,000 mm 0,0 UV-I 68 W/m 16,1 C 21,7 C 14,5 km/h (3 Bft) 100,00 %
06.06.2018 19:24 22,3 C 25,6 C 68 % 1010,5 hPa 0,0 l/m 8,5 km/h (2 Bft) SO 146 0 min 0,000 mm 0,0 UV-I 67 W/m 16,1 C 21,6 C 12,9 km/h (3 Bft) 100,00 %
06.06.2018 19:25 22,2 C 25,6 C 68 % 1010,5 hPa 0,0 l/m 7,1 km/h (2 Bft) SO 139 0 min 0,000 mm 0,0 UV-I 66 W/m 16,0 C 22,0 C 11,3 km/h (2 Bft) 95,65 %
06.06.2018 19:26 22,2 C 25,6 C 68 % 1010,5 hPa 0,0 l/m 6,7 km/h (2 Bft) S-SO 148 0 min 0,000 mm 0,0 UV-I 65 W/m 16,0 C 22,1 C 8,0 km/h (2 Bft) 100,00 %
06.06.2018 19:27 22,2 C 25,6 C 68 % 1010,5 hPa 0,0 l/m 6,6 km/h (2 Bft) S 171 0 min 0,000 mm 0,0 UV-I 63 W/m 16,0 C 22,1 C 11,3 km/h (2 Bft) 91,30 %
06.06.2018 19:28 22,2 C 25,6 C 68 % 1010,5 hPa 0,0 l/m 5,7 km/h (1 Bft) O-SO 111 0 min 0,000 mm 0,0 UV-I 62 W/m 16,0 C 22,2 C 12,9 km/h (3 Bft) 100,00 %
06.06.2018 19:29 22,2 C 25,6 C 68 % 1010,5 hPa 0,0 l/m 10,6 km/h (2 Bft) O-SO 122 0 min 0,000 mm 0,0 UV-I 61 W/m 16,0 C 20,9 C 14,5 km/h (3 Bft) 100,00 %
06.06.2018 19:30 22,2 C 25,6 C 68 % 1010,5 hPa 0,0 l/m 7,2 km/h (2 Bft) S-SO 148 0 min 0,000 mm 0,0 UV-I 60 W/m 16,0 C 21,9 C 11,3 km/h (2 Bft) 100,00 %
06.06.2018 19:31 22,2 C 25,6 C 68 % 1010,5 hPa 0,0 l/m 4,0 km/h (1 Bft) S-SO 148 0 min 0,000 mm 0,0 UV-I 59 W/m 16,0 C 22,2 C 4,8 km/h (1 Bft) 100,00 %
06.06.2018 19:33 22,2 C 25,6 C 68 % 1010,6 hPa 0,0 l/m 6,9 km/h (2 Bft) SO 134 0 min 0,000 mm 0,0 UV-I 57 W/m 16,0 C 22,0 C 9,7 km/h (2 Bft) 100,00 %
06.06.2018 19:34 22,1 C 25,6 C 68 % 1010,6 hPa 0,0 l/m 5,5 km/h (1 Bft) SO 144 0 min 0,000 mm 0,0 UV-I 56 W/m 15,9 C 22,1 C 9,7 km/h (2 Bft) 100,00 %
06.06.2018 19:35 22,2 C 25,6 C 68 % 1010,6 hPa 0,0 l/m 5,9 km/h (2 Bft) S 178 0 min 0,000 mm 0,0 UV-I 54 W/m 16,0 C 22,2 C 9,7 km/h (2 Bft) 100,00 %
06.06.2018 19:36 22,2 C 25,6 C 68 % 1010,6 hPa 0,0 l/m 5,7 km/h (1 Bft) SO 136 0 min 0,000 mm 0,0 UV-I 53 W/m 16,0 C 22,2 C 11,3 km/h (2 Bft) 100,00 %
06.06.2018 19:37 22,1 C 25,6 C 69 % 1010,6 hPa 0,0 l/m 6,6 km/h (2 Bft) SO 142 0 min 0,000 mm 0,0 UV-I 53 W/m 16,1 C 22,0 C 11,3 km/h (2 Bft) 100,00 %
06.06.2018 19:38 22,1 C 25,6 C 69 % 1010,6 hPa 0,0 l/m 6,2 km/h (2 Bft) O-SO 121 0 min 0,000 mm 0,0 UV-I 52 W/m 16,1 C 22,1 C 8,0 km/h (2 Bft) 100,00 %
06.06.2018 19:39 22,1 C 25,6 C 68 % 1010,6 hPa 0,0 l/m 4,3 km/h (1 Bft) O-SO 117 0 min 0,000 mm 0,0 UV-I 51 W/m 15,9 C 22,1 C 6,4 km/h (2 Bft) 100,00 %
06.06.2018 19:40 22,1 C 25,6 C 68 % 1010,6 hPa 0,0 l/m 4,9 km/h (1 Bft) O-SO 117 0 min 0,000 mm 0,0 UV-I 49 W/m 15,9 C 22,1 C 9,7 km/h (2 Bft) 95,83 %
06.06.2018 19:41 22,1 C 25,6 C 69 % 1010,6 hPa 0,0 l/m 4,6 km/h (1 Bft) SO 140 0 min 0,000 mm 0,0 UV-I 49 W/m 16,1 C 22,1 C 6,4 km/h (2 Bft) 100,00 %
06.06.2018 19:42 22,1 C 25,6 C 69 % 1010,6 hPa 0,0 l/m 7,4 km/h (2 Bft) SO 142 0 min 0,000 mm 0,0 UV-I 48 W/m 16,1 C 21,8 C 12,9 km/h (3 Bft) 95,83 %
06.06.2018 19:43 22,1 C 25,6 C 69 % 1010,6 hPa 0,0 l/m 5,3 km/h (1 Bft) SO 131 0 min 0,000 mm 0,0 UV-I 47 W/m 16,1 C 22,1 C 8,0 km/h (2 Bft) 95,65 %
06.06.2018 19:44 22,1 C 25,6 C 69 % 1010,6 hPa 0,0 l/m 8,0 km/h (2 Bft) SO 126 0 min 0,000 mm 0,0 UV-I 46 W/m 16,1 C 21,6 C 12,9 km/h (3 Bft) 95,83 %
06.06.2018 19:45 22,1 C 25,6 C 69 % 1010,6 hPa 0,0 l/m 7,1 km/h (2 Bft) O-SO 116 0 min 0,000 mm 0,0 UV-I 44 W/m 16,1 C 21,9 C 11,3 km/h (2 Bft) 100,00 %
06.06.2018 19:46 22,0 C 25,6 C 69 % 1010,6 hPa 0,0 l/m 6,4 km/h (2 Bft) O-SO 112 0 min 0,000 mm 0,0 UV-I 44 W/m 16,0 C 22,0 C 9,7 km/h (2 Bft) 95,65 %
06.06.2018 19:47 22,0 C 25,6 C 69 % 1010,7 hPa 0,0 l/m 8,8 km/h (2 Bft) SO 130 0 min 0,000 mm 0,0 UV-I 42 W/m 16,0 C 21,2 C 11,3 km/h (2 Bft) 95,83 %
06.06.2018 19:48 22,0 C 25,6 C 69 % 1010,6 hPa 0,0 l/m 8,4 km/h (2 Bft) O-SO 120 0 min 0,000 mm 0,0 UV-I 42 W/m 16,0 C 21,3 C 11,3 km/h (2 Bft) 100,00 %
06.06.2018 19:49 22,0 C 25,6 C 69 % 1010,6 hPa 0,0 l/m 6,0 km/h (2 Bft) SO 137 0 min 0,000 mm 0,0 UV-I 41 W/m 16,0 C 22,0 C 11,3 km/h (2 Bft) 95,83 %
06.06.2018 19:50 22,0 C 25,6 C 69 % 1010,7 hPa 0,0 l/m 5,5 km/h (1 Bft) SO 128 0 min 0,000 mm 0,0 UV-I 40 W/m 16,0 C 22,0 C 6,4 km/h (2 Bft) 100,00 %
06.06.2018 19:51 22,0 C 25,6 C 69 % 1010,7 hPa 0,0 l/m 5,3 km/h (1 Bft) SO 126 0 min 0,000 mm 0,0 UV-I 39 W/m 16,0 C 22,0 C 8,0 km/h (2 Bft) 95,83 %
06.06.2018 19:52 22,0 C 25,6 C 69 % 1010,7 hPa 0,0 l/m 4,8 km/h (1 Bft) SO 136 0 min 0,000 mm 0,0 UV-I 38 W/m 16,0 C 22,0 C 8,0 km/h (2 Bft) 100,00 %
06.06.2018 19:53 22,0 C 25,6 C 69 % 1010,7 hPa 0,0 l/m 5,2 km/h (1 Bft) SO 128 0 min 0,000 mm 0,0 UV-I 37 W/m 16,0 C 22,0 C 8,0 km/h (2 Bft) 91,67 %
06.06.2018 19:54 22,0 C 25,6 C 69 % 1010,7 hPa 0,0 l/m 5,3 km/h (1 Bft) SO 140 0 min 0,000 mm 0,0 UV-I 36 W/m 16,0 C 22,0 C 6,4 km/h (2 Bft) 96,77 %
06.06.2018 19:55 22,0 C 25,6 C 69 % 1010,7 hPa 0,0 l/m 7,1 km/h (2 Bft) SO 125 0 min 0,000 mm 0,0 UV-I 35 W/m 16,0 C 21,8 C 12,9 km/h (3 Bft) 95,83 %
06.06.2018 19:56 22,0 C 25,6 C 69 % 1010,7 hPa 0,0 l/m 7,3 km/h (2 Bft) SO 138 0 min 0,000 mm 0,0 UV-I 35 W/m 16,0 C 21,7 C 11,3 km/h (2 Bft) 95,65 %
06.06.2018 19:57 21,9 C 25,6 C 69 % 1010,7 hPa 0,0 l/m 5,7 km/h (1 Bft) O-SO 111 0 min 0,000 mm 0,0 UV-I 33 W/m 15,9 C 21,9 C 6,4 km/h (2 Bft) 100,00 %
06.06.2018 19:58 21,9 C 25,6 C 69 % 1010,7 hPa 0,0 l/m 2,8 km/h (1 Bft) O-SO 123 0 min 0,000 mm 0,0 UV-I 33 W/m 15,9 C 21,9 C 4,8 km/h (1 Bft) 100,00 %
06.06.2018 19:59 21,9 C 25,6 C 69 % 1010,7 hPa 0,0 l/m 4,8 km/h (1 Bft) O-SO 121 0 min 0,000 mm 0,0 UV-I 33 W/m 15,9 C 21,9 C 6,4 km/h (2 Bft) 95,83 %
06.06.2018 20:00 21,9 C 25,6 C 70 % 1010,8 hPa 0,0 l/m 5,2 km/h (1 Bft) SO 135 0 min 0,000 mm 0,0 UV-I 32 W/m 16,2 C 21,9 C 6,4 km/h (2 Bft) 95,83 %
06.06.2018 20:01 21,9 C 25,6 C 70 % 1010,8 hPa 0,0 l/m 4,2 km/h (1 Bft) SO 134 0 min 0,076 mm 0,0 UV-I 32 W/m 16,2 C 21,9 C 6,4 km/h (2 Bft) 95,65 %
06.06.2018 20:03 21,8 C 25,6 C 70 % 1010,7 hPa 0,0 l/m 6,4 km/h (2 Bft) SO 146 0 min 0,000 mm 0,0 UV-I 30 W/m 16,1 C 21,8 C 9,7 km/h (2 Bft) 93,22 %
06.06.2018 20:04 21,8 C 25,6 C 70 % 1010,7 hPa 0,0 l/m 7,7 km/h (2 Bft) SO 140 0 min 0,000 mm 0,0 UV-I 29 W/m 16,1 C 21,3 C 12,9 km/h (3 Bft) 100,00 %
06.06.2018 20:05 21,8 C 25,6 C 70 % 1010,7 hPa 0,0 l/m 5,6 km/h (1 Bft) SO 134 0 min 0,000 mm 0,0 UV-I 28 W/m 16,1 C 21,8 C 8,0 km/h (2 Bft) 100,00 %
06.06.2018 20:06 21,8 C 25,6 C 70 % 1010,7 hPa 0,0 l/m 8,0 km/h (2 Bft) SO 145 0 min 0,000 mm 0,0 UV-I 28 W/m 16,1 C 21,2 C 12,9 km/h (3 Bft) 91,67 %
06.06.2018 20:07 21,8 C 25,6 C 70 % 1010,7 hPa 0,0 l/m 10,7 km/h (2 Bft) S-SO 157 0 min 0,000 mm 0,0 UV-I 27 W/m 16,1 C 20,4 C 14,5 km/h (3 Bft) 86,96 %
06.06.2018 20:08 21,8 C 25,6 C 70 % 1010,7 hPa 0,0 l/m 7,1 km/h (2 Bft) SO 137 0 min 0,000 mm 0,0 UV-I 26 W/m 16,1 C 21,6 C 12,9 km/h (3 Bft) 100,00 %
06.06.2018 20:09 21,8 C 25,6 C 70 % 1010,7 hPa 0,0 l/m 12,3 km/h (3 Bft) SO 142 0 min 0,000 mm 0,0 UV-I 26 W/m 16,1 C 20,0 C 14,5 km/h (3 Bft) 86,96 %
06.06.2018 20:10 21,7 C 25,6 C 70 % 1010,7 hPa 0,0 l/m 8,4 km/h (2 Bft) SO 130 0 min 0,000 mm 0,0 UV-I 25 W/m 16,0 C 21,0 C 11,3 km/h (2 Bft) 100,00 %
06.06.2018 20:11 21,7 C 25,6 C 70 % 1010,7 hPa 0,0 l/m 6,8 km/h (2 Bft) SO 136 0 min 0,000 mm 0,0 UV-I 25 W/m 16,0 C 21,6 C 11,3 km/h (2 Bft) 95,65 %
06.06.2018 20:13 21,7 C 25,6 C 70 % 1010,7 hPa 0,0 l/m 8,6 km/h (2 Bft) S-SO 152 0 min 0,000 mm 0,0 UV-I 23 W/m 16,0 C 20,9 C 12,9 km/h (3 Bft) 95,74 %
06.06.2018 20:14 21,6 C 25,6 C 69 % 1010,7 hPa 0,0 l/m 9,8 km/h (2 Bft) S 179 0 min 0,000 mm 0,0 UV-I 23 W/m 15,7 C 20,5 C 14,5 km/h (3 Bft) 100,00 %
06.06.2018 20:15 21,6 C 25,6 C 70 % 1010,7 hPa 0,0 l/m 7,2 km/h (2 Bft) SO 138 0 min 0,000 mm 0,0 UV-I 21 W/m 15,9 C 21,3 C 12,9 km/h (3 Bft) 100,00 %
06.06.2018 20:16 21,6 C 25,6 C 69 % 1010,7 hPa 0,0 l/m 10,1 km/h (2 Bft) SO 131 0 min 0,000 mm 0,0 UV-I 21 W/m 15,7 C 20,4 C 17,7 km/h (3 Bft) 95,83 %
06.06.2018 20:18 21,5 C 25,6 C 70 % 1010,7 hPa 0,0 l/m 7,7 km/h (2 Bft) SO 144 0 min 0,000 mm 0,0 UV-I 20 W/m 15,8 C 21,0 C 14,5 km/h (3 Bft) 97,87 %
06.06.2018 20:19 21,4 C 25,6 C 70 % 1010,7 hPa 0,0 l/m 4,4 km/h (1 Bft) SO 146 0 min 0,000 mm 0,0 UV-I 19 W/m 15,7 C 21,4 C 6,4 km/h (2 Bft) 96,15 %
06.06.2018 20:20 21,4 C 25,6 C 70 % 1010,7 hPa 0,0 l/m 5,7 km/h (1 Bft) SO 127 0 min 0,000 mm 0,0 UV-I 19 W/m 15,7 C 21,4 C 8,0 km/h (2 Bft) 100,00 %
06.06.2018 20:21 21,4 C 25,6 C 70 % 1010,7 hPa 0,0 l/m 7,1 km/h (2 Bft) SO 143 0 min 0,000 mm 0,0 UV-I 19 W/m 15,7 C 21,1 C 11,3 km/h (2 Bft) 95,65 %
06.06.2018 20:23 21,4 C 25,6 C 70 % 1010,8 hPa 0,0 l/m 8,4 km/h (2 Bft) S-SO 148 0 min 0,000 mm 0,0 UV-I 18 W/m 15,7 C 20,7 C 14,5 km/h (3 Bft) 95,83 %
06.06.2018 20:24 21,4 C 25,6 C 70 % 1010,8 hPa 0,0 l/m 4,9 km/h (1 Bft) SO 146 0 min 0,000 mm 0,0 UV-I 18 W/m 15,7 C 21,4 C 6,4 km/h (2 Bft) 91,30 %
06.06.2018 20:25 21,4 C 25,6 C 70 % 1010,7 hPa 0,0 l/m 4,8 km/h (1 Bft) O-SO 117 0 min 0,000 mm 0,0 UV-I 16 W/m 15,7 C 21,4 C 6,4 km/h (2 Bft) 95,83 %
06.06.2018 20:26 21,4 C 25,6 C 70 % 1010,7 hPa 0,0 l/m 4,5 km/h (1 Bft) O-SO 119 0 min 0,000 mm 0,0 UV-I 16 W/m 15,7 C 21,4 C 11,3 km/h (2 Bft) 95,65 %
06.06.2018 20:28 21,4 C 25,6 C 70 % 1010,8 hPa 0,0 l/m 6,7 km/h (2 Bft) SO 130 0 min 0,000 mm 0,0 UV-I 16 W/m 15,7 C 21,3 C 11,3 km/h (2 Bft) 97,87 %
06.06.2018 20:29 21,4 C 25,6 C 70 % 1010,8 hPa 0,0 l/m 6,6 km/h (2 Bft) SO 132 0 min 0,000 mm 0,0 UV-I 14 W/m 15,7 C 21,3 C 11,3 km/h (2 Bft) 100,00 %
06.06.2018 20:30 21,3 C 25,6 C 70 % 1010,8 hPa 0,0 l/m 4,8 km/h (1 Bft) SO 125 0 min 0,000 mm 0,0 UV-I 14 W/m 15,6 C 21,3 C 8,0 km/h (2 Bft) 92,86 %
06.06.2018 20:31 21,4 C 25,6 C 70 % 1010,8 hPa 0,0 l/m 5,2 km/h (1 Bft) SO 127 0 min 0,000 mm 0,0 UV-I 14 W/m 15,7 C 21,4 C 8,0 km/h (2 Bft) 100,00 %
06.06.2018 20:33 21,4 C 25,6 C 70 % 1010,9 hPa 0,0 l/m 5,1 km/h (1 Bft) O-SO 123 0 min 0,000 mm 0,0 UV-I 14 W/m 15,7 C 21,4 C 9,7 km/h (2 Bft) 100,00 %
06.06.2018 20:34 21,3 C 25,6 C 70 % 1010,9 hPa 0,0 l/m 4,8 km/h (1 Bft) O-SO 105 0 min 0,000 mm 0,0 UV-I 12 W/m 15,6 C 21,3 C 8,0 km/h (2 Bft) 95,65 %
06.06.2018 20:35 21,3 C 25,6 C 70 % 1010,8 hPa 0,0 l/m 6,0 km/h (2 Bft) O-SO 108 0 min 0,000 mm 0,0 UV-I 12 W/m 15,6 C 21,3 C 9,7 km/h (2 Bft) 95,83 %
06.06.2018 20:36 21,3 C 25,6 C 71 % 1010,9 hPa 0,0 l/m 4,8 km/h (1 Bft) SO 129 0 min 0,000 mm 0,0 UV-I 12 W/m 15,8 C 21,3 C 11,3 km/h (2 Bft) 95,65 %
06.06.2018 20:38 21,3 C 25,6 C 71 % 1010,9 hPa 0,0 l/m 5,1 km/h (1 Bft) O-SO 104 0 min 0,000 mm 0,0 UV-I 12 W/m 15,8 C 21,3 C 8,0 km/h (2 Bft) 95,83 %
06.06.2018 20:39 21,2 C 25,6 C 71 % 1010,9 hPa 0,0 l/m 5,6 km/h (1 Bft) O 101 0 min 0,000 mm 0,0 UV-I 11 W/m 15,7 C 21,2 C 9,7 km/h (2 Bft) 96,15 %
06.06.2018 20:40 21,2 C 25,6 C 71 % 1010,9 hPa 0,0 l/m 4,9 km/h (1 Bft) O-SO 110 0 min 0,000 mm 0,0 UV-I 11 W/m 15,7 C 21,2 C 6,4 km/h (2 Bft) 100,00 %
06.06.2018 20:41 21,2 C 25,6 C 71 % 1010,9 hPa 0,0 l/m 3,4 km/h (1 Bft) O 84 0 min 0,000 mm 0,0 UV-I 11 W/m 15,7 C 21,2 C 4,8 km/h (1 Bft) 95,65 %
06.06.2018 20:42 21,2 C 25,6 C 71 % 1010,9 hPa 0,0 l/m 4,7 km/h (1 Bft) O 93 0 min 0,000 mm 0,0 UV-I 11 W/m 15,7 C 21,2 C 6,4 km/h (2 Bft) 100,00 %
06.06.2018 20:43 21,2 C 25,6 C 71 % 1010,9 hPa 0,0 l/m 4,5 km/h (1 Bft) O 93 0 min 0,000 mm 0,0 UV-I 9 W/m 15,7 C 21,2 C 6,4 km/h (2 Bft) 91,30 %
06.06.2018 20:44 21,1 C 25,6 C 71 % 1010,9 hPa 0,0 l/m 5,4 km/h (1 Bft) O-SO 105 0 min 0,000 mm 0,0 UV-I 9 W/m 15,6 C 21,1 C 6,4 km/h (2 Bft) 100,00 %
06.06.2018 20:45 21,1 C 25,6 C 71 % 1011,0 hPa 0,0 l/m 6,2 km/h (2 Bft) O-SO 115 0 min 0,000 mm 0,0 UV-I 9 W/m 15,6 C 21,1 C 9,7 km/h (2 Bft) 95,65 %
06.06.2018 20:46 21,1 C 25,6 C 71 % 1010,9 hPa 0,0 l/m 7,1 km/h (2 Bft) O-SO 103 0 min 0,000 mm 0,0 UV-I 9 W/m 15,6 C 20,8 C 9,7 km/h (2 Bft) 95,83 %
06.06.2018 20:47 21,0 C 25,6 C 72 % 1010,9 hPa 0,0 l/m 6,0 km/h (2 Bft) O-SO 112 1 min 0,000 mm 0,0 UV-I 9 W/m 15,8 C 21,0 C 9,7 km/h (2 Bft) 100,00 %
06.06.2018 20:48 21,0 C 25,6 C 72 % 1010,9 hPa 0,0 l/m 6,6 km/h (2 Bft) SO 128 0 min 0,000 mm 0,0 UV-I 8 W/m 15,8 C 20,9 C 9,7 km/h (2 Bft) 95,83 %
06.06.2018 20:49 21,0 C 25,6 C 72 % 1010,9 hPa 0,0 l/m 7,4 km/h (2 Bft) O-SO 107 0 min 0,000 mm 0,0 UV-I 7 W/m 15,8 C 20,6 C 9,7 km/h (2 Bft) 95,65 %
06.06.2018 20:50 21,0 C 25,6 C 72 % 1010,9 hPa 0,0 l/m 5,7 km/h (1 Bft) O-SO 115 0 min 0,000 mm 0,0 UV-I 7 W/m 15,8 C 21,0 C 9,7 km/h (2 Bft) 95,83 %
06.06.2018 20:51 21,1 C 25,6 C 72 % 1010,9 hPa 0,0 l/m 5,4 km/h (1 Bft) SO 141 0 min 0,000 mm 0,0 UV-I 7 W/m 15,8 C 21,1 C 6,4 km/h (2 Bft) 100,00 %
06.06.2018 20:52 21,1 C 25,6 C 72 % 1010,9 hPa 0,0 l/m 4,8 km/h (1 Bft) S-SO 153 0 min 0,000 mm 0,0 UV-I 7 W/m 15,8 C 21,1 C 8,0 km/h (2 Bft) 95,83 %
06.06.2018 20:53 21,1 C 25,6 C 72 % 1010,9 hPa 0,0 l/m 6,1 km/h (2 Bft) SO 142 0 min 0,000 mm 0,0 UV-I 7 W/m 15,8 C 21,1 C 8,0 km/h (2 Bft) 100,00 %
06.06.2018 20:54 21,1 C 25,6 C 72 % 1010,9 hPa 0,0 l/m 6,5 km/h (2 Bft) SO 132 0 min 0,000 mm 0,0 UV-I 6 W/m 15,8 C 21,1 C 11,3 km/h (2 Bft) 95,83 %
06.06.2018 20:55 21,0 C 25,6 C 72 % 1011,0 hPa 0,0 l/m 7,6 km/h (2 Bft) SO 135 0 min 0,000 mm 0,0 UV-I 5 W/m 15,8 C 20,5 C 11,3 km/h (2 Bft) 95,65 %
06.06.2018 20:56 21,0 C 25,6 C 72 % 1011,0 hPa 0,0 l/m 4,9 km/h (1 Bft) SO 134 0 min 0,000 mm 0,0 UV-I 5 W/m 15,8 C 21,0 C 8,0 km/h (2 Bft) 100,00 %
06.06.2018 20:57 20,9 C 25,6 C 72 % 1011,0 hPa 0,0 l/m 4,6 km/h (1 Bft) SO 137 0 min 0,000 mm 0,0 UV-I 5 W/m 15,7 C 20,9 C 6,4 km/h (2 Bft) 100,00 %
06.06.2018 20:58 20,9 C 25,6 C 72 % 1011,0 hPa 0,0 l/m 3,7 km/h (1 Bft) SO 138 0 min 0,000 mm 0,0 UV-I 5 W/m 15,7 C 20,9 C 4,8 km/h (1 Bft) 95,65 %
06.06.2018 20:59 20,9 C 25,6 C 72 % 1011,0 hPa 0,0 l/m 1,8 km/h (1 Bft) SO 137 0 min 0,000 mm 0,0 UV-I 5 W/m 15,7 C 20,9 C 3,2 km/h (1 Bft) 100,00 %
06.06.2018 21:00 20,9 C 25,6 C 72 % 1011,1 hPa 0,0 l/m 3,4 km/h (1 Bft) SO 137 0 min 0,000 mm 0,0 UV-I 5 W/m 15,7 C 20,9 C 4,8 km/h (1 Bft) 95,65 %
06.06.2018 21:01 20,9 C 25,6 C 72 % 1011,1 hPa 0,0 l/m 4,0 km/h (1 Bft) O-SO 110 0 min 0,051 mm 0,0 UV-I 5 W/m 15,7 C 20,9 C 4,8 km/h (1 Bft) 95,83 %
06.06.2018 21:03 20,8 C 25,6 C 72 % 1011,1 hPa 0,0 l/m 4,0 km/h (1 Bft) O-SO 115 0 min 0,000 mm 0,0 UV-I 5 W/m 15,6 C 20,8 C 6,4 km/h (2 Bft) 96,61 %
06.06.2018 21:04 20,8 C 25,6 C 73 % 1011,1 hPa 0,0 l/m 5,1 km/h (1 Bft) O-SO 120 0 min 0,000 mm 0,0 UV-I 5 W/m 15,8 C 20,8 C 6,4 km/h (2 Bft) 100,00 %
06.06.2018 21:05 20,8 C 25,6 C 73 % 1011,1 hPa 0,0 l/m 3,4 km/h (1 Bft) O-SO 119 0 min 0,000 mm 0,0 UV-I 5 W/m 15,8 C 20,8 C 4,8 km/h (1 Bft) 95,83 %
06.06.2018 21:06 20,8 C 25,6 C 73 % 1011,1 hPa 0,0 l/m 4,0 km/h (1 Bft) S-SO 153 0 min 0,000 mm 0,0 UV-I 5 W/m 15,8 C 20,8 C 6,4 km/h (2 Bft) 100,00 %
06.06.2018 21:07 20,8 C 25,6 C 73 % 1011,1 hPa 0,0 l/m 3,8 km/h (1 Bft) S-SO 153 0 min 0,000 mm 0,0 UV-I 0 W/m 15,8 C 20,8 C 4,8 km/h (1 Bft) 95,83 %
06.06.2018 21:08 20,8 C 25,6 C 73 % 1011,1 hPa 0,0 l/m 3,9 km/h (1 Bft) SO 142 0 min 0,000 mm 0,0 UV-I 0 W/m 15,8 C 20,8 C 4,8 km/h (1 Bft) 100,00 %
06.06.2018 21:09 20,9 C 25,6 C 73 % 1011,1 hPa 0,0 l/m 4,4 km/h (1 Bft) SO 142 0 min 0,000 mm 0,0 UV-I 0 W/m 15,9 C 20,9 C 6,4 km/h (2 Bft) 95,83 %
06.06.2018 21:10 20,9 C 25,6 C 73 % 1011,1 hPa 0,0 l/m 5,5 km/h (1 Bft) SO 142 0 min 0,000 mm 0,0 UV-I 0 W/m 15,9 C 20,9 C 6,4 km/h (2 Bft) 100,00 %
06.06.2018 21:11 20,8 C 25,6 C 73 % 1011,1 hPa 0,0 l/m 4,6 km/h (1 Bft) SO 142 0 min 0,000 mm 0,0 UV-I 0 W/m 15,8 C 20,8 C 6,4 km/h (2 Bft) 91,67 %
06.06.2018 21:12 20,8 C 25,6 C 72 % 1011,2 hPa 0,0 l/m 7,9 km/h (2 Bft) SO 134 0 min 0,000 mm 0,0 UV-I 0 W/m 15,6 C 20,2 C 11,3 km/h (2 Bft) 95,65 %
06.06.2018 21:13 20,8 C 25,6 C 72 % 1011,2 hPa 0,0 l/m 5,0 km/h (1 Bft) SO 134 0 min 0,000 mm 0,0 UV-I 0 W/m 15,6 C 20,8 C 6,4 km/h (2 Bft) 100,00 %
06.06.2018 21:14 20,7 C 25,6 C 73 % 1011,2 hPa 0,0 l/m 3,8 km/h (1 Bft) SO 134 0 min 0,000 mm 0,0 UV-I 0 W/m 15,7 C 20,7 C 4,8 km/h (1 Bft) 95,83 %
06.06.2018 21:15 20,7 C 25,6 C 73 % 1011,2 hPa 0,0 l/m 5,0 km/h (1 Bft) SO 134 0 min 0,000 mm 0,0 UV-I 0 W/m 15,7 C 20,7 C 8,0 km/h (2 Bft) 100,00 %
06.06.2018 21:16 20,7 C 25,6 C 73 % 1011,2 hPa 0,0 l/m 6,4 km/h (2 Bft) O-SO 104 0 min 0,000 mm 0,0 UV-I 0 W/m 15,7 C 20,7 C 9,7 km/h (2 Bft) 95,83 %
06.06.2018 21:18 20,6 C 25,6 C 73 % 1011,2 hPa 0,0 l/m 5,5 km/h (1 Bft) SO 125 0 min 0,000 mm 0,0 UV-I 0 W/m 15,6 C 20,6 C 8,0 km/h (2 Bft) 98,28 %
06.06.2018 21:19 20,6 C 25,6 C 73 % 1011,2 hPa 0,0 l/m 5,6 km/h (1 Bft) SO 133 0 min 0,000 mm 0,0 UV-I 0 W/m 15,6 C 20,6 C 6,4 km/h (2 Bft) 100,00 %
06.06.2018 21:20 20,6 C 25,6 C 73 % 1011,3 hPa 0,0 l/m 6,0 km/h (2 Bft) SO 140 0 min 0,000 mm 0,0 UV-I 0 W/m 15,6 C 20,6 C 8,0 km/h (2 Bft) 95,83 %
06.06.2018 21:21 20,6 C 25,6 C 73 % 1011,3 hPa 0,0 l/m 5,5 km/h (1 Bft) SO 143 0 min 0,000 mm 0,0 UV-I 0 W/m 15,6 C 20,6 C 6,4 km/h (2 Bft) 100,00 %
06.06.2018 21:23 20,7 C 25,6 C 73 % 1011,4 hPa 0,0 l/m 3,7 km/h (1 Bft) SO 127 0 min 0,000 mm 0,0 UV-I 0 W/m 15,7 C 20,7 C 6,4 km/h (2 Bft) 95,74 %
06.06.2018 21:24 20,7 C 25,6 C 73 % 1011,4 hPa 0,0 l/m 2,5 km/h (1 Bft) SO 129 0 min 0,000 mm 0,0 UV-I 0 W/m 15,7 C 20,7 C 4,8 km/h (1 Bft) 100,00 %
06.06.2018 21:25 20,7 C 25,6 C 73 % 1011,5 hPa 0,0 l/m 2,7 km/h (1 Bft) SO 130 0 min 0,000 mm 0,0 UV-I 0 W/m 15,7 C 20,7 C 4,8 km/h (1 Bft) 100,00 %
06.06.2018 21:26 20,7 C 25,6 C 73 % 1011,5 hPa 0,0 l/m 0,5 km/h (0 Bft) SO 130 0 min 0,000 mm 0,0 UV-I 0 W/m 15,7 C 20,7 C 1,6 km/h (1 Bft) 100,00 %
06.06.2018 21:27 20,7 C 25,6 C 73 % 1011,5 hPa 0,0 l/m 1,4 km/h (1 Bft) SO 130 0 min 0,000 mm 0,0 UV-I 0 W/m 15,7 C 20,7 C 3,2 km/h (1 Bft) 100,00 %
06.06.2018 21:28 20,7 C 25,6 C 73 % 1011,5 hPa 0,0 l/m 0,8 km/h (0 Bft) SO 130 0 min 0,000 mm 0,0 UV-I 0 W/m 15,7 C 20,7 C 1,6 km/h (1 Bft) 100,00 %
06.06.2018 21:29 20,7 C 25,6 C 73 % 1011,5 hPa 0,0 l/m 0,9 km/h (0 Bft) SO 130 0 min 0,000 mm 0,0 UV-I 0 W/m 15,7 C 20,7 C 3,2 km/h (1 Bft) 100,00 %
06.06.2018 21:30 20,6 C 25,6 C 73 % 1011,5 hPa 0,0 l/m 1,8 km/h (1 Bft) SO 130 0 min 0,000 mm 0,0 UV-I 0 W/m 15,6 C 20,6 C 3,2 km/h (1 Bft) 95,83 %
06.06.2018 21:31 20,6 C 25,6 C 73 % 1011,6 hPa 0,0 l/m 1,9 km/h (1 Bft) SO 130 0 min 0,000 mm 0,0 UV-I 0 W/m 15,6 C 20,6 C 3,2 km/h (1 Bft) 100,00 %
06.06.2018 21:32 20,5 C 25,6 C 73 % 1011,6 hPa 0,0 l/m 1,5 km/h (1 Bft) SO 130 0 min 0,000 mm 0,0 UV-I 0 W/m 15,5 C 20,5 C 3,2 km/h (1 Bft) 100,00 %
06.06.2018 21:33 20,5 C 25,6 C 73 % 1011,6 hPa 0,0 l/m 2,2 km/h (1 Bft) SO 130 0 min 0,000 mm 0,0 UV-I 0 W/m 15,5 C 20,5 C 3,2 km/h (1 Bft) 100,00 %
06.06.2018 21:34 20,6 C 25,6 C 73 % 1011,6 hPa 0,0 l/m 1,3 km/h (1 Bft) SO 130 0 min 0,000 mm 0,0 UV-I 0 W/m 15,6 C 20,6 C 3,2 km/h (1 Bft) 100,00 %
06.06.2018 21:35 20,6 C 25,6 C 73 % 1011,6 hPa 0,0 l/m 1,9 km/h (1 Bft) SO 130 0 min 0,000 mm 0,0 UV-I 0 W/m 15,6 C 20,6 C 3,2 km/h (1 Bft) 91,67 %
06.06.2018 21:36 20,5 C 25,6 C 74 % 1011,6 hPa 0,0 l/m 1,4 km/h (1 Bft) SO 130 0 min 0,000 mm 0,0 UV-I 0 W/m 15,7 C 20,5 C 3,2 km/h (1 Bft) 100,00 %
06.06.2018 21:37 20,4 C 25,6 C 73 % 1011,6 hPa 0,0 l/m 2,2 km/h (1 Bft) SO 130 0 min 0,000 mm 0,0 UV-I 0 W/m 15,4 C 20,4 C 3,2 km/h (1 Bft) 100,00 %
06.06.2018 21:38 20,4 C 25,6 C 73 % 1011,6 hPa 0,0 l/m 1,1 km/h (1 Bft) SO 130 0 min 0,000 mm 0,0 UV-I 0 W/m 15,4 C 20,4 C 3,2 km/h (1 Bft) 100,00 %
06.06.2018 21:39 20,5 C 25,6 C 73 % 1011,6 hPa 0,0 l/m 2,7 km/h (1 Bft) SO 130 0 min 0,000 mm 0,0 UV-I 0 W/m 15,5 C 20,5 C 3,2 km/h (1 Bft) 95,83 %
06.06.2018 21:40 20,5 C 25,6 C 73 % 1011,6 hPa 0,0 l/m 0,7 km/h (0 Bft) SO 130 0 min 0,000 mm 0,0 UV-I 0 W/m 15,5 C 20,5 C 1,6 km/h (1 Bft) 91,30 %
06.06.2018 21:41 20,4 C 25,6 C 73 % 1011,6 hPa 0,0 l/m 2,7 km/h (1 Bft) SO 130 0 min 0,000 mm 0,0 UV-I 0 W/m 15,4 C 20,4 C 3,2 km/h (1 Bft) 95,83 %
06.06.2018 21:42 20,4 C 25,6 C 73 % 1011,6 hPa 0,0 l/m 0,7 km/h (0 Bft) SO 130 0 min 0,000 mm 0,0 UV-I 0 W/m 15,4 C 20,4 C 3,2 km/h (1 Bft) 96,15 %
06.06.2018 21:43 20,3 C 25,6 C 74 % 1011,6 hPa 0,0 l/m 1,6 km/h (1 Bft) SO 130 0 min 0,000 mm 0,0 UV-I 0 W/m 15,5 C 20,3 C 3,2 km/h (1 Bft) 100,00 %
06.06.2018 21:44 20,3 C 25,6 C 74 % 1011,7 hPa 0,0 l/m 2,1 km/h (1 Bft) SO 130 0 min 0,000 mm 0,0 UV-I 0 W/m 15,5 C 20,3 C 3,2 km/h (1 Bft) 95,65 %
06.06.2018 21:45 20,2 C 25,6 C 74 % 1011,7 hPa 0,0 l/m 1,7 km/h (1 Bft) SO 130 0 min 0,000 mm 0,0 UV-I 0 W/m 15,4 C 20,2 C 3,2 km/h (1 Bft) 95,83 %
06.06.2018 21:46 20,2 C 25,6 C 74 % 1011,6 hPa 0,0 l/m 2,1 km/h (1 Bft) SO 130 0 min 0,000 mm 0,0 UV-I 0 W/m 15,4 C 20,2 C 3,2 km/h (1 Bft) 91,30 %
06.06.2018 21:48 20,1 C 25,6 C 75 % 1011,7 hPa 0,0 l/m 0,9 km/h (0 Bft) SO 130 0 min 0,000 mm 0,0 UV-I 0 W/m 15,5 C 20,1 C 1,6 km/h (1 Bft) 97,87 %
06.06.2018 21:49 20,1 C 25,6 C 75 % 1011,7 hPa 0,0 l/m 0,0 km/h (0 Bft) SO 130 0 min 0,000 mm 0,0 UV-I 0 W/m 15,5 C 20,1 C 0,0 km/h (0 Bft) 100,00 %
06.06.2018 21:50 20,0 C 25,6 C 75 % 1011,6 hPa 0,0 l/m 1,5 km/h (1 Bft) SO 130 0 min 0,000 mm 0,0 UV-I 0 W/m 15,4 C 20,0 C 3,2 km/h (1 Bft) 91,30 %
06.06.2018 21:51 20,1 C 25,6 C 75 % 1011,6 hPa 0,0 l/m 2,2 km/h (1 Bft) SO 130 0 min 0,000 mm 0,0 UV-I 0 W/m 15,5 C 20,1 C 4,8 km/h (1 Bft) 87,50 %
06.06.2018 21:53 20,1 C 25,6 C 75 % 1011,6 hPa 0,0 l/m 1,8 km/h (1 Bft) SO 130 0 min 0,000 mm 0,0 UV-I 0 W/m 15,5 C 20,1 C 3,2 km/h (1 Bft) 96,00 %
06.06.2018 21:54 20,0 C 25,6 C 75 % 1011,6 hPa 0,0 l/m 2,2 km/h (1 Bft) SO 130 0 min 0,000 mm 0,0 UV-I 0 W/m 15,4 C 20,0 C 3,2 km/h (1 Bft) 100,00 %
06.06.2018 21:55 19,9 C 25,6 C 75 % 1011,6 hPa 0,0 l/m 2,1 km/h (1 Bft) SO 130 0 min 0,000 mm 0,0 UV-I 0 W/m 15,3 C 19,9 C 3,2 km/h (1 Bft) 95,83 %
06.06.2018 21:56 20,0 C 25,6 C 75 % 1011,6 hPa 0,0 l/m 3,1 km/h (1 Bft) SO 130 0 min 0,000 mm 0,0 UV-I 0 W/m 15,4 C 20,0 C 4,8 km/h (1 Bft) 95,83 %
06.06.2018 21:58 20,1 C 25,6 C 75 % 1011,6 hPa 0,0 l/m 1,3 km/h (1 Bft) SO 130 0 min 0,000 mm 0,0 UV-I 0 W/m 15,5 C 20,1 C 3,2 km/h (1 Bft) 95,74 %
06.06.2018 21:59 20,1 C 25,6 C 75 % 1011,6 hPa 0,0 l/m 2,6 km/h (1 Bft) SO 130 0 min 0,000 mm 0,0 UV-I 0 W/m 15,5 C 20,1 C 3,2 km/h (1 Bft) 100,00 %
06.06.2018 22:00 20,1 C 25,6 C 75 % 1011,6 hPa 0,0 l/m 2,7 km/h (1 Bft) SO 130 0 min 0,000 mm 0,0 UV-I 0 W/m 15,5 C 20,1 C 3,2 km/h (1 Bft) 93,33 %
06.06.2018 22:02 20,1 C 25,6 C 75 % 1011,6 hPa 0,0 l/m 2,4 km/h (1 Bft) SO 130 0 min 0,025 mm 0,0 UV-I 0 W/m 15,5 C 20,1 C 3,2 km/h (1 Bft) 98,00 %
06.06.2018 22:03 20,2 C 25,6 C 74 % 1011,6 hPa 0,0 l/m 1,1 km/h (1 Bft) SO 130 0 min 0,000 mm 0,0 UV-I 0 W/m 15,4 C 20,2 C 1,6 km/h (1 Bft) 100,00 %
06.06.2018 22:04 20,1 C 25,6 C 75 % 1011,6 hPa 0,0 l/m 0,6 km/h (0 Bft) SO 130 0 min 0,000 mm 0,0 UV-I 0 W/m 15,5 C 20,1 C 3,2 km/h (1 Bft) 95,83 %
06.06.2018 22:05 20,0 C 25,6 C 75 % 1011,6 hPa 0,0 l/m 1,0 km/h (0 Bft) SO 130 0 min 0,000 mm 0,0 UV-I 0 W/m 15,4 C 20,0 C 3,2 km/h (1 Bft) 100,00 %
06.06.2018 22:06 19,9 C 25,6 C 75 % 1011,6 hPa 0,0 l/m 0,8 km/h (0 Bft) SO 130 0 min 0,000 mm 0,0 UV-I 0 W/m 15,3 C 19,9 C 1,6 km/h (1 Bft) 96,30 %
06.06.2018 22:08 19,8 C 25,6 C 75 % 1011,6 hPa 0,0 l/m 0,1 km/h (0 Bft) SO 130 0 min 0,000 mm 0,0 UV-I 0 W/m 15,2 C 19,8 C 1,6 km/h (1 Bft) 98,11 %
06.06.2018 22:09 19,7 C 25,6 C 76 % 1011,6 hPa 0,0 l/m 0,0 km/h (0 Bft) SO 130 0 min 0,000 mm 0,0 UV-I 0 W/m 15,3 C 19,7 C 0,0 km/h (0 Bft) 90,91 %
06.06.2018 22:10 19,7 C 25,6 C 76 % 1011,6 hPa 0,0 l/m 0,0 km/h (0 Bft) SO 130 0 min 0,000 mm 0,0 UV-I 0 W/m 15,3 C 19,7 C 0,0 km/h (0 Bft) 100,00 %
06.06.2018 22:11 19,6 C 25,6 C 76 % 1011,6 hPa 0,0 l/m 0,6 km/h (0 Bft) SO 130 0 min 0,000 mm 0,0 UV-I 0 W/m 15,2 C 19,6 C 3,2 km/h (1 Bft) 95,83 %
06.06.2018 22:12 19,5 C 25,6 C 76 % 1011,6 hPa 0,0 l/m 1,7 km/h (1 Bft) SO 130 0 min 0,000 mm 0,0 UV-I 0 W/m 15,2 C 19,5 C 3,2 km/h (1 Bft) 100,00 %
06.06.2018 22:13 19,3 C 25,6 C 77 % 1011,6 hPa 0,0 l/m 2,2 km/h (1 Bft) SO 130 0 min 0,000 mm 0,0 UV-I 0 W/m 15,2 C 19,3 C 3,2 km/h (1 Bft) 95,83 %
06.06.2018 22:14 19,2 C 25,6 C 77 % 1011,6 hPa 0,0 l/m 2,3 km/h (1 Bft) SO 130 0 min 0,000 mm 0,0 UV-I 0 W/m 15,1 C 19,2 C 3,2 km/h (1 Bft) 95,65 %
06.06.2018 22:15 19,1 C 25,6 C 78 % 1011,7 hPa 0,0 l/m 2,7 km/h (1 Bft) SO 130 0 min 0,000 mm 0,0 UV-I 0 W/m 15,2 C 19,1 C 3,2 km/h (1 Bft) 100,00 %
06.06.2018 22:16 19,0 C 25,6 C 78 % 1011,7 hPa 0,0 l/m 1,6 km/h (1 Bft) SO 130 0 min 0,000 mm 0,0 UV-I 0 W/m 15,1 C 19,0 C 1,6 km/h (1 Bft) 100,00 %
06.06.2018 22:17 19,0 C 25,6 C 79 % 1011,8 hPa 0,0 l/m 1,0 km/h (0 Bft) SO 130 0 min 0,000 mm 0,0 UV-I 0 W/m 15,3 C 19,0 C 1,6 km/h (1 Bft) 100,00 %
06.06.2018 22:18 19,0 C 25,6 C 79 % 1011,7 hPa 0,0 l/m 0,9 km/h (0 Bft) SO 130 0 min 0,000 mm 0,0 UV-I 0 W/m 15,3 C 19,0 C 1,6 km/h (1 Bft) 96,15 %
06.06.2018 22:19 19,1 C 25,6 C 79 % 1011,8 hPa 0,0 l/m 0,0 km/h (0 Bft) SO 130 0 min 0,000 mm 0,0 UV-I 0 W/m 15,4 C 19,1 C 0,0 km/h (0 Bft) 100,00 %
06.06.2018 22:20 19,1 C 25,6 C 79 % 1011,7 hPa 0,0 l/m 0,5 km/h (0 Bft) SO 130 0 min 0,000 mm 0,0 UV-I 0 W/m 15,4 C 19,1 C 1,6 km/h (1 Bft) 95,65 %
06.06.2018 22:21 19,1 C 25,6 C 78 % 1011,7 hPa 0,0 l/m 0,3 km/h (0 Bft) SO 130 0 min 0,000 mm 0,0 UV-I 0 W/m 15,2 C 19,1 C 1,6 km/h (1 Bft) 100,00 %
06.06.2018 22:22 19,2 C 25,6 C 78 % 1011,7 hPa 0,0 l/m 0,0 km/h (0 Bft) SO 130 0 min 0,000 mm 0,0 UV-I 0 W/m 15,3 C 19,2 C 0,0 km/h (0 Bft) 95,65 %
06.06.2018 22:23 19,2 C 25,6 C 78 % 1011,7 hPa 0,0 l/m 0,1 km/h (0 Bft) SO 130 0 min 0,000 mm 0,0 UV-I 0 W/m 15,3 C 19,2 C 1,6 km/h (1 Bft) 100,00 %
06.06.2018 22:24 19,2 C 25,6 C 78 % 1011,7 hPa 0,0 l/m 2,2 km/h (1 Bft) SO 130 0 min 0,000 mm 0,0 UV-I 0 W/m 15,3 C 19,2 C 3,2 km/h (1 Bft) 100,00 %
06.06.2018 22:25 19,2 C 25,6 C 79 % 1011,7 hPa 0,0 l/m 1,9 km/h (1 Bft) SO 130 0 min 0,000 mm 0,0 UV-I 0 W/m 15,5 C 19,2 C 3,2 km/h (1 Bft) 100,00 %
06.06.2018 22:26 19,2 C 25,6 C 78 % 1011,7 hPa 0,0 l/m 1,7 km/h (1 Bft) SO 130 0 min 0,000 mm 0,0 UV-I 0 W/m 15,3 C 19,2 C 3,2 km/h (1 Bft) 100,00 %
06.06.2018 22:27 19,2 C 25,6 C 78 % 1011,8 hPa 0,0 l/m 1,8 km/h (1 Bft) SO 130 0 min 0,000 mm 0,0 UV-I 0 W/m 15,3 C 19,2 C 3,2 km/h (1 Bft) 100,00 %
06.06.2018 22:28 19,1 C 25,6 C 79 % 1011,8 hPa 0,0 l/m 2,7 km/h (1 Bft) SO 130 0 min 0,000 mm 0,0 UV-I 0 W/m 15,4 C 19,1 C 3,2 km/h (1 Bft) 100,00 %
06.06.2018 22:29 19,1 C 25,6 C 79 % 1011,8 hPa 0,0 l/m 2,0 km/h (1 Bft) SO 130 0 min 0,000 mm 0,0 UV-I 0 W/m 15,4 C 19,1 C 3,2 km/h (1 Bft) 100,00 %
06.06.2018 22:30 19,0 C 25,6 C 79 % 1011,7 hPa 0,0 l/m 2,5 km/h (1 Bft) SO 130 0 min 0,000 mm 0,0 UV-I 0 W/m 15,3 C 19,0 C 3,2 km/h (1 Bft) 100,00 %
06.06.2018 22:31 19,0 C 25,0 C 80 % 1011,8 hPa 0,0 l/m 2,3 km/h (1 Bft) SO 130 0 min 0,000 mm 0,0 UV-I 0 W/m 15,5 C 19,0 C 3,2 km/h (1 Bft) 100,00 %
06.06.2018 22:33 18,9 C 25,6 C 80 % 1011,8 hPa 0,0 l/m 1,7 km/h (1 Bft) SO 130 0 min 0,000 mm 0,0 UV-I 0 W/m 15,4 C 18,9 C 3,2 km/h (1 Bft) 97,87 %
06.06.2018 22:34 18,9 C 25,6 C 80 % 1011,8 hPa 0,0 l/m 1,1 km/h (1 Bft) SO 130 0 min 0,000 mm 0,0 UV-I 0 W/m 15,4 C 18,9 C 1,6 km/h (1 Bft) 100,00 %
06.06.2018 22:35 18,8 C 25,0 C 79 % 1011,8 hPa 0,0 l/m 0,2 km/h (0 Bft) SO 130 0 min 0,000 mm 0,0 UV-I 0 W/m 15,1 C 18,8 C 1,6 km/h (1 Bft) 95,83 %
06.06.2018 22:36 18,6 C 25,0 C 79 % 1011,8 hPa 0,0 l/m 0,0 km/h (0 Bft) SO 130 0 min 0,000 mm 0,0 UV-I 0 W/m 14,9 C 18,6 C 0,0 km/h (0 Bft) 100,00 %
06.06.2018 22:37 18,4 C 25,6 C 80 % 1011,7 hPa 0,0 l/m 0,0 km/h (0 Bft) SO 130 0 min 0,000 mm 0,0 UV-I 0 W/m 14,9 C 18,4 C 0,0 km/h (0 Bft) 95,65 %
06.06.2018 22:38 18,3 C 25,6 C 81 % 1011,7 hPa 0,0 l/m 0,0 km/h (0 Bft) SO 130 0 min 0,000 mm 0,0 UV-I 0 W/m 15,0 C 18,3 C 0,0 km/h (0 Bft) 100,00 %
06.06.2018 22:39 18,2 C 25,0 C 81 % 1011,7 hPa 0,0 l/m 0,0 km/h (0 Bft) SO 130 0 min 0,000 mm 0,0 UV-I 0 W/m 14,9 C 18,2 C 0,0 km/h (0 Bft) 100,00 %
06.06.2018 22:40 18,2 C 25,0 C 81 % 1011,7 hPa 0,0 l/m 0,0 km/h (0 Bft) SO 130 0 min 0,000 mm 0,0 UV-I 0 W/m 14,9 C 18,2 C 0,0 km/h (0 Bft) 100,00 %
06.06.2018 22:41 18,2 C 25,0 C 82 % 1011,6 hPa 0,0 l/m 0,0 km/h (0 Bft) SO 130 0 min 0,000 mm 0,0 UV-I 0 W/m 15,1 C 18,2 C 0,0 km/h (0 Bft) 100,00 %
06.06.2018 22:42 18,3 C 25,0 C 81 % 1011,7 hPa 0,0 l/m 0,0 km/h (0 Bft) SO 130 0 min 0,000 mm 0,0 UV-I 0 W/m 15,0 C 18,3 C 0,0 km/h (0 Bft) 100,00 %
06.06.2018 22:43 18,3 C 25,0 C 81 % 1011,6 hPa 0,0 l/m 0,0 km/h (0 Bft) SO 130 0 min 0,000 mm 0,0 UV-I 0 W/m 15,0 C 18,3 C 0,0 km/h (0 Bft) 100,00 %
06.06.2018 22:44 18,3 C 25,0 C 81 % 1011,6 hPa 0,0 l/m 0,0 km/h (0 Bft) SO 130 0 min 0,000 mm 0,0 UV-I 0 W/m 15,0 C 18,3 C 0,0 km/h (0 Bft) 100,00 %
06.06.2018 22:45 18,3 C 25,6 C 81 % 1011,6 hPa 0,0 l/m 0,0 km/h (0 Bft) SO 130 0 min 0,000 mm 0,0 UV-I 0 W/m 15,0 C 18,3 C 0,0 km/h (0 Bft) 96,97 %
06.06.2018 22:46 18,4 C 25,6 C 81 % 1011,6 hPa 0,0 l/m 0,0 km/h (0 Bft) SO 130 0 min 0,000 mm 0,0 UV-I 0 W/m 15,1 C 18,4 C 0,0 km/h (0 Bft) 95,83 %
06.06.2018 22:47 18,4 C 25,0 C 81 % 1011,7 hPa 0,0 l/m 0,0 km/h (0 Bft) SO 130 0 min 0,000 mm 0,0 UV-I 0 W/m 15,1 C 18,4 C 0,0 km/h (0 Bft) 95,65 %
06.06.2018 22:48 18,5 C 25,0 C 81 % 1011,6 hPa 0,0 l/m 0,0 km/h (0 Bft) SO 130 0 min 0,000 mm 0,0 UV-I 0 W/m 15,2 C 18,5 C 0,0 km/h (0 Bft) 100,00 %
06.06.2018 22:49 18,6 C 25,0 C 80 % 1011,6 hPa 0,0 l/m 1,4 km/h (1 Bft) SO 130 0 min 0,000 mm 0,0 UV-I 0 W/m 15,1 C 18,6 C 3,2 km/h (1 Bft) 95,65 %
06.06.2018 22:50 18,6 C 25,0 C 80 % 1011,6 hPa 0,0 l/m 2,2 km/h (1 Bft) SO 130 0 min 0,000 mm 0,0 UV-I 0 W/m 15,1 C 18,6 C 3,2 km/h (1 Bft) 100,00 %
06.06.2018 22:51 18,4 C 25,0 C 80 % 1011,6 hPa 0,0 l/m 3,0 km/h (1 Bft) SO 130 0 min 0,000 mm 0,0 UV-I 0 W/m 14,9 C 18,4 C 4,8 km/h (1 Bft) 100,00 %
06.06.2018 22:52 18,3 C 25,0 C 80 % 1011,6 hPa 0,0 l/m 3,4 km/h (1 Bft) SO 130 0 min 0,000 mm 0,0 UV-I 0 W/m 14,8 C 18,3 C 4,8 km/h (1 Bft) 100,00 %
06.06.2018 22:53 18,1 C 25,0 C 80 % 1011,7 hPa 0,0 l/m 3,9 km/h (1 Bft) SO 130 0 min 0,000 mm 0,0 UV-I 0 W/m 14,6 C 18,1 C 4,8 km/h (1 Bft) 100,00 %
06.06.2018 22:54 17,9 C 25,0 C 81 % 1011,6 hPa 0,0 l/m 4,3 km/h (1 Bft) SO 130 0 min 0,000 mm 0,0 UV-I 0 W/m 14,6 C 17,9 C 4,8 km/h (1 Bft) 100,00 %
06.06.2018 22:55 17,8 C 25,0 C 81 % 1011,6 hPa 0,0 l/m 4,2 km/h (1 Bft) SO 130 0 min 0,000 mm 0,0 UV-I 0 W/m 14,5 C 17,8 C 4,8 km/h (1 Bft) 100,00 %
06.06.2018 22:56 17,7 C 25,0 C 83 % 1011,6 hPa 0,0 l/m 3,5 km/h (1 Bft) SO 130 0 min 0,000 mm 0,0 UV-I 0 W/m 14,8 C 17,7 C 4,8 km/h (1 Bft) 100,00 %
06.06.2018 22:58 17,7 C 25,0 C 83 % 1011,6 hPa 0,0 l/m 3,4 km/h (1 Bft) SO 130 0 min 0,000 mm 0,0 UV-I 0 W/m 14,8 C 17,7 C 4,8 km/h (1 Bft) 100,00 %
06.06.2018 22:59 17,6 C 25,0 C 83 % 1011,6 hPa 0,0 l/m 3,5 km/h (1 Bft) SO 130 0 min 0,000 mm 0,0 UV-I 0 W/m 14,7 C 17,6 C 4,8 km/h (1 Bft) 100,00 %
06.06.2018 23:00 17,7 C 25,0 C 83 % 1011,7 hPa 0,0 l/m 2,7 km/h (1 Bft) SO 130 0 min 0,000 mm 0,0 UV-I 0 W/m 14,8 C 17,7 C 3,2 km/h (1 Bft) 95,65 %
06.06.2018 23:02 17,8 C 25,0 C 83 % 1011,7 hPa 0,0 l/m 2,3 km/h (1 Bft) SO 130 0 min 0,000 mm 0,0 UV-I 0 W/m 14,9 C 17,8 C 3,2 km/h (1 Bft) 100,00 %
06.06.2018 23:03 17,9 C 25,0 C 82 % 1011,6 hPa 0,0 l/m 2,3 km/h (1 Bft) SO 130 0 min 0,000 mm 0,0 UV-I 0 W/m 14,8 C 17,9 C 3,2 km/h (1 Bft) 100,00 %
06.06.2018 23:04 17,9 C 25,0 C 82 % 1011,7 hPa 0,0 l/m 0,2 km/h (0 Bft) SO 130 0 min 0,000 mm 0,0 UV-I 0 W/m 14,8 C 17,9 C 1,6 km/h (1 Bft) 100,00 %
06.06.2018 23:05 17,9 C 25,0 C 82 % 1011,7 hPa 0,0 l/m 0,0 km/h (0 Bft) SO 130 0 min 0,000 mm 0,0 UV-I 0 W/m 14,8 C 17,9 C 0,0 km/h (0 Bft) 100,00 %
06.06.2018 23:06 17,9 C 25,0 C 82 % 1011,7 hPa 0,0 l/m 0,0 km/h (0 Bft) SO 130 0 min 0,000 mm 0,0 UV-I 0 W/m 14,8 C 17,9 C 0,0 km/h (0 Bft) 95,65 %
06.06.2018 23:07 17,9 C 25,0 C 82 % 1011,7 hPa 0,0 l/m 1,5 km/h (1 Bft) SO 130 0 min 0,000 mm 0,0 UV-I 0 W/m 14,8 C 17,9 C 3,2 km/h (1 Bft) 100,00 %
06.06.2018 23:08 18,0 C 25,0 C 82 % 1011,7 hPa 0,0 l/m 0,7 km/h (0 Bft) SO 130 0 min 0,000 mm 0,0 UV-I 0 W/m 14,9 C 18,0 C 1,6 km/h (1 Bft) 100,00 %
06.06.2018 23:09 18,0 C 25,0 C 82 % 1011,7 hPa 0,0 l/m 1,2 km/h (1 Bft) SO 130 0 min 0,000 mm 0,0 UV-I 0 W/m 14,9 C 18,0 C 1,6 km/h (1 Bft) 100,00 %
06.06.2018 23:10 18,1 C 25,0 C 82 % 1011,6 hPa 0,0 l/m 1,9 km/h (1 Bft) SO 130 0 min 0,000 mm 0,0 UV-I 0 W/m 15,0 C 18,1 C 3,2 km/h (1 Bft) 100,00 %
06.06.2018 23:11 18,1 C 25,0 C 81 % 1011,6 hPa 0,0 l/m 2,1 km/h (1 Bft) SO 130 0 min 0,000 mm 0,0 UV-I 0 W/m 14,8 C 18,1 C 3,2 km/h (1 Bft) 100,00 %
06.06.2018 23:13 18,0 C 25,0 C 81 % 1011,7 hPa 0,0 l/m 0,7 km/h (0 Bft) SO 130 0 min 0,000 mm 0,0 UV-I 0 W/m 14,7 C 18,0 C 1,6 km/h (1 Bft) 95,74 %
06.06.2018 23:14 17,9 C 25,0 C 81 % 1011,7 hPa 0,0 l/m 1,8 km/h (1 Bft) SO 130 0 min 0,000 mm 0,0 UV-I 0 W/m 14,6 C 17,9 C 3,2 km/h (1 Bft) 95,83 %
06.06.2018 23:15 17,9 C 25,0 C 82 % 1011,7 hPa 0,0 l/m 2,5 km/h (1 Bft) SO 130 0 min 0,000 mm 0,0 UV-I 0 W/m 14,8 C 17,9 C 3,2 km/h (1 Bft) 100,00 %
06.06.2018 23:16 17,9 C 25,0 C 82 % 1011,8 hPa 0,0 l/m 2,4 km/h (1 Bft) SO 130 0 min 0,000 mm 0,0 UV-I 0 W/m 14,8 C 17,9 C 3,2 km/h (1 Bft) 100,00 %
06.06.2018 23:17 17,9 C 25,0 C 82 % 1011,7 hPa 0,0 l/m 2,8 km/h (1 Bft) SO 130 0 min 0,000 mm 0,0 UV-I 0 W/m 14,8 C 17,9 C 3,2 km/h (1 Bft) 100,00 %
06.06.2018 23:18 17,9 C 25,0 C 82 % 1011,8 hPa 0,0 l/m 2,9 km/h (1 Bft) SO 130 0 min 0,000 mm 0,0 UV-I 0 W/m 14,8 C 17,9 C 4,8 km/h (1 Bft) 100,00 %
06.06.2018 23:19 17,9 C 25,0 C 82 % 1011,8 hPa 0,0 l/m 3,2 km/h (1 Bft) S-SW 196 0 min 0,000 mm 0,0 UV-I 0 W/m 14,8 C 17,9 C 4,8 km/h (1 Bft) 100,00 %
06.06.2018 23:20 17,8 C 25,0 C 83 % 1011,9 hPa 0,0 l/m 3,8 km/h (1 Bft) S-SW 196 0 min 0,000 mm 0,0 UV-I 0 W/m 14,9 C 17,8 C 4,8 km/h (1 Bft) 100,00 %
06.06.2018 23:21 17,8 C 25,0 C 82 % 1011,8 hPa 0,0 l/m 2,3 km/h (1 Bft) S-SW 196 0 min 0,000 mm 0,0 UV-I 0 W/m 14,7 C 17,8 C 4,8 km/h (1 Bft) 95,65 %
06.06.2018 23:22 17,7 C 25,0 C 82 % 1011,9 hPa 0,0 l/m 2,3 km/h (1 Bft) S-SW 196 0 min 0,000 mm 0,0 UV-I 0 W/m 14,6 C 17,7 C 3,2 km/h (1 Bft) 100,00 %
06.06.2018 23:23 17,6 C 25,0 C 83 % 1011,9 hPa 0,0 l/m 2,8 km/h (1 Bft) S-SW 196 0 min 0,000 mm 0,0 UV-I 0 W/m 14,7 C 17,6 C 3,2 km/h (1 Bft) 100,00 %
06.06.2018 23:24 17,6 C 25,0 C 83 % 1011,9 hPa 0,0 l/m 1,9 km/h (1 Bft) S-SW 196 0 min 0,000 mm 0,0 UV-I 0 W/m 14,7 C 17,6 C 3,2 km/h (1 Bft) 100,00 %
06.06.2018 23:25 17,6 C 25,0 C 84 % 1011,9 hPa 0,0 l/m 1,7 km/h (1 Bft) S-SW 196 0 min 0,000 mm 0,0 UV-I 0 W/m 14,9 C 17,6 C 3,2 km/h (1 Bft) 100,00 %
06.06.2018 23:26 17,6 C 25,0 C 84 % 1011,9 hPa 0,0 l/m 2,5 km/h (1 Bft) S-SW 196 0 min 0,000 mm 0,0 UV-I 0 W/m 14,9 C 17,6 C 3,2 km/h (1 Bft) 100,00 %
06.06.2018 23:27 17,5 C 25,0 C 84 % 1011,9 hPa 0,0 l/m 3,0 km/h (1 Bft) S-SW 196 0 min 0,000 mm 0,0 UV-I 0 W/m 14,8 C 17,5 C 3,2 km/h (1 Bft) 100,00 %
06.06.2018 23:28 17,4 C 25,0 C 83 % 1011,9 hPa 0,0 l/m 3,2 km/h (1 Bft) S-SW 196 0 min 0,000 mm 0,0 UV-I 0 W/m 14,5 C 17,4 C 4,8 km/h (1 Bft) 100,00 %
06.06.2018 23:29 17,4 C 25,0 C 84 % 1012,0 hPa 0,0 l/m 4,0 km/h (1 Bft) S-SW 197 0 min 0,000 mm 0,0 UV-I 0 W/m 14,7 C 17,4 C 4,8 km/h (1 Bft) 100,00 %
06.06.2018 23:30 17,4 C 25,0 C 84 % 1012,0 hPa 0,0 l/m 3,4 km/h (1 Bft) S-SW 208 0 min 0,000 mm 0,0 UV-I 0 W/m 14,7 C 17,4 C 4,8 km/h (1 Bft) 100,00 %
06.06.2018 23:31 17,5 C 25,0 C 84 % 1012,0 hPa 0,0 l/m 3,1 km/h (1 Bft) S-SW 208 0 min 0,000 mm 0,0 UV-I 0 W/m 14,8 C 17,5 C 4,8 km/h (1 Bft) 100,00 %
06.06.2018 23:32 17,5 C 25,0 C 84 % 1012,0 hPa 0,0 l/m 3,8 km/h (1 Bft) S-SW 208 0 min 0,000 mm 0,0 UV-I 0 W/m 14,8 C 17,5 C 4,8 km/h (1 Bft) 95,65 %
06.06.2018 23:33 17,5 C 25,0 C 84 % 1012,0 hPa 0,0 l/m 3,7 km/h (1 Bft) S-SW 208 0 min 0,000 mm 0,0 UV-I 0 W/m 14,8 C 17,5 C 4,8 km/h (1 Bft) 95,83 %
06.06.2018 23:34 17,6 C 25,0 C 84 % 1012,0 hPa 0,0 l/m 2,5 km/h (1 Bft) S-SW 208 0 min 0,000 mm 0,0 UV-I 0 W/m 14,9 C 17,6 C 4,8 km/h (1 Bft) 100,00 %
06.06.2018 23:35 17,6 C 25,0 C 84 % 1012,1 hPa 0,0 l/m 2,1 km/h (1 Bft) S-SW 208 0 min 0,000 mm 0,0 UV-I 0 W/m 14,9 C 17,6 C 3,2 km/h (1 Bft) 100,00 %
06.06.2018 23:36 17,6 C 25,0 C 83 % 1012,1 hPa 0,0 l/m 1,9 km/h (1 Bft) S-SW 208 0 min 0,000 mm 0,0 UV-I 0 W/m 14,7 C 17,6 C 3,2 km/h (1 Bft) 95,65 %
06.06.2018 23:37 17,4 C 25,0 C 83 % 1012,1 hPa 0,0 l/m 0,5 km/h (0 Bft) S-SW 208 0 min 0,000 mm 0,0 UV-I 0 W/m 14,5 C 17,4 C 1,6 km/h (1 Bft) 95,83 %
06.06.2018 23:38 17,3 C 25,0 C 84 % 1012,1 hPa 0,0 l/m 0,0 km/h (0 Bft) S-SW 208 0 min 0,000 mm 0,0 UV-I 0 W/m 14,6 C 17,3 C 0,0 km/h (0 Bft) 95,65 %
06.06.2018 23:39 17,2 C 25,0 C 84 % 1012,1 hPa 0,0 l/m 0,0 km/h (0 Bft) S-SW 208 0 min 0,000 mm 0,0 UV-I 0 W/m 14,5 C 17,2 C 0,0 km/h (0 Bft) 95,83 %
06.06.2018 23:40 17,2 C 25,0 C 85 % 1012,1 hPa 0,0 l/m 0,0 km/h (0 Bft) S-SW 208 0 min 0,000 mm 0,0 UV-I 0 W/m 14,7 C 17,2 C 0,0 km/h (0 Bft) 95,65 %
06.06.2018 23:41 17,2 C 25,0 C 85 % 1012,2 hPa 0,0 l/m 1,4 km/h (1 Bft) S-SW 208 0 min 0,000 mm 0,0 UV-I 0 W/m 14,7 C 17,2 C 3,2 km/h (1 Bft) 95,83 %
06.06.2018 23:42 17,2 C 25,0 C 85 % 1012,1 hPa 0,0 l/m 0,7 km/h (0 Bft) S-SW 208 0 min 0,000 mm 0,0 UV-I 0 W/m 14,7 C 17,2 C 1,6 km/h (1 Bft) 91,30 %
06.06.2018 23:43 17,3 C 25,0 C 85 % 1012,1 hPa 0,0 l/m 0,0 km/h (0 Bft) S-SW 208 0 min 0,000 mm 0,0 UV-I 0 W/m 14,8 C 17,3 C 0,0 km/h (0 Bft) 95,83 %
06.06.2018 23:44 17,2 C 25,0 C 84 % 1012,1 hPa 0,0 l/m 0,0 km/h (0 Bft) S-SW 208 0 min 0,000 mm 0,0 UV-I 0 W/m 14,5 C 17,2 C 0,0 km/h (0 Bft) 95,65 %
06.06.2018 23:45 17,2 C 25,0 C 85 % 1012,1 hPa 0,0 l/m 0,0 km/h (0 Bft) S-SW 208 0 min 0,000 mm 0,0 UV-I 0 W/m 14,7 C 17,2 C 0,0 km/h (0 Bft) 100,00 %
06.06.2018 23:46 17,3 C 25,0 C 85 % 1012,1 hPa 0,0 l/m 0,0 km/h (0 Bft) S-SW 208 0 min 0,000 mm 0,0 UV-I 0 W/m 14,8 C 17,3 C 0,0 km/h (0 Bft) 95,83 %
06.06.2018 23:47 17,3 C 25,0 C 85 % 1012,1 hPa 0,0 l/m 0,0 km/h (0 Bft) S-SW 208 0 min 0,000 mm 0,0 UV-I 0 W/m 14,8 C 17,3 C 0,0 km/h (0 Bft) 100,00 %
06.06.2018 23:48 17,4 C 25,0 C 84 % 1012,1 hPa 0,0 l/m 1,8 km/h (1 Bft) S-SW 208 0 min 0,000 mm 0,0 UV-I 0 W/m 14,7 C 17,4 C 3,2 km/h (1 Bft) 91,67 %
06.06.2018 23:49 17,4 C 25,0 C 84 % 1012,1 hPa 0,0 l/m 2,1 km/h (1 Bft) S-SW 208 0 min 0,000 mm 0,0 UV-I 0 W/m 14,7 C 17,4 C 3,2 km/h (1 Bft) 100,00 %
06.06.2018 23:50 17,3 C 25,0 C 84 % 1012,1 hPa 0,0 l/m 3,1 km/h (1 Bft) S-SW 208 0 min 0,000 mm 0,0 UV-I 0 W/m 14,6 C 17,3 C 3,2 km/h (1 Bft) 95,83 %
06.06.2018 23:51 17,2 C 25,0 C 84 % 1012,1 hPa 0,0 l/m 2,4 km/h (1 Bft) S-SW 208 0 min 0,000 mm 0,0 UV-I 0 W/m 14,5 C 17,2 C 3,2 km/h (1 Bft) 100,00 %
06.06.2018 23:52 17,2 C 25,0 C 84 % 1012,1 hPa 0,0 l/m 2,3 km/h (1 Bft) S-SW 208 0 min 0,000 mm 0,0 UV-I 0 W/m 14,5 C 17,2 C 3,2 km/h (1 Bft) 95,83 %
06.06.2018 23:53 17,1 C 25,0 C 84 % 1012,1 hPa 0,0 l/m 3,6 km/h (1 Bft) S-SO 155 0 min 0,000 mm 0,0 UV-I 0 W/m 14,4 C 17,1 C 4,8 km/h (1 Bft) 95,65 %
06.06.2018 23:54 17,1 C 25,0 C 84 % 1012,1 hPa 0,0 l/m 3,8 km/h (1 Bft) S-SO 154 0 min 0,000 mm 0,0 UV-I 0 W/m 14,4 C 17,1 C 4,8 km/h (1 Bft) 100,00 %
06.06.2018 23:55 17,2 C 25,0 C 85 % 1012,1 hPa 0,0 l/m 2,8 km/h (1 Bft) S-SO 154 0 min 0,000 mm 0,0 UV-I 0 W/m 14,7 C 17,2 C 3,2 km/h (1 Bft) 91,30 %
06.06.2018 23:56 17,3 C 25,0 C 85 % 1012,1 hPa 0,0 l/m 3,6 km/h (1 Bft) O 88 0 min 0,000 mm 0,0 UV-I 0 W/m 14,8 C 17,3 C 6,4 km/h (2 Bft) 95,83 %
06.06.2018 23:57 17,4 C 25,0 C 85 % 1012,1 hPa 0,0 l/m 3,6 km/h (1 Bft) O 88 0 min 0,000 mm 0,0 UV-I 0 W/m 14,8 C 17,4 C 4,8 km/h (1 Bft) 86,96 %
06.06.2018 23:58 17,4 C 25,0 C 84 % 1012,1 hPa 0,0 l/m 3,3 km/h (1 Bft) O 88 0 min 0,000 mm 0,0 UV-I 0 W/m 14,7 C 17,4 C 4,8 km/h (1 Bft) 95,83 %
06.06.2018 23:59 17,5 C 25,0 C 84 % 1012,0 hPa 0,0 l/m 3,4 km/h (1 Bft) O 88 0 min 0,000 mm 0,0 UV-I 0 W/m 14,8 C 17,5 C 4,8 km/h (1 Bft) 91,30 %
_ Min-Zeit 05:35 06:56 13:34 00:18 - 21:49 - - - - - - 03:12 08:04 21:49 04:44
Minimum _ 16,2 C 24,4 C 46 % 1008,5 hPa - 0,0 km/h (0 Bft) - - - - - - 14,2 C 14,6 C 0,0 km/h (0 Bft) 78,26 %
_ Max-Zeit 14:02 15:27 05:37 23:41 00:00 14:11 - - 11:13 15:01 12:58 12:58 15:24 13:48 14:28 00:02
Maximum _ 28,3 C 26,1 C 90 % 1012,2 hPa 0,0 l/m 30,1 km/h
O (5 Bft)
- - 2 min 0,737 mm 5,8 UV-I 893 W/m 17,4 C 27,0 C 43,5 km/h
O (6 Bft)
100,00 %
Durchschnitt _ 21,6 C 25,3 C 70 % 1009,7 hPa #0,0 l/m 11,8 km/h (2 Bft) O - #11:12 h #6,223 mm 3,2 UV-I 447 W/m 15,6 C 20,4 C 16,5 km/h (3 Bft) 97,67 %